<?xml version="1.0" encoding="UTF-8" standalone="no" ?>
<gpx xmlns="http://www.topografix.com/GPX/1/1" xmlns:xsi="http://www.w3.org/2001/XMLSchema-instance" xsi:schemaLocation="http://www.topografix.com/GPX/1/1 http://www.topografix.com/GPX/1/1/gpx.xsd" version="1.1" creator="VisuGPX - https://www.visugpx.com">
  <metadata>
    <name>st didier - 60 km </name>
    <desc><![CDATA[circuit vtt - saint didier
au départ de saint didier vers  chateaubourg, circuit assez long de 60 km]]></desc>
  </metadata>
  <trk>
    <name><![CDATA[st didier 62 km]]></name>
    <trkseg>
      <trkpt lat="48.09699" lon="-1.37102">
        <ele>64</ele>
        <time>2010-08-01T05:25:38Z</time>
      </trkpt>
      <trkpt lat="48.09703" lon="-1.37107">
        <ele>63</ele>
        <time>2010-08-01T05:25:40Z</time>
      </trkpt>
      <trkpt lat="48.09708" lon="-1.37105">
        <ele>63</ele>
        <time>2010-08-01T05:25:43Z</time>
      </trkpt>
      <trkpt lat="48.09718" lon="-1.37099">
        <ele>64</ele>
        <time>2010-08-01T05:25:46Z</time>
      </trkpt>
      <trkpt lat="48.09724" lon="-1.37096">
        <ele>64</ele>
        <time>2010-08-01T05:25:48Z</time>
      </trkpt>
      <trkpt lat="48.09728" lon="-1.37093">
        <ele>64</ele>
        <time>2010-08-01T05:25:50Z</time>
      </trkpt>
      <trkpt lat="48.09741" lon="-1.37092">
        <ele>64</ele>
        <time>2010-08-01T05:25:55Z</time>
      </trkpt>
      <trkpt lat="48.09751" lon="-1.3709">
        <ele>65</ele>
        <time>2010-08-01T05:25:58Z</time>
      </trkpt>
      <trkpt lat="48.09773" lon="-1.37083">
        <ele>66</ele>
        <time>2010-08-01T05:26:03Z</time>
      </trkpt>
      <trkpt lat="48.09779" lon="-1.37082">
        <ele>66</ele>
        <time>2010-08-01T05:26:04Z</time>
      </trkpt>
      <trkpt lat="48.09786" lon="-1.3708">
        <ele>66</ele>
        <time>2010-08-01T05:26:07Z</time>
      </trkpt>
      <trkpt lat="48.09794" lon="-1.37078">
        <ele>67</ele>
        <time>2010-08-01T05:26:08Z</time>
      </trkpt>
      <trkpt lat="48.098" lon="-1.37075">
        <ele>67</ele>
        <time>2010-08-01T05:26:10Z</time>
      </trkpt>
      <trkpt lat="48.09811" lon="-1.37073">
        <ele>67</ele>
        <time>2010-08-01T05:26:15Z</time>
      </trkpt>
      <trkpt lat="48.0983" lon="-1.37083">
        <ele>66</ele>
        <time>2010-08-01T05:26:20Z</time>
      </trkpt>
      <trkpt lat="48.09851" lon="-1.37096">
        <ele>63</ele>
        <time>2010-08-01T05:26:23Z</time>
      </trkpt>
      <trkpt lat="48.09858" lon="-1.37096">
        <ele>63</ele>
        <time>2010-08-01T05:26:24Z</time>
      </trkpt>
      <trkpt lat="48.09865" lon="-1.37098">
        <ele>63</ele>
        <time>2010-08-01T05:26:26Z</time>
      </trkpt>
      <trkpt lat="48.09886" lon="-1.37092">
        <ele>63</ele>
        <time>2010-08-01T05:26:30Z</time>
      </trkpt>
      <trkpt lat="48.09902" lon="-1.37089">
        <ele>63</ele>
        <time>2010-08-01T05:26:33Z</time>
      </trkpt>
      <trkpt lat="48.09926" lon="-1.3709">
        <ele>62</ele>
        <time>2010-08-01T05:26:35Z</time>
      </trkpt>
      <trkpt lat="48.09932" lon="-1.37091">
        <ele>62</ele>
        <time>2010-08-01T05:26:36Z</time>
      </trkpt>
      <trkpt lat="48.09949" lon="-1.371">
        <ele>59</ele>
        <time>2010-08-01T05:26:38Z</time>
      </trkpt>
      <trkpt lat="48.09954" lon="-1.37097">
        <ele>60</ele>
        <time>2010-08-01T05:26:40Z</time>
      </trkpt>
      <trkpt lat="48.09962" lon="-1.37099">
        <ele>59</ele>
        <time>2010-08-01T05:26:41Z</time>
      </trkpt>
      <trkpt lat="48.09967" lon="-1.37097">
        <ele>59</ele>
        <time>2010-08-01T05:26:42Z</time>
      </trkpt>
      <trkpt lat="48.09967" lon="-1.3709">
        <ele>60</ele>
        <time>2010-08-01T05:26:43Z</time>
      </trkpt>
      <trkpt lat="48.09969" lon="-1.37089">
        <ele>60</ele>
        <time>2010-08-01T05:26:46Z</time>
      </trkpt>
      <trkpt lat="48.09971" lon="-1.37092">
        <ele>60</ele>
        <time>2010-08-01T05:26:47Z</time>
      </trkpt>
      <trkpt lat="48.09978" lon="-1.37105">
        <ele>58</ele>
        <time>2010-08-01T05:26:49Z</time>
      </trkpt>
      <trkpt lat="48.09981" lon="-1.37113">
        <ele>56</ele>
        <time>2010-08-01T05:26:50Z</time>
      </trkpt>
      <trkpt lat="48.09987" lon="-1.37135">
        <ele>55</ele>
        <time>2010-08-01T05:26:52Z</time>
      </trkpt>
      <trkpt lat="48.09988" lon="-1.37149">
        <ele>56</ele>
        <time>2010-08-01T05:26:54Z</time>
      </trkpt>
      <trkpt lat="48.09988" lon="-1.37155">
        <ele>57</ele>
        <time>2010-08-01T05:26:55Z</time>
      </trkpt>
      <trkpt lat="48.09982" lon="-1.37157">
        <ele>57</ele>
        <time>2010-08-01T05:26:59Z</time>
      </trkpt>
      <trkpt lat="48.09974" lon="-1.37158">
        <ele>58</ele>
        <time>2010-08-01T05:27:01Z</time>
      </trkpt>
      <trkpt lat="48.09971" lon="-1.37159">
        <ele>58</ele>
        <time>2010-08-01T05:27:02Z</time>
      </trkpt>
      <trkpt lat="48.09968" lon="-1.37161">
        <ele>58</ele>
        <time>2010-08-01T05:27:03Z</time>
      </trkpt>
      <trkpt lat="48.09954" lon="-1.37169">
        <ele>59</ele>
        <time>2010-08-01T05:27:08Z</time>
      </trkpt>
      <trkpt lat="48.09956" lon="-1.37173">
        <ele>60</ele>
        <time>2010-08-01T05:27:10Z</time>
      </trkpt>
      <trkpt lat="48.09958" lon="-1.37178">
        <ele>60</ele>
        <time>2010-08-01T05:27:11Z</time>
      </trkpt>
      <trkpt lat="48.0996" lon="-1.37179">
        <ele>60</ele>
        <time>2010-08-01T05:27:13Z</time>
      </trkpt>
      <trkpt lat="48.09961" lon="-1.37179">
        <ele>60</ele>
        <time>2010-08-01T05:27:14Z</time>
      </trkpt>
      <trkpt lat="48.09963" lon="-1.3718">
        <ele>60</ele>
        <time>2010-08-01T05:27:15Z</time>
      </trkpt>
      <trkpt lat="48.09965" lon="-1.37181">
        <ele>60</ele>
        <time>2010-08-01T05:27:16Z</time>
      </trkpt>
      <trkpt lat="48.0997" lon="-1.3718">
        <ele>60</ele>
        <time>2010-08-01T05:27:19Z</time>
      </trkpt>
      <trkpt lat="48.09974" lon="-1.37179">
        <ele>60</ele>
        <time>2010-08-01T05:27:21Z</time>
      </trkpt>
      <trkpt lat="48.09979" lon="-1.37181">
        <ele>60</ele>
        <time>2010-08-01T05:27:23Z</time>
      </trkpt>
      <trkpt lat="48.09989" lon="-1.37184">
        <ele>60</ele>
        <time>2010-08-01T05:27:26Z</time>
      </trkpt>
      <trkpt lat="48.0999" lon="-1.37184">
        <ele>60</ele>
        <time>2010-08-01T05:27:28Z</time>
      </trkpt>
      <trkpt lat="48.09995" lon="-1.37186">
        <ele>61</ele>
        <time>2010-08-01T05:27:30Z</time>
      </trkpt>
      <trkpt lat="48.09999" lon="-1.37189">
        <ele>61</ele>
        <time>2010-08-01T05:27:31Z</time>
      </trkpt>
      <trkpt lat="48.10001" lon="-1.37195">
        <ele>61</ele>
        <time>2010-08-01T05:27:34Z</time>
      </trkpt>
      <trkpt lat="48.10001" lon="-1.37202">
        <ele>62</ele>
        <time>2010-08-01T05:27:36Z</time>
      </trkpt>
      <trkpt lat="48.09999" lon="-1.37205">
        <ele>62</ele>
        <time>2010-08-01T05:27:37Z</time>
      </trkpt>
      <trkpt lat="48.09996" lon="-1.37209">
        <ele>63</ele>
        <time>2010-08-01T05:27:39Z</time>
      </trkpt>
      <trkpt lat="48.09992" lon="-1.37211">
        <ele>63</ele>
        <time>2010-08-01T05:27:40Z</time>
      </trkpt>
      <trkpt lat="48.0999" lon="-1.37212">
        <ele>63</ele>
        <time>2010-08-01T05:27:42Z</time>
      </trkpt>
      <trkpt lat="48.09982" lon="-1.37212">
        <ele>63</ele>
        <time>2010-08-01T05:27:45Z</time>
      </trkpt>
      <trkpt lat="48.09976" lon="-1.3721">
        <ele>63</ele>
        <time>2010-08-01T05:27:47Z</time>
      </trkpt>
      <trkpt lat="48.0997" lon="-1.37208">
        <ele>63</ele>
        <time>2010-08-01T05:27:49Z</time>
      </trkpt>
      <trkpt lat="48.09963" lon="-1.37207">
        <ele>63</ele>
        <time>2010-08-01T05:27:51Z</time>
      </trkpt>
      <trkpt lat="48.09957" lon="-1.37208">
        <ele>63</ele>
        <time>2010-08-01T05:27:53Z</time>
      </trkpt>
      <trkpt lat="48.09954" lon="-1.37208">
        <ele>63</ele>
        <time>2010-08-01T05:27:54Z</time>
      </trkpt>
      <trkpt lat="48.0995" lon="-1.37235">
        <ele>66</ele>
        <time>2010-08-01T05:28:00Z</time>
      </trkpt>
      <trkpt lat="48.09949" lon="-1.37244">
        <ele>66</ele>
        <time>2010-08-01T05:28:02Z</time>
      </trkpt>
      <trkpt lat="48.09947" lon="-1.37254">
        <ele>67</ele>
        <time>2010-08-01T05:28:04Z</time>
      </trkpt>
      <trkpt lat="48.09946" lon="-1.37263">
        <ele>68</ele>
        <time>2010-08-01T05:28:06Z</time>
      </trkpt>
      <trkpt lat="48.09945" lon="-1.37272">
        <ele>68</ele>
        <time>2010-08-01T05:28:08Z</time>
      </trkpt>
      <trkpt lat="48.09941" lon="-1.37301">
        <ele>69</ele>
        <time>2010-08-01T05:28:14Z</time>
      </trkpt>
      <trkpt lat="48.0994" lon="-1.37311">
        <ele>69</ele>
        <time>2010-08-01T05:28:16Z</time>
      </trkpt>
      <trkpt lat="48.09938" lon="-1.37321">
        <ele>69</ele>
        <time>2010-08-01T05:28:18Z</time>
      </trkpt>
      <trkpt lat="48.09937" lon="-1.37332">
        <ele>69</ele>
        <time>2010-08-01T05:28:20Z</time>
      </trkpt>
      <trkpt lat="48.09935" lon="-1.37343">
        <ele>69</ele>
        <time>2010-08-01T05:28:22Z</time>
      </trkpt>
      <trkpt lat="48.09928" lon="-1.37402">
        <ele>69</ele>
        <time>2010-08-01T05:28:33Z</time>
      </trkpt>
      <trkpt lat="48.09929" lon="-1.37407">
        <ele>69</ele>
        <time>2010-08-01T05:28:34Z</time>
      </trkpt>
      <trkpt lat="48.09935" lon="-1.37413">
        <ele>69</ele>
        <time>2010-08-01T05:28:36Z</time>
      </trkpt>
      <trkpt lat="48.09945" lon="-1.37415">
        <ele>68</ele>
        <time>2010-08-01T05:28:38Z</time>
      </trkpt>
      <trkpt lat="48.09987" lon="-1.37421">
        <ele>65</ele>
        <time>2010-08-01T05:28:44Z</time>
      </trkpt>
      <trkpt lat="48.09995" lon="-1.37422">
        <ele>64</ele>
        <time>2010-08-01T05:28:45Z</time>
      </trkpt>
      <trkpt lat="48.10011" lon="-1.37425">
        <ele>63</ele>
        <time>2010-08-01T05:28:47Z</time>
      </trkpt>
      <trkpt lat="48.10027" lon="-1.37428">
        <ele>61</ele>
        <time>2010-08-01T05:28:49Z</time>
      </trkpt>
      <trkpt lat="48.10045" lon="-1.37433">
        <ele>60</ele>
        <time>2010-08-01T05:28:51Z</time>
      </trkpt>
      <trkpt lat="48.10055" lon="-1.37435">
        <ele>59</ele>
        <time>2010-08-01T05:28:52Z</time>
      </trkpt>
      <trkpt lat="48.10074" lon="-1.37439">
        <ele>57</ele>
        <time>2010-08-01T05:28:54Z</time>
      </trkpt>
      <trkpt lat="48.10083" lon="-1.37442">
        <ele>56</ele>
        <time>2010-08-01T05:28:55Z</time>
      </trkpt>
      <trkpt lat="48.10103" lon="-1.37446">
        <ele>55</ele>
        <time>2010-08-01T05:28:56Z</time>
      </trkpt>
      <trkpt lat="48.10113" lon="-1.37449">
        <ele>54</ele>
        <time>2010-08-01T05:28:58Z</time>
      </trkpt>
      <trkpt lat="48.10132" lon="-1.37452">
        <ele>52</ele>
        <time>2010-08-01T05:29:00Z</time>
      </trkpt>
      <trkpt lat="48.10141" lon="-1.37454">
        <ele>51</ele>
        <time>2010-08-01T05:29:01Z</time>
      </trkpt>
      <trkpt lat="48.10151" lon="-1.37465">
        <ele>49</ele>
        <time>2010-08-01T05:29:02Z</time>
      </trkpt>
      <trkpt lat="48.10153" lon="-1.37473">
        <ele>48</ele>
        <time>2010-08-01T05:29:04Z</time>
      </trkpt>
      <trkpt lat="48.10148" lon="-1.37489">
        <ele>48</ele>
        <time>2010-08-01T05:29:06Z</time>
      </trkpt>
      <trkpt lat="48.10145" lon="-1.37496">
        <ele>48</ele>
        <time>2010-08-01T05:29:07Z</time>
      </trkpt>
      <trkpt lat="48.10141" lon="-1.37502">
        <ele>48</ele>
        <time>2010-08-01T05:29:08Z</time>
      </trkpt>
      <trkpt lat="48.10137" lon="-1.37506">
        <ele>48</ele>
        <time>2010-08-01T05:29:09Z</time>
      </trkpt>
      <trkpt lat="48.10134" lon="-1.37511">
        <ele>48</ele>
        <time>2010-08-01T05:29:10Z</time>
      </trkpt>
      <trkpt lat="48.10129" lon="-1.37521">
        <ele>48</ele>
        <time>2010-08-01T05:29:12Z</time>
      </trkpt>
      <trkpt lat="48.10122" lon="-1.37533">
        <ele>48</ele>
        <time>2010-08-01T05:29:15Z</time>
      </trkpt>
      <trkpt lat="48.10115" lon="-1.37544">
        <ele>49</ele>
        <time>2010-08-01T05:29:18Z</time>
      </trkpt>
      <trkpt lat="48.10107" lon="-1.37555">
        <ele>50</ele>
        <time>2010-08-01T05:29:22Z</time>
      </trkpt>
      <trkpt lat="48.10105" lon="-1.37561">
        <ele>50</ele>
        <time>2010-08-01T05:29:24Z</time>
      </trkpt>
      <trkpt lat="48.10103" lon="-1.37565">
        <ele>51</ele>
        <time>2010-08-01T05:29:26Z</time>
      </trkpt>
      <trkpt lat="48.10102" lon="-1.37569">
        <ele>51</ele>
        <time>2010-08-01T05:29:27Z</time>
      </trkpt>
      <trkpt lat="48.101" lon="-1.37572">
        <ele>51</ele>
        <time>2010-08-01T05:29:28Z</time>
      </trkpt>
      <trkpt lat="48.10096" lon="-1.3758">
        <ele>52</ele>
        <time>2010-08-01T05:29:30Z</time>
      </trkpt>
      <trkpt lat="48.10094" lon="-1.37584">
        <ele>52</ele>
        <time>2010-08-01T05:29:31Z</time>
      </trkpt>
      <trkpt lat="48.10093" lon="-1.37588">
        <ele>52</ele>
        <time>2010-08-01T05:29:32Z</time>
      </trkpt>
      <trkpt lat="48.10091" lon="-1.37592">
        <ele>52</ele>
        <time>2010-08-01T05:29:33Z</time>
      </trkpt>
      <trkpt lat="48.10087" lon="-1.37601">
        <ele>53</ele>
        <time>2010-08-01T05:29:34Z</time>
      </trkpt>
      <trkpt lat="48.10083" lon="-1.37613">
        <ele>53</ele>
        <time>2010-08-01T05:29:36Z</time>
      </trkpt>
      <trkpt lat="48.10078" lon="-1.37622">
        <ele>54</ele>
        <time>2010-08-01T05:29:41Z</time>
      </trkpt>
      <trkpt lat="48.10073" lon="-1.37631">
        <ele>54</ele>
        <time>2010-08-01T05:29:43Z</time>
      </trkpt>
      <trkpt lat="48.10067" lon="-1.37642">
        <ele>55</ele>
        <time>2010-08-01T05:29:45Z</time>
      </trkpt>
      <trkpt lat="48.10064" lon="-1.3765">
        <ele>55</ele>
        <time>2010-08-01T05:29:47Z</time>
      </trkpt>
      <trkpt lat="48.10061" lon="-1.37657">
        <ele>55</ele>
        <time>2010-08-01T05:29:49Z</time>
      </trkpt>
      <trkpt lat="48.10056" lon="-1.37677">
        <ele>55</ele>
        <time>2010-08-01T05:29:53Z</time>
      </trkpt>
      <trkpt lat="48.10054" lon="-1.37688">
        <ele>55</ele>
        <time>2010-08-01T05:29:55Z</time>
      </trkpt>
      <trkpt lat="48.10053" lon="-1.37697">
        <ele>55</ele>
        <time>2010-08-01T05:29:57Z</time>
      </trkpt>
      <trkpt lat="48.10052" lon="-1.37706">
        <ele>55</ele>
        <time>2010-08-01T05:29:59Z</time>
      </trkpt>
      <trkpt lat="48.10051" lon="-1.37712">
        <ele>55</ele>
        <time>2010-08-01T05:30:00Z</time>
      </trkpt>
      <trkpt lat="48.1005" lon="-1.37724">
        <ele>55</ele>
        <time>2010-08-01T05:30:02Z</time>
      </trkpt>
      <trkpt lat="48.10049" lon="-1.37736">
        <ele>55</ele>
        <time>2010-08-01T05:30:04Z</time>
      </trkpt>
      <trkpt lat="48.10048" lon="-1.37745">
        <ele>55</ele>
        <time>2010-08-01T05:30:05Z</time>
      </trkpt>
      <trkpt lat="48.10056" lon="-1.37771">
        <ele>53</ele>
        <time>2010-08-01T05:30:08Z</time>
      </trkpt>
      <trkpt lat="48.10068" lon="-1.37799">
        <ele>49</ele>
        <time>2010-08-01T05:30:11Z</time>
      </trkpt>
      <trkpt lat="48.10078" lon="-1.37821">
        <ele>48</ele>
        <time>2010-08-01T05:30:13Z</time>
      </trkpt>
      <trkpt lat="48.10088" lon="-1.37845">
        <ele>46</ele>
        <time>2010-08-01T05:30:15Z</time>
      </trkpt>
      <trkpt lat="48.10093" lon="-1.37857">
        <ele>46</ele>
        <time>2010-08-01T05:30:16Z</time>
      </trkpt>
      <trkpt lat="48.10098" lon="-1.37873">
        <ele>45</ele>
        <time>2010-08-01T05:30:17Z</time>
      </trkpt>
      <trkpt lat="48.10105" lon="-1.37905">
        <ele>44</ele>
        <time>2010-08-01T05:30:19Z</time>
      </trkpt>
      <trkpt lat="48.10109" lon="-1.37939">
        <ele>43</ele>
        <time>2010-08-01T05:30:21Z</time>
      </trkpt>
      <trkpt lat="48.10109" lon="-1.37957">
        <ele>43</ele>
        <time>2010-08-01T05:30:22Z</time>
      </trkpt>
      <trkpt lat="48.10108" lon="-1.37974">
        <ele>44</ele>
        <time>2010-08-01T05:30:23Z</time>
      </trkpt>
      <trkpt lat="48.10108" lon="-1.37991">
        <ele>44</ele>
        <time>2010-08-01T05:30:24Z</time>
      </trkpt>
      <trkpt lat="48.10108" lon="-1.3802">
        <ele>45</ele>
        <time>2010-08-01T05:30:26Z</time>
      </trkpt>
      <trkpt lat="48.10107" lon="-1.38043">
        <ele>45</ele>
        <time>2010-08-01T05:30:28Z</time>
      </trkpt>
      <trkpt lat="48.10105" lon="-1.38053">
        <ele>45</ele>
        <time>2010-08-01T05:30:29Z</time>
      </trkpt>
      <trkpt lat="48.10105" lon="-1.38063">
        <ele>45</ele>
        <time>2010-08-01T05:30:30Z</time>
      </trkpt>
      <trkpt lat="48.10104" lon="-1.38072">
        <ele>45</ele>
        <time>2010-08-01T05:30:31Z</time>
      </trkpt>
      <trkpt lat="48.101" lon="-1.38097">
        <ele>45</ele>
        <time>2010-08-01T05:30:34Z</time>
      </trkpt>
      <trkpt lat="48.101" lon="-1.3814">
        <ele>44</ele>
        <time>2010-08-01T05:30:40Z</time>
      </trkpt>
      <trkpt lat="48.101" lon="-1.38147">
        <ele>44</ele>
        <time>2010-08-01T05:30:41Z</time>
      </trkpt>
      <trkpt lat="48.10105" lon="-1.38172">
        <ele>45</ele>
        <time>2010-08-01T05:30:45Z</time>
      </trkpt>
      <trkpt lat="48.10106" lon="-1.3818">
        <ele>45</ele>
        <time>2010-08-01T05:30:46Z</time>
      </trkpt>
      <trkpt lat="48.10106" lon="-1.38186">
        <ele>45</ele>
        <time>2010-08-01T05:30:47Z</time>
      </trkpt>
      <trkpt lat="48.10107" lon="-1.382">
        <ele>45</ele>
        <time>2010-08-01T05:30:49Z</time>
      </trkpt>
      <trkpt lat="48.10107" lon="-1.38211">
        <ele>45</ele>
        <time>2010-08-01T05:30:51Z</time>
      </trkpt>
      <trkpt lat="48.10108" lon="-1.38218">
        <ele>45</ele>
        <time>2010-08-01T05:30:52Z</time>
      </trkpt>
      <trkpt lat="48.10111" lon="-1.38252">
        <ele>45</ele>
        <time>2010-08-01T05:30:56Z</time>
      </trkpt>
      <trkpt lat="48.10111" lon="-1.38268">
        <ele>45</ele>
        <time>2010-08-01T05:30:59Z</time>
      </trkpt>
      <trkpt lat="48.10109" lon="-1.3828">
        <ele>45</ele>
        <time>2010-08-01T05:31:01Z</time>
      </trkpt>
      <trkpt lat="48.10102" lon="-1.38308">
        <ele>45</ele>
        <time>2010-08-01T05:31:06Z</time>
      </trkpt>
      <trkpt lat="48.10102" lon="-1.38319">
        <ele>45</ele>
        <time>2010-08-01T05:31:08Z</time>
      </trkpt>
      <trkpt lat="48.10103" lon="-1.38352">
        <ele>45</ele>
        <time>2010-08-01T05:31:12Z</time>
      </trkpt>
      <trkpt lat="48.10102" lon="-1.38374">
        <ele>45</ele>
        <time>2010-08-01T05:31:15Z</time>
      </trkpt>
      <trkpt lat="48.10105" lon="-1.38415">
        <ele>44</ele>
        <time>2010-08-01T05:31:19Z</time>
      </trkpt>
      <trkpt lat="48.10107" lon="-1.38445">
        <ele>44</ele>
        <time>2010-08-01T05:31:22Z</time>
      </trkpt>
      <trkpt lat="48.10105" lon="-1.38464">
        <ele>44</ele>
        <time>2010-08-01T05:31:24Z</time>
      </trkpt>
      <trkpt lat="48.10104" lon="-1.38506">
        <ele>45</ele>
        <time>2010-08-01T05:31:29Z</time>
      </trkpt>
      <trkpt lat="48.10104" lon="-1.38514">
        <ele>46</ele>
        <time>2010-08-01T05:31:30Z</time>
      </trkpt>
      <trkpt lat="48.10104" lon="-1.38526">
        <ele>46</ele>
        <time>2010-08-01T05:31:32Z</time>
      </trkpt>
      <trkpt lat="48.10109" lon="-1.38553">
        <ele>46</ele>
        <time>2010-08-01T05:31:36Z</time>
      </trkpt>
      <trkpt lat="48.10111" lon="-1.38561">
        <ele>46</ele>
        <time>2010-08-01T05:31:37Z</time>
      </trkpt>
      <trkpt lat="48.10118" lon="-1.38633">
        <ele>45</ele>
        <time>2010-08-01T05:31:45Z</time>
      </trkpt>
      <trkpt lat="48.10119" lon="-1.3864">
        <ele>45</ele>
        <time>2010-08-01T05:31:46Z</time>
      </trkpt>
      <trkpt lat="48.10123" lon="-1.38675">
        <ele>44</ele>
        <time>2010-08-01T05:31:51Z</time>
      </trkpt>
      <trkpt lat="48.10125" lon="-1.387">
        <ele>43</ele>
        <time>2010-08-01T05:31:54Z</time>
      </trkpt>
      <trkpt lat="48.10125" lon="-1.38709">
        <ele>44</ele>
        <time>2010-08-01T05:31:55Z</time>
      </trkpt>
      <trkpt lat="48.10125" lon="-1.38718">
        <ele>44</ele>
        <time>2010-08-01T05:31:56Z</time>
      </trkpt>
      <trkpt lat="48.10125" lon="-1.38742">
        <ele>44</ele>
        <time>2010-08-01T05:31:58Z</time>
      </trkpt>
      <trkpt lat="48.10128" lon="-1.38777">
        <ele>44</ele>
        <time>2010-08-01T05:32:04Z</time>
      </trkpt>
      <trkpt lat="48.10129" lon="-1.38785">
        <ele>44</ele>
        <time>2010-08-01T05:32:05Z</time>
      </trkpt>
      <trkpt lat="48.1013" lon="-1.38802">
        <ele>44</ele>
        <time>2010-08-01T05:32:07Z</time>
      </trkpt>
      <trkpt lat="48.10126" lon="-1.38836">
        <ele>45</ele>
        <time>2010-08-01T05:32:11Z</time>
      </trkpt>
      <trkpt lat="48.10123" lon="-1.38896">
        <ele>46</ele>
        <time>2010-08-01T05:32:18Z</time>
      </trkpt>
      <trkpt lat="48.10122" lon="-1.38928">
        <ele>46</ele>
        <time>2010-08-01T05:32:22Z</time>
      </trkpt>
      <trkpt lat="48.10112" lon="-1.38983">
        <ele>49</ele>
        <time>2010-08-01T05:32:29Z</time>
      </trkpt>
      <trkpt lat="48.10107" lon="-1.39019">
        <ele>49</ele>
        <time>2010-08-01T05:32:34Z</time>
      </trkpt>
      <trkpt lat="48.10108" lon="-1.3904">
        <ele>49</ele>
        <time>2010-08-01T05:32:37Z</time>
      </trkpt>
      <trkpt lat="48.10108" lon="-1.39047">
        <ele>49</ele>
        <time>2010-08-01T05:32:38Z</time>
      </trkpt>
      <trkpt lat="48.10107" lon="-1.39054">
        <ele>50</ele>
        <time>2010-08-01T05:32:39Z</time>
      </trkpt>
      <trkpt lat="48.10107" lon="-1.39061">
        <ele>50</ele>
        <time>2010-08-01T05:32:40Z</time>
      </trkpt>
      <trkpt lat="48.101" lon="-1.39081">
        <ele>52</ele>
        <time>2010-08-01T05:32:43Z</time>
      </trkpt>
      <trkpt lat="48.10097" lon="-1.39103">
        <ele>53</ele>
        <time>2010-08-01T05:32:47Z</time>
      </trkpt>
      <trkpt lat="48.101" lon="-1.3911">
        <ele>52</ele>
        <time>2010-08-01T05:32:48Z</time>
      </trkpt>
      <trkpt lat="48.10108" lon="-1.39134">
        <ele>50</ele>
        <time>2010-08-01T05:32:51Z</time>
      </trkpt>
      <trkpt lat="48.1012" lon="-1.39174">
        <ele>48</ele>
        <time>2010-08-01T05:32:56Z</time>
      </trkpt>
      <trkpt lat="48.10127" lon="-1.39216">
        <ele>49</ele>
        <time>2010-08-01T05:33:01Z</time>
      </trkpt>
      <trkpt lat="48.1013" lon="-1.39238">
        <ele>49</ele>
        <time>2010-08-01T05:33:03Z</time>
      </trkpt>
      <trkpt lat="48.10134" lon="-1.39292">
        <ele>49</ele>
        <time>2010-08-01T05:33:10Z</time>
      </trkpt>
      <trkpt lat="48.10135" lon="-1.393">
        <ele>49</ele>
        <time>2010-08-01T05:33:11Z</time>
      </trkpt>
      <trkpt lat="48.10139" lon="-1.3932">
        <ele>48</ele>
        <time>2010-08-01T05:33:13Z</time>
      </trkpt>
      <trkpt lat="48.10144" lon="-1.3934">
        <ele>47</ele>
        <time>2010-08-01T05:33:15Z</time>
      </trkpt>
      <trkpt lat="48.10149" lon="-1.39356">
        <ele>45</ele>
        <time>2010-08-01T05:33:17Z</time>
      </trkpt>
      <trkpt lat="48.10152" lon="-1.39363">
        <ele>44</ele>
        <time>2010-08-01T05:33:18Z</time>
      </trkpt>
      <trkpt lat="48.10157" lon="-1.39384">
        <ele>44</ele>
        <time>2010-08-01T05:33:21Z</time>
      </trkpt>
      <trkpt lat="48.10157" lon="-1.39393">
        <ele>44</ele>
        <time>2010-08-01T05:33:22Z</time>
      </trkpt>
      <trkpt lat="48.10147" lon="-1.39416">
        <ele>46</ele>
        <time>2010-08-01T05:33:25Z</time>
      </trkpt>
      <trkpt lat="48.10139" lon="-1.39428">
        <ele>47</ele>
        <time>2010-08-01T05:33:27Z</time>
      </trkpt>
      <trkpt lat="48.10142" lon="-1.39435">
        <ele>47</ele>
        <time>2010-08-01T05:33:29Z</time>
      </trkpt>
      <trkpt lat="48.10147" lon="-1.39436">
        <ele>46</ele>
        <time>2010-08-01T05:33:30Z</time>
      </trkpt>
      <trkpt lat="48.1015" lon="-1.39436">
        <ele>45</ele>
        <time>2010-08-01T05:33:31Z</time>
      </trkpt>
      <trkpt lat="48.10157" lon="-1.39441">
        <ele>46</ele>
        <time>2010-08-01T05:33:33Z</time>
      </trkpt>
      <trkpt lat="48.10161" lon="-1.39448">
        <ele>46</ele>
        <time>2010-08-01T05:33:35Z</time>
      </trkpt>
      <trkpt lat="48.10166" lon="-1.3947">
        <ele>47</ele>
        <time>2010-08-01T05:33:39Z</time>
      </trkpt>
      <trkpt lat="48.10169" lon="-1.39479">
        <ele>48</ele>
        <time>2010-08-01T05:33:41Z</time>
      </trkpt>
      <trkpt lat="48.1017" lon="-1.39486">
        <ele>48</ele>
        <time>2010-08-01T05:33:43Z</time>
      </trkpt>
      <trkpt lat="48.10171" lon="-1.39493">
        <ele>49</ele>
        <time>2010-08-01T05:33:45Z</time>
      </trkpt>
      <trkpt lat="48.10172" lon="-1.39497">
        <ele>49</ele>
        <time>2010-08-01T05:33:46Z</time>
      </trkpt>
      <trkpt lat="48.10171" lon="-1.39501">
        <ele>49</ele>
        <time>2010-08-01T05:33:47Z</time>
      </trkpt>
      <trkpt lat="48.10171" lon="-1.39505">
        <ele>50</ele>
        <time>2010-08-01T05:33:48Z</time>
      </trkpt>
      <trkpt lat="48.10173" lon="-1.39513">
        <ele>50</ele>
        <time>2010-08-01T05:33:50Z</time>
      </trkpt>
      <trkpt lat="48.10177" lon="-1.39519">
        <ele>51</ele>
        <time>2010-08-01T05:33:52Z</time>
      </trkpt>
      <trkpt lat="48.10181" lon="-1.39522">
        <ele>51</ele>
        <time>2010-08-01T05:33:54Z</time>
      </trkpt>
      <trkpt lat="48.10187" lon="-1.39524">
        <ele>51</ele>
        <time>2010-08-01T05:33:56Z</time>
      </trkpt>
      <trkpt lat="48.10191" lon="-1.39523">
        <ele>51</ele>
        <time>2010-08-01T05:33:57Z</time>
      </trkpt>
      <trkpt lat="48.10195" lon="-1.39523">
        <ele>52</ele>
        <time>2010-08-01T05:33:58Z</time>
      </trkpt>
      <trkpt lat="48.10201" lon="-1.39517">
        <ele>51</ele>
        <time>2010-08-01T05:33:59Z</time>
      </trkpt>
      <trkpt lat="48.1021" lon="-1.39511">
        <ele>51</ele>
        <time>2010-08-01T05:34:02Z</time>
      </trkpt>
      <trkpt lat="48.10214" lon="-1.39509">
        <ele>51</ele>
        <time>2010-08-01T05:34:03Z</time>
      </trkpt>
      <trkpt lat="48.10234" lon="-1.39501">
        <ele>50</ele>
        <time>2010-08-01T05:34:07Z</time>
      </trkpt>
      <trkpt lat="48.10249" lon="-1.39513">
        <ele>50</ele>
        <time>2010-08-01T05:34:11Z</time>
      </trkpt>
      <trkpt lat="48.10256" lon="-1.39537">
        <ele>52</ele>
        <time>2010-08-01T05:34:14Z</time>
      </trkpt>
      <trkpt lat="48.10259" lon="-1.39549">
        <ele>53</ele>
        <time>2010-08-01T05:34:16Z</time>
      </trkpt>
      <trkpt lat="48.10263" lon="-1.39571">
        <ele>54</ele>
        <time>2010-08-01T05:34:21Z</time>
      </trkpt>
      <trkpt lat="48.10264" lon="-1.39577">
        <ele>54</ele>
        <time>2010-08-01T05:34:22Z</time>
      </trkpt>
      <trkpt lat="48.10264" lon="-1.39588">
        <ele>55</ele>
        <time>2010-08-01T05:34:24Z</time>
      </trkpt>
      <trkpt lat="48.10264" lon="-1.39601">
        <ele>55</ele>
        <time>2010-08-01T05:34:26Z</time>
      </trkpt>
      <trkpt lat="48.10263" lon="-1.39614">
        <ele>55</ele>
        <time>2010-08-01T05:34:28Z</time>
      </trkpt>
      <trkpt lat="48.10262" lon="-1.39628">
        <ele>56</ele>
        <time>2010-08-01T05:34:30Z</time>
      </trkpt>
      <trkpt lat="48.10262" lon="-1.3964">
        <ele>56</ele>
        <time>2010-08-01T05:34:32Z</time>
      </trkpt>
      <trkpt lat="48.10264" lon="-1.39653">
        <ele>56</ele>
        <time>2010-08-01T05:34:34Z</time>
      </trkpt>
      <trkpt lat="48.10266" lon="-1.39666">
        <ele>56</ele>
        <time>2010-08-01T05:34:36Z</time>
      </trkpt>
      <trkpt lat="48.10268" lon="-1.39673">
        <ele>57</ele>
        <time>2010-08-01T05:34:37Z</time>
      </trkpt>
      <trkpt lat="48.10271" lon="-1.39685">
        <ele>57</ele>
        <time>2010-08-01T05:34:39Z</time>
      </trkpt>
      <trkpt lat="48.10276" lon="-1.39708">
        <ele>57</ele>
        <time>2010-08-01T05:34:43Z</time>
      </trkpt>
      <trkpt lat="48.10279" lon="-1.39719">
        <ele>57</ele>
        <time>2010-08-01T05:34:45Z</time>
      </trkpt>
      <trkpt lat="48.10282" lon="-1.39731">
        <ele>57</ele>
        <time>2010-08-01T05:34:47Z</time>
      </trkpt>
      <trkpt lat="48.10283" lon="-1.39737">
        <ele>57</ele>
        <time>2010-08-01T05:34:48Z</time>
      </trkpt>
      <trkpt lat="48.10287" lon="-1.39756">
        <ele>57</ele>
        <time>2010-08-01T05:34:51Z</time>
      </trkpt>
      <trkpt lat="48.10292" lon="-1.39791">
        <ele>57</ele>
        <time>2010-08-01T05:34:56Z</time>
      </trkpt>
      <trkpt lat="48.10298" lon="-1.39834">
        <ele>58</ele>
        <time>2010-08-01T05:35:02Z</time>
      </trkpt>
      <trkpt lat="48.10299" lon="-1.39841">
        <ele>58</ele>
        <time>2010-08-01T05:35:03Z</time>
      </trkpt>
      <trkpt lat="48.10301" lon="-1.39857">
        <ele>58</ele>
        <time>2010-08-01T05:35:05Z</time>
      </trkpt>
      <trkpt lat="48.10303" lon="-1.39872">
        <ele>58</ele>
        <time>2010-08-01T05:35:07Z</time>
      </trkpt>
      <trkpt lat="48.10305" lon="-1.3988">
        <ele>59</ele>
        <time>2010-08-01T05:35:08Z</time>
      </trkpt>
      <trkpt lat="48.10307" lon="-1.39886">
        <ele>59</ele>
        <time>2010-08-01T05:35:09Z</time>
      </trkpt>
      <trkpt lat="48.10316" lon="-1.39892">
        <ele>59</ele>
        <time>2010-08-01T05:35:11Z</time>
      </trkpt>
      <trkpt lat="48.10322" lon="-1.39893">
        <ele>59</ele>
        <time>2010-08-01T05:35:12Z</time>
      </trkpt>
      <trkpt lat="48.10377" lon="-1.39896">
        <ele>58</ele>
        <time>2010-08-01T05:35:21Z</time>
      </trkpt>
      <trkpt lat="48.10436" lon="-1.39898">
        <ele>57</ele>
        <time>2010-08-01T05:35:30Z</time>
      </trkpt>
      <trkpt lat="48.10473" lon="-1.39899">
        <ele>56</ele>
        <time>2010-08-01T05:35:35Z</time>
      </trkpt>
      <trkpt lat="48.10489" lon="-1.39899">
        <ele>56</ele>
        <time>2010-08-01T05:35:37Z</time>
      </trkpt>
      <trkpt lat="48.10496" lon="-1.39899">
        <ele>56</ele>
        <time>2010-08-01T05:35:38Z</time>
      </trkpt>
      <trkpt lat="48.10505" lon="-1.39899">
        <ele>55</ele>
        <time>2010-08-01T05:35:39Z</time>
      </trkpt>
      <trkpt lat="48.10521" lon="-1.399">
        <ele>55</ele>
        <time>2010-08-01T05:35:41Z</time>
      </trkpt>
      <trkpt lat="48.10538" lon="-1.39901">
        <ele>55</ele>
        <time>2010-08-01T05:35:43Z</time>
      </trkpt>
      <trkpt lat="48.10556" lon="-1.39901">
        <ele>54</ele>
        <time>2010-08-01T05:35:45Z</time>
      </trkpt>
      <trkpt lat="48.10573" lon="-1.39903">
        <ele>53</ele>
        <time>2010-08-01T05:35:47Z</time>
      </trkpt>
      <trkpt lat="48.10582" lon="-1.39906">
        <ele>52</ele>
        <time>2010-08-01T05:35:48Z</time>
      </trkpt>
      <trkpt lat="48.1059" lon="-1.39911">
        <ele>52</ele>
        <time>2010-08-01T05:35:49Z</time>
      </trkpt>
      <trkpt lat="48.10605" lon="-1.39927">
        <ele>50</ele>
        <time>2010-08-01T05:35:51Z</time>
      </trkpt>
      <trkpt lat="48.10615" lon="-1.3995">
        <ele>49</ele>
        <time>2010-08-01T05:35:53Z</time>
      </trkpt>
      <trkpt lat="48.10622" lon="-1.39977">
        <ele>50</ele>
        <time>2010-08-01T05:35:55Z</time>
      </trkpt>
      <trkpt lat="48.10623" lon="-1.40003">
        <ele>50</ele>
        <time>2010-08-01T05:35:57Z</time>
      </trkpt>
      <trkpt lat="48.10623" lon="-1.40015">
        <ele>50</ele>
        <time>2010-08-01T05:35:58Z</time>
      </trkpt>
      <trkpt lat="48.10618" lon="-1.40114">
        <ele>50</ele>
        <time>2010-08-01T05:36:07Z</time>
      </trkpt>
      <trkpt lat="48.10617" lon="-1.40135">
        <ele>50</ele>
        <time>2010-08-01T05:36:09Z</time>
      </trkpt>
      <trkpt lat="48.10615" lon="-1.40155">
        <ele>50</ele>
        <time>2010-08-01T05:36:11Z</time>
      </trkpt>
      <trkpt lat="48.10613" lon="-1.40176">
        <ele>50</ele>
        <time>2010-08-01T05:36:13Z</time>
      </trkpt>
      <trkpt lat="48.1061" lon="-1.40195">
        <ele>50</ele>
        <time>2010-08-01T05:36:15Z</time>
      </trkpt>
      <trkpt lat="48.10609" lon="-1.40202">
        <ele>51</ele>
        <time>2010-08-01T05:36:16Z</time>
      </trkpt>
      <trkpt lat="48.10613" lon="-1.4023">
        <ele>50</ele>
        <time>2010-08-01T05:36:20Z</time>
      </trkpt>
      <trkpt lat="48.10615" lon="-1.40239">
        <ele>50</ele>
        <time>2010-08-01T05:36:21Z</time>
      </trkpt>
      <trkpt lat="48.1062" lon="-1.40268">
        <ele>49</ele>
        <time>2010-08-01T05:36:24Z</time>
      </trkpt>
      <trkpt lat="48.10616" lon="-1.40311">
        <ele>48</ele>
        <time>2010-08-01T05:36:28Z</time>
      </trkpt>
      <trkpt lat="48.10625" lon="-1.40331">
        <ele>47</ele>
        <time>2010-08-01T05:36:31Z</time>
      </trkpt>
      <trkpt lat="48.1063" lon="-1.40334">
        <ele>47</ele>
        <time>2010-08-01T05:36:32Z</time>
      </trkpt>
      <trkpt lat="48.10645" lon="-1.40335">
        <ele>46</ele>
        <time>2010-08-01T05:36:35Z</time>
      </trkpt>
      <trkpt lat="48.10657" lon="-1.40332">
        <ele>46</ele>
        <time>2010-08-01T05:36:38Z</time>
      </trkpt>
      <trkpt lat="48.10659" lon="-1.40318">
        <ele>46</ele>
        <time>2010-08-01T05:36:40Z</time>
      </trkpt>
      <trkpt lat="48.1066" lon="-1.40289">
        <ele>47</ele>
        <time>2010-08-01T05:36:43Z</time>
      </trkpt>
      <trkpt lat="48.10662" lon="-1.40275">
        <ele>47</ele>
        <time>2010-08-01T05:36:45Z</time>
      </trkpt>
      <trkpt lat="48.10664" lon="-1.40272">
        <ele>47</ele>
        <time>2010-08-01T05:36:46Z</time>
      </trkpt>
      <trkpt lat="48.10668" lon="-1.40272">
        <ele>47</ele>
        <time>2010-08-01T05:36:47Z</time>
      </trkpt>
      <trkpt lat="48.10672" lon="-1.40274">
        <ele>47</ele>
        <time>2010-08-01T05:36:48Z</time>
      </trkpt>
      <trkpt lat="48.10683" lon="-1.40276">
        <ele>46</ele>
        <time>2010-08-01T05:36:50Z</time>
      </trkpt>
      <trkpt lat="48.10688" lon="-1.40278">
        <ele>46</ele>
        <time>2010-08-01T05:36:51Z</time>
      </trkpt>
      <trkpt lat="48.10693" lon="-1.40281">
        <ele>46</ele>
        <time>2010-08-01T05:36:52Z</time>
      </trkpt>
      <trkpt lat="48.10702" lon="-1.40292">
        <ele>46</ele>
        <time>2010-08-01T05:36:54Z</time>
      </trkpt>
      <trkpt lat="48.10707" lon="-1.40298">
        <ele>46</ele>
        <time>2010-08-01T05:36:55Z</time>
      </trkpt>
      <trkpt lat="48.10728" lon="-1.40306">
        <ele>44</ele>
        <time>2010-08-01T05:36:58Z</time>
      </trkpt>
      <trkpt lat="48.10741" lon="-1.40311">
        <ele>44</ele>
        <time>2010-08-01T05:37:00Z</time>
      </trkpt>
      <trkpt lat="48.10758" lon="-1.40329">
        <ele>43</ele>
        <time>2010-08-01T05:37:03Z</time>
      </trkpt>
      <trkpt lat="48.10762" lon="-1.40336">
        <ele>42</ele>
        <time>2010-08-01T05:37:04Z</time>
      </trkpt>
      <trkpt lat="48.10771" lon="-1.40358">
        <ele>42</ele>
        <time>2010-08-01T05:37:07Z</time>
      </trkpt>
      <trkpt lat="48.10779" lon="-1.40372">
        <ele>41</ele>
        <time>2010-08-01T05:37:09Z</time>
      </trkpt>
      <trkpt lat="48.10785" lon="-1.40377">
        <ele>41</ele>
        <time>2010-08-01T05:37:10Z</time>
      </trkpt>
      <trkpt lat="48.1079" lon="-1.40383">
        <ele>40</ele>
        <time>2010-08-01T05:37:11Z</time>
      </trkpt>
      <trkpt lat="48.10801" lon="-1.40408">
        <ele>40</ele>
        <time>2010-08-01T05:37:15Z</time>
      </trkpt>
      <trkpt lat="48.10808" lon="-1.40413">
        <ele>40</ele>
        <time>2010-08-01T05:37:17Z</time>
      </trkpt>
      <trkpt lat="48.10846" lon="-1.40415">
        <ele>40</ele>
        <time>2010-08-01T05:37:25Z</time>
      </trkpt>
      <trkpt lat="48.10855" lon="-1.40418">
        <ele>41</ele>
        <time>2010-08-01T05:37:27Z</time>
      </trkpt>
      <trkpt lat="48.10863" lon="-1.40429">
        <ele>42</ele>
        <time>2010-08-01T05:37:30Z</time>
      </trkpt>
      <trkpt lat="48.10862" lon="-1.40436">
        <ele>42</ele>
        <time>2010-08-01T05:37:31Z</time>
      </trkpt>
      <trkpt lat="48.10858" lon="-1.40451">
        <ele>42</ele>
        <time>2010-08-01T05:37:33Z</time>
      </trkpt>
      <trkpt lat="48.10844" lon="-1.40501">
        <ele>42</ele>
        <time>2010-08-01T05:37:40Z</time>
      </trkpt>
      <trkpt lat="48.10843" lon="-1.40507">
        <ele>42</ele>
        <time>2010-08-01T05:37:41Z</time>
      </trkpt>
      <trkpt lat="48.10853" lon="-1.40511">
        <ele>43</ele>
        <time>2010-08-01T05:37:43Z</time>
      </trkpt>
      <trkpt lat="48.10861" lon="-1.40515">
        <ele>44</ele>
        <time>2010-08-01T05:37:45Z</time>
      </trkpt>
      <trkpt lat="48.10872" lon="-1.40514">
        <ele>45</ele>
        <time>2010-08-01T05:37:47Z</time>
      </trkpt>
      <trkpt lat="48.10895" lon="-1.40521">
        <ele>47</ele>
        <time>2010-08-01T05:37:53Z</time>
      </trkpt>
      <trkpt lat="48.1091" lon="-1.40523">
        <ele>49</ele>
        <time>2010-08-01T05:37:58Z</time>
      </trkpt>
      <trkpt lat="48.10916" lon="-1.40524">
        <ele>50</ele>
        <time>2010-08-01T05:38:00Z</time>
      </trkpt>
      <trkpt lat="48.10922" lon="-1.40523">
        <ele>50</ele>
        <time>2010-08-01T05:38:02Z</time>
      </trkpt>
      <trkpt lat="48.10929" lon="-1.40523">
        <ele>51</ele>
        <time>2010-08-01T05:38:04Z</time>
      </trkpt>
      <trkpt lat="48.10932" lon="-1.40524">
        <ele>51</ele>
        <time>2010-08-01T05:38:05Z</time>
      </trkpt>
      <trkpt lat="48.10936" lon="-1.40526">
        <ele>52</ele>
        <time>2010-08-01T05:38:07Z</time>
      </trkpt>
      <trkpt lat="48.1094" lon="-1.40527">
        <ele>52</ele>
        <time>2010-08-01T05:38:09Z</time>
      </trkpt>
      <trkpt lat="48.10944" lon="-1.40528">
        <ele>53</ele>
        <time>2010-08-01T05:38:11Z</time>
      </trkpt>
      <trkpt lat="48.10946" lon="-1.4053">
        <ele>53</ele>
        <time>2010-08-01T05:38:12Z</time>
      </trkpt>
      <trkpt lat="48.10952" lon="-1.40532">
        <ele>54</ele>
        <time>2010-08-01T05:38:14Z</time>
      </trkpt>
      <trkpt lat="48.10958" lon="-1.40534">
        <ele>54</ele>
        <time>2010-08-01T05:38:16Z</time>
      </trkpt>
      <trkpt lat="48.10964" lon="-1.40537">
        <ele>55</ele>
        <time>2010-08-01T05:38:18Z</time>
      </trkpt>
      <trkpt lat="48.10966" lon="-1.40538">
        <ele>55</ele>
        <time>2010-08-01T05:38:19Z</time>
      </trkpt>
      <trkpt lat="48.10972" lon="-1.40541">
        <ele>55</ele>
        <time>2010-08-01T05:38:21Z</time>
      </trkpt>
      <trkpt lat="48.10978" lon="-1.40544">
        <ele>56</ele>
        <time>2010-08-01T05:38:23Z</time>
      </trkpt>
      <trkpt lat="48.10981" lon="-1.40546">
        <ele>56</ele>
        <time>2010-08-01T05:38:24Z</time>
      </trkpt>
      <trkpt lat="48.10987" lon="-1.40551">
        <ele>56</ele>
        <time>2010-08-01T05:38:26Z</time>
      </trkpt>
      <trkpt lat="48.10992" lon="-1.40554">
        <ele>57</ele>
        <time>2010-08-01T05:38:28Z</time>
      </trkpt>
      <trkpt lat="48.10998" lon="-1.40558">
        <ele>57</ele>
        <time>2010-08-01T05:38:30Z</time>
      </trkpt>
      <trkpt lat="48.11004" lon="-1.40563">
        <ele>58</ele>
        <time>2010-08-01T05:38:32Z</time>
      </trkpt>
      <trkpt lat="48.11014" lon="-1.40566">
        <ele>58</ele>
        <time>2010-08-01T05:38:35Z</time>
      </trkpt>
      <trkpt lat="48.1102" lon="-1.40568">
        <ele>58</ele>
        <time>2010-08-01T05:38:37Z</time>
      </trkpt>
      <trkpt lat="48.11027" lon="-1.40571">
        <ele>59</ele>
        <time>2010-08-01T05:38:39Z</time>
      </trkpt>
      <trkpt lat="48.11033" lon="-1.40573">
        <ele>59</ele>
        <time>2010-08-01T05:38:41Z</time>
      </trkpt>
      <trkpt lat="48.1104" lon="-1.40574">
        <ele>59</ele>
        <time>2010-08-01T05:38:43Z</time>
      </trkpt>
      <trkpt lat="48.11067" lon="-1.40579">
        <ele>60</ele>
        <time>2010-08-01T05:38:51Z</time>
      </trkpt>
      <trkpt lat="48.11074" lon="-1.40579">
        <ele>61</ele>
        <time>2010-08-01T05:38:53Z</time>
      </trkpt>
      <trkpt lat="48.11081" lon="-1.40579">
        <ele>61</ele>
        <time>2010-08-01T05:38:55Z</time>
      </trkpt>
      <trkpt lat="48.11088" lon="-1.4058">
        <ele>62</ele>
        <time>2010-08-01T05:38:57Z</time>
      </trkpt>
      <trkpt lat="48.11097" lon="-1.4058">
        <ele>62</ele>
        <time>2010-08-01T05:38:59Z</time>
      </trkpt>
      <trkpt lat="48.11101" lon="-1.4058">
        <ele>63</ele>
        <time>2010-08-01T05:39:00Z</time>
      </trkpt>
      <trkpt lat="48.11108" lon="-1.40581">
        <ele>63</ele>
        <time>2010-08-01T05:39:02Z</time>
      </trkpt>
      <trkpt lat="48.11115" lon="-1.40581">
        <ele>64</ele>
        <time>2010-08-01T05:39:04Z</time>
      </trkpt>
      <trkpt lat="48.11122" lon="-1.4058">
        <ele>64</ele>
        <time>2010-08-01T05:39:06Z</time>
      </trkpt>
      <trkpt lat="48.1113" lon="-1.40578">
        <ele>65</ele>
        <time>2010-08-01T05:39:08Z</time>
      </trkpt>
      <trkpt lat="48.11138" lon="-1.40575">
        <ele>65</ele>
        <time>2010-08-01T05:39:10Z</time>
      </trkpt>
      <trkpt lat="48.11144" lon="-1.40574">
        <ele>66</ele>
        <time>2010-08-01T05:39:12Z</time>
      </trkpt>
      <trkpt lat="48.11152" lon="-1.40572">
        <ele>66</ele>
        <time>2010-08-01T05:39:14Z</time>
      </trkpt>
      <trkpt lat="48.11157" lon="-1.40571">
        <ele>66</ele>
        <time>2010-08-01T05:39:15Z</time>
      </trkpt>
      <trkpt lat="48.11165" lon="-1.40569">
        <ele>66</ele>
        <time>2010-08-01T05:39:17Z</time>
      </trkpt>
      <trkpt lat="48.11174" lon="-1.40568">
        <ele>66</ele>
        <time>2010-08-01T05:39:19Z</time>
      </trkpt>
      <trkpt lat="48.11181" lon="-1.40567">
        <ele>67</ele>
        <time>2010-08-01T05:39:21Z</time>
      </trkpt>
      <trkpt lat="48.11188" lon="-1.40565">
        <ele>67</ele>
        <time>2010-08-01T05:39:23Z</time>
      </trkpt>
      <trkpt lat="48.11191" lon="-1.40564">
        <ele>67</ele>
        <time>2010-08-01T05:39:24Z</time>
      </trkpt>
      <trkpt lat="48.11199" lon="-1.40562">
        <ele>67</ele>
        <time>2010-08-01T05:39:26Z</time>
      </trkpt>
      <trkpt lat="48.11208" lon="-1.4056">
        <ele>66</ele>
        <time>2010-08-01T05:39:28Z</time>
      </trkpt>
      <trkpt lat="48.11213" lon="-1.40559">
        <ele>65</ele>
        <time>2010-08-01T05:39:29Z</time>
      </trkpt>
      <trkpt lat="48.11228" lon="-1.40551">
        <ele>64</ele>
        <time>2010-08-01T05:39:32Z</time>
      </trkpt>
      <trkpt lat="48.11239" lon="-1.40543">
        <ele>63</ele>
        <time>2010-08-01T05:39:34Z</time>
      </trkpt>
      <trkpt lat="48.11252" lon="-1.40532">
        <ele>61</ele>
        <time>2010-08-01T05:39:38Z</time>
      </trkpt>
      <trkpt lat="48.11253" lon="-1.4053">
        <ele>60</ele>
        <time>2010-08-01T05:39:39Z</time>
      </trkpt>
      <trkpt lat="48.1126" lon="-1.40525">
        <ele>59</ele>
        <time>2010-08-01T05:39:42Z</time>
      </trkpt>
      <trkpt lat="48.11262" lon="-1.40522">
        <ele>59</ele>
        <time>2010-08-01T05:39:43Z</time>
      </trkpt>
      <trkpt lat="48.11268" lon="-1.40518">
        <ele>58</ele>
        <time>2010-08-01T05:39:44Z</time>
      </trkpt>
      <trkpt lat="48.11275" lon="-1.40517">
        <ele>57</ele>
        <time>2010-08-01T05:39:45Z</time>
      </trkpt>
      <trkpt lat="48.11283" lon="-1.40516">
        <ele>56</ele>
        <time>2010-08-01T05:39:46Z</time>
      </trkpt>
      <trkpt lat="48.11302" lon="-1.40514">
        <ele>54</ele>
        <time>2010-08-01T05:39:48Z</time>
      </trkpt>
      <trkpt lat="48.11311" lon="-1.40511">
        <ele>53</ele>
        <time>2010-08-01T05:39:49Z</time>
      </trkpt>
      <trkpt lat="48.11316" lon="-1.40508">
        <ele>53</ele>
        <time>2010-08-01T05:39:50Z</time>
      </trkpt>
      <trkpt lat="48.1132" lon="-1.40506">
        <ele>53</ele>
        <time>2010-08-01T05:39:51Z</time>
      </trkpt>
      <trkpt lat="48.11325" lon="-1.40501">
        <ele>54</ele>
        <time>2010-08-01T05:39:54Z</time>
      </trkpt>
      <trkpt lat="48.11331" lon="-1.40499">
        <ele>53</ele>
        <time>2010-08-01T05:39:56Z</time>
      </trkpt>
      <trkpt lat="48.11334" lon="-1.40497">
        <ele>54</ele>
        <time>2010-08-01T05:39:57Z</time>
      </trkpt>
      <trkpt lat="48.11346" lon="-1.4049">
        <ele>55</ele>
        <time>2010-08-01T05:40:00Z</time>
      </trkpt>
      <trkpt lat="48.1135" lon="-1.40486">
        <ele>56</ele>
        <time>2010-08-01T05:40:01Z</time>
      </trkpt>
      <trkpt lat="48.11363" lon="-1.40481">
        <ele>57</ele>
        <time>2010-08-01T05:40:04Z</time>
      </trkpt>
      <trkpt lat="48.1137" lon="-1.40479">
        <ele>58</ele>
        <time>2010-08-01T05:40:06Z</time>
      </trkpt>
      <trkpt lat="48.11373" lon="-1.40479">
        <ele>58</ele>
        <time>2010-08-01T05:40:07Z</time>
      </trkpt>
      <trkpt lat="48.11389" lon="-1.40492">
        <ele>56</ele>
        <time>2010-08-01T05:40:12Z</time>
      </trkpt>
      <trkpt lat="48.11395" lon="-1.40506">
        <ele>54</ele>
        <time>2010-08-01T05:40:16Z</time>
      </trkpt>
      <trkpt lat="48.11397" lon="-1.40509">
        <ele>54</ele>
        <time>2010-08-01T05:40:17Z</time>
      </trkpt>
      <trkpt lat="48.11397" lon="-1.40513">
        <ele>53</ele>
        <time>2010-08-01T05:40:18Z</time>
      </trkpt>
      <trkpt lat="48.11396" lon="-1.40521">
        <ele>52</ele>
        <time>2010-08-01T05:40:20Z</time>
      </trkpt>
      <trkpt lat="48.11396" lon="-1.40526">
        <ele>51</ele>
        <time>2010-08-01T05:40:21Z</time>
      </trkpt>
      <trkpt lat="48.11399" lon="-1.40531">
        <ele>51</ele>
        <time>2010-08-01T05:40:23Z</time>
      </trkpt>
      <trkpt lat="48.11402" lon="-1.40533">
        <ele>51</ele>
        <time>2010-08-01T05:40:24Z</time>
      </trkpt>
      <trkpt lat="48.11409" lon="-1.40536">
        <ele>52</ele>
        <time>2010-08-01T05:40:26Z</time>
      </trkpt>
      <trkpt lat="48.1142" lon="-1.4055">
        <ele>51</ele>
        <time>2010-08-01T05:40:29Z</time>
      </trkpt>
      <trkpt lat="48.11425" lon="-1.40555">
        <ele>51</ele>
        <time>2010-08-01T05:40:30Z</time>
      </trkpt>
      <trkpt lat="48.1144" lon="-1.40581">
        <ele>50</ele>
        <time>2010-08-01T05:40:34Z</time>
      </trkpt>
      <trkpt lat="48.11454" lon="-1.40601">
        <ele>50</ele>
        <time>2010-08-01T05:40:38Z</time>
      </trkpt>
      <trkpt lat="48.11476" lon="-1.40611">
        <ele>50</ele>
        <time>2010-08-01T05:40:43Z</time>
      </trkpt>
      <trkpt lat="48.11481" lon="-1.40611">
        <ele>50</ele>
        <time>2010-08-01T05:40:44Z</time>
      </trkpt>
      <trkpt lat="48.11494" lon="-1.40605">
        <ele>50</ele>
        <time>2010-08-01T05:40:47Z</time>
      </trkpt>
      <trkpt lat="48.11505" lon="-1.40603">
        <ele>50</ele>
        <time>2010-08-01T05:40:50Z</time>
      </trkpt>
      <trkpt lat="48.11513" lon="-1.40586">
        <ele>50</ele>
        <time>2010-08-01T05:40:54Z</time>
      </trkpt>
      <trkpt lat="48.11513" lon="-1.4058">
        <ele>50</ele>
        <time>2010-08-01T05:40:55Z</time>
      </trkpt>
      <trkpt lat="48.11507" lon="-1.40568">
        <ele>50</ele>
        <time>2010-08-01T05:40:59Z</time>
      </trkpt>
      <trkpt lat="48.11505" lon="-1.40564">
        <ele>50</ele>
        <time>2010-08-01T05:41:01Z</time>
      </trkpt>
      <trkpt lat="48.11503" lon="-1.40562">
        <ele>51</ele>
        <time>2010-08-01T05:41:03Z</time>
      </trkpt>
      <trkpt lat="48.11502" lon="-1.40559">
        <ele>51</ele>
        <time>2010-08-01T05:41:04Z</time>
      </trkpt>
      <trkpt lat="48.11499" lon="-1.40556">
        <ele>51</ele>
        <time>2010-08-01T05:41:06Z</time>
      </trkpt>
      <trkpt lat="48.11498" lon="-1.40555">
        <ele>51</ele>
        <time>2010-08-01T05:41:07Z</time>
      </trkpt>
      <trkpt lat="48.11495" lon="-1.4055">
        <ele>51</ele>
        <time>2010-08-01T05:41:10Z</time>
      </trkpt>
      <trkpt lat="48.11494" lon="-1.40544">
        <ele>52</ele>
        <time>2010-08-01T05:41:12Z</time>
      </trkpt>
      <trkpt lat="48.11494" lon="-1.40542">
        <ele>52</ele>
        <time>2010-08-01T05:41:13Z</time>
      </trkpt>
      <trkpt lat="48.11493" lon="-1.4054">
        <ele>52</ele>
        <time>2010-08-01T05:41:14Z</time>
      </trkpt>
      <trkpt lat="48.11492" lon="-1.40538">
        <ele>52</ele>
        <time>2010-08-01T05:41:15Z</time>
      </trkpt>
      <trkpt lat="48.11492" lon="-1.40533">
        <ele>53</ele>
        <time>2010-08-01T05:41:17Z</time>
      </trkpt>
      <trkpt lat="48.11491" lon="-1.40527">
        <ele>53</ele>
        <time>2010-08-01T05:41:19Z</time>
      </trkpt>
      <trkpt lat="48.11489" lon="-1.40523">
        <ele>53</ele>
        <time>2010-08-01T05:41:21Z</time>
      </trkpt>
      <trkpt lat="48.11488" lon="-1.4052">
        <ele>53</ele>
        <time>2010-08-01T05:41:22Z</time>
      </trkpt>
      <trkpt lat="48.11487" lon="-1.40513">
        <ele>54</ele>
        <time>2010-08-01T05:41:24Z</time>
      </trkpt>
      <trkpt lat="48.11488" lon="-1.40505">
        <ele>54</ele>
        <time>2010-08-01T05:41:26Z</time>
      </trkpt>
      <trkpt lat="48.11487" lon="-1.40501">
        <ele>54</ele>
        <time>2010-08-01T05:41:27Z</time>
      </trkpt>
      <trkpt lat="48.11486" lon="-1.40497">
        <ele>55</ele>
        <time>2010-08-01T05:41:28Z</time>
      </trkpt>
      <trkpt lat="48.11484" lon="-1.4049">
        <ele>55</ele>
        <time>2010-08-01T05:41:30Z</time>
      </trkpt>
      <trkpt lat="48.11482" lon="-1.40483">
        <ele>56</ele>
        <time>2010-08-01T05:41:32Z</time>
      </trkpt>
      <trkpt lat="48.11479" lon="-1.40469">
        <ele>57</ele>
        <time>2010-08-01T05:41:36Z</time>
      </trkpt>
      <trkpt lat="48.11476" lon="-1.40451">
        <ele>58</ele>
        <time>2010-08-01T05:41:40Z</time>
      </trkpt>
      <trkpt lat="48.11475" lon="-1.40442">
        <ele>59</ele>
        <time>2010-08-01T05:41:42Z</time>
      </trkpt>
      <trkpt lat="48.11474" lon="-1.40434">
        <ele>59</ele>
        <time>2010-08-01T05:41:44Z</time>
      </trkpt>
      <trkpt lat="48.11474" lon="-1.40427">
        <ele>59</ele>
        <time>2010-08-01T05:41:46Z</time>
      </trkpt>
      <trkpt lat="48.11474" lon="-1.4042">
        <ele>60</ele>
        <time>2010-08-01T05:41:48Z</time>
      </trkpt>
      <trkpt lat="48.11474" lon="-1.40416">
        <ele>60</ele>
        <time>2010-08-01T05:41:49Z</time>
      </trkpt>
      <trkpt lat="48.11473" lon="-1.40409">
        <ele>60</ele>
        <time>2010-08-01T05:41:51Z</time>
      </trkpt>
      <trkpt lat="48.11474" lon="-1.40405">
        <ele>60</ele>
        <time>2010-08-01T05:41:52Z</time>
      </trkpt>
      <trkpt lat="48.11473" lon="-1.40401">
        <ele>60</ele>
        <time>2010-08-01T05:41:53Z</time>
      </trkpt>
      <trkpt lat="48.11473" lon="-1.40392">
        <ele>60</ele>
        <time>2010-08-01T05:41:55Z</time>
      </trkpt>
      <trkpt lat="48.11474" lon="-1.40382">
        <ele>61</ele>
        <time>2010-08-01T05:41:57Z</time>
      </trkpt>
      <trkpt lat="48.11473" lon="-1.40371">
        <ele>62</ele>
        <time>2010-08-01T05:42:00Z</time>
      </trkpt>
      <trkpt lat="48.11472" lon="-1.40368">
        <ele>63</ele>
        <time>2010-08-01T05:42:01Z</time>
      </trkpt>
      <trkpt lat="48.11471" lon="-1.40364">
        <ele>63</ele>
        <time>2010-08-01T05:42:02Z</time>
      </trkpt>
      <trkpt lat="48.11472" lon="-1.40361">
        <ele>64</ele>
        <time>2010-08-01T05:42:03Z</time>
      </trkpt>
      <trkpt lat="48.11477" lon="-1.40352">
        <ele>63</ele>
        <time>2010-08-01T05:42:06Z</time>
      </trkpt>
      <trkpt lat="48.11479" lon="-1.40353">
        <ele>62</ele>
        <time>2010-08-01T05:42:08Z</time>
      </trkpt>
      <trkpt lat="48.11484" lon="-1.40358">
        <ele>60</ele>
        <time>2010-08-01T05:42:12Z</time>
      </trkpt>
      <trkpt lat="48.11486" lon="-1.40359">
        <ele>60</ele>
        <time>2010-08-01T05:42:13Z</time>
      </trkpt>
      <trkpt lat="48.11489" lon="-1.40359">
        <ele>59</ele>
        <time>2010-08-01T05:42:14Z</time>
      </trkpt>
      <trkpt lat="48.11498" lon="-1.40358">
        <ele>56</ele>
        <time>2010-08-01T05:42:17Z</time>
      </trkpt>
      <trkpt lat="48.11502" lon="-1.40358">
        <ele>55</ele>
        <time>2010-08-01T05:42:19Z</time>
      </trkpt>
      <trkpt lat="48.11505" lon="-1.40361">
        <ele>54</ele>
        <time>2010-08-01T05:42:21Z</time>
      </trkpt>
      <trkpt lat="48.11507" lon="-1.40357">
        <ele>54</ele>
        <time>2010-08-01T05:42:23Z</time>
      </trkpt>
      <trkpt lat="48.11509" lon="-1.40353">
        <ele>53</ele>
        <time>2010-08-01T05:42:24Z</time>
      </trkpt>
      <trkpt lat="48.11512" lon="-1.40343">
        <ele>53</ele>
        <time>2010-08-01T05:42:25Z</time>
      </trkpt>
      <trkpt lat="48.11515" lon="-1.40337">
        <ele>52</ele>
        <time>2010-08-01T05:42:26Z</time>
      </trkpt>
      <trkpt lat="48.11523" lon="-1.40328">
        <ele>52</ele>
        <time>2010-08-01T05:42:28Z</time>
      </trkpt>
      <trkpt lat="48.11528" lon="-1.40321">
        <ele>53</ele>
        <time>2010-08-01T05:42:30Z</time>
      </trkpt>
      <trkpt lat="48.11534" lon="-1.40313">
        <ele>53</ele>
        <time>2010-08-01T05:42:32Z</time>
      </trkpt>
      <trkpt lat="48.11547" lon="-1.40293">
        <ele>53</ele>
        <time>2010-08-01T05:42:36Z</time>
      </trkpt>
      <trkpt lat="48.11559" lon="-1.40266">
        <ele>52</ele>
        <time>2010-08-01T05:42:41Z</time>
      </trkpt>
      <trkpt lat="48.11565" lon="-1.40247">
        <ele>52</ele>
        <time>2010-08-01T05:42:44Z</time>
      </trkpt>
      <trkpt lat="48.11567" lon="-1.40221">
        <ele>53</ele>
        <time>2010-08-01T05:42:48Z</time>
      </trkpt>
      <trkpt lat="48.11568" lon="-1.40213">
        <ele>54</ele>
        <time>2010-08-01T05:42:49Z</time>
      </trkpt>
      <trkpt lat="48.11568" lon="-1.40194">
        <ele>56</ele>
        <time>2010-08-01T05:42:52Z</time>
      </trkpt>
      <trkpt lat="48.11571" lon="-1.40175">
        <ele>58</ele>
        <time>2010-08-01T05:42:56Z</time>
      </trkpt>
      <trkpt lat="48.11574" lon="-1.4017">
        <ele>58</ele>
        <time>2010-08-01T05:42:57Z</time>
      </trkpt>
      <trkpt lat="48.11581" lon="-1.40162">
        <ele>57</ele>
        <time>2010-08-01T05:42:58Z</time>
      </trkpt>
      <trkpt lat="48.11607" lon="-1.4014">
        <ele>52</ele>
        <time>2010-08-01T05:43:01Z</time>
      </trkpt>
      <trkpt lat="48.11618" lon="-1.40125">
        <ele>52</ele>
        <time>2010-08-01T05:43:03Z</time>
      </trkpt>
      <trkpt lat="48.11632" lon="-1.40109">
        <ele>54</ele>
        <time>2010-08-01T05:43:07Z</time>
      </trkpt>
      <trkpt lat="48.11639" lon="-1.40106">
        <ele>54</ele>
        <time>2010-08-01T05:43:09Z</time>
      </trkpt>
      <trkpt lat="48.11664" lon="-1.40096">
        <ele>53</ele>
        <time>2010-08-01T05:43:14Z</time>
      </trkpt>
      <trkpt lat="48.11681" lon="-1.40095">
        <ele>53</ele>
        <time>2010-08-01T05:43:18Z</time>
      </trkpt>
      <trkpt lat="48.11685" lon="-1.40094">
        <ele>53</ele>
        <time>2010-08-01T05:43:19Z</time>
      </trkpt>
      <trkpt lat="48.11706" lon="-1.4008">
        <ele>54</ele>
        <time>2010-08-01T05:43:24Z</time>
      </trkpt>
      <trkpt lat="48.11717" lon="-1.40074">
        <ele>54</ele>
        <time>2010-08-01T05:43:27Z</time>
      </trkpt>
      <trkpt lat="48.11721" lon="-1.40072">
        <ele>54</ele>
        <time>2010-08-01T05:43:28Z</time>
      </trkpt>
      <trkpt lat="48.11745" lon="-1.40062">
        <ele>55</ele>
        <time>2010-08-01T05:43:32Z</time>
      </trkpt>
      <trkpt lat="48.11761" lon="-1.40055">
        <ele>56</ele>
        <time>2010-08-01T05:43:35Z</time>
      </trkpt>
      <trkpt lat="48.11783" lon="-1.40049">
        <ele>56</ele>
        <time>2010-08-01T05:43:39Z</time>
      </trkpt>
      <trkpt lat="48.11793" lon="-1.40043">
        <ele>56</ele>
        <time>2010-08-01T05:43:41Z</time>
      </trkpt>
      <trkpt lat="48.1181" lon="-1.40032">
        <ele>56</ele>
        <time>2010-08-01T05:43:44Z</time>
      </trkpt>
      <trkpt lat="48.1183" lon="-1.40012">
        <ele>54</ele>
        <time>2010-08-01T05:43:49Z</time>
      </trkpt>
      <trkpt lat="48.11833" lon="-1.4001">
        <ele>54</ele>
        <time>2010-08-01T05:43:50Z</time>
      </trkpt>
      <trkpt lat="48.11836" lon="-1.40006">
        <ele>54</ele>
        <time>2010-08-01T05:43:52Z</time>
      </trkpt>
      <trkpt lat="48.11843" lon="-1.40002">
        <ele>54</ele>
        <time>2010-08-01T05:43:54Z</time>
      </trkpt>
      <trkpt lat="48.1185" lon="-1.39997">
        <ele>55</ele>
        <time>2010-08-01T05:43:56Z</time>
      </trkpt>
      <trkpt lat="48.11858" lon="-1.39989">
        <ele>56</ele>
        <time>2010-08-01T05:43:58Z</time>
      </trkpt>
      <trkpt lat="48.11877" lon="-1.39969">
        <ele>58</ele>
        <time>2010-08-01T05:44:03Z</time>
      </trkpt>
      <trkpt lat="48.11881" lon="-1.39966">
        <ele>57</ele>
        <time>2010-08-01T05:44:04Z</time>
      </trkpt>
      <trkpt lat="48.11907" lon="-1.39956">
        <ele>56</ele>
        <time>2010-08-01T05:44:08Z</time>
      </trkpt>
      <trkpt lat="48.11915" lon="-1.39953">
        <ele>56</ele>
        <time>2010-08-01T05:44:09Z</time>
      </trkpt>
      <trkpt lat="48.11937" lon="-1.39939">
        <ele>56</ele>
        <time>2010-08-01T05:44:13Z</time>
      </trkpt>
      <trkpt lat="48.11955" lon="-1.39916">
        <ele>57</ele>
        <time>2010-08-01T05:44:17Z</time>
      </trkpt>
      <trkpt lat="48.11966" lon="-1.39892">
        <ele>58</ele>
        <time>2010-08-01T05:44:21Z</time>
      </trkpt>
      <trkpt lat="48.11967" lon="-1.39882">
        <ele>58</ele>
        <time>2010-08-01T05:44:23Z</time>
      </trkpt>
      <trkpt lat="48.11973" lon="-1.39868">
        <ele>58</ele>
        <time>2010-08-01T05:44:25Z</time>
      </trkpt>
      <trkpt lat="48.11991" lon="-1.39838">
        <ele>56</ele>
        <time>2010-08-01T05:44:29Z</time>
      </trkpt>
      <trkpt lat="48.11998" lon="-1.39823">
        <ele>56</ele>
        <time>2010-08-01T05:44:31Z</time>
      </trkpt>
      <trkpt lat="48.12006" lon="-1.39809">
        <ele>56</ele>
        <time>2010-08-01T05:44:33Z</time>
      </trkpt>
      <trkpt lat="48.12009" lon="-1.39803">
        <ele>56</ele>
        <time>2010-08-01T05:44:34Z</time>
      </trkpt>
      <trkpt lat="48.12012" lon="-1.39797">
        <ele>56</ele>
        <time>2010-08-01T05:44:35Z</time>
      </trkpt>
      <trkpt lat="48.12015" lon="-1.39789">
        <ele>56</ele>
        <time>2010-08-01T05:44:36Z</time>
      </trkpt>
      <trkpt lat="48.12025" lon="-1.3977">
        <ele>56</ele>
        <time>2010-08-01T05:44:39Z</time>
      </trkpt>
      <trkpt lat="48.1203" lon="-1.39765">
        <ele>55</ele>
        <time>2010-08-01T05:44:40Z</time>
      </trkpt>
      <trkpt lat="48.12047" lon="-1.39739">
        <ele>55</ele>
        <time>2010-08-01T05:44:44Z</time>
      </trkpt>
      <trkpt lat="48.12049" lon="-1.39716">
        <ele>55</ele>
        <time>2010-08-01T05:44:48Z</time>
      </trkpt>
      <trkpt lat="48.12054" lon="-1.39704">
        <ele>55</ele>
        <time>2010-08-01T05:44:50Z</time>
      </trkpt>
      <trkpt lat="48.12063" lon="-1.39685">
        <ele>55</ele>
        <time>2010-08-01T05:44:54Z</time>
      </trkpt>
      <trkpt lat="48.12065" lon="-1.39685">
        <ele>55</ele>
        <time>2010-08-01T05:44:55Z</time>
      </trkpt>
      <trkpt lat="48.12077" lon="-1.39678">
        <ele>54</ele>
        <time>2010-08-01T05:44:59Z</time>
      </trkpt>
      <trkpt lat="48.1208" lon="-1.39672">
        <ele>54</ele>
        <time>2010-08-01T05:45:00Z</time>
      </trkpt>
      <trkpt lat="48.12083" lon="-1.39667">
        <ele>54</ele>
        <time>2010-08-01T05:45:01Z</time>
      </trkpt>
      <trkpt lat="48.12095" lon="-1.39651">
        <ele>54</ele>
        <time>2010-08-01T05:45:05Z</time>
      </trkpt>
      <trkpt lat="48.12098" lon="-1.39649">
        <ele>54</ele>
        <time>2010-08-01T05:45:06Z</time>
      </trkpt>
      <trkpt lat="48.12109" lon="-1.39642">
        <ele>54</ele>
        <time>2010-08-01T05:45:09Z</time>
      </trkpt>
      <trkpt lat="48.12129" lon="-1.39634">
        <ele>54</ele>
        <time>2010-08-01T05:45:14Z</time>
      </trkpt>
      <trkpt lat="48.12147" lon="-1.39632">
        <ele>55</ele>
        <time>2010-08-01T05:45:19Z</time>
      </trkpt>
      <trkpt lat="48.12164" lon="-1.39631">
        <ele>56</ele>
        <time>2010-08-01T05:45:23Z</time>
      </trkpt>
      <trkpt lat="48.12189" lon="-1.39627">
        <ele>57</ele>
        <time>2010-08-01T05:45:29Z</time>
      </trkpt>
      <trkpt lat="48.12195" lon="-1.39624">
        <ele>57</ele>
        <time>2010-08-01T05:45:31Z</time>
      </trkpt>
      <trkpt lat="48.12212" lon="-1.39624">
        <ele>58</ele>
        <time>2010-08-01T05:45:36Z</time>
      </trkpt>
      <trkpt lat="48.12214" lon="-1.39622">
        <ele>58</ele>
        <time>2010-08-01T05:45:37Z</time>
      </trkpt>
      <trkpt lat="48.12225" lon="-1.39622">
        <ele>59</ele>
        <time>2010-08-01T05:45:40Z</time>
      </trkpt>
      <trkpt lat="48.12232" lon="-1.39621">
        <ele>59</ele>
        <time>2010-08-01T05:45:42Z</time>
      </trkpt>
      <trkpt lat="48.12238" lon="-1.39618">
        <ele>60</ele>
        <time>2010-08-01T05:45:44Z</time>
      </trkpt>
      <trkpt lat="48.12243" lon="-1.39618">
        <ele>60</ele>
        <time>2010-08-01T05:45:46Z</time>
      </trkpt>
      <trkpt lat="48.12246" lon="-1.39617">
        <ele>60</ele>
        <time>2010-08-01T05:45:47Z</time>
      </trkpt>
      <trkpt lat="48.12251" lon="-1.39616">
        <ele>61</ele>
        <time>2010-08-01T05:45:49Z</time>
      </trkpt>
      <trkpt lat="48.12256" lon="-1.39613">
        <ele>61</ele>
        <time>2010-08-01T05:45:51Z</time>
      </trkpt>
      <trkpt lat="48.12266" lon="-1.39614">
        <ele>62</ele>
        <time>2010-08-01T05:45:53Z</time>
      </trkpt>
      <trkpt lat="48.12272" lon="-1.39614">
        <ele>62</ele>
        <time>2010-08-01T05:45:54Z</time>
      </trkpt>
      <trkpt lat="48.12282" lon="-1.3961">
        <ele>63</ele>
        <time>2010-08-01T05:45:57Z</time>
      </trkpt>
      <trkpt lat="48.12288" lon="-1.39603">
        <ele>63</ele>
        <time>2010-08-01T05:45:59Z</time>
      </trkpt>
      <trkpt lat="48.1229" lon="-1.39598">
        <ele>64</ele>
        <time>2010-08-01T05:46:00Z</time>
      </trkpt>
      <trkpt lat="48.12292" lon="-1.39595">
        <ele>64</ele>
        <time>2010-08-01T05:46:01Z</time>
      </trkpt>
      <trkpt lat="48.12292" lon="-1.39587">
        <ele>64</ele>
        <time>2010-08-01T05:46:03Z</time>
      </trkpt>
      <trkpt lat="48.12294" lon="-1.39584">
        <ele>64</ele>
        <time>2010-08-01T05:46:04Z</time>
      </trkpt>
      <trkpt lat="48.12295" lon="-1.39579">
        <ele>64</ele>
        <time>2010-08-01T05:46:05Z</time>
      </trkpt>
      <trkpt lat="48.12299" lon="-1.39569">
        <ele>64</ele>
        <time>2010-08-01T05:46:07Z</time>
      </trkpt>
      <trkpt lat="48.12301" lon="-1.39558">
        <ele>65</ele>
        <time>2010-08-01T05:46:09Z</time>
      </trkpt>
      <trkpt lat="48.12302" lon="-1.39553">
        <ele>65</ele>
        <time>2010-08-01T05:46:10Z</time>
      </trkpt>
      <trkpt lat="48.12303" lon="-1.39543">
        <ele>65</ele>
        <time>2010-08-01T05:46:12Z</time>
      </trkpt>
      <trkpt lat="48.12306" lon="-1.39533">
        <ele>65</ele>
        <time>2010-08-01T05:46:14Z</time>
      </trkpt>
      <trkpt lat="48.12308" lon="-1.39523">
        <ele>65</ele>
        <time>2010-08-01T05:46:16Z</time>
      </trkpt>
      <trkpt lat="48.1231" lon="-1.39513">
        <ele>65</ele>
        <time>2010-08-01T05:46:18Z</time>
      </trkpt>
      <trkpt lat="48.12316" lon="-1.39481">
        <ele>65</ele>
        <time>2010-08-01T05:46:23Z</time>
      </trkpt>
      <trkpt lat="48.12319" lon="-1.39468">
        <ele>66</ele>
        <time>2010-08-01T05:46:25Z</time>
      </trkpt>
      <trkpt lat="48.12328" lon="-1.39434">
        <ele>66</ele>
        <time>2010-08-01T05:46:30Z</time>
      </trkpt>
      <trkpt lat="48.12338" lon="-1.39374">
        <ele>66</ele>
        <time>2010-08-01T05:46:38Z</time>
      </trkpt>
      <trkpt lat="48.12348" lon="-1.39318">
        <ele>65</ele>
        <time>2010-08-01T05:46:45Z</time>
      </trkpt>
      <trkpt lat="48.12349" lon="-1.39303">
        <ele>64</ele>
        <time>2010-08-01T05:46:47Z</time>
      </trkpt>
      <trkpt lat="48.12351" lon="-1.39255">
        <ele>62</ele>
        <time>2010-08-01T05:46:53Z</time>
      </trkpt>
      <trkpt lat="48.12351" lon="-1.39246">
        <ele>61</ele>
        <time>2010-08-01T05:46:54Z</time>
      </trkpt>
      <trkpt lat="48.12359" lon="-1.3923">
        <ele>61</ele>
        <time>2010-08-01T05:46:58Z</time>
      </trkpt>
      <trkpt lat="48.12365" lon="-1.39237">
        <ele>62</ele>
        <time>2010-08-01T05:47:00Z</time>
      </trkpt>
      <trkpt lat="48.12368" lon="-1.39242">
        <ele>62</ele>
        <time>2010-08-01T05:47:01Z</time>
      </trkpt>
      <trkpt lat="48.12372" lon="-1.39246">
        <ele>63</ele>
        <time>2010-08-01T05:47:02Z</time>
      </trkpt>
      <trkpt lat="48.12378" lon="-1.39255">
        <ele>64</ele>
        <time>2010-08-01T05:47:04Z</time>
      </trkpt>
      <trkpt lat="48.12384" lon="-1.39262">
        <ele>64</ele>
        <time>2010-08-01T05:47:06Z</time>
      </trkpt>
      <trkpt lat="48.12403" lon="-1.39283">
        <ele>67</ele>
        <time>2010-08-01T05:47:12Z</time>
      </trkpt>
      <trkpt lat="48.12409" lon="-1.3929">
        <ele>67</ele>
        <time>2010-08-01T05:47:14Z</time>
      </trkpt>
      <trkpt lat="48.12415" lon="-1.39297">
        <ele>68</ele>
        <time>2010-08-01T05:47:16Z</time>
      </trkpt>
      <trkpt lat="48.12422" lon="-1.39303">
        <ele>68</ele>
        <time>2010-08-01T05:47:18Z</time>
      </trkpt>
      <trkpt lat="48.12427" lon="-1.39309">
        <ele>68</ele>
        <time>2010-08-01T05:47:20Z</time>
      </trkpt>
      <trkpt lat="48.12433" lon="-1.39317">
        <ele>69</ele>
        <time>2010-08-01T05:47:22Z</time>
      </trkpt>
      <trkpt lat="48.12439" lon="-1.39323">
        <ele>69</ele>
        <time>2010-08-01T05:47:24Z</time>
      </trkpt>
      <trkpt lat="48.12444" lon="-1.3933">
        <ele>69</ele>
        <time>2010-08-01T05:47:26Z</time>
      </trkpt>
      <trkpt lat="48.1245" lon="-1.39337">
        <ele>69</ele>
        <time>2010-08-01T05:47:28Z</time>
      </trkpt>
      <trkpt lat="48.1247" lon="-1.39359">
        <ele>70</ele>
        <time>2010-08-01T05:47:35Z</time>
      </trkpt>
      <trkpt lat="48.12475" lon="-1.39366">
        <ele>70</ele>
        <time>2010-08-01T05:47:37Z</time>
      </trkpt>
      <trkpt lat="48.1248" lon="-1.39374">
        <ele>71</ele>
        <time>2010-08-01T05:47:39Z</time>
      </trkpt>
      <trkpt lat="48.12485" lon="-1.39382">
        <ele>71</ele>
        <time>2010-08-01T05:47:41Z</time>
      </trkpt>
      <trkpt lat="48.1249" lon="-1.39389">
        <ele>71</ele>
        <time>2010-08-01T05:47:43Z</time>
      </trkpt>
      <trkpt lat="48.12494" lon="-1.39398">
        <ele>71</ele>
        <time>2010-08-01T05:47:45Z</time>
      </trkpt>
      <trkpt lat="48.12498" lon="-1.39407">
        <ele>72</ele>
        <time>2010-08-01T05:47:47Z</time>
      </trkpt>
      <trkpt lat="48.12501" lon="-1.39418">
        <ele>72</ele>
        <time>2010-08-01T05:47:49Z</time>
      </trkpt>
      <trkpt lat="48.12505" lon="-1.39428">
        <ele>73</ele>
        <time>2010-08-01T05:47:51Z</time>
      </trkpt>
      <trkpt lat="48.12508" lon="-1.39438">
        <ele>73</ele>
        <time>2010-08-01T05:47:53Z</time>
      </trkpt>
      <trkpt lat="48.12514" lon="-1.3946">
        <ele>74</ele>
        <time>2010-08-01T05:47:57Z</time>
      </trkpt>
      <trkpt lat="48.12516" lon="-1.39472">
        <ele>74</ele>
        <time>2010-08-01T05:47:59Z</time>
      </trkpt>
      <trkpt lat="48.12517" lon="-1.39483">
        <ele>74</ele>
        <time>2010-08-01T05:48:01Z</time>
      </trkpt>
      <trkpt lat="48.12519" lon="-1.39494">
        <ele>74</ele>
        <time>2010-08-01T05:48:03Z</time>
      </trkpt>
      <trkpt lat="48.12521" lon="-1.39506">
        <ele>75</ele>
        <time>2010-08-01T05:48:05Z</time>
      </trkpt>
      <trkpt lat="48.12523" lon="-1.39518">
        <ele>75</ele>
        <time>2010-08-01T05:48:07Z</time>
      </trkpt>
      <trkpt lat="48.12527" lon="-1.39537">
        <ele>75</ele>
        <time>2010-08-01T05:48:10Z</time>
      </trkpt>
      <trkpt lat="48.12539" lon="-1.39544">
        <ele>75</ele>
        <time>2010-08-01T05:48:13Z</time>
      </trkpt>
      <trkpt lat="48.12544" lon="-1.39542">
        <ele>75</ele>
        <time>2010-08-01T05:48:14Z</time>
      </trkpt>
      <trkpt lat="48.1257" lon="-1.39527">
        <ele>76</ele>
        <time>2010-08-01T05:48:20Z</time>
      </trkpt>
      <trkpt lat="48.12579" lon="-1.39525">
        <ele>76</ele>
        <time>2010-08-01T05:48:22Z</time>
      </trkpt>
      <trkpt lat="48.12587" lon="-1.39523">
        <ele>76</ele>
        <time>2010-08-01T05:48:24Z</time>
      </trkpt>
      <trkpt lat="48.12595" lon="-1.3952">
        <ele>76</ele>
        <time>2010-08-01T05:48:26Z</time>
      </trkpt>
      <trkpt lat="48.12604" lon="-1.39516">
        <ele>76</ele>
        <time>2010-08-01T05:48:28Z</time>
      </trkpt>
      <trkpt lat="48.12646" lon="-1.39502">
        <ele>76</ele>
        <time>2010-08-01T05:48:37Z</time>
      </trkpt>
      <trkpt lat="48.12655" lon="-1.39498">
        <ele>76</ele>
        <time>2010-08-01T05:48:39Z</time>
      </trkpt>
      <trkpt lat="48.12665" lon="-1.39495">
        <ele>76</ele>
        <time>2010-08-01T05:48:41Z</time>
      </trkpt>
      <trkpt lat="48.12675" lon="-1.39492">
        <ele>76</ele>
        <time>2010-08-01T05:48:43Z</time>
      </trkpt>
      <trkpt lat="48.12685" lon="-1.39488">
        <ele>76</ele>
        <time>2010-08-01T05:48:45Z</time>
      </trkpt>
      <trkpt lat="48.12707" lon="-1.3948">
        <ele>76</ele>
        <time>2010-08-01T05:48:49Z</time>
      </trkpt>
      <trkpt lat="48.1273" lon="-1.39484">
        <ele>75</ele>
        <time>2010-08-01T05:48:53Z</time>
      </trkpt>
      <trkpt lat="48.12737" lon="-1.39488">
        <ele>75</ele>
        <time>2010-08-01T05:48:54Z</time>
      </trkpt>
      <trkpt lat="48.12743" lon="-1.39491">
        <ele>75</ele>
        <time>2010-08-01T05:48:55Z</time>
      </trkpt>
      <trkpt lat="48.12761" lon="-1.39489">
        <ele>75</ele>
        <time>2010-08-01T05:48:58Z</time>
      </trkpt>
      <trkpt lat="48.12772" lon="-1.39486">
        <ele>74</ele>
        <time>2010-08-01T05:49:00Z</time>
      </trkpt>
      <trkpt lat="48.12778" lon="-1.39484">
        <ele>74</ele>
        <time>2010-08-01T05:49:01Z</time>
      </trkpt>
      <trkpt lat="48.12796" lon="-1.39483">
        <ele>74</ele>
        <time>2010-08-01T05:49:04Z</time>
      </trkpt>
      <trkpt lat="48.12831" lon="-1.39484">
        <ele>75</ele>
        <time>2010-08-01T05:49:10Z</time>
      </trkpt>
      <trkpt lat="48.12836" lon="-1.39483">
        <ele>75</ele>
        <time>2010-08-01T05:49:11Z</time>
      </trkpt>
      <trkpt lat="48.12849" lon="-1.39483">
        <ele>75</ele>
        <time>2010-08-01T05:49:14Z</time>
      </trkpt>
      <trkpt lat="48.12879" lon="-1.39487">
        <ele>76</ele>
        <time>2010-08-01T05:49:20Z</time>
      </trkpt>
      <trkpt lat="48.12891" lon="-1.39487">
        <ele>76</ele>
        <time>2010-08-01T05:49:23Z</time>
      </trkpt>
      <trkpt lat="48.12918" lon="-1.39493">
        <ele>77</ele>
        <time>2010-08-01T05:49:28Z</time>
      </trkpt>
      <trkpt lat="48.1293" lon="-1.39498">
        <ele>78</ele>
        <time>2010-08-01T05:49:30Z</time>
      </trkpt>
      <trkpt lat="48.12942" lon="-1.39504">
        <ele>79</ele>
        <time>2010-08-01T05:49:32Z</time>
      </trkpt>
      <trkpt lat="48.12952" lon="-1.39507">
        <ele>79</ele>
        <time>2010-08-01T05:49:34Z</time>
      </trkpt>
      <trkpt lat="48.12959" lon="-1.39507">
        <ele>79</ele>
        <time>2010-08-01T05:49:36Z</time>
      </trkpt>
      <trkpt lat="48.12963" lon="-1.39508">
        <ele>79</ele>
        <time>2010-08-01T05:49:37Z</time>
      </trkpt>
      <trkpt lat="48.12988" lon="-1.39517">
        <ele>80</ele>
        <time>2010-08-01T05:49:42Z</time>
      </trkpt>
      <trkpt lat="48.12996" lon="-1.3952">
        <ele>81</ele>
        <time>2010-08-01T05:49:44Z</time>
      </trkpt>
      <trkpt lat="48.13005" lon="-1.39523">
        <ele>81</ele>
        <time>2010-08-01T05:49:46Z</time>
      </trkpt>
      <trkpt lat="48.13014" lon="-1.39527">
        <ele>81</ele>
        <time>2010-08-01T05:49:48Z</time>
      </trkpt>
      <trkpt lat="48.13018" lon="-1.39527">
        <ele>81</ele>
        <time>2010-08-01T05:49:49Z</time>
      </trkpt>
      <trkpt lat="48.13044" lon="-1.39536">
        <ele>83</ele>
        <time>2010-08-01T05:49:55Z</time>
      </trkpt>
      <trkpt lat="48.13052" lon="-1.3954">
        <ele>83</ele>
        <time>2010-08-01T05:49:57Z</time>
      </trkpt>
      <trkpt lat="48.13056" lon="-1.39542">
        <ele>84</ele>
        <time>2010-08-01T05:49:58Z</time>
      </trkpt>
      <trkpt lat="48.13069" lon="-1.39547">
        <ele>84</ele>
        <time>2010-08-01T05:50:01Z</time>
      </trkpt>
      <trkpt lat="48.13078" lon="-1.3955">
        <ele>85</ele>
        <time>2010-08-01T05:50:03Z</time>
      </trkpt>
      <trkpt lat="48.13085" lon="-1.39554">
        <ele>85</ele>
        <time>2010-08-01T05:50:05Z</time>
      </trkpt>
      <trkpt lat="48.13093" lon="-1.39557">
        <ele>86</ele>
        <time>2010-08-01T05:50:07Z</time>
      </trkpt>
      <trkpt lat="48.13101" lon="-1.39559">
        <ele>86</ele>
        <time>2010-08-01T05:50:09Z</time>
      </trkpt>
      <trkpt lat="48.13109" lon="-1.39562">
        <ele>87</ele>
        <time>2010-08-01T05:50:11Z</time>
      </trkpt>
      <trkpt lat="48.13117" lon="-1.39565">
        <ele>87</ele>
        <time>2010-08-01T05:50:13Z</time>
      </trkpt>
      <trkpt lat="48.13121" lon="-1.39566">
        <ele>87</ele>
        <time>2010-08-01T05:50:14Z</time>
      </trkpt>
      <trkpt lat="48.13129" lon="-1.39569">
        <ele>88</ele>
        <time>2010-08-01T05:50:16Z</time>
      </trkpt>
      <trkpt lat="48.13136" lon="-1.39572">
        <ele>88</ele>
        <time>2010-08-01T05:50:18Z</time>
      </trkpt>
      <trkpt lat="48.13143" lon="-1.39574">
        <ele>89</ele>
        <time>2010-08-01T05:50:20Z</time>
      </trkpt>
      <trkpt lat="48.13151" lon="-1.39576">
        <ele>89</ele>
        <time>2010-08-01T05:50:22Z</time>
      </trkpt>
      <trkpt lat="48.13161" lon="-1.39579">
        <ele>90</ele>
        <time>2010-08-01T05:50:25Z</time>
      </trkpt>
      <trkpt lat="48.13167" lon="-1.39581">
        <ele>90</ele>
        <time>2010-08-01T05:50:27Z</time>
      </trkpt>
      <trkpt lat="48.13174" lon="-1.39583">
        <ele>91</ele>
        <time>2010-08-01T05:50:29Z</time>
      </trkpt>
      <trkpt lat="48.1318" lon="-1.39586">
        <ele>91</ele>
        <time>2010-08-01T05:50:31Z</time>
      </trkpt>
      <trkpt lat="48.13187" lon="-1.39589">
        <ele>91</ele>
        <time>2010-08-01T05:50:33Z</time>
      </trkpt>
      <trkpt lat="48.13198" lon="-1.39593">
        <ele>92</ele>
        <time>2010-08-01T05:50:36Z</time>
      </trkpt>
      <trkpt lat="48.13205" lon="-1.39596">
        <ele>92</ele>
        <time>2010-08-01T05:50:38Z</time>
      </trkpt>
      <trkpt lat="48.13212" lon="-1.39599">
        <ele>93</ele>
        <time>2010-08-01T05:50:40Z</time>
      </trkpt>
      <trkpt lat="48.13218" lon="-1.39601">
        <ele>93</ele>
        <time>2010-08-01T05:50:42Z</time>
      </trkpt>
      <trkpt lat="48.13225" lon="-1.39603">
        <ele>93</ele>
        <time>2010-08-01T05:50:44Z</time>
      </trkpt>
      <trkpt lat="48.13234" lon="-1.39607">
        <ele>93</ele>
        <time>2010-08-01T05:50:47Z</time>
      </trkpt>
      <trkpt lat="48.13241" lon="-1.39608">
        <ele>94</ele>
        <time>2010-08-01T05:50:49Z</time>
      </trkpt>
      <trkpt lat="48.13248" lon="-1.39609">
        <ele>94</ele>
        <time>2010-08-01T05:50:51Z</time>
      </trkpt>
      <trkpt lat="48.13255" lon="-1.3961">
        <ele>94</ele>
        <time>2010-08-01T05:50:53Z</time>
      </trkpt>
      <trkpt lat="48.13262" lon="-1.39611">
        <ele>94</ele>
        <time>2010-08-01T05:50:55Z</time>
      </trkpt>
      <trkpt lat="48.13273" lon="-1.39611">
        <ele>95</ele>
        <time>2010-08-01T05:50:58Z</time>
      </trkpt>
      <trkpt lat="48.1328" lon="-1.3961">
        <ele>95</ele>
        <time>2010-08-01T05:51:00Z</time>
      </trkpt>
      <trkpt lat="48.13288" lon="-1.3961">
        <ele>95</ele>
        <time>2010-08-01T05:51:02Z</time>
      </trkpt>
      <trkpt lat="48.13292" lon="-1.39609">
        <ele>95</ele>
        <time>2010-08-01T05:51:03Z</time>
      </trkpt>
      <trkpt lat="48.13296" lon="-1.39608">
        <ele>96</ele>
        <time>2010-08-01T05:51:04Z</time>
      </trkpt>
      <trkpt lat="48.13304" lon="-1.39607">
        <ele>96</ele>
        <time>2010-08-01T05:51:06Z</time>
      </trkpt>
      <trkpt lat="48.13308" lon="-1.39605">
        <ele>96</ele>
        <time>2010-08-01T05:51:07Z</time>
      </trkpt>
      <trkpt lat="48.13325" lon="-1.39598">
        <ele>96</ele>
        <time>2010-08-01T05:51:12Z</time>
      </trkpt>
      <trkpt lat="48.13338" lon="-1.39592">
        <ele>97</ele>
        <time>2010-08-01T05:51:16Z</time>
      </trkpt>
      <trkpt lat="48.13342" lon="-1.39591">
        <ele>97</ele>
        <time>2010-08-01T05:51:17Z</time>
      </trkpt>
      <trkpt lat="48.1335" lon="-1.3959">
        <ele>97</ele>
        <time>2010-08-01T05:51:19Z</time>
      </trkpt>
      <trkpt lat="48.13357" lon="-1.39589">
        <ele>97</ele>
        <time>2010-08-01T05:51:21Z</time>
      </trkpt>
      <trkpt lat="48.13363" lon="-1.39589">
        <ele>97</ele>
        <time>2010-08-01T05:51:23Z</time>
      </trkpt>
      <trkpt lat="48.1337" lon="-1.39589">
        <ele>97</ele>
        <time>2010-08-01T05:51:25Z</time>
      </trkpt>
      <trkpt lat="48.13372" lon="-1.39589">
        <ele>97</ele>
        <time>2010-08-01T05:51:26Z</time>
      </trkpt>
      <trkpt lat="48.13381" lon="-1.3959">
        <ele>97</ele>
        <time>2010-08-01T05:51:29Z</time>
      </trkpt>
      <trkpt lat="48.134" lon="-1.39593">
        <ele>97</ele>
        <time>2010-08-01T05:51:33Z</time>
      </trkpt>
      <trkpt lat="48.13414" lon="-1.396">
        <ele>97</ele>
        <time>2010-08-01T05:51:37Z</time>
      </trkpt>
      <trkpt lat="48.13416" lon="-1.396">
        <ele>97</ele>
        <time>2010-08-01T05:51:38Z</time>
      </trkpt>
      <trkpt lat="48.13425" lon="-1.39604">
        <ele>97</ele>
        <time>2010-08-01T05:51:40Z</time>
      </trkpt>
      <trkpt lat="48.13452" lon="-1.39613">
        <ele>97</ele>
        <time>2010-08-01T05:51:45Z</time>
      </trkpt>
      <trkpt lat="48.13473" lon="-1.39618">
        <ele>97</ele>
        <time>2010-08-01T05:51:49Z</time>
      </trkpt>
      <trkpt lat="48.13504" lon="-1.39635">
        <ele>96</ele>
        <time>2010-08-01T05:51:54Z</time>
      </trkpt>
      <trkpt lat="48.1352" lon="-1.39638">
        <ele>96</ele>
        <time>2010-08-01T05:51:57Z</time>
      </trkpt>
      <trkpt lat="48.13533" lon="-1.3964">
        <ele>97</ele>
        <time>2010-08-01T05:52:00Z</time>
      </trkpt>
      <trkpt lat="48.13537" lon="-1.39642">
        <ele>97</ele>
        <time>2010-08-01T05:52:01Z</time>
      </trkpt>
      <trkpt lat="48.13561" lon="-1.39648">
        <ele>97</ele>
        <time>2010-08-01T05:52:06Z</time>
      </trkpt>
      <trkpt lat="48.1357" lon="-1.39652">
        <ele>97</ele>
        <time>2010-08-01T05:52:08Z</time>
      </trkpt>
      <trkpt lat="48.13594" lon="-1.39667">
        <ele>97</ele>
        <time>2010-08-01T05:52:13Z</time>
      </trkpt>
      <trkpt lat="48.13605" lon="-1.39671">
        <ele>97</ele>
        <time>2010-08-01T05:52:16Z</time>
      </trkpt>
      <trkpt lat="48.1363" lon="-1.39694">
        <ele>97</ele>
        <time>2010-08-01T05:52:21Z</time>
      </trkpt>
      <trkpt lat="48.13655" lon="-1.39712">
        <ele>97</ele>
        <time>2010-08-01T05:52:26Z</time>
      </trkpt>
      <trkpt lat="48.13676" lon="-1.39728">
        <ele>97</ele>
        <time>2010-08-01T05:52:30Z</time>
      </trkpt>
      <trkpt lat="48.13682" lon="-1.39735">
        <ele>98</ele>
        <time>2010-08-01T05:52:31Z</time>
      </trkpt>
      <trkpt lat="48.13695" lon="-1.39746">
        <ele>98</ele>
        <time>2010-08-01T05:52:34Z</time>
      </trkpt>
      <trkpt lat="48.13716" lon="-1.39758">
        <ele>98</ele>
        <time>2010-08-01T05:52:39Z</time>
      </trkpt>
      <trkpt lat="48.13724" lon="-1.39761">
        <ele>99</ele>
        <time>2010-08-01T05:52:41Z</time>
      </trkpt>
      <trkpt lat="48.13725" lon="-1.39762">
        <ele>99</ele>
        <time>2010-08-01T05:52:42Z</time>
      </trkpt>
      <trkpt lat="48.13729" lon="-1.39764">
        <ele>99</ele>
        <time>2010-08-01T05:52:43Z</time>
      </trkpt>
      <trkpt lat="48.13733" lon="-1.39766">
        <ele>99</ele>
        <time>2010-08-01T05:52:45Z</time>
      </trkpt>
      <trkpt lat="48.13736" lon="-1.39768">
        <ele>99</ele>
        <time>2010-08-01T05:52:46Z</time>
      </trkpt>
      <trkpt lat="48.13741" lon="-1.3977">
        <ele>99</ele>
        <time>2010-08-01T05:52:47Z</time>
      </trkpt>
      <trkpt lat="48.13756" lon="-1.39772">
        <ele>100</ele>
        <time>2010-08-01T05:52:50Z</time>
      </trkpt>
      <trkpt lat="48.13759" lon="-1.39749">
        <ele>100</ele>
        <time>2010-08-01T05:52:55Z</time>
      </trkpt>
      <trkpt lat="48.1376" lon="-1.39743">
        <ele>100</ele>
        <time>2010-08-01T05:52:56Z</time>
      </trkpt>
      <trkpt lat="48.13766" lon="-1.39722">
        <ele>100</ele>
        <time>2010-08-01T05:52:59Z</time>
      </trkpt>
      <trkpt lat="48.1377" lon="-1.39695">
        <ele>101</ele>
        <time>2010-08-01T05:53:04Z</time>
      </trkpt>
      <trkpt lat="48.1377" lon="-1.3968">
        <ele>101</ele>
        <time>2010-08-01T05:53:08Z</time>
      </trkpt>
      <trkpt lat="48.13771" lon="-1.39673">
        <ele>101</ele>
        <time>2010-08-01T05:53:09Z</time>
      </trkpt>
      <trkpt lat="48.13772" lon="-1.39653">
        <ele>101</ele>
        <time>2010-08-01T05:53:11Z</time>
      </trkpt>
      <trkpt lat="48.13771" lon="-1.39644">
        <ele>101</ele>
        <time>2010-08-01T05:53:12Z</time>
      </trkpt>
      <trkpt lat="48.13769" lon="-1.39624">
        <ele>101</ele>
        <time>2010-08-01T05:53:14Z</time>
      </trkpt>
      <trkpt lat="48.13768" lon="-1.39608">
        <ele>100</ele>
        <time>2010-08-01T05:53:16Z</time>
      </trkpt>
      <trkpt lat="48.13767" lon="-1.39592">
        <ele>100</ele>
        <time>2010-08-01T05:53:18Z</time>
      </trkpt>
      <trkpt lat="48.13761" lon="-1.39546">
        <ele>99</ele>
        <time>2010-08-01T05:53:23Z</time>
      </trkpt>
      <trkpt lat="48.1376" lon="-1.39539">
        <ele>99</ele>
        <time>2010-08-01T05:53:24Z</time>
      </trkpt>
      <trkpt lat="48.13759" lon="-1.39522">
        <ele>99</ele>
        <time>2010-08-01T05:53:26Z</time>
      </trkpt>
      <trkpt lat="48.1376" lon="-1.3948">
        <ele>98</ele>
        <time>2010-08-01T05:53:31Z</time>
      </trkpt>
      <trkpt lat="48.13759" lon="-1.39461">
        <ele>98</ele>
        <time>2010-08-01T05:53:33Z</time>
      </trkpt>
      <trkpt lat="48.13758" lon="-1.39445">
        <ele>97</ele>
        <time>2010-08-01T05:53:35Z</time>
      </trkpt>
      <trkpt lat="48.13755" lon="-1.39433">
        <ele>97</ele>
        <time>2010-08-01T05:53:37Z</time>
      </trkpt>
      <trkpt lat="48.13752" lon="-1.39427">
        <ele>96</ele>
        <time>2010-08-01T05:53:38Z</time>
      </trkpt>
      <trkpt lat="48.13754" lon="-1.39402">
        <ele>96</ele>
        <time>2010-08-01T05:53:42Z</time>
      </trkpt>
      <trkpt lat="48.13759" lon="-1.39399">
        <ele>96</ele>
        <time>2010-08-01T05:53:43Z</time>
      </trkpt>
      <trkpt lat="48.13764" lon="-1.39399">
        <ele>96</ele>
        <time>2010-08-01T05:53:44Z</time>
      </trkpt>
      <trkpt lat="48.13775" lon="-1.394">
        <ele>96</ele>
        <time>2010-08-01T05:53:46Z</time>
      </trkpt>
      <trkpt lat="48.13788" lon="-1.39393">
        <ele>96</ele>
        <time>2010-08-01T05:53:49Z</time>
      </trkpt>
      <trkpt lat="48.13791" lon="-1.39385">
        <ele>96</ele>
        <time>2010-08-01T05:53:50Z</time>
      </trkpt>
      <trkpt lat="48.13794" lon="-1.39378">
        <ele>96</ele>
        <time>2010-08-01T05:53:51Z</time>
      </trkpt>
      <trkpt lat="48.13801" lon="-1.39356">
        <ele>95</ele>
        <time>2010-08-01T05:53:55Z</time>
      </trkpt>
      <trkpt lat="48.13805" lon="-1.39333">
        <ele>95</ele>
        <time>2010-08-01T05:53:59Z</time>
      </trkpt>
      <trkpt lat="48.13805" lon="-1.39328">
        <ele>94</ele>
        <time>2010-08-01T05:54:00Z</time>
      </trkpt>
      <trkpt lat="48.13806" lon="-1.39317">
        <ele>94</ele>
        <time>2010-08-01T05:54:02Z</time>
      </trkpt>
      <trkpt lat="48.13807" lon="-1.39307">
        <ele>94</ele>
        <time>2010-08-01T05:54:04Z</time>
      </trkpt>
      <trkpt lat="48.13806" lon="-1.39302">
        <ele>94</ele>
        <time>2010-08-01T05:54:05Z</time>
      </trkpt>
      <trkpt lat="48.13808" lon="-1.39293">
        <ele>94</ele>
        <time>2010-08-01T05:54:08Z</time>
      </trkpt>
      <trkpt lat="48.1381" lon="-1.39288">
        <ele>93</ele>
        <time>2010-08-01T05:54:10Z</time>
      </trkpt>
      <trkpt lat="48.1381" lon="-1.39285">
        <ele>93</ele>
        <time>2010-08-01T05:54:11Z</time>
      </trkpt>
      <trkpt lat="48.13808" lon="-1.3928">
        <ele>93</ele>
        <time>2010-08-01T05:54:12Z</time>
      </trkpt>
      <trkpt lat="48.13806" lon="-1.39273">
        <ele>93</ele>
        <time>2010-08-01T05:54:14Z</time>
      </trkpt>
      <trkpt lat="48.13805" lon="-1.39269">
        <ele>93</ele>
        <time>2010-08-01T05:54:15Z</time>
      </trkpt>
      <trkpt lat="48.13807" lon="-1.39249">
        <ele>93</ele>
        <time>2010-08-01T05:54:18Z</time>
      </trkpt>
      <trkpt lat="48.13809" lon="-1.39245">
        <ele>93</ele>
        <time>2010-08-01T05:54:19Z</time>
      </trkpt>
      <trkpt lat="48.13823" lon="-1.39247">
        <ele>94</ele>
        <time>2010-08-01T05:54:22Z</time>
      </trkpt>
      <trkpt lat="48.13828" lon="-1.39246">
        <ele>94</ele>
        <time>2010-08-01T05:54:23Z</time>
      </trkpt>
      <trkpt lat="48.13832" lon="-1.39243">
        <ele>94</ele>
        <time>2010-08-01T05:54:25Z</time>
      </trkpt>
      <trkpt lat="48.13837" lon="-1.39231">
        <ele>94</ele>
        <time>2010-08-01T05:54:28Z</time>
      </trkpt>
      <trkpt lat="48.13841" lon="-1.39225">
        <ele>95</ele>
        <time>2010-08-01T05:54:30Z</time>
      </trkpt>
      <trkpt lat="48.13843" lon="-1.39224">
        <ele>95</ele>
        <time>2010-08-01T05:54:31Z</time>
      </trkpt>
      <trkpt lat="48.13848" lon="-1.39219">
        <ele>95</ele>
        <time>2010-08-01T05:54:34Z</time>
      </trkpt>
      <trkpt lat="48.13852" lon="-1.39212">
        <ele>95</ele>
        <time>2010-08-01T05:54:36Z</time>
      </trkpt>
      <trkpt lat="48.1386" lon="-1.39206">
        <ele>96</ele>
        <time>2010-08-01T05:54:38Z</time>
      </trkpt>
      <trkpt lat="48.13866" lon="-1.39203">
        <ele>96</ele>
        <time>2010-08-01T05:54:39Z</time>
      </trkpt>
      <trkpt lat="48.13871" lon="-1.392">
        <ele>97</ele>
        <time>2010-08-01T05:54:40Z</time>
      </trkpt>
      <trkpt lat="48.13878" lon="-1.39195">
        <ele>97</ele>
        <time>2010-08-01T05:54:42Z</time>
      </trkpt>
      <trkpt lat="48.13881" lon="-1.39187">
        <ele>98</ele>
        <time>2010-08-01T05:54:44Z</time>
      </trkpt>
      <trkpt lat="48.13882" lon="-1.39184">
        <ele>98</ele>
        <time>2010-08-01T05:54:45Z</time>
      </trkpt>
      <trkpt lat="48.13886" lon="-1.39179">
        <ele>98</ele>
        <time>2010-08-01T05:54:48Z</time>
      </trkpt>
      <trkpt lat="48.1389" lon="-1.39174">
        <ele>98</ele>
        <time>2010-08-01T05:54:50Z</time>
      </trkpt>
      <trkpt lat="48.13892" lon="-1.3917">
        <ele>99</ele>
        <time>2010-08-01T05:54:51Z</time>
      </trkpt>
      <trkpt lat="48.13895" lon="-1.39165">
        <ele>99</ele>
        <time>2010-08-01T05:54:52Z</time>
      </trkpt>
      <trkpt lat="48.13897" lon="-1.39161">
        <ele>99</ele>
        <time>2010-08-01T05:54:53Z</time>
      </trkpt>
      <trkpt lat="48.13902" lon="-1.39151">
        <ele>99</ele>
        <time>2010-08-01T05:54:57Z</time>
      </trkpt>
      <trkpt lat="48.13904" lon="-1.39146">
        <ele>99</ele>
        <time>2010-08-01T05:54:59Z</time>
      </trkpt>
      <trkpt lat="48.1391" lon="-1.39138">
        <ele>100</ele>
        <time>2010-08-01T05:55:01Z</time>
      </trkpt>
      <trkpt lat="48.13914" lon="-1.39135">
        <ele>100</ele>
        <time>2010-08-01T05:55:02Z</time>
      </trkpt>
      <trkpt lat="48.13924" lon="-1.39127">
        <ele>100</ele>
        <time>2010-08-01T05:55:05Z</time>
      </trkpt>
      <trkpt lat="48.13932" lon="-1.39124">
        <ele>101</ele>
        <time>2010-08-01T05:55:07Z</time>
      </trkpt>
      <trkpt lat="48.1394" lon="-1.3912">
        <ele>101</ele>
        <time>2010-08-01T05:55:09Z</time>
      </trkpt>
      <trkpt lat="48.13946" lon="-1.39116">
        <ele>102</ele>
        <time>2010-08-01T05:55:11Z</time>
      </trkpt>
      <trkpt lat="48.13951" lon="-1.39111">
        <ele>102</ele>
        <time>2010-08-01T05:55:13Z</time>
      </trkpt>
      <trkpt lat="48.13954" lon="-1.39107">
        <ele>103</ele>
        <time>2010-08-01T05:55:15Z</time>
      </trkpt>
      <trkpt lat="48.13955" lon="-1.39105">
        <ele>103</ele>
        <time>2010-08-01T05:55:16Z</time>
      </trkpt>
      <trkpt lat="48.13959" lon="-1.39102">
        <ele>103</ele>
        <time>2010-08-01T05:55:18Z</time>
      </trkpt>
      <trkpt lat="48.13964" lon="-1.39098">
        <ele>103</ele>
        <time>2010-08-01T05:55:20Z</time>
      </trkpt>
      <trkpt lat="48.13971" lon="-1.39092">
        <ele>104</ele>
        <time>2010-08-01T05:55:22Z</time>
      </trkpt>
      <trkpt lat="48.13974" lon="-1.3909">
        <ele>104</ele>
        <time>2010-08-01T05:55:24Z</time>
      </trkpt>
      <trkpt lat="48.13977" lon="-1.39085">
        <ele>104</ele>
        <time>2010-08-01T05:55:26Z</time>
      </trkpt>
      <trkpt lat="48.13992" lon="-1.39078">
        <ele>105</ele>
        <time>2010-08-01T05:55:30Z</time>
      </trkpt>
      <trkpt lat="48.13997" lon="-1.3907">
        <ele>105</ele>
        <time>2010-08-01T05:55:33Z</time>
      </trkpt>
      <trkpt lat="48.13999" lon="-1.39067">
        <ele>106</ele>
        <time>2010-08-01T05:55:34Z</time>
      </trkpt>
      <trkpt lat="48.14004" lon="-1.39061">
        <ele>106</ele>
        <time>2010-08-01T05:55:37Z</time>
      </trkpt>
      <trkpt lat="48.14009" lon="-1.39057">
        <ele>106</ele>
        <time>2010-08-01T05:55:39Z</time>
      </trkpt>
      <trkpt lat="48.1401" lon="-1.39054">
        <ele>106</ele>
        <time>2010-08-01T05:55:40Z</time>
      </trkpt>
      <trkpt lat="48.14012" lon="-1.39051">
        <ele>106</ele>
        <time>2010-08-01T05:55:41Z</time>
      </trkpt>
      <trkpt lat="48.14025" lon="-1.39037">
        <ele>107</ele>
        <time>2010-08-01T05:55:46Z</time>
      </trkpt>
      <trkpt lat="48.14029" lon="-1.39033">
        <ele>108</ele>
        <time>2010-08-01T05:55:48Z</time>
      </trkpt>
      <trkpt lat="48.14033" lon="-1.39029">
        <ele>108</ele>
        <time>2010-08-01T05:55:50Z</time>
      </trkpt>
      <trkpt lat="48.14034" lon="-1.39026">
        <ele>108</ele>
        <time>2010-08-01T05:55:51Z</time>
      </trkpt>
      <trkpt lat="48.14035" lon="-1.39023">
        <ele>108</ele>
        <time>2010-08-01T05:55:52Z</time>
      </trkpt>
      <trkpt lat="48.14033" lon="-1.39018">
        <ele>108</ele>
        <time>2010-08-01T05:55:54Z</time>
      </trkpt>
      <trkpt lat="48.14028" lon="-1.39002">
        <ele>108</ele>
        <time>2010-08-01T05:55:58Z</time>
      </trkpt>
      <trkpt lat="48.14028" lon="-1.38998">
        <ele>108</ele>
        <time>2010-08-01T05:55:59Z</time>
      </trkpt>
      <trkpt lat="48.14027" lon="-1.38992">
        <ele>108</ele>
        <time>2010-08-01T05:56:00Z</time>
      </trkpt>
      <trkpt lat="48.14019" lon="-1.38976">
        <ele>108</ele>
        <time>2010-08-01T05:56:03Z</time>
      </trkpt>
      <trkpt lat="48.14016" lon="-1.38941">
        <ele>108</ele>
        <time>2010-08-01T05:56:08Z</time>
      </trkpt>
      <trkpt lat="48.14009" lon="-1.38931">
        <ele>108</ele>
        <time>2010-08-01T05:56:11Z</time>
      </trkpt>
      <trkpt lat="48.13998" lon="-1.38917">
        <ele>108</ele>
        <time>2010-08-01T05:56:14Z</time>
      </trkpt>
      <trkpt lat="48.13991" lon="-1.38901">
        <ele>108</ele>
        <time>2010-08-01T05:56:18Z</time>
      </trkpt>
      <trkpt lat="48.1399" lon="-1.38897">
        <ele>108</ele>
        <time>2010-08-01T05:56:19Z</time>
      </trkpt>
      <trkpt lat="48.13988" lon="-1.3889">
        <ele>108</ele>
        <time>2010-08-01T05:56:20Z</time>
      </trkpt>
      <trkpt lat="48.13986" lon="-1.38863">
        <ele>108</ele>
        <time>2010-08-01T05:56:24Z</time>
      </trkpt>
      <trkpt lat="48.13984" lon="-1.38846">
        <ele>109</ele>
        <time>2010-08-01T05:56:27Z</time>
      </trkpt>
      <trkpt lat="48.13968" lon="-1.38822">
        <ele>109</ele>
        <time>2010-08-01T05:56:33Z</time>
      </trkpt>
      <trkpt lat="48.13958" lon="-1.3881">
        <ele>108</ele>
        <time>2010-08-01T05:56:36Z</time>
      </trkpt>
      <trkpt lat="48.13946" lon="-1.38786">
        <ele>108</ele>
        <time>2010-08-01T05:56:41Z</time>
      </trkpt>
      <trkpt lat="48.13932" lon="-1.38754">
        <ele>108</ele>
        <time>2010-08-01T05:56:45Z</time>
      </trkpt>
      <trkpt lat="48.13926" lon="-1.38737">
        <ele>107</ele>
        <time>2010-08-01T05:56:47Z</time>
      </trkpt>
      <trkpt lat="48.13914" lon="-1.38713">
        <ele>107</ele>
        <time>2010-08-01T05:56:51Z</time>
      </trkpt>
      <trkpt lat="48.13903" lon="-1.38693">
        <ele>106</ele>
        <time>2010-08-01T05:56:54Z</time>
      </trkpt>
      <trkpt lat="48.13896" lon="-1.38679">
        <ele>106</ele>
        <time>2010-08-01T05:56:56Z</time>
      </trkpt>
      <trkpt lat="48.13892" lon="-1.38671">
        <ele>106</ele>
        <time>2010-08-01T05:56:57Z</time>
      </trkpt>
      <trkpt lat="48.13882" lon="-1.38654">
        <ele>105</ele>
        <time>2010-08-01T05:57:00Z</time>
      </trkpt>
      <trkpt lat="48.13876" lon="-1.38641">
        <ele>105</ele>
        <time>2010-08-01T05:57:02Z</time>
      </trkpt>
      <trkpt lat="48.13875" lon="-1.38635">
        <ele>105</ele>
        <time>2010-08-01T05:57:03Z</time>
      </trkpt>
      <trkpt lat="48.13869" lon="-1.38623">
        <ele>104</ele>
        <time>2010-08-01T05:57:05Z</time>
      </trkpt>
      <trkpt lat="48.13863" lon="-1.38598">
        <ele>104</ele>
        <time>2010-08-01T05:57:09Z</time>
      </trkpt>
      <trkpt lat="48.13851" lon="-1.38574">
        <ele>103</ele>
        <time>2010-08-01T05:57:13Z</time>
      </trkpt>
      <trkpt lat="48.13848" lon="-1.38566">
        <ele>103</ele>
        <time>2010-08-01T05:57:14Z</time>
      </trkpt>
      <trkpt lat="48.13834" lon="-1.3853">
        <ele>103</ele>
        <time>2010-08-01T05:57:18Z</time>
      </trkpt>
      <trkpt lat="48.13829" lon="-1.38518">
        <ele>103</ele>
        <time>2010-08-01T05:57:20Z</time>
      </trkpt>
      <trkpt lat="48.13827" lon="-1.38514">
        <ele>102</ele>
        <time>2010-08-01T05:57:22Z</time>
      </trkpt>
      <trkpt lat="48.13824" lon="-1.38507">
        <ele>102</ele>
        <time>2010-08-01T05:57:24Z</time>
      </trkpt>
      <trkpt lat="48.13821" lon="-1.38501">
        <ele>102</ele>
        <time>2010-08-01T05:57:25Z</time>
      </trkpt>
      <trkpt lat="48.13828" lon="-1.3847">
        <ele>103</ele>
        <time>2010-08-01T05:57:30Z</time>
      </trkpt>
      <trkpt lat="48.13829" lon="-1.38462">
        <ele>103</ele>
        <time>2010-08-01T05:57:31Z</time>
      </trkpt>
      <trkpt lat="48.1383" lon="-1.38457">
        <ele>103</ele>
        <time>2010-08-01T05:57:32Z</time>
      </trkpt>
      <trkpt lat="48.13841" lon="-1.38432">
        <ele>104</ele>
        <time>2010-08-01T05:57:37Z</time>
      </trkpt>
      <trkpt lat="48.13851" lon="-1.38419">
        <ele>105</ele>
        <time>2010-08-01T05:57:41Z</time>
      </trkpt>
      <trkpt lat="48.13852" lon="-1.38415">
        <ele>105</ele>
        <time>2010-08-01T05:57:42Z</time>
      </trkpt>
      <trkpt lat="48.13857" lon="-1.38407">
        <ele>106</ele>
        <time>2010-08-01T05:57:44Z</time>
      </trkpt>
      <trkpt lat="48.13862" lon="-1.38403">
        <ele>106</ele>
        <time>2010-08-01T05:57:46Z</time>
      </trkpt>
      <trkpt lat="48.13866" lon="-1.38401">
        <ele>106</ele>
        <time>2010-08-01T05:57:48Z</time>
      </trkpt>
      <trkpt lat="48.1387" lon="-1.38397">
        <ele>107</ele>
        <time>2010-08-01T05:57:50Z</time>
      </trkpt>
      <trkpt lat="48.13881" lon="-1.38386">
        <ele>107</ele>
        <time>2010-08-01T05:57:54Z</time>
      </trkpt>
      <trkpt lat="48.13884" lon="-1.38383">
        <ele>108</ele>
        <time>2010-08-01T05:57:55Z</time>
      </trkpt>
      <trkpt lat="48.13891" lon="-1.38374">
        <ele>108</ele>
        <time>2010-08-01T05:57:58Z</time>
      </trkpt>
      <trkpt lat="48.13898" lon="-1.38365">
        <ele>108</ele>
        <time>2010-08-01T05:58:00Z</time>
      </trkpt>
      <trkpt lat="48.13902" lon="-1.38361">
        <ele>109</ele>
        <time>2010-08-01T05:58:01Z</time>
      </trkpt>
      <trkpt lat="48.13905" lon="-1.38358">
        <ele>109</ele>
        <time>2010-08-01T05:58:02Z</time>
      </trkpt>
      <trkpt lat="48.1392" lon="-1.38345">
        <ele>110</ele>
        <time>2010-08-01T05:58:07Z</time>
      </trkpt>
      <trkpt lat="48.13923" lon="-1.38344">
        <ele>110</ele>
        <time>2010-08-01T05:58:08Z</time>
      </trkpt>
      <trkpt lat="48.13928" lon="-1.38335">
        <ele>110</ele>
        <time>2010-08-01T05:58:11Z</time>
      </trkpt>
      <trkpt lat="48.13934" lon="-1.38331">
        <ele>111</ele>
        <time>2010-08-01T05:58:13Z</time>
      </trkpt>
      <trkpt lat="48.1394" lon="-1.38329">
        <ele>111</ele>
        <time>2010-08-01T05:58:15Z</time>
      </trkpt>
      <trkpt lat="48.13945" lon="-1.38318">
        <ele>111</ele>
        <time>2010-08-01T05:58:18Z</time>
      </trkpt>
      <trkpt lat="48.13952" lon="-1.38312">
        <ele>111</ele>
        <time>2010-08-01T05:58:20Z</time>
      </trkpt>
      <trkpt lat="48.13961" lon="-1.38305">
        <ele>112</ele>
        <time>2010-08-01T05:58:22Z</time>
      </trkpt>
      <trkpt lat="48.13965" lon="-1.38302">
        <ele>112</ele>
        <time>2010-08-01T05:58:23Z</time>
      </trkpt>
      <trkpt lat="48.13979" lon="-1.38289">
        <ele>112</ele>
        <time>2010-08-01T05:58:28Z</time>
      </trkpt>
      <trkpt lat="48.13981" lon="-1.38285">
        <ele>112</ele>
        <time>2010-08-01T05:58:29Z</time>
      </trkpt>
      <trkpt lat="48.13985" lon="-1.3828">
        <ele>112</ele>
        <time>2010-08-01T05:58:30Z</time>
      </trkpt>
      <trkpt lat="48.13996" lon="-1.38269">
        <ele>112</ele>
        <time>2010-08-01T05:58:33Z</time>
      </trkpt>
      <trkpt lat="48.14004" lon="-1.38262">
        <ele>112</ele>
        <time>2010-08-01T05:58:35Z</time>
      </trkpt>
      <trkpt lat="48.14007" lon="-1.38259">
        <ele>112</ele>
        <time>2010-08-01T05:58:36Z</time>
      </trkpt>
      <trkpt lat="48.1401" lon="-1.38256">
        <ele>112</ele>
        <time>2010-08-01T05:58:37Z</time>
      </trkpt>
      <trkpt lat="48.14033" lon="-1.38234">
        <ele>111</ele>
        <time>2010-08-01T05:58:42Z</time>
      </trkpt>
      <trkpt lat="48.14037" lon="-1.3823">
        <ele>111</ele>
        <time>2010-08-01T05:58:43Z</time>
      </trkpt>
      <trkpt lat="48.14054" lon="-1.38217">
        <ele>110</ele>
        <time>2010-08-01T05:58:46Z</time>
      </trkpt>
      <trkpt lat="48.14066" lon="-1.38194">
        <ele>109</ele>
        <time>2010-08-01T05:58:50Z</time>
      </trkpt>
      <trkpt lat="48.1407" lon="-1.38187">
        <ele>108</ele>
        <time>2010-08-01T05:58:51Z</time>
      </trkpt>
      <trkpt lat="48.14077" lon="-1.3818">
        <ele>107</ele>
        <time>2010-08-01T05:58:52Z</time>
      </trkpt>
      <trkpt lat="48.14093" lon="-1.38168">
        <ele>105</ele>
        <time>2010-08-01T05:58:54Z</time>
      </trkpt>
      <trkpt lat="48.14103" lon="-1.3816">
        <ele>103</ele>
        <time>2010-08-01T05:58:55Z</time>
      </trkpt>
      <trkpt lat="48.14114" lon="-1.38152">
        <ele>102</ele>
        <time>2010-08-01T05:58:56Z</time>
      </trkpt>
      <trkpt lat="48.14124" lon="-1.38143">
        <ele>101</ele>
        <time>2010-08-01T05:58:57Z</time>
      </trkpt>
      <trkpt lat="48.14144" lon="-1.38126">
        <ele>99</ele>
        <time>2010-08-01T05:58:59Z</time>
      </trkpt>
      <trkpt lat="48.14163" lon="-1.38109">
        <ele>97</ele>
        <time>2010-08-01T05:59:01Z</time>
      </trkpt>
      <trkpt lat="48.14173" lon="-1.381">
        <ele>96</ele>
        <time>2010-08-01T05:59:02Z</time>
      </trkpt>
      <trkpt lat="48.1419" lon="-1.38082">
        <ele>94</ele>
        <time>2010-08-01T05:59:04Z</time>
      </trkpt>
      <trkpt lat="48.14199" lon="-1.38073">
        <ele>93</ele>
        <time>2010-08-01T05:59:05Z</time>
      </trkpt>
      <trkpt lat="48.14215" lon="-1.38054">
        <ele>91</ele>
        <time>2010-08-01T05:59:07Z</time>
      </trkpt>
      <trkpt lat="48.14231" lon="-1.38038">
        <ele>89</ele>
        <time>2010-08-01T05:59:09Z</time>
      </trkpt>
      <trkpt lat="48.14239" lon="-1.38031">
        <ele>89</ele>
        <time>2010-08-01T05:59:10Z</time>
      </trkpt>
      <trkpt lat="48.14243" lon="-1.38022">
        <ele>88</ele>
        <time>2010-08-01T05:59:11Z</time>
      </trkpt>
      <trkpt lat="48.14245" lon="-1.38015">
        <ele>88</ele>
        <time>2010-08-01T05:59:12Z</time>
      </trkpt>
      <trkpt lat="48.14247" lon="-1.3801">
        <ele>87</ele>
        <time>2010-08-01T05:59:13Z</time>
      </trkpt>
      <trkpt lat="48.14244" lon="-1.38">
        <ele>87</ele>
        <time>2010-08-01T05:59:15Z</time>
      </trkpt>
      <trkpt lat="48.1424" lon="-1.3799">
        <ele>87</ele>
        <time>2010-08-01T05:59:17Z</time>
      </trkpt>
      <trkpt lat="48.14244" lon="-1.37972">
        <ele>86</ele>
        <time>2010-08-01T05:59:19Z</time>
      </trkpt>
      <trkpt lat="48.14253" lon="-1.37951">
        <ele>85</ele>
        <time>2010-08-01T05:59:21Z</time>
      </trkpt>
      <trkpt lat="48.14259" lon="-1.37942">
        <ele>84</ele>
        <time>2010-08-01T05:59:22Z</time>
      </trkpt>
      <trkpt lat="48.14265" lon="-1.37934">
        <ele>83</ele>
        <time>2010-08-01T05:59:23Z</time>
      </trkpt>
      <trkpt lat="48.14272" lon="-1.37926">
        <ele>82</ele>
        <time>2010-08-01T05:59:24Z</time>
      </trkpt>
      <trkpt lat="48.14279" lon="-1.37917">
        <ele>82</ele>
        <time>2010-08-01T05:59:25Z</time>
      </trkpt>
      <trkpt lat="48.14291" lon="-1.37898">
        <ele>80</ele>
        <time>2010-08-01T05:59:27Z</time>
      </trkpt>
      <trkpt lat="48.14296" lon="-1.37889">
        <ele>80</ele>
        <time>2010-08-01T05:59:28Z</time>
      </trkpt>
      <trkpt lat="48.14301" lon="-1.37879">
        <ele>80</ele>
        <time>2010-08-01T05:59:29Z</time>
      </trkpt>
      <trkpt lat="48.1432" lon="-1.37857">
        <ele>79</ele>
        <time>2010-08-01T05:59:32Z</time>
      </trkpt>
      <trkpt lat="48.14328" lon="-1.37851">
        <ele>79</ele>
        <time>2010-08-01T05:59:33Z</time>
      </trkpt>
      <trkpt lat="48.14342" lon="-1.3784">
        <ele>79</ele>
        <time>2010-08-01T05:59:35Z</time>
      </trkpt>
      <trkpt lat="48.14351" lon="-1.37834">
        <ele>79</ele>
        <time>2010-08-01T05:59:37Z</time>
      </trkpt>
      <trkpt lat="48.14355" lon="-1.37834">
        <ele>80</ele>
        <time>2010-08-01T05:59:38Z</time>
      </trkpt>
      <trkpt lat="48.14358" lon="-1.37834">
        <ele>80</ele>
        <time>2010-08-01T05:59:39Z</time>
      </trkpt>
      <trkpt lat="48.14363" lon="-1.37837">
        <ele>80</ele>
        <time>2010-08-01T05:59:41Z</time>
      </trkpt>
      <trkpt lat="48.14368" lon="-1.37844">
        <ele>80</ele>
        <time>2010-08-01T05:59:43Z</time>
      </trkpt>
      <trkpt lat="48.14378" lon="-1.37859">
        <ele>80</ele>
        <time>2010-08-01T05:59:46Z</time>
      </trkpt>
      <trkpt lat="48.14396" lon="-1.37861">
        <ele>81</ele>
        <time>2010-08-01T05:59:50Z</time>
      </trkpt>
      <trkpt lat="48.14399" lon="-1.37857">
        <ele>82</ele>
        <time>2010-08-01T05:59:51Z</time>
      </trkpt>
      <trkpt lat="48.14404" lon="-1.37853">
        <ele>82</ele>
        <time>2010-08-01T05:59:53Z</time>
      </trkpt>
      <trkpt lat="48.1441" lon="-1.3785">
        <ele>82</ele>
        <time>2010-08-01T05:59:55Z</time>
      </trkpt>
      <trkpt lat="48.14417" lon="-1.37849">
        <ele>83</ele>
        <time>2010-08-01T05:59:57Z</time>
      </trkpt>
      <trkpt lat="48.14425" lon="-1.3785">
        <ele>84</ele>
        <time>2010-08-01T05:59:59Z</time>
      </trkpt>
      <trkpt lat="48.14435" lon="-1.37842">
        <ele>84</ele>
        <time>2010-08-01T06:00:02Z</time>
      </trkpt>
      <trkpt lat="48.14438" lon="-1.37839">
        <ele>84</ele>
        <time>2010-08-01T06:00:03Z</time>
      </trkpt>
      <trkpt lat="48.14441" lon="-1.37834">
        <ele>85</ele>
        <time>2010-08-01T06:00:05Z</time>
      </trkpt>
      <trkpt lat="48.14442" lon="-1.37835">
        <ele>85</ele>
        <time>2010-08-01T06:00:06Z</time>
      </trkpt>
      <trkpt lat="48.14443" lon="-1.37834">
        <ele>85</ele>
        <time>2010-08-01T06:00:07Z</time>
      </trkpt>
      <trkpt lat="48.14448" lon="-1.37834">
        <ele>85</ele>
        <time>2010-08-01T06:00:09Z</time>
      </trkpt>
      <trkpt lat="48.14454" lon="-1.3783">
        <ele>85</ele>
        <time>2010-08-01T06:00:11Z</time>
      </trkpt>
      <trkpt lat="48.14458" lon="-1.37825">
        <ele>85</ele>
        <time>2010-08-01T06:00:12Z</time>
      </trkpt>
      <trkpt lat="48.14469" lon="-1.37811">
        <ele>86</ele>
        <time>2010-08-01T06:00:15Z</time>
      </trkpt>
      <trkpt lat="48.14475" lon="-1.37804">
        <ele>87</ele>
        <time>2010-08-01T06:00:17Z</time>
      </trkpt>
      <trkpt lat="48.14481" lon="-1.37802">
        <ele>87</ele>
        <time>2010-08-01T06:00:19Z</time>
      </trkpt>
      <trkpt lat="48.14484" lon="-1.37799">
        <ele>87</ele>
        <time>2010-08-01T06:00:20Z</time>
      </trkpt>
      <trkpt lat="48.14485" lon="-1.37798">
        <ele>87</ele>
        <time>2010-08-01T06:00:21Z</time>
      </trkpt>
      <trkpt lat="48.14488" lon="-1.37792">
        <ele>87</ele>
        <time>2010-08-01T06:00:24Z</time>
      </trkpt>
      <trkpt lat="48.14493" lon="-1.37786">
        <ele>88</ele>
        <time>2010-08-01T06:00:26Z</time>
      </trkpt>
      <trkpt lat="48.14499" lon="-1.37781">
        <ele>88</ele>
        <time>2010-08-01T06:00:28Z</time>
      </trkpt>
      <trkpt lat="48.14506" lon="-1.37773">
        <ele>88</ele>
        <time>2010-08-01T06:00:30Z</time>
      </trkpt>
      <trkpt lat="48.1451" lon="-1.37767">
        <ele>89</ele>
        <time>2010-08-01T06:00:32Z</time>
      </trkpt>
      <trkpt lat="48.14516" lon="-1.37756">
        <ele>89</ele>
        <time>2010-08-01T06:00:34Z</time>
      </trkpt>
      <trkpt lat="48.14527" lon="-1.37739">
        <ele>90</ele>
        <time>2010-08-01T06:00:39Z</time>
      </trkpt>
      <trkpt lat="48.14531" lon="-1.37736">
        <ele>90</ele>
        <time>2010-08-01T06:00:40Z</time>
      </trkpt>
      <trkpt lat="48.14541" lon="-1.37735">
        <ele>91</ele>
        <time>2010-08-01T06:00:42Z</time>
      </trkpt>
      <trkpt lat="48.14556" lon="-1.37721">
        <ele>91</ele>
        <time>2010-08-01T06:00:45Z</time>
      </trkpt>
      <trkpt lat="48.14564" lon="-1.37714">
        <ele>92</ele>
        <time>2010-08-01T06:00:47Z</time>
      </trkpt>
      <trkpt lat="48.14571" lon="-1.3771">
        <ele>92</ele>
        <time>2010-08-01T06:00:49Z</time>
      </trkpt>
      <trkpt lat="48.14577" lon="-1.37701">
        <ele>92</ele>
        <time>2010-08-01T06:00:51Z</time>
      </trkpt>
      <trkpt lat="48.14583" lon="-1.37695">
        <ele>92</ele>
        <time>2010-08-01T06:00:53Z</time>
      </trkpt>
      <trkpt lat="48.14591" lon="-1.37692">
        <ele>93</ele>
        <time>2010-08-01T06:00:55Z</time>
      </trkpt>
      <trkpt lat="48.14597" lon="-1.37688">
        <ele>93</ele>
        <time>2010-08-01T06:00:57Z</time>
      </trkpt>
      <trkpt lat="48.14602" lon="-1.37685">
        <ele>93</ele>
        <time>2010-08-01T06:00:59Z</time>
      </trkpt>
      <trkpt lat="48.14608" lon="-1.37679">
        <ele>94</ele>
        <time>2010-08-01T06:01:01Z</time>
      </trkpt>
      <trkpt lat="48.14614" lon="-1.37675">
        <ele>94</ele>
        <time>2010-08-01T06:01:03Z</time>
      </trkpt>
      <trkpt lat="48.14622" lon="-1.37671">
        <ele>94</ele>
        <time>2010-08-01T06:01:06Z</time>
      </trkpt>
      <trkpt lat="48.14628" lon="-1.37655">
        <ele>94</ele>
        <time>2010-08-01T06:01:10Z</time>
      </trkpt>
      <trkpt lat="48.14631" lon="-1.37652">
        <ele>95</ele>
        <time>2010-08-01T06:01:11Z</time>
      </trkpt>
      <trkpt lat="48.14639" lon="-1.37648">
        <ele>95</ele>
        <time>2010-08-01T06:01:13Z</time>
      </trkpt>
      <trkpt lat="48.14644" lon="-1.37644">
        <ele>95</ele>
        <time>2010-08-01T06:01:15Z</time>
      </trkpt>
      <trkpt lat="48.1465" lon="-1.3764">
        <ele>95</ele>
        <time>2010-08-01T06:01:17Z</time>
      </trkpt>
      <trkpt lat="48.14658" lon="-1.37633">
        <ele>96</ele>
        <time>2010-08-01T06:01:19Z</time>
      </trkpt>
      <trkpt lat="48.14669" lon="-1.3762">
        <ele>96</ele>
        <time>2010-08-01T06:01:23Z</time>
      </trkpt>
      <trkpt lat="48.14684" lon="-1.37601">
        <ele>97</ele>
        <time>2010-08-01T06:01:28Z</time>
      </trkpt>
      <trkpt lat="48.14688" lon="-1.37596">
        <ele>97</ele>
        <time>2010-08-01T06:01:31Z</time>
      </trkpt>
      <trkpt lat="48.14682" lon="-1.37587">
        <ele>97</ele>
        <time>2010-08-01T06:01:35Z</time>
      </trkpt>
      <trkpt lat="48.14678" lon="-1.37576">
        <ele>96</ele>
        <time>2010-08-01T06:01:37Z</time>
      </trkpt>
      <trkpt lat="48.14674" lon="-1.37564">
        <ele>96</ele>
        <time>2010-08-01T06:01:39Z</time>
      </trkpt>
      <trkpt lat="48.1467" lon="-1.37538">
        <ele>95</ele>
        <time>2010-08-01T06:01:42Z</time>
      </trkpt>
      <trkpt lat="48.14663" lon="-1.37516">
        <ele>95</ele>
        <time>2010-08-01T06:01:45Z</time>
      </trkpt>
      <trkpt lat="48.14649" lon="-1.37491">
        <ele>94</ele>
        <time>2010-08-01T06:01:49Z</time>
      </trkpt>
      <trkpt lat="48.14645" lon="-1.37479">
        <ele>94</ele>
        <time>2010-08-01T06:01:51Z</time>
      </trkpt>
      <trkpt lat="48.14636" lon="-1.37453">
        <ele>93</ele>
        <time>2010-08-01T06:01:55Z</time>
      </trkpt>
      <trkpt lat="48.14634" lon="-1.37446">
        <ele>93</ele>
        <time>2010-08-01T06:01:56Z</time>
      </trkpt>
      <trkpt lat="48.14626" lon="-1.3743">
        <ele>92</ele>
        <time>2010-08-01T06:01:59Z</time>
      </trkpt>
      <trkpt lat="48.14622" lon="-1.37421">
        <ele>92</ele>
        <time>2010-08-01T06:02:01Z</time>
      </trkpt>
      <trkpt lat="48.14619" lon="-1.37411">
        <ele>92</ele>
        <time>2010-08-01T06:02:03Z</time>
      </trkpt>
      <trkpt lat="48.14617" lon="-1.37397">
        <ele>92</ele>
        <time>2010-08-01T06:02:06Z</time>
      </trkpt>
      <trkpt lat="48.14617" lon="-1.3739">
        <ele>92</ele>
        <time>2010-08-01T06:02:07Z</time>
      </trkpt>
      <trkpt lat="48.14611" lon="-1.37378">
        <ele>91</ele>
        <time>2010-08-01T06:02:09Z</time>
      </trkpt>
      <trkpt lat="48.14605" lon="-1.37365">
        <ele>91</ele>
        <time>2010-08-01T06:02:11Z</time>
      </trkpt>
      <trkpt lat="48.14602" lon="-1.3735">
        <ele>91</ele>
        <time>2010-08-01T06:02:13Z</time>
      </trkpt>
      <trkpt lat="48.14601" lon="-1.37344">
        <ele>91</ele>
        <time>2010-08-01T06:02:14Z</time>
      </trkpt>
      <trkpt lat="48.14603" lon="-1.37316">
        <ele>91</ele>
        <time>2010-08-01T06:02:18Z</time>
      </trkpt>
      <trkpt lat="48.14598" lon="-1.37279">
        <ele>91</ele>
        <time>2010-08-01T06:02:22Z</time>
      </trkpt>
      <trkpt lat="48.14601" lon="-1.3727">
        <ele>91</ele>
        <time>2010-08-01T06:02:23Z</time>
      </trkpt>
      <trkpt lat="48.14595" lon="-1.37222">
        <ele>90</ele>
        <time>2010-08-01T06:02:29Z</time>
      </trkpt>
      <trkpt lat="48.14597" lon="-1.37202">
        <ele>90</ele>
        <time>2010-08-01T06:02:32Z</time>
      </trkpt>
      <trkpt lat="48.14601" lon="-1.37174">
        <ele>90</ele>
        <time>2010-08-01T06:02:36Z</time>
      </trkpt>
      <trkpt lat="48.1461" lon="-1.37151">
        <ele>90</ele>
        <time>2010-08-01T06:02:40Z</time>
      </trkpt>
      <trkpt lat="48.14617" lon="-1.37102">
        <ele>91</ele>
        <time>2010-08-01T06:02:46Z</time>
      </trkpt>
      <trkpt lat="48.14624" lon="-1.37082">
        <ele>91</ele>
        <time>2010-08-01T06:02:50Z</time>
      </trkpt>
      <trkpt lat="48.14625" lon="-1.37071">
        <ele>91</ele>
        <time>2010-08-01T06:02:51Z</time>
      </trkpt>
      <trkpt lat="48.1463" lon="-1.37044">
        <ele>91</ele>
        <time>2010-08-01T06:02:55Z</time>
      </trkpt>
      <trkpt lat="48.14635" lon="-1.3702">
        <ele>90</ele>
        <time>2010-08-01T06:02:59Z</time>
      </trkpt>
      <trkpt lat="48.14637" lon="-1.37012">
        <ele>90</ele>
        <time>2010-08-01T06:03:00Z</time>
      </trkpt>
      <trkpt lat="48.14639" lon="-1.37002">
        <ele>90</ele>
        <time>2010-08-01T06:03:01Z</time>
      </trkpt>
      <trkpt lat="48.14653" lon="-1.36957">
        <ele>90</ele>
        <time>2010-08-01T06:03:06Z</time>
      </trkpt>
      <trkpt lat="48.14656" lon="-1.36949">
        <ele>90</ele>
        <time>2010-08-01T06:03:07Z</time>
      </trkpt>
      <trkpt lat="48.14658" lon="-1.36942">
        <ele>90</ele>
        <time>2010-08-01T06:03:08Z</time>
      </trkpt>
      <trkpt lat="48.1466" lon="-1.36932">
        <ele>90</ele>
        <time>2010-08-01T06:03:09Z</time>
      </trkpt>
      <trkpt lat="48.14664" lon="-1.36891">
        <ele>89</ele>
        <time>2010-08-01T06:03:14Z</time>
      </trkpt>
      <trkpt lat="48.14667" lon="-1.36883">
        <ele>88</ele>
        <time>2010-08-01T06:03:15Z</time>
      </trkpt>
      <trkpt lat="48.14669" lon="-1.36857">
        <ele>88</ele>
        <time>2010-08-01T06:03:18Z</time>
      </trkpt>
      <trkpt lat="48.14671" lon="-1.36849">
        <ele>88</ele>
        <time>2010-08-01T06:03:19Z</time>
      </trkpt>
      <trkpt lat="48.14672" lon="-1.36839">
        <ele>87</ele>
        <time>2010-08-01T06:03:20Z</time>
      </trkpt>
      <trkpt lat="48.14672" lon="-1.36832">
        <ele>87</ele>
        <time>2010-08-01T06:03:21Z</time>
      </trkpt>
      <trkpt lat="48.14672" lon="-1.36819">
        <ele>86</ele>
        <time>2010-08-01T06:03:22Z</time>
      </trkpt>
      <trkpt lat="48.14668" lon="-1.36803">
        <ele>85</ele>
        <time>2010-08-01T06:03:24Z</time>
      </trkpt>
      <trkpt lat="48.14664" lon="-1.36792">
        <ele>84</ele>
        <time>2010-08-01T06:03:26Z</time>
      </trkpt>
      <trkpt lat="48.14659" lon="-1.36784">
        <ele>84</ele>
        <time>2010-08-01T06:03:28Z</time>
      </trkpt>
      <trkpt lat="48.14656" lon="-1.36774">
        <ele>83</ele>
        <time>2010-08-01T06:03:30Z</time>
      </trkpt>
      <trkpt lat="48.14655" lon="-1.36764">
        <ele>83</ele>
        <time>2010-08-01T06:03:31Z</time>
      </trkpt>
      <trkpt lat="48.14657" lon="-1.36756">
        <ele>83</ele>
        <time>2010-08-01T06:03:32Z</time>
      </trkpt>
      <trkpt lat="48.14659" lon="-1.36743">
        <ele>82</ele>
        <time>2010-08-01T06:03:34Z</time>
      </trkpt>
      <trkpt lat="48.14656" lon="-1.36734">
        <ele>82</ele>
        <time>2010-08-01T06:03:36Z</time>
      </trkpt>
      <trkpt lat="48.14653" lon="-1.36729">
        <ele>82</ele>
        <time>2010-08-01T06:03:37Z</time>
      </trkpt>
      <trkpt lat="48.14648" lon="-1.36722">
        <ele>81</ele>
        <time>2010-08-01T06:03:38Z</time>
      </trkpt>
      <trkpt lat="48.14631" lon="-1.36699">
        <ele>81</ele>
        <time>2010-08-01T06:03:40Z</time>
      </trkpt>
      <trkpt lat="48.14624" lon="-1.36681">
        <ele>82</ele>
        <time>2010-08-01T06:03:42Z</time>
      </trkpt>
      <trkpt lat="48.14622" lon="-1.36672">
        <ele>82</ele>
        <time>2010-08-01T06:03:43Z</time>
      </trkpt>
      <trkpt lat="48.1462" lon="-1.36649">
        <ele>83</ele>
        <time>2010-08-01T06:03:46Z</time>
      </trkpt>
      <trkpt lat="48.14618" lon="-1.3664">
        <ele>84</ele>
        <time>2010-08-01T06:03:48Z</time>
      </trkpt>
      <trkpt lat="48.14616" lon="-1.36632">
        <ele>85</ele>
        <time>2010-08-01T06:03:50Z</time>
      </trkpt>
      <trkpt lat="48.14616" lon="-1.36626">
        <ele>85</ele>
        <time>2010-08-01T06:03:51Z</time>
      </trkpt>
      <trkpt lat="48.14614" lon="-1.36621">
        <ele>86</ele>
        <time>2010-08-01T06:03:52Z</time>
      </trkpt>
      <trkpt lat="48.14611" lon="-1.36612">
        <ele>86</ele>
        <time>2010-08-01T06:03:54Z</time>
      </trkpt>
      <trkpt lat="48.14607" lon="-1.36603">
        <ele>86</ele>
        <time>2010-08-01T06:03:56Z</time>
      </trkpt>
      <trkpt lat="48.14604" lon="-1.36594">
        <ele>87</ele>
        <time>2010-08-01T06:03:58Z</time>
      </trkpt>
      <trkpt lat="48.146" lon="-1.36585">
        <ele>88</ele>
        <time>2010-08-01T06:04:00Z</time>
      </trkpt>
      <trkpt lat="48.14598" lon="-1.36578">
        <ele>88</ele>
        <time>2010-08-01T06:04:02Z</time>
      </trkpt>
      <trkpt lat="48.14597" lon="-1.36569">
        <ele>89</ele>
        <time>2010-08-01T06:04:04Z</time>
      </trkpt>
      <trkpt lat="48.14592" lon="-1.36557">
        <ele>90</ele>
        <time>2010-08-01T06:04:06Z</time>
      </trkpt>
      <trkpt lat="48.14588" lon="-1.3655">
        <ele>90</ele>
        <time>2010-08-01T06:04:07Z</time>
      </trkpt>
      <trkpt lat="48.14573" lon="-1.36522">
        <ele>92</ele>
        <time>2010-08-01T06:04:12Z</time>
      </trkpt>
      <trkpt lat="48.14561" lon="-1.36506">
        <ele>92</ele>
        <time>2010-08-01T06:04:17Z</time>
      </trkpt>
      <trkpt lat="48.1456" lon="-1.36501">
        <ele>92</ele>
        <time>2010-08-01T06:04:18Z</time>
      </trkpt>
      <trkpt lat="48.14555" lon="-1.36493">
        <ele>93</ele>
        <time>2010-08-01T06:04:20Z</time>
      </trkpt>
      <trkpt lat="48.14553" lon="-1.36485">
        <ele>93</ele>
        <time>2010-08-01T06:04:22Z</time>
      </trkpt>
      <trkpt lat="48.14552" lon="-1.36477">
        <ele>93</ele>
        <time>2010-08-01T06:04:24Z</time>
      </trkpt>
      <trkpt lat="48.14549" lon="-1.36467">
        <ele>94</ele>
        <time>2010-08-01T06:04:26Z</time>
      </trkpt>
      <trkpt lat="48.14547" lon="-1.36456">
        <ele>94</ele>
        <time>2010-08-01T06:04:28Z</time>
      </trkpt>
      <trkpt lat="48.14541" lon="-1.36444">
        <ele>94</ele>
        <time>2010-08-01T06:04:30Z</time>
      </trkpt>
      <trkpt lat="48.14537" lon="-1.36435">
        <ele>95</ele>
        <time>2010-08-01T06:04:32Z</time>
      </trkpt>
      <trkpt lat="48.14535" lon="-1.36431">
        <ele>95</ele>
        <time>2010-08-01T06:04:33Z</time>
      </trkpt>
      <trkpt lat="48.14531" lon="-1.36421">
        <ele>95</ele>
        <time>2010-08-01T06:04:36Z</time>
      </trkpt>
      <trkpt lat="48.14528" lon="-1.36413">
        <ele>95</ele>
        <time>2010-08-01T06:04:38Z</time>
      </trkpt>
      <trkpt lat="48.14523" lon="-1.36393">
        <ele>96</ele>
        <time>2010-08-01T06:04:42Z</time>
      </trkpt>
      <trkpt lat="48.14515" lon="-1.36361">
        <ele>97</ele>
        <time>2010-08-01T06:04:46Z</time>
      </trkpt>
      <trkpt lat="48.14514" lon="-1.36348">
        <ele>97</ele>
        <time>2010-08-01T06:04:48Z</time>
      </trkpt>
      <trkpt lat="48.14492" lon="-1.36311">
        <ele>97</ele>
        <time>2010-08-01T06:04:54Z</time>
      </trkpt>
      <trkpt lat="48.14488" lon="-1.36294">
        <ele>97</ele>
        <time>2010-08-01T06:04:57Z</time>
      </trkpt>
      <trkpt lat="48.14482" lon="-1.36266">
        <ele>98</ele>
        <time>2010-08-01T06:05:01Z</time>
      </trkpt>
      <trkpt lat="48.14481" lon="-1.36261">
        <ele>98</ele>
        <time>2010-08-01T06:05:02Z</time>
      </trkpt>
      <trkpt lat="48.14479" lon="-1.36251">
        <ele>97</ele>
        <time>2010-08-01T06:05:04Z</time>
      </trkpt>
      <trkpt lat="48.14481" lon="-1.3624">
        <ele>98</ele>
        <time>2010-08-01T06:05:07Z</time>
      </trkpt>
      <trkpt lat="48.14478" lon="-1.36227">
        <ele>98</ele>
        <time>2010-08-01T06:05:10Z</time>
      </trkpt>
      <trkpt lat="48.14476" lon="-1.36218">
        <ele>98</ele>
        <time>2010-08-01T06:05:12Z</time>
      </trkpt>
      <trkpt lat="48.14478" lon="-1.36208">
        <ele>98</ele>
        <time>2010-08-01T06:05:14Z</time>
      </trkpt>
      <trkpt lat="48.1448" lon="-1.36203">
        <ele>98</ele>
        <time>2010-08-01T06:05:15Z</time>
      </trkpt>
      <trkpt lat="48.1448" lon="-1.36196">
        <ele>98</ele>
        <time>2010-08-01T06:05:16Z</time>
      </trkpt>
      <trkpt lat="48.1448" lon="-1.36184">
        <ele>98</ele>
        <time>2010-08-01T06:05:18Z</time>
      </trkpt>
      <trkpt lat="48.14479" lon="-1.36161">
        <ele>99</ele>
        <time>2010-08-01T06:05:23Z</time>
      </trkpt>
      <trkpt lat="48.1448" lon="-1.36153">
        <ele>99</ele>
        <time>2010-08-01T06:05:25Z</time>
      </trkpt>
      <trkpt lat="48.14482" lon="-1.36144">
        <ele>100</ele>
        <time>2010-08-01T06:05:27Z</time>
      </trkpt>
      <trkpt lat="48.14482" lon="-1.3614">
        <ele>100</ele>
        <time>2010-08-01T06:05:28Z</time>
      </trkpt>
      <trkpt lat="48.14481" lon="-1.36133">
        <ele>100</ele>
        <time>2010-08-01T06:05:29Z</time>
      </trkpt>
      <trkpt lat="48.14478" lon="-1.36121">
        <ele>100</ele>
        <time>2010-08-01T06:05:31Z</time>
      </trkpt>
      <trkpt lat="48.1448" lon="-1.36108">
        <ele>101</ele>
        <time>2010-08-01T06:05:34Z</time>
      </trkpt>
      <trkpt lat="48.14481" lon="-1.36103">
        <ele>101</ele>
        <time>2010-08-01T06:05:35Z</time>
      </trkpt>
      <trkpt lat="48.14479" lon="-1.36087">
        <ele>102</ele>
        <time>2010-08-01T06:05:38Z</time>
      </trkpt>
      <trkpt lat="48.14477" lon="-1.36076">
        <ele>102</ele>
        <time>2010-08-01T06:05:40Z</time>
      </trkpt>
      <trkpt lat="48.14476" lon="-1.36066">
        <ele>102</ele>
        <time>2010-08-01T06:05:42Z</time>
      </trkpt>
      <trkpt lat="48.14475" lon="-1.36053">
        <ele>102</ele>
        <time>2010-08-01T06:05:44Z</time>
      </trkpt>
      <trkpt lat="48.14474" lon="-1.36042">
        <ele>102</ele>
        <time>2010-08-01T06:05:46Z</time>
      </trkpt>
      <trkpt lat="48.14473" lon="-1.36037">
        <ele>102</ele>
        <time>2010-08-01T06:05:47Z</time>
      </trkpt>
      <trkpt lat="48.14477" lon="-1.36014">
        <ele>103</ele>
        <time>2010-08-01T06:05:51Z</time>
      </trkpt>
      <trkpt lat="48.14479" lon="-1.36002">
        <ele>103</ele>
        <time>2010-08-01T06:05:53Z</time>
      </trkpt>
      <trkpt lat="48.14477" lon="-1.35986">
        <ele>103</ele>
        <time>2010-08-01T06:05:55Z</time>
      </trkpt>
      <trkpt lat="48.14479" lon="-1.35958">
        <ele>103</ele>
        <time>2010-08-01T06:05:59Z</time>
      </trkpt>
      <trkpt lat="48.14483" lon="-1.35928">
        <ele>104</ele>
        <time>2010-08-01T06:06:04Z</time>
      </trkpt>
      <trkpt lat="48.14483" lon="-1.35921">
        <ele>104</ele>
        <time>2010-08-01T06:06:05Z</time>
      </trkpt>
      <trkpt lat="48.14483" lon="-1.35915">
        <ele>104</ele>
        <time>2010-08-01T06:06:06Z</time>
      </trkpt>
      <trkpt lat="48.14484" lon="-1.35904">
        <ele>104</ele>
        <time>2010-08-01T06:06:08Z</time>
      </trkpt>
      <trkpt lat="48.14485" lon="-1.35898">
        <ele>104</ele>
        <time>2010-08-01T06:06:09Z</time>
      </trkpt>
      <trkpt lat="48.1449" lon="-1.35874">
        <ele>105</ele>
        <time>2010-08-01T06:06:12Z</time>
      </trkpt>
      <trkpt lat="48.14489" lon="-1.35864">
        <ele>105</ele>
        <time>2010-08-01T06:06:13Z</time>
      </trkpt>
      <trkpt lat="48.14488" lon="-1.35832">
        <ele>105</ele>
        <time>2010-08-01T06:06:17Z</time>
      </trkpt>
      <trkpt lat="48.14489" lon="-1.3582">
        <ele>105</ele>
        <time>2010-08-01T06:06:19Z</time>
      </trkpt>
      <trkpt lat="48.14494" lon="-1.35794">
        <ele>105</ele>
        <time>2010-08-01T06:06:23Z</time>
      </trkpt>
      <trkpt lat="48.14496" lon="-1.35758">
        <ele>105</ele>
        <time>2010-08-01T06:06:28Z</time>
      </trkpt>
      <trkpt lat="48.14502" lon="-1.35737">
        <ele>105</ele>
        <time>2010-08-01T06:06:31Z</time>
      </trkpt>
      <trkpt lat="48.14508" lon="-1.35721">
        <ele>105</ele>
        <time>2010-08-01T06:06:33Z</time>
      </trkpt>
      <trkpt lat="48.14516" lon="-1.35706">
        <ele>105</ele>
        <time>2010-08-01T06:06:35Z</time>
      </trkpt>
      <trkpt lat="48.1452" lon="-1.35686">
        <ele>105</ele>
        <time>2010-08-01T06:06:37Z</time>
      </trkpt>
      <trkpt lat="48.14525" lon="-1.35659">
        <ele>105</ele>
        <time>2010-08-01T06:06:40Z</time>
      </trkpt>
      <trkpt lat="48.14534" lon="-1.35609">
        <ele>105</ele>
        <time>2010-08-01T06:06:46Z</time>
      </trkpt>
      <trkpt lat="48.14536" lon="-1.35591">
        <ele>105</ele>
        <time>2010-08-01T06:06:48Z</time>
      </trkpt>
      <trkpt lat="48.14536" lon="-1.35548">
        <ele>105</ele>
        <time>2010-08-01T06:06:53Z</time>
      </trkpt>
      <trkpt lat="48.14531" lon="-1.35505">
        <ele>105</ele>
        <time>2010-08-01T06:06:58Z</time>
      </trkpt>
      <trkpt lat="48.14521" lon="-1.35454">
        <ele>105</ele>
        <time>2010-08-01T06:07:04Z</time>
      </trkpt>
      <trkpt lat="48.14519" lon="-1.35411">
        <ele>105</ele>
        <time>2010-08-01T06:07:09Z</time>
      </trkpt>
      <trkpt lat="48.14519" lon="-1.35396">
        <ele>105</ele>
        <time>2010-08-01T06:07:11Z</time>
      </trkpt>
      <trkpt lat="48.14514" lon="-1.35355">
        <ele>105</ele>
        <time>2010-08-01T06:07:16Z</time>
      </trkpt>
      <trkpt lat="48.14512" lon="-1.35347">
        <ele>105</ele>
        <time>2010-08-01T06:07:17Z</time>
      </trkpt>
      <trkpt lat="48.14509" lon="-1.35328">
        <ele>106</ele>
        <time>2010-08-01T06:07:19Z</time>
      </trkpt>
      <trkpt lat="48.14504" lon="-1.35297">
        <ele>106</ele>
        <time>2010-08-01T06:07:23Z</time>
      </trkpt>
      <trkpt lat="48.145" lon="-1.35264">
        <ele>106</ele>
        <time>2010-08-01T06:07:27Z</time>
      </trkpt>
      <trkpt lat="48.14499" lon="-1.35256">
        <ele>107</ele>
        <time>2010-08-01T06:07:28Z</time>
      </trkpt>
      <trkpt lat="48.14499" lon="-1.35248">
        <ele>107</ele>
        <time>2010-08-01T06:07:29Z</time>
      </trkpt>
      <trkpt lat="48.14499" lon="-1.35232">
        <ele>107</ele>
        <time>2010-08-01T06:07:31Z</time>
      </trkpt>
      <trkpt lat="48.145" lon="-1.35224">
        <ele>107</ele>
        <time>2010-08-01T06:07:32Z</time>
      </trkpt>
      <trkpt lat="48.14501" lon="-1.35216">
        <ele>107</ele>
        <time>2010-08-01T06:07:33Z</time>
      </trkpt>
      <trkpt lat="48.14508" lon="-1.35208">
        <ele>107</ele>
        <time>2010-08-01T06:07:35Z</time>
      </trkpt>
      <trkpt lat="48.14516" lon="-1.35206">
        <ele>107</ele>
        <time>2010-08-01T06:07:37Z</time>
      </trkpt>
      <trkpt lat="48.14524" lon="-1.35204">
        <ele>108</ele>
        <time>2010-08-01T06:07:39Z</time>
      </trkpt>
      <trkpt lat="48.14527" lon="-1.35192">
        <ele>108</ele>
        <time>2010-08-01T06:07:41Z</time>
      </trkpt>
      <trkpt lat="48.14528" lon="-1.35184">
        <ele>108</ele>
        <time>2010-08-01T06:07:42Z</time>
      </trkpt>
      <trkpt lat="48.14526" lon="-1.35122">
        <ele>108</ele>
        <time>2010-08-01T06:07:49Z</time>
      </trkpt>
      <trkpt lat="48.14524" lon="-1.35065">
        <ele>108</ele>
        <time>2010-08-01T06:07:56Z</time>
      </trkpt>
      <trkpt lat="48.14522" lon="-1.35057">
        <ele>108</ele>
        <time>2010-08-01T06:07:57Z</time>
      </trkpt>
      <trkpt lat="48.1452" lon="-1.35041">
        <ele>108</ele>
        <time>2010-08-01T06:07:59Z</time>
      </trkpt>
      <trkpt lat="48.14518" lon="-1.34983">
        <ele>107</ele>
        <time>2010-08-01T06:08:06Z</time>
      </trkpt>
      <trkpt lat="48.14516" lon="-1.34932">
        <ele>107</ele>
        <time>2010-08-01T06:08:12Z</time>
      </trkpt>
      <trkpt lat="48.14515" lon="-1.34867">
        <ele>107</ele>
        <time>2010-08-01T06:08:20Z</time>
      </trkpt>
      <trkpt lat="48.14515" lon="-1.34826">
        <ele>107</ele>
        <time>2010-08-01T06:08:25Z</time>
      </trkpt>
      <trkpt lat="48.14515" lon="-1.34817">
        <ele>107</ele>
        <time>2010-08-01T06:08:26Z</time>
      </trkpt>
      <trkpt lat="48.14515" lon="-1.3479">
        <ele>107</ele>
        <time>2010-08-01T06:08:29Z</time>
      </trkpt>
      <trkpt lat="48.1451" lon="-1.34757">
        <ele>106</ele>
        <time>2010-08-01T06:08:33Z</time>
      </trkpt>
      <trkpt lat="48.14507" lon="-1.34701">
        <ele>107</ele>
        <time>2010-08-01T06:08:39Z</time>
      </trkpt>
      <trkpt lat="48.14504" lon="-1.34639">
        <ele>105</ele>
        <time>2010-08-01T06:08:45Z</time>
      </trkpt>
      <trkpt lat="48.14504" lon="-1.34596">
        <ele>104</ele>
        <time>2010-08-01T06:08:50Z</time>
      </trkpt>
      <trkpt lat="48.14503" lon="-1.34577">
        <ele>104</ele>
        <time>2010-08-01T06:08:52Z</time>
      </trkpt>
      <trkpt lat="48.14504" lon="-1.34559">
        <ele>104</ele>
        <time>2010-08-01T06:08:54Z</time>
      </trkpt>
      <trkpt lat="48.14504" lon="-1.34549">
        <ele>104</ele>
        <time>2010-08-01T06:08:55Z</time>
      </trkpt>
      <trkpt lat="48.14499" lon="-1.34527">
        <ele>103</ele>
        <time>2010-08-01T06:08:58Z</time>
      </trkpt>
      <trkpt lat="48.14492" lon="-1.34525">
        <ele>104</ele>
        <time>2010-08-01T06:09:00Z</time>
      </trkpt>
      <trkpt lat="48.14482" lon="-1.34527">
        <ele>104</ele>
        <time>2010-08-01T06:09:02Z</time>
      </trkpt>
      <trkpt lat="48.14449" lon="-1.34531">
        <ele>105</ele>
        <time>2010-08-01T06:09:08Z</time>
      </trkpt>
      <trkpt lat="48.14412" lon="-1.34533">
        <ele>106</ele>
        <time>2010-08-01T06:09:15Z</time>
      </trkpt>
      <trkpt lat="48.14371" lon="-1.34536">
        <ele>107</ele>
        <time>2010-08-01T06:09:23Z</time>
      </trkpt>
      <trkpt lat="48.14335" lon="-1.3454">
        <ele>107</ele>
        <time>2010-08-01T06:09:30Z</time>
      </trkpt>
      <trkpt lat="48.14305" lon="-1.34542">
        <ele>107</ele>
        <time>2010-08-01T06:09:36Z</time>
      </trkpt>
      <trkpt lat="48.14273" lon="-1.34544">
        <ele>107</ele>
        <time>2010-08-01T06:09:42Z</time>
      </trkpt>
      <trkpt lat="48.1423" lon="-1.34549">
        <ele>106</ele>
        <time>2010-08-01T06:09:50Z</time>
      </trkpt>
      <trkpt lat="48.14212" lon="-1.3455">
        <ele>106</ele>
        <time>2010-08-01T06:09:53Z</time>
      </trkpt>
      <trkpt lat="48.142" lon="-1.34551">
        <ele>106</ele>
        <time>2010-08-01T06:09:55Z</time>
      </trkpt>
      <trkpt lat="48.14188" lon="-1.34552">
        <ele>106</ele>
        <time>2010-08-01T06:09:57Z</time>
      </trkpt>
      <trkpt lat="48.14176" lon="-1.34552">
        <ele>106</ele>
        <time>2010-08-01T06:09:59Z</time>
      </trkpt>
      <trkpt lat="48.14165" lon="-1.34553">
        <ele>106</ele>
        <time>2010-08-01T06:10:01Z</time>
      </trkpt>
      <trkpt lat="48.14126" lon="-1.34555">
        <ele>106</ele>
        <time>2010-08-01T06:10:08Z</time>
      </trkpt>
      <trkpt lat="48.14112" lon="-1.34556">
        <ele>106</ele>
        <time>2010-08-01T06:10:11Z</time>
      </trkpt>
      <trkpt lat="48.14108" lon="-1.3453">
        <ele>106</ele>
        <time>2010-08-01T06:10:15Z</time>
      </trkpt>
      <trkpt lat="48.14109" lon="-1.34521">
        <ele>106</ele>
        <time>2010-08-01T06:10:16Z</time>
      </trkpt>
      <trkpt lat="48.14124" lon="-1.34427">
        <ele>106</ele>
        <time>2010-08-01T06:10:26Z</time>
      </trkpt>
      <trkpt lat="48.14138" lon="-1.34359">
        <ele>106</ele>
        <time>2010-08-01T06:10:33Z</time>
      </trkpt>
      <trkpt lat="48.14158" lon="-1.34329">
        <ele>106</ele>
        <time>2010-08-01T06:10:37Z</time>
      </trkpt>
      <trkpt lat="48.1417" lon="-1.34319">
        <ele>106</ele>
        <time>2010-08-01T06:10:39Z</time>
      </trkpt>
      <trkpt lat="48.14188" lon="-1.34305">
        <ele>106</ele>
        <time>2010-08-01T06:10:42Z</time>
      </trkpt>
      <trkpt lat="48.14199" lon="-1.34254">
        <ele>106</ele>
        <time>2010-08-01T06:10:47Z</time>
      </trkpt>
      <trkpt lat="48.142" lon="-1.34243">
        <ele>106</ele>
        <time>2010-08-01T06:10:48Z</time>
      </trkpt>
      <trkpt lat="48.14202" lon="-1.34193">
        <ele>106</ele>
        <time>2010-08-01T06:10:53Z</time>
      </trkpt>
      <trkpt lat="48.14203" lon="-1.34129">
        <ele>106</ele>
        <time>2010-08-01T06:10:59Z</time>
      </trkpt>
      <trkpt lat="48.14203" lon="-1.34073">
        <ele>106</ele>
        <time>2010-08-01T06:11:04Z</time>
      </trkpt>
      <trkpt lat="48.14203" lon="-1.34063">
        <ele>106</ele>
        <time>2010-08-01T06:11:05Z</time>
      </trkpt>
      <trkpt lat="48.14205" lon="-1.34032">
        <ele>105</ele>
        <time>2010-08-01T06:11:08Z</time>
      </trkpt>
      <trkpt lat="48.1421" lon="-1.3401">
        <ele>105</ele>
        <time>2010-08-01T06:11:10Z</time>
      </trkpt>
      <trkpt lat="48.14216" lon="-1.33988">
        <ele>105</ele>
        <time>2010-08-01T06:11:12Z</time>
      </trkpt>
      <trkpt lat="48.14222" lon="-1.33969">
        <ele>104</ele>
        <time>2010-08-01T06:11:14Z</time>
      </trkpt>
      <trkpt lat="48.14225" lon="-1.33961">
        <ele>104</ele>
        <time>2010-08-01T06:11:15Z</time>
      </trkpt>
      <trkpt lat="48.1423" lon="-1.33955">
        <ele>104</ele>
        <time>2010-08-01T06:11:16Z</time>
      </trkpt>
      <trkpt lat="48.14243" lon="-1.3395">
        <ele>103</ele>
        <time>2010-08-01T06:11:18Z</time>
      </trkpt>
      <trkpt lat="48.1425" lon="-1.3395">
        <ele>103</ele>
        <time>2010-08-01T06:11:19Z</time>
      </trkpt>
      <trkpt lat="48.14274" lon="-1.33951">
        <ele>102</ele>
        <time>2010-08-01T06:11:22Z</time>
      </trkpt>
      <trkpt lat="48.1429" lon="-1.33951">
        <ele>101</ele>
        <time>2010-08-01T06:11:24Z</time>
      </trkpt>
      <trkpt lat="48.14298" lon="-1.33952">
        <ele>101</ele>
        <time>2010-08-01T06:11:25Z</time>
      </trkpt>
      <trkpt lat="48.14307" lon="-1.33952">
        <ele>100</ele>
        <time>2010-08-01T06:11:26Z</time>
      </trkpt>
      <trkpt lat="48.14321" lon="-1.33936">
        <ele>99</ele>
        <time>2010-08-01T06:11:28Z</time>
      </trkpt>
      <trkpt lat="48.14323" lon="-1.33928">
        <ele>99</ele>
        <time>2010-08-01T06:11:29Z</time>
      </trkpt>
      <trkpt lat="48.14328" lon="-1.3391">
        <ele>99</ele>
        <time>2010-08-01T06:11:31Z</time>
      </trkpt>
      <trkpt lat="48.14328" lon="-1.33902">
        <ele>99</ele>
        <time>2010-08-01T06:11:32Z</time>
      </trkpt>
      <trkpt lat="48.14327" lon="-1.33888">
        <ele>99</ele>
        <time>2010-08-01T06:11:34Z</time>
      </trkpt>
      <trkpt lat="48.14324" lon="-1.33871">
        <ele>99</ele>
        <time>2010-08-01T06:11:36Z</time>
      </trkpt>
      <trkpt lat="48.14325" lon="-1.33862">
        <ele>99</ele>
        <time>2010-08-01T06:11:37Z</time>
      </trkpt>
      <trkpt lat="48.14326" lon="-1.33853">
        <ele>98</ele>
        <time>2010-08-01T06:11:38Z</time>
      </trkpt>
      <trkpt lat="48.1433" lon="-1.33839">
        <ele>98</ele>
        <time>2010-08-01T06:11:40Z</time>
      </trkpt>
      <trkpt lat="48.14336" lon="-1.33833">
        <ele>98</ele>
        <time>2010-08-01T06:11:41Z</time>
      </trkpt>
      <trkpt lat="48.14351" lon="-1.33818">
        <ele>97</ele>
        <time>2010-08-01T06:11:44Z</time>
      </trkpt>
      <trkpt lat="48.14354" lon="-1.3381">
        <ele>97</ele>
        <time>2010-08-01T06:11:45Z</time>
      </trkpt>
      <trkpt lat="48.14356" lon="-1.33803">
        <ele>97</ele>
        <time>2010-08-01T06:11:46Z</time>
      </trkpt>
      <trkpt lat="48.14356" lon="-1.33787">
        <ele>97</ele>
        <time>2010-08-01T06:11:48Z</time>
      </trkpt>
      <trkpt lat="48.14355" lon="-1.33778">
        <ele>97</ele>
        <time>2010-08-01T06:11:49Z</time>
      </trkpt>
      <trkpt lat="48.14349" lon="-1.33754">
        <ele>97</ele>
        <time>2010-08-01T06:11:52Z</time>
      </trkpt>
      <trkpt lat="48.14345" lon="-1.33713">
        <ele>97</ele>
        <time>2010-08-01T06:11:58Z</time>
      </trkpt>
      <trkpt lat="48.14344" lon="-1.33679">
        <ele>97</ele>
        <time>2010-08-01T06:12:02Z</time>
      </trkpt>
      <trkpt lat="48.14342" lon="-1.33654">
        <ele>97</ele>
        <time>2010-08-01T06:12:05Z</time>
      </trkpt>
      <trkpt lat="48.14344" lon="-1.33603">
        <ele>97</ele>
        <time>2010-08-01T06:12:11Z</time>
      </trkpt>
      <trkpt lat="48.14342" lon="-1.33575">
        <ele>97</ele>
        <time>2010-08-01T06:12:14Z</time>
      </trkpt>
      <trkpt lat="48.14341" lon="-1.33544">
        <ele>96</ele>
        <time>2010-08-01T06:12:17Z</time>
      </trkpt>
      <trkpt lat="48.14341" lon="-1.33523">
        <ele>96</ele>
        <time>2010-08-01T06:12:19Z</time>
      </trkpt>
      <trkpt lat="48.14343" lon="-1.33508">
        <ele>96</ele>
        <time>2010-08-01T06:12:21Z</time>
      </trkpt>
      <trkpt lat="48.14348" lon="-1.3349">
        <ele>96</ele>
        <time>2010-08-01T06:12:23Z</time>
      </trkpt>
      <trkpt lat="48.1435" lon="-1.33434">
        <ele>96</ele>
        <time>2010-08-01T06:12:28Z</time>
      </trkpt>
      <trkpt lat="48.14356" lon="-1.33351">
        <ele>95</ele>
        <time>2010-08-01T06:12:37Z</time>
      </trkpt>
      <trkpt lat="48.14358" lon="-1.33343">
        <ele>95</ele>
        <time>2010-08-01T06:12:38Z</time>
      </trkpt>
      <trkpt lat="48.14367" lon="-1.33335">
        <ele>95</ele>
        <time>2010-08-01T06:12:40Z</time>
      </trkpt>
      <trkpt lat="48.14392" lon="-1.33323">
        <ele>95</ele>
        <time>2010-08-01T06:12:44Z</time>
      </trkpt>
      <trkpt lat="48.1441" lon="-1.33325">
        <ele>94</ele>
        <time>2010-08-01T06:12:47Z</time>
      </trkpt>
      <trkpt lat="48.14415" lon="-1.33323">
        <ele>94</ele>
        <time>2010-08-01T06:12:48Z</time>
      </trkpt>
      <trkpt lat="48.14421" lon="-1.33321">
        <ele>94</ele>
        <time>2010-08-01T06:12:49Z</time>
      </trkpt>
      <trkpt lat="48.14431" lon="-1.33315">
        <ele>94</ele>
        <time>2010-08-01T06:12:51Z</time>
      </trkpt>
      <trkpt lat="48.14441" lon="-1.3331">
        <ele>93</ele>
        <time>2010-08-01T06:12:53Z</time>
      </trkpt>
      <trkpt lat="48.14447" lon="-1.33307">
        <ele>93</ele>
        <time>2010-08-01T06:12:54Z</time>
      </trkpt>
      <trkpt lat="48.14473" lon="-1.33291">
        <ele>92</ele>
        <time>2010-08-01T06:12:59Z</time>
      </trkpt>
      <trkpt lat="48.14502" lon="-1.33274">
        <ele>92</ele>
        <time>2010-08-01T06:13:04Z</time>
      </trkpt>
      <trkpt lat="48.14541" lon="-1.33249">
        <ele>90</ele>
        <time>2010-08-01T06:13:10Z</time>
      </trkpt>
      <trkpt lat="48.14556" lon="-1.33242">
        <ele>89</ele>
        <time>2010-08-01T06:13:12Z</time>
      </trkpt>
      <trkpt lat="48.14563" lon="-1.33238">
        <ele>89</ele>
        <time>2010-08-01T06:13:13Z</time>
      </trkpt>
      <trkpt lat="48.1457" lon="-1.33236">
        <ele>89</ele>
        <time>2010-08-01T06:13:14Z</time>
      </trkpt>
      <trkpt lat="48.14577" lon="-1.33236">
        <ele>88</ele>
        <time>2010-08-01T06:13:15Z</time>
      </trkpt>
      <trkpt lat="48.14585" lon="-1.33246">
        <ele>88</ele>
        <time>2010-08-01T06:13:17Z</time>
      </trkpt>
      <trkpt lat="48.14587" lon="-1.33253">
        <ele>88</ele>
        <time>2010-08-01T06:13:18Z</time>
      </trkpt>
      <trkpt lat="48.14587" lon="-1.33261">
        <ele>88</ele>
        <time>2010-08-01T06:13:19Z</time>
      </trkpt>
      <trkpt lat="48.14586" lon="-1.3328">
        <ele>88</ele>
        <time>2010-08-01T06:13:21Z</time>
      </trkpt>
      <trkpt lat="48.14586" lon="-1.33289">
        <ele>89</ele>
        <time>2010-08-01T06:13:22Z</time>
      </trkpt>
      <trkpt lat="48.14588" lon="-1.33296">
        <ele>89</ele>
        <time>2010-08-01T06:13:23Z</time>
      </trkpt>
      <trkpt lat="48.14591" lon="-1.33301">
        <ele>88</ele>
        <time>2010-08-01T06:13:24Z</time>
      </trkpt>
      <trkpt lat="48.146" lon="-1.33301">
        <ele>88</ele>
        <time>2010-08-01T06:13:26Z</time>
      </trkpt>
      <trkpt lat="48.14606" lon="-1.333">
        <ele>88</ele>
        <time>2010-08-01T06:13:27Z</time>
      </trkpt>
      <trkpt lat="48.14624" lon="-1.33295">
        <ele>87</ele>
        <time>2010-08-01T06:13:30Z</time>
      </trkpt>
      <trkpt lat="48.14643" lon="-1.33284">
        <ele>87</ele>
        <time>2010-08-01T06:13:34Z</time>
      </trkpt>
      <trkpt lat="48.14659" lon="-1.33282">
        <ele>88</ele>
        <time>2010-08-01T06:13:38Z</time>
      </trkpt>
      <trkpt lat="48.14663" lon="-1.33282">
        <ele>88</ele>
        <time>2010-08-01T06:13:39Z</time>
      </trkpt>
      <trkpt lat="48.14679" lon="-1.33278">
        <ele>89</ele>
        <time>2010-08-01T06:13:43Z</time>
      </trkpt>
      <trkpt lat="48.14683" lon="-1.33276">
        <ele>89</ele>
        <time>2010-08-01T06:13:44Z</time>
      </trkpt>
      <trkpt lat="48.14698" lon="-1.33276">
        <ele>90</ele>
        <time>2010-08-01T06:13:47Z</time>
      </trkpt>
      <trkpt lat="48.14702" lon="-1.33276">
        <ele>90</ele>
        <time>2010-08-01T06:13:48Z</time>
      </trkpt>
      <trkpt lat="48.14715" lon="-1.33272">
        <ele>91</ele>
        <time>2010-08-01T06:13:51Z</time>
      </trkpt>
      <trkpt lat="48.14721" lon="-1.33269">
        <ele>92</ele>
        <time>2010-08-01T06:13:53Z</time>
      </trkpt>
      <trkpt lat="48.14726" lon="-1.33266">
        <ele>92</ele>
        <time>2010-08-01T06:13:55Z</time>
      </trkpt>
      <trkpt lat="48.14734" lon="-1.33264">
        <ele>93</ele>
        <time>2010-08-01T06:13:57Z</time>
      </trkpt>
      <trkpt lat="48.14739" lon="-1.33263">
        <ele>94</ele>
        <time>2010-08-01T06:13:58Z</time>
      </trkpt>
      <trkpt lat="48.14746" lon="-1.33258">
        <ele>95</ele>
        <time>2010-08-01T06:14:00Z</time>
      </trkpt>
      <trkpt lat="48.14751" lon="-1.33254">
        <ele>95</ele>
        <time>2010-08-01T06:14:02Z</time>
      </trkpt>
      <trkpt lat="48.14754" lon="-1.33252">
        <ele>96</ele>
        <time>2010-08-01T06:14:03Z</time>
      </trkpt>
      <trkpt lat="48.1476" lon="-1.33249">
        <ele>96</ele>
        <time>2010-08-01T06:14:05Z</time>
      </trkpt>
      <trkpt lat="48.14766" lon="-1.33246">
        <ele>97</ele>
        <time>2010-08-01T06:14:07Z</time>
      </trkpt>
      <trkpt lat="48.14773" lon="-1.33244">
        <ele>98</ele>
        <time>2010-08-01T06:14:09Z</time>
      </trkpt>
      <trkpt lat="48.14776" lon="-1.33243">
        <ele>98</ele>
        <time>2010-08-01T06:14:10Z</time>
      </trkpt>
      <trkpt lat="48.14782" lon="-1.33242">
        <ele>98</ele>
        <time>2010-08-01T06:14:12Z</time>
      </trkpt>
      <trkpt lat="48.14789" lon="-1.33242">
        <ele>99</ele>
        <time>2010-08-01T06:14:14Z</time>
      </trkpt>
      <trkpt lat="48.14796" lon="-1.3324">
        <ele>99</ele>
        <time>2010-08-01T06:14:16Z</time>
      </trkpt>
      <trkpt lat="48.14802" lon="-1.33237">
        <ele>100</ele>
        <time>2010-08-01T06:14:18Z</time>
      </trkpt>
      <trkpt lat="48.14807" lon="-1.33234">
        <ele>100</ele>
        <time>2010-08-01T06:14:20Z</time>
      </trkpt>
      <trkpt lat="48.14813" lon="-1.33231">
        <ele>101</ele>
        <time>2010-08-01T06:14:22Z</time>
      </trkpt>
      <trkpt lat="48.14819" lon="-1.33228">
        <ele>101</ele>
        <time>2010-08-01T06:14:24Z</time>
      </trkpt>
      <trkpt lat="48.14825" lon="-1.33225">
        <ele>102</ele>
        <time>2010-08-01T06:14:26Z</time>
      </trkpt>
      <trkpt lat="48.14828" lon="-1.33224">
        <ele>102</ele>
        <time>2010-08-01T06:14:27Z</time>
      </trkpt>
      <trkpt lat="48.14834" lon="-1.3322">
        <ele>103</ele>
        <time>2010-08-01T06:14:29Z</time>
      </trkpt>
      <trkpt lat="48.14839" lon="-1.33217">
        <ele>103</ele>
        <time>2010-08-01T06:14:31Z</time>
      </trkpt>
      <trkpt lat="48.14845" lon="-1.33214">
        <ele>103</ele>
        <time>2010-08-01T06:14:33Z</time>
      </trkpt>
      <trkpt lat="48.14851" lon="-1.3321">
        <ele>104</ele>
        <time>2010-08-01T06:14:35Z</time>
      </trkpt>
      <trkpt lat="48.14853" lon="-1.33207">
        <ele>104</ele>
        <time>2010-08-01T06:14:36Z</time>
      </trkpt>
      <trkpt lat="48.14854" lon="-1.33203">
        <ele>104</ele>
        <time>2010-08-01T06:14:37Z</time>
      </trkpt>
      <trkpt lat="48.14854" lon="-1.33192">
        <ele>105</ele>
        <time>2010-08-01T06:14:39Z</time>
      </trkpt>
      <trkpt lat="48.14853" lon="-1.3318">
        <ele>105</ele>
        <time>2010-08-01T06:14:41Z</time>
      </trkpt>
      <trkpt lat="48.14852" lon="-1.33168">
        <ele>105</ele>
        <time>2010-08-01T06:14:43Z</time>
      </trkpt>
      <trkpt lat="48.14849" lon="-1.33118">
        <ele>106</ele>
        <time>2010-08-01T06:14:51Z</time>
      </trkpt>
      <trkpt lat="48.14849" lon="-1.33105">
        <ele>106</ele>
        <time>2010-08-01T06:14:53Z</time>
      </trkpt>
      <trkpt lat="48.14849" lon="-1.33092">
        <ele>106</ele>
        <time>2010-08-01T06:14:55Z</time>
      </trkpt>
      <trkpt lat="48.14848" lon="-1.33078">
        <ele>106</ele>
        <time>2010-08-01T06:14:57Z</time>
      </trkpt>
      <trkpt lat="48.14848" lon="-1.33065">
        <ele>107</ele>
        <time>2010-08-01T06:14:59Z</time>
      </trkpt>
      <trkpt lat="48.14845" lon="-1.33015">
        <ele>108</ele>
        <time>2010-08-01T06:15:06Z</time>
      </trkpt>
      <trkpt lat="48.14845" lon="-1.33">
        <ele>108</ele>
        <time>2010-08-01T06:15:08Z</time>
      </trkpt>
      <trkpt lat="48.14844" lon="-1.32985">
        <ele>108</ele>
        <time>2010-08-01T06:15:10Z</time>
      </trkpt>
      <trkpt lat="48.14843" lon="-1.3297">
        <ele>108</ele>
        <time>2010-08-01T06:15:12Z</time>
      </trkpt>
      <trkpt lat="48.14843" lon="-1.32955">
        <ele>108</ele>
        <time>2010-08-01T06:15:14Z</time>
      </trkpt>
      <trkpt lat="48.14843" lon="-1.32895">
        <ele>109</ele>
        <time>2010-08-01T06:15:22Z</time>
      </trkpt>
      <trkpt lat="48.14844" lon="-1.32865">
        <ele>109</ele>
        <time>2010-08-01T06:15:26Z</time>
      </trkpt>
      <trkpt lat="48.14847" lon="-1.32842">
        <ele>109</ele>
        <time>2010-08-01T06:15:29Z</time>
      </trkpt>
      <trkpt lat="48.14849" lon="-1.32826">
        <ele>109</ele>
        <time>2010-08-01T06:15:31Z</time>
      </trkpt>
      <trkpt lat="48.1485" lon="-1.32809">
        <ele>110</ele>
        <time>2010-08-01T06:15:33Z</time>
      </trkpt>
      <trkpt lat="48.14852" lon="-1.32792">
        <ele>110</ele>
        <time>2010-08-01T06:15:35Z</time>
      </trkpt>
      <trkpt lat="48.14856" lon="-1.3273">
        <ele>110</ele>
        <time>2010-08-01T06:15:42Z</time>
      </trkpt>
      <trkpt lat="48.1486" lon="-1.32659">
        <ele>110</ele>
        <time>2010-08-01T06:15:50Z</time>
      </trkpt>
      <trkpt lat="48.14864" lon="-1.32591">
        <ele>110</ele>
        <time>2010-08-01T06:15:57Z</time>
      </trkpt>
      <trkpt lat="48.14865" lon="-1.32573">
        <ele>110</ele>
        <time>2010-08-01T06:15:59Z</time>
      </trkpt>
      <trkpt lat="48.14867" lon="-1.32556">
        <ele>110</ele>
        <time>2010-08-01T06:16:01Z</time>
      </trkpt>
      <trkpt lat="48.14868" lon="-1.32538">
        <ele>110</ele>
        <time>2010-08-01T06:16:03Z</time>
      </trkpt>
      <trkpt lat="48.1487" lon="-1.32519">
        <ele>111</ele>
        <time>2010-08-01T06:16:05Z</time>
      </trkpt>
      <trkpt lat="48.14869" lon="-1.32509">
        <ele>111</ele>
        <time>2010-08-01T06:16:06Z</time>
      </trkpt>
      <trkpt lat="48.1487" lon="-1.32502">
        <ele>111</ele>
        <time>2010-08-01T06:16:07Z</time>
      </trkpt>
      <trkpt lat="48.14873" lon="-1.32478">
        <ele>111</ele>
        <time>2010-08-01T06:16:10Z</time>
      </trkpt>
      <trkpt lat="48.14882" lon="-1.32437">
        <ele>111</ele>
        <time>2010-08-01T06:16:15Z</time>
      </trkpt>
      <trkpt lat="48.14883" lon="-1.3243">
        <ele>111</ele>
        <time>2010-08-01T06:16:16Z</time>
      </trkpt>
      <trkpt lat="48.14889" lon="-1.3237">
        <ele>110</ele>
        <time>2010-08-01T06:16:22Z</time>
      </trkpt>
      <trkpt lat="48.14889" lon="-1.32361">
        <ele>110</ele>
        <time>2010-08-01T06:16:23Z</time>
      </trkpt>
      <trkpt lat="48.14882" lon="-1.32348">
        <ele>110</ele>
        <time>2010-08-01T06:16:25Z</time>
      </trkpt>
      <trkpt lat="48.14866" lon="-1.32332">
        <ele>111</ele>
        <time>2010-08-01T06:16:28Z</time>
      </trkpt>
      <trkpt lat="48.14858" lon="-1.32312">
        <ele>111</ele>
        <time>2010-08-01T06:16:30Z</time>
      </trkpt>
      <trkpt lat="48.14841" lon="-1.32242">
        <ele>111</ele>
        <time>2010-08-01T06:16:37Z</time>
      </trkpt>
      <trkpt lat="48.14826" lon="-1.32162">
        <ele>111</ele>
        <time>2010-08-01T06:16:45Z</time>
      </trkpt>
      <trkpt lat="48.14813" lon="-1.32079">
        <ele>111</ele>
        <time>2010-08-01T06:16:53Z</time>
      </trkpt>
      <trkpt lat="48.14798" lon="-1.32002">
        <ele>112</ele>
        <time>2010-08-01T06:17:01Z</time>
      </trkpt>
      <trkpt lat="48.14783" lon="-1.31932">
        <ele>112</ele>
        <time>2010-08-01T06:17:09Z</time>
      </trkpt>
      <trkpt lat="48.14781" lon="-1.31923">
        <ele>112</ele>
        <time>2010-08-01T06:17:12Z</time>
      </trkpt>
      <trkpt lat="48.14781" lon="-1.31923">
        <ele>112</ele>
        <time>2010-08-01T06:17:13Z</time>
      </trkpt>
      <trkpt lat="48.14783" lon="-1.31931">
        <ele>112</ele>
        <time>2010-08-01T06:19:35Z</time>
      </trkpt>
      <trkpt lat="48.14782" lon="-1.31925">
        <ele>112</ele>
        <time>2010-08-01T06:19:36Z</time>
      </trkpt>
      <trkpt lat="48.14775" lon="-1.31897">
        <ele>111</ele>
        <time>2010-08-01T06:19:40Z</time>
      </trkpt>
      <trkpt lat="48.14773" lon="-1.31888">
        <ele>111</ele>
        <time>2010-08-01T06:19:41Z</time>
      </trkpt>
      <trkpt lat="48.14751" lon="-1.31801">
        <ele>110</ele>
        <time>2010-08-01T06:19:50Z</time>
      </trkpt>
      <trkpt lat="48.1474" lon="-1.31766">
        <ele>111</ele>
        <time>2010-08-01T06:19:54Z</time>
      </trkpt>
      <trkpt lat="48.14735" lon="-1.31748">
        <ele>112</ele>
        <time>2010-08-01T06:19:56Z</time>
      </trkpt>
      <trkpt lat="48.1473" lon="-1.3173">
        <ele>112</ele>
        <time>2010-08-01T06:19:58Z</time>
      </trkpt>
      <trkpt lat="48.14726" lon="-1.31712">
        <ele>112</ele>
        <time>2010-08-01T06:20:00Z</time>
      </trkpt>
      <trkpt lat="48.14722" lon="-1.31695">
        <ele>113</ele>
        <time>2010-08-01T06:20:02Z</time>
      </trkpt>
      <trkpt lat="48.1471" lon="-1.31638">
        <ele>113</ele>
        <time>2010-08-01T06:20:09Z</time>
      </trkpt>
      <trkpt lat="48.14709" lon="-1.31631">
        <ele>113</ele>
        <time>2010-08-01T06:20:10Z</time>
      </trkpt>
      <trkpt lat="48.14708" lon="-1.31613">
        <ele>113</ele>
        <time>2010-08-01T06:20:14Z</time>
      </trkpt>
      <trkpt lat="48.14708" lon="-1.31613">
        <ele>113</ele>
        <time>2010-08-01T06:20:15Z</time>
      </trkpt>
      <trkpt lat="48.14707" lon="-1.31617">
        <ele>113</ele>
        <time>2010-08-01T06:20:24Z</time>
      </trkpt>
      <trkpt lat="48.14709" lon="-1.31619">
        <ele>113</ele>
        <time>2010-08-01T06:20:27Z</time>
      </trkpt>
      <trkpt lat="48.1471" lon="-1.3162">
        <ele>113</ele>
        <time>2010-08-01T06:20:29Z</time>
      </trkpt>
      <trkpt lat="48.14711" lon="-1.31619">
        <ele>113</ele>
        <time>2010-08-01T06:20:31Z</time>
      </trkpt>
      <trkpt lat="48.1471" lon="-1.31613">
        <ele>113</ele>
        <time>2010-08-01T06:20:33Z</time>
      </trkpt>
      <trkpt lat="48.14707" lon="-1.31593">
        <ele>113</ele>
        <time>2010-08-01T06:20:36Z</time>
      </trkpt>
      <trkpt lat="48.14693" lon="-1.3152">
        <ele>112</ele>
        <time>2010-08-01T06:20:44Z</time>
      </trkpt>
      <trkpt lat="48.14685" lon="-1.31495">
        <ele>111</ele>
        <time>2010-08-01T06:20:47Z</time>
      </trkpt>
      <trkpt lat="48.14671" lon="-1.31437">
        <ele>108</ele>
        <time>2010-08-01T06:20:53Z</time>
      </trkpt>
      <trkpt lat="48.14669" lon="-1.31425">
        <ele>107</ele>
        <time>2010-08-01T06:20:54Z</time>
      </trkpt>
      <trkpt lat="48.14667" lon="-1.31412">
        <ele>107</ele>
        <time>2010-08-01T06:20:55Z</time>
      </trkpt>
      <trkpt lat="48.14666" lon="-1.31384">
        <ele>105</ele>
        <time>2010-08-01T06:20:57Z</time>
      </trkpt>
      <trkpt lat="48.14666" lon="-1.31354">
        <ele>103</ele>
        <time>2010-08-01T06:20:59Z</time>
      </trkpt>
      <trkpt lat="48.14667" lon="-1.31338">
        <ele>101</ele>
        <time>2010-08-01T06:21:00Z</time>
      </trkpt>
      <trkpt lat="48.14668" lon="-1.31304">
        <ele>99</ele>
        <time>2010-08-01T06:21:02Z</time>
      </trkpt>
      <trkpt lat="48.14669" lon="-1.31288">
        <ele>98</ele>
        <time>2010-08-01T06:21:03Z</time>
      </trkpt>
      <trkpt lat="48.14668" lon="-1.31253">
        <ele>96</ele>
        <time>2010-08-01T06:21:05Z</time>
      </trkpt>
      <trkpt lat="48.14668" lon="-1.31235">
        <ele>94</ele>
        <time>2010-08-01T06:21:06Z</time>
      </trkpt>
      <trkpt lat="48.14667" lon="-1.31221">
        <ele>94</ele>
        <time>2010-08-01T06:21:07Z</time>
      </trkpt>
      <trkpt lat="48.14665" lon="-1.31208">
        <ele>93</ele>
        <time>2010-08-01T06:21:08Z</time>
      </trkpt>
      <trkpt lat="48.14662" lon="-1.31195">
        <ele>92</ele>
        <time>2010-08-01T06:21:10Z</time>
      </trkpt>
      <trkpt lat="48.14665" lon="-1.31189">
        <ele>91</ele>
        <time>2010-08-01T06:21:12Z</time>
      </trkpt>
      <trkpt lat="48.14675" lon="-1.31186">
        <ele>91</ele>
        <time>2010-08-01T06:21:14Z</time>
      </trkpt>
      <trkpt lat="48.14681" lon="-1.31183">
        <ele>90</ele>
        <time>2010-08-01T06:21:15Z</time>
      </trkpt>
      <trkpt lat="48.14687" lon="-1.3118">
        <ele>90</ele>
        <time>2010-08-01T06:21:16Z</time>
      </trkpt>
      <trkpt lat="48.14694" lon="-1.31177">
        <ele>89</ele>
        <time>2010-08-01T06:21:17Z</time>
      </trkpt>
      <trkpt lat="48.14706" lon="-1.3117">
        <ele>88</ele>
        <time>2010-08-01T06:21:19Z</time>
      </trkpt>
      <trkpt lat="48.14716" lon="-1.31163">
        <ele>87</ele>
        <time>2010-08-01T06:21:21Z</time>
      </trkpt>
      <trkpt lat="48.14718" lon="-1.31156">
        <ele>87</ele>
        <time>2010-08-01T06:21:22Z</time>
      </trkpt>
      <trkpt lat="48.14719" lon="-1.31148">
        <ele>86</ele>
        <time>2010-08-01T06:21:23Z</time>
      </trkpt>
      <trkpt lat="48.14716" lon="-1.31129">
        <ele>85</ele>
        <time>2010-08-01T06:21:25Z</time>
      </trkpt>
      <trkpt lat="48.14707" lon="-1.31111">
        <ele>84</ele>
        <time>2010-08-01T06:21:27Z</time>
      </trkpt>
      <trkpt lat="48.14703" lon="-1.31104">
        <ele>83</ele>
        <time>2010-08-01T06:21:28Z</time>
      </trkpt>
      <trkpt lat="48.14702" lon="-1.31095">
        <ele>83</ele>
        <time>2010-08-01T06:21:29Z</time>
      </trkpt>
      <trkpt lat="48.1471" lon="-1.31085">
        <ele>81</ele>
        <time>2010-08-01T06:21:31Z</time>
      </trkpt>
      <trkpt lat="48.14726" lon="-1.31077">
        <ele>80</ele>
        <time>2010-08-01T06:21:33Z</time>
      </trkpt>
      <trkpt lat="48.14734" lon="-1.31075">
        <ele>80</ele>
        <time>2010-08-01T06:21:34Z</time>
      </trkpt>
      <trkpt lat="48.14742" lon="-1.31072">
        <ele>80</ele>
        <time>2010-08-01T06:21:35Z</time>
      </trkpt>
      <trkpt lat="48.14749" lon="-1.3107">
        <ele>80</ele>
        <time>2010-08-01T06:21:36Z</time>
      </trkpt>
      <trkpt lat="48.14763" lon="-1.31063">
        <ele>79</ele>
        <time>2010-08-01T06:21:38Z</time>
      </trkpt>
      <trkpt lat="48.14777" lon="-1.31057">
        <ele>79</ele>
        <time>2010-08-01T06:21:40Z</time>
      </trkpt>
      <trkpt lat="48.14793" lon="-1.31051">
        <ele>78</ele>
        <time>2010-08-01T06:21:42Z</time>
      </trkpt>
      <trkpt lat="48.14809" lon="-1.31047">
        <ele>77</ele>
        <time>2010-08-01T06:21:44Z</time>
      </trkpt>
      <trkpt lat="48.14825" lon="-1.31045">
        <ele>77</ele>
        <time>2010-08-01T06:21:46Z</time>
      </trkpt>
      <trkpt lat="48.14842" lon="-1.31046">
        <ele>76</ele>
        <time>2010-08-01T06:21:48Z</time>
      </trkpt>
      <trkpt lat="48.14859" lon="-1.31049">
        <ele>75</ele>
        <time>2010-08-01T06:21:50Z</time>
      </trkpt>
      <trkpt lat="48.14875" lon="-1.31052">
        <ele>75</ele>
        <time>2010-08-01T06:21:52Z</time>
      </trkpt>
      <trkpt lat="48.14883" lon="-1.31052">
        <ele>75</ele>
        <time>2010-08-01T06:21:53Z</time>
      </trkpt>
      <trkpt lat="48.149" lon="-1.31052">
        <ele>74</ele>
        <time>2010-08-01T06:21:55Z</time>
      </trkpt>
      <trkpt lat="48.14917" lon="-1.31051">
        <ele>73</ele>
        <time>2010-08-01T06:21:57Z</time>
      </trkpt>
      <trkpt lat="48.14934" lon="-1.31049">
        <ele>73</ele>
        <time>2010-08-01T06:21:59Z</time>
      </trkpt>
      <trkpt lat="48.14949" lon="-1.31047">
        <ele>73</ele>
        <time>2010-08-01T06:22:01Z</time>
      </trkpt>
      <trkpt lat="48.14965" lon="-1.31045">
        <ele>73</ele>
        <time>2010-08-01T06:22:03Z</time>
      </trkpt>
      <trkpt lat="48.14979" lon="-1.31043">
        <ele>73</ele>
        <time>2010-08-01T06:22:05Z</time>
      </trkpt>
      <trkpt lat="48.14994" lon="-1.31042">
        <ele>73</ele>
        <time>2010-08-01T06:22:07Z</time>
      </trkpt>
      <trkpt lat="48.15008" lon="-1.3104">
        <ele>73</ele>
        <time>2010-08-01T06:22:09Z</time>
      </trkpt>
      <trkpt lat="48.15022" lon="-1.31039">
        <ele>73</ele>
        <time>2010-08-01T06:22:11Z</time>
      </trkpt>
      <trkpt lat="48.15082" lon="-1.31032">
        <ele>73</ele>
        <time>2010-08-01T06:22:20Z</time>
      </trkpt>
      <trkpt lat="48.15135" lon="-1.31027">
        <ele>75</ele>
        <time>2010-08-01T06:22:29Z</time>
      </trkpt>
      <trkpt lat="48.15161" lon="-1.31023">
        <ele>76</ele>
        <time>2010-08-01T06:22:34Z</time>
      </trkpt>
      <trkpt lat="48.15171" lon="-1.31022">
        <ele>76</ele>
        <time>2010-08-01T06:22:36Z</time>
      </trkpt>
      <trkpt lat="48.1518" lon="-1.31021">
        <ele>77</ele>
        <time>2010-08-01T06:22:38Z</time>
      </trkpt>
      <trkpt lat="48.15189" lon="-1.3102">
        <ele>77</ele>
        <time>2010-08-01T06:22:40Z</time>
      </trkpt>
      <trkpt lat="48.15199" lon="-1.31019">
        <ele>78</ele>
        <time>2010-08-01T06:22:42Z</time>
      </trkpt>
      <trkpt lat="48.15212" lon="-1.31017">
        <ele>78</ele>
        <time>2010-08-01T06:22:45Z</time>
      </trkpt>
      <trkpt lat="48.15222" lon="-1.31016">
        <ele>79</ele>
        <time>2010-08-01T06:22:47Z</time>
      </trkpt>
      <trkpt lat="48.15231" lon="-1.31015">
        <ele>79</ele>
        <time>2010-08-01T06:22:49Z</time>
      </trkpt>
      <trkpt lat="48.1524" lon="-1.31013">
        <ele>80</ele>
        <time>2010-08-01T06:22:51Z</time>
      </trkpt>
      <trkpt lat="48.15249" lon="-1.31012">
        <ele>81</ele>
        <time>2010-08-01T06:22:53Z</time>
      </trkpt>
      <trkpt lat="48.15258" lon="-1.31011">
        <ele>81</ele>
        <time>2010-08-01T06:22:55Z</time>
      </trkpt>
      <trkpt lat="48.15266" lon="-1.31009">
        <ele>82</ele>
        <time>2010-08-01T06:22:57Z</time>
      </trkpt>
      <trkpt lat="48.15271" lon="-1.31008">
        <ele>82</ele>
        <time>2010-08-01T06:22:58Z</time>
      </trkpt>
      <trkpt lat="48.15274" lon="-1.31005">
        <ele>82</ele>
        <time>2010-08-01T06:22:59Z</time>
      </trkpt>
      <trkpt lat="48.15281" lon="-1.30994">
        <ele>82</ele>
        <time>2010-08-01T06:23:01Z</time>
      </trkpt>
      <trkpt lat="48.15284" lon="-1.30986">
        <ele>81</ele>
        <time>2010-08-01T06:23:02Z</time>
      </trkpt>
      <trkpt lat="48.15303" lon="-1.30947">
        <ele>79</ele>
        <time>2010-08-01T06:23:06Z</time>
      </trkpt>
      <trkpt lat="48.15307" lon="-1.30936">
        <ele>77</ele>
        <time>2010-08-01T06:23:07Z</time>
      </trkpt>
      <trkpt lat="48.15315" lon="-1.30913">
        <ele>75</ele>
        <time>2010-08-01T06:23:09Z</time>
      </trkpt>
      <trkpt lat="48.15321" lon="-1.30892">
        <ele>75</ele>
        <time>2010-08-01T06:23:11Z</time>
      </trkpt>
      <trkpt lat="48.15328" lon="-1.30873">
        <ele>74</ele>
        <time>2010-08-01T06:23:13Z</time>
      </trkpt>
      <trkpt lat="48.15333" lon="-1.30867">
        <ele>74</ele>
        <time>2010-08-01T06:23:14Z</time>
      </trkpt>
      <trkpt lat="48.15339" lon="-1.30861">
        <ele>74</ele>
        <time>2010-08-01T06:23:15Z</time>
      </trkpt>
      <trkpt lat="48.15353" lon="-1.30853">
        <ele>74</ele>
        <time>2010-08-01T06:23:17Z</time>
      </trkpt>
      <trkpt lat="48.1536" lon="-1.30849">
        <ele>74</ele>
        <time>2010-08-01T06:23:18Z</time>
      </trkpt>
      <trkpt lat="48.15375" lon="-1.30831">
        <ele>75</ele>
        <time>2010-08-01T06:23:21Z</time>
      </trkpt>
      <trkpt lat="48.15377" lon="-1.30824">
        <ele>76</ele>
        <time>2010-08-01T06:23:22Z</time>
      </trkpt>
      <trkpt lat="48.15377" lon="-1.30803">
        <ele>77</ele>
        <time>2010-08-01T06:23:25Z</time>
      </trkpt>
      <trkpt lat="48.15376" lon="-1.30797">
        <ele>78</ele>
        <time>2010-08-01T06:23:26Z</time>
      </trkpt>
      <trkpt lat="48.15372" lon="-1.30788">
        <ele>79</ele>
        <time>2010-08-01T06:23:28Z</time>
      </trkpt>
      <trkpt lat="48.1537" lon="-1.30777">
        <ele>79</ele>
        <time>2010-08-01T06:23:30Z</time>
      </trkpt>
      <trkpt lat="48.15368" lon="-1.30772">
        <ele>80</ele>
        <time>2010-08-01T06:23:31Z</time>
      </trkpt>
      <trkpt lat="48.15365" lon="-1.30761">
        <ele>80</ele>
        <time>2010-08-01T06:23:33Z</time>
      </trkpt>
      <trkpt lat="48.15362" lon="-1.3075">
        <ele>81</ele>
        <time>2010-08-01T06:23:35Z</time>
      </trkpt>
      <trkpt lat="48.1536" lon="-1.30738">
        <ele>82</ele>
        <time>2010-08-01T06:23:37Z</time>
      </trkpt>
      <trkpt lat="48.15359" lon="-1.30732">
        <ele>82</ele>
        <time>2010-08-01T06:23:38Z</time>
      </trkpt>
      <trkpt lat="48.15355" lon="-1.30722">
        <ele>83</ele>
        <time>2010-08-01T06:23:40Z</time>
      </trkpt>
      <trkpt lat="48.1535" lon="-1.30712">
        <ele>84</ele>
        <time>2010-08-01T06:23:42Z</time>
      </trkpt>
      <trkpt lat="48.15344" lon="-1.30704">
        <ele>84</ele>
        <time>2010-08-01T06:23:44Z</time>
      </trkpt>
      <trkpt lat="48.15336" lon="-1.30696">
        <ele>84</ele>
        <time>2010-08-01T06:23:46Z</time>
      </trkpt>
      <trkpt lat="48.15314" lon="-1.30668">
        <ele>85</ele>
        <time>2010-08-01T06:23:52Z</time>
      </trkpt>
      <trkpt lat="48.15297" lon="-1.30645">
        <ele>85</ele>
        <time>2010-08-01T06:23:57Z</time>
      </trkpt>
      <trkpt lat="48.15291" lon="-1.30636">
        <ele>86</ele>
        <time>2010-08-01T06:23:59Z</time>
      </trkpt>
      <trkpt lat="48.15284" lon="-1.30627">
        <ele>86</ele>
        <time>2010-08-01T06:24:01Z</time>
      </trkpt>
      <trkpt lat="48.15278" lon="-1.30619">
        <ele>86</ele>
        <time>2010-08-01T06:24:03Z</time>
      </trkpt>
      <trkpt lat="48.15272" lon="-1.30611">
        <ele>86</ele>
        <time>2010-08-01T06:24:05Z</time>
      </trkpt>
      <trkpt lat="48.15258" lon="-1.30587">
        <ele>87</ele>
        <time>2010-08-01T06:24:11Z</time>
      </trkpt>
      <trkpt lat="48.15256" lon="-1.30576">
        <ele>88</ele>
        <time>2010-08-01T06:24:13Z</time>
      </trkpt>
      <trkpt lat="48.15256" lon="-1.30565">
        <ele>89</ele>
        <time>2010-08-01T06:24:15Z</time>
      </trkpt>
      <trkpt lat="48.15258" lon="-1.30554">
        <ele>89</ele>
        <time>2010-08-01T06:24:17Z</time>
      </trkpt>
      <trkpt lat="48.15259" lon="-1.30549">
        <ele>90</ele>
        <time>2010-08-01T06:24:18Z</time>
      </trkpt>
      <trkpt lat="48.15261" lon="-1.3054">
        <ele>90</ele>
        <time>2010-08-01T06:24:20Z</time>
      </trkpt>
      <trkpt lat="48.15264" lon="-1.3053">
        <ele>91</ele>
        <time>2010-08-01T06:24:22Z</time>
      </trkpt>
      <trkpt lat="48.15266" lon="-1.3052">
        <ele>92</ele>
        <time>2010-08-01T06:24:24Z</time>
      </trkpt>
      <trkpt lat="48.15268" lon="-1.30509">
        <ele>92</ele>
        <time>2010-08-01T06:24:26Z</time>
      </trkpt>
      <trkpt lat="48.1527" lon="-1.30499">
        <ele>93</ele>
        <time>2010-08-01T06:24:28Z</time>
      </trkpt>
      <trkpt lat="48.15273" lon="-1.30491">
        <ele>94</ele>
        <time>2010-08-01T06:24:30Z</time>
      </trkpt>
      <trkpt lat="48.15277" lon="-1.30482">
        <ele>94</ele>
        <time>2010-08-01T06:24:32Z</time>
      </trkpt>
      <trkpt lat="48.15281" lon="-1.30473">
        <ele>95</ele>
        <time>2010-08-01T06:24:34Z</time>
      </trkpt>
      <trkpt lat="48.15285" lon="-1.30465">
        <ele>95</ele>
        <time>2010-08-01T06:24:36Z</time>
      </trkpt>
      <trkpt lat="48.15288" lon="-1.30456">
        <ele>96</ele>
        <time>2010-08-01T06:24:38Z</time>
      </trkpt>
      <trkpt lat="48.15292" lon="-1.30448">
        <ele>97</ele>
        <time>2010-08-01T06:24:40Z</time>
      </trkpt>
      <trkpt lat="48.15293" lon="-1.3044">
        <ele>97</ele>
        <time>2010-08-01T06:24:42Z</time>
      </trkpt>
      <trkpt lat="48.15296" lon="-1.30432">
        <ele>97</ele>
        <time>2010-08-01T06:24:44Z</time>
      </trkpt>
      <trkpt lat="48.15299" lon="-1.30424">
        <ele>98</ele>
        <time>2010-08-01T06:24:46Z</time>
      </trkpt>
      <trkpt lat="48.15301" lon="-1.30417">
        <ele>98</ele>
        <time>2010-08-01T06:24:48Z</time>
      </trkpt>
      <trkpt lat="48.15303" lon="-1.30409">
        <ele>98</ele>
        <time>2010-08-01T06:24:50Z</time>
      </trkpt>
      <trkpt lat="48.15306" lon="-1.30401">
        <ele>98</ele>
        <time>2010-08-01T06:24:52Z</time>
      </trkpt>
      <trkpt lat="48.1531" lon="-1.30392">
        <ele>98</ele>
        <time>2010-08-01T06:24:54Z</time>
      </trkpt>
      <trkpt lat="48.15313" lon="-1.30388">
        <ele>98</ele>
        <time>2010-08-01T06:24:55Z</time>
      </trkpt>
      <trkpt lat="48.15325" lon="-1.30397">
        <ele>97</ele>
        <time>2010-08-01T06:24:59Z</time>
      </trkpt>
      <trkpt lat="48.15327" lon="-1.30404">
        <ele>97</ele>
        <time>2010-08-01T06:25:00Z</time>
      </trkpt>
      <trkpt lat="48.15341" lon="-1.3044">
        <ele>95</ele>
        <time>2010-08-01T06:25:05Z</time>
      </trkpt>
      <trkpt lat="48.15356" lon="-1.30466">
        <ele>92</ele>
        <time>2010-08-01T06:25:10Z</time>
      </trkpt>
      <trkpt lat="48.15368" lon="-1.30463">
        <ele>91</ele>
        <time>2010-08-01T06:25:12Z</time>
      </trkpt>
      <trkpt lat="48.15375" lon="-1.30459">
        <ele>91</ele>
        <time>2010-08-01T06:25:13Z</time>
      </trkpt>
      <trkpt lat="48.15391" lon="-1.30452">
        <ele>90</ele>
        <time>2010-08-01T06:25:15Z</time>
      </trkpt>
      <trkpt lat="48.15399" lon="-1.30451">
        <ele>89</ele>
        <time>2010-08-01T06:25:16Z</time>
      </trkpt>
      <trkpt lat="48.15407" lon="-1.30451">
        <ele>88</ele>
        <time>2010-08-01T06:25:17Z</time>
      </trkpt>
      <trkpt lat="48.15424" lon="-1.30451">
        <ele>87</ele>
        <time>2010-08-01T06:25:19Z</time>
      </trkpt>
      <trkpt lat="48.15433" lon="-1.3045">
        <ele>87</ele>
        <time>2010-08-01T06:25:20Z</time>
      </trkpt>
      <trkpt lat="48.1545" lon="-1.30449">
        <ele>87</ele>
        <time>2010-08-01T06:25:22Z</time>
      </trkpt>
      <trkpt lat="48.15463" lon="-1.30448">
        <ele>86</ele>
        <time>2010-08-01T06:25:24Z</time>
      </trkpt>
      <trkpt lat="48.15468" lon="-1.3045">
        <ele>86</ele>
        <time>2010-08-01T06:25:25Z</time>
      </trkpt>
      <trkpt lat="48.15472" lon="-1.30454">
        <ele>86</ele>
        <time>2010-08-01T06:25:26Z</time>
      </trkpt>
      <trkpt lat="48.15478" lon="-1.30467">
        <ele>86</ele>
        <time>2010-08-01T06:25:28Z</time>
      </trkpt>
      <trkpt lat="48.15481" lon="-1.30474">
        <ele>85</ele>
        <time>2010-08-01T06:25:29Z</time>
      </trkpt>
      <trkpt lat="48.15484" lon="-1.30482">
        <ele>85</ele>
        <time>2010-08-01T06:25:30Z</time>
      </trkpt>
      <trkpt lat="48.15487" lon="-1.30491">
        <ele>85</ele>
        <time>2010-08-01T06:25:31Z</time>
      </trkpt>
      <trkpt lat="48.15491" lon="-1.30499">
        <ele>85</ele>
        <time>2010-08-01T06:25:32Z</time>
      </trkpt>
      <trkpt lat="48.15494" lon="-1.30508">
        <ele>84</ele>
        <time>2010-08-01T06:25:33Z</time>
      </trkpt>
      <trkpt lat="48.15497" lon="-1.30516">
        <ele>84</ele>
        <time>2010-08-01T06:25:34Z</time>
      </trkpt>
      <trkpt lat="48.15511" lon="-1.30533">
        <ele>83</ele>
        <time>2010-08-01T06:25:37Z</time>
      </trkpt>
      <trkpt lat="48.15519" lon="-1.30539">
        <ele>83</ele>
        <time>2010-08-01T06:25:39Z</time>
      </trkpt>
      <trkpt lat="48.15525" lon="-1.30542">
        <ele>83</ele>
        <time>2010-08-01T06:25:41Z</time>
      </trkpt>
      <trkpt lat="48.15529" lon="-1.30545">
        <ele>83</ele>
        <time>2010-08-01T06:25:42Z</time>
      </trkpt>
      <trkpt lat="48.15535" lon="-1.30549">
        <ele>83</ele>
        <time>2010-08-01T06:25:44Z</time>
      </trkpt>
      <trkpt lat="48.15542" lon="-1.30552">
        <ele>83</ele>
        <time>2010-08-01T06:25:46Z</time>
      </trkpt>
      <trkpt lat="48.15549" lon="-1.30551">
        <ele>83</ele>
        <time>2010-08-01T06:25:48Z</time>
      </trkpt>
      <trkpt lat="48.15555" lon="-1.30554">
        <ele>83</ele>
        <time>2010-08-01T06:25:50Z</time>
      </trkpt>
      <trkpt lat="48.15558" lon="-1.30555">
        <ele>83</ele>
        <time>2010-08-01T06:25:51Z</time>
      </trkpt>
      <trkpt lat="48.15563" lon="-1.30554">
        <ele>83</ele>
        <time>2010-08-01T06:25:53Z</time>
      </trkpt>
      <trkpt lat="48.15566" lon="-1.30556">
        <ele>83</ele>
        <time>2010-08-01T06:25:55Z</time>
      </trkpt>
      <trkpt lat="48.1557" lon="-1.30558">
        <ele>83</ele>
        <time>2010-08-01T06:25:57Z</time>
      </trkpt>
      <trkpt lat="48.15572" lon="-1.3056">
        <ele>82</ele>
        <time>2010-08-01T06:25:58Z</time>
      </trkpt>
      <trkpt lat="48.15574" lon="-1.30563">
        <ele>82</ele>
        <time>2010-08-01T06:25:59Z</time>
      </trkpt>
      <trkpt lat="48.1558" lon="-1.30572">
        <ele>81</ele>
        <time>2010-08-01T06:26:01Z</time>
      </trkpt>
      <trkpt lat="48.15583" lon="-1.30577">
        <ele>81</ele>
        <time>2010-08-01T06:26:02Z</time>
      </trkpt>
      <trkpt lat="48.15584" lon="-1.30585">
        <ele>80</ele>
        <time>2010-08-01T06:26:03Z</time>
      </trkpt>
      <trkpt lat="48.15586" lon="-1.30594">
        <ele>80</ele>
        <time>2010-08-01T06:26:04Z</time>
      </trkpt>
      <trkpt lat="48.15589" lon="-1.30613">
        <ele>79</ele>
        <time>2010-08-01T06:26:06Z</time>
      </trkpt>
      <trkpt lat="48.15597" lon="-1.30628">
        <ele>78</ele>
        <time>2010-08-01T06:26:08Z</time>
      </trkpt>
      <trkpt lat="48.15604" lon="-1.30635">
        <ele>77</ele>
        <time>2010-08-01T06:26:10Z</time>
      </trkpt>
      <trkpt lat="48.15607" lon="-1.30637">
        <ele>77</ele>
        <time>2010-08-01T06:26:11Z</time>
      </trkpt>
      <trkpt lat="48.15607" lon="-1.3064">
        <ele>77</ele>
        <time>2010-08-01T06:26:12Z</time>
      </trkpt>
      <trkpt lat="48.15614" lon="-1.30653">
        <ele>77</ele>
        <time>2010-08-01T06:26:15Z</time>
      </trkpt>
      <trkpt lat="48.15633" lon="-1.30669">
        <ele>77</ele>
        <time>2010-08-01T06:26:19Z</time>
      </trkpt>
      <trkpt lat="48.15651" lon="-1.30669">
        <ele>78</ele>
        <time>2010-08-01T06:26:22Z</time>
      </trkpt>
      <trkpt lat="48.15661" lon="-1.30673">
        <ele>79</ele>
        <time>2010-08-01T06:26:25Z</time>
      </trkpt>
      <trkpt lat="48.15663" lon="-1.30677">
        <ele>79</ele>
        <time>2010-08-01T06:26:28Z</time>
      </trkpt>
      <trkpt lat="48.15669" lon="-1.30682">
        <ele>79</ele>
        <time>2010-08-01T06:26:29Z</time>
      </trkpt>
      <trkpt lat="48.15679" lon="-1.30689">
        <ele>80</ele>
        <time>2010-08-01T06:26:31Z</time>
      </trkpt>
      <trkpt lat="48.15681" lon="-1.30693">
        <ele>80</ele>
        <time>2010-08-01T06:26:32Z</time>
      </trkpt>
      <trkpt lat="48.15682" lon="-1.30696">
        <ele>80</ele>
        <time>2010-08-01T06:26:33Z</time>
      </trkpt>
      <trkpt lat="48.15684" lon="-1.30703">
        <ele>81</ele>
        <time>2010-08-01T06:26:35Z</time>
      </trkpt>
      <trkpt lat="48.15687" lon="-1.30707">
        <ele>81</ele>
        <time>2010-08-01T06:26:36Z</time>
      </trkpt>
      <trkpt lat="48.15696" lon="-1.30709">
        <ele>81</ele>
        <time>2010-08-01T06:26:38Z</time>
      </trkpt>
      <trkpt lat="48.15705" lon="-1.30703">
        <ele>82</ele>
        <time>2010-08-01T06:26:40Z</time>
      </trkpt>
      <trkpt lat="48.15709" lon="-1.30698">
        <ele>82</ele>
        <time>2010-08-01T06:26:41Z</time>
      </trkpt>
      <trkpt lat="48.15712" lon="-1.30692">
        <ele>82</ele>
        <time>2010-08-01T06:26:42Z</time>
      </trkpt>
      <trkpt lat="48.15718" lon="-1.30683">
        <ele>82</ele>
        <time>2010-08-01T06:26:44Z</time>
      </trkpt>
      <trkpt lat="48.15722" lon="-1.30681">
        <ele>83</ele>
        <time>2010-08-01T06:26:45Z</time>
      </trkpt>
      <trkpt lat="48.15736" lon="-1.30683">
        <ele>84</ele>
        <time>2010-08-01T06:26:48Z</time>
      </trkpt>
      <trkpt lat="48.15742" lon="-1.30685">
        <ele>84</ele>
        <time>2010-08-01T06:26:50Z</time>
      </trkpt>
      <trkpt lat="48.15748" lon="-1.30687">
        <ele>85</ele>
        <time>2010-08-01T06:26:52Z</time>
      </trkpt>
      <trkpt lat="48.15756" lon="-1.3069">
        <ele>86</ele>
        <time>2010-08-01T06:26:54Z</time>
      </trkpt>
      <trkpt lat="48.15763" lon="-1.30693">
        <ele>86</ele>
        <time>2010-08-01T06:26:56Z</time>
      </trkpt>
      <trkpt lat="48.15769" lon="-1.30697">
        <ele>87</ele>
        <time>2010-08-01T06:26:58Z</time>
      </trkpt>
      <trkpt lat="48.15777" lon="-1.30696">
        <ele>87</ele>
        <time>2010-08-01T06:27:02Z</time>
      </trkpt>
      <trkpt lat="48.15783" lon="-1.30695">
        <ele>88</ele>
        <time>2010-08-01T06:27:04Z</time>
      </trkpt>
      <trkpt lat="48.15789" lon="-1.30696">
        <ele>88</ele>
        <time>2010-08-01T06:27:06Z</time>
      </trkpt>
      <trkpt lat="48.15794" lon="-1.30698">
        <ele>89</ele>
        <time>2010-08-01T06:27:08Z</time>
      </trkpt>
      <trkpt lat="48.15797" lon="-1.307">
        <ele>89</ele>
        <time>2010-08-01T06:27:09Z</time>
      </trkpt>
      <trkpt lat="48.15805" lon="-1.30704">
        <ele>90</ele>
        <time>2010-08-01T06:27:12Z</time>
      </trkpt>
      <trkpt lat="48.15808" lon="-1.30704">
        <ele>90</ele>
        <time>2010-08-01T06:27:13Z</time>
      </trkpt>
      <trkpt lat="48.1581" lon="-1.30704">
        <ele>90</ele>
        <time>2010-08-01T06:27:14Z</time>
      </trkpt>
      <trkpt lat="48.15814" lon="-1.30701">
        <ele>91</ele>
        <time>2010-08-01T06:27:16Z</time>
      </trkpt>
      <trkpt lat="48.15816" lon="-1.30701">
        <ele>91</ele>
        <time>2010-08-01T06:27:17Z</time>
      </trkpt>
      <trkpt lat="48.15825" lon="-1.30704">
        <ele>92</ele>
        <time>2010-08-01T06:27:20Z</time>
      </trkpt>
      <trkpt lat="48.15831" lon="-1.30705">
        <ele>92</ele>
        <time>2010-08-01T06:27:22Z</time>
      </trkpt>
      <trkpt lat="48.15836" lon="-1.30706">
        <ele>93</ele>
        <time>2010-08-01T06:27:24Z</time>
      </trkpt>
      <trkpt lat="48.15838" lon="-1.30704">
        <ele>93</ele>
        <time>2010-08-01T06:27:25Z</time>
      </trkpt>
      <trkpt lat="48.15841" lon="-1.30705">
        <ele>94</ele>
        <time>2010-08-01T06:27:26Z</time>
      </trkpt>
      <trkpt lat="48.15844" lon="-1.30706">
        <ele>94</ele>
        <time>2010-08-01T06:27:27Z</time>
      </trkpt>
      <trkpt lat="48.15847" lon="-1.30706">
        <ele>94</ele>
        <time>2010-08-01T06:27:28Z</time>
      </trkpt>
      <trkpt lat="48.15856" lon="-1.30706">
        <ele>95</ele>
        <time>2010-08-01T06:27:31Z</time>
      </trkpt>
      <trkpt lat="48.15862" lon="-1.30706">
        <ele>96</ele>
        <time>2010-08-01T06:27:33Z</time>
      </trkpt>
      <trkpt lat="48.15865" lon="-1.30707">
        <ele>96</ele>
        <time>2010-08-01T06:27:34Z</time>
      </trkpt>
      <trkpt lat="48.15872" lon="-1.30706">
        <ele>97</ele>
        <time>2010-08-01T06:27:37Z</time>
      </trkpt>
      <trkpt lat="48.15873" lon="-1.30706">
        <ele>97</ele>
        <time>2010-08-01T06:27:38Z</time>
      </trkpt>
      <trkpt lat="48.15874" lon="-1.30705">
        <ele>97</ele>
        <time>2010-08-01T06:27:41Z</time>
      </trkpt>
      <trkpt lat="48.15874" lon="-1.30705">
        <ele>97</ele>
        <time>2010-08-01T06:27:42Z</time>
      </trkpt>
      <trkpt lat="48.15874" lon="-1.30705">
        <ele>97</ele>
        <time>2010-08-01T06:27:44Z</time>
      </trkpt>
      <trkpt lat="48.15874" lon="-1.30705">
        <ele>97</ele>
        <time>2010-08-01T06:27:45Z</time>
      </trkpt>
      <trkpt lat="48.15873" lon="-1.30706">
        <ele>97</ele>
        <time>2010-08-01T06:27:46Z</time>
      </trkpt>
      <trkpt lat="48.15873" lon="-1.30709">
        <ele>97</ele>
        <time>2010-08-01T06:28:07Z</time>
      </trkpt>
      <trkpt lat="48.15876" lon="-1.3071">
        <ele>97</ele>
        <time>2010-08-01T06:28:09Z</time>
      </trkpt>
      <trkpt lat="48.15884" lon="-1.30707">
        <ele>98</ele>
        <time>2010-08-01T06:28:12Z</time>
      </trkpt>
      <trkpt lat="48.15891" lon="-1.30705">
        <ele>99</ele>
        <time>2010-08-01T06:28:14Z</time>
      </trkpt>
      <trkpt lat="48.15894" lon="-1.30702">
        <ele>99</ele>
        <time>2010-08-01T06:28:15Z</time>
      </trkpt>
      <trkpt lat="48.15901" lon="-1.307">
        <ele>100</ele>
        <time>2010-08-01T06:28:18Z</time>
      </trkpt>
      <trkpt lat="48.15904" lon="-1.30701">
        <ele>100</ele>
        <time>2010-08-01T06:28:19Z</time>
      </trkpt>
      <trkpt lat="48.15906" lon="-1.307">
        <ele>101</ele>
        <time>2010-08-01T06:28:20Z</time>
      </trkpt>
      <trkpt lat="48.15908" lon="-1.307">
        <ele>101</ele>
        <time>2010-08-01T06:28:21Z</time>
      </trkpt>
      <trkpt lat="48.15911" lon="-1.307">
        <ele>101</ele>
        <time>2010-08-01T06:28:23Z</time>
      </trkpt>
      <trkpt lat="48.15916" lon="-1.30699">
        <ele>102</ele>
        <time>2010-08-01T06:28:25Z</time>
      </trkpt>
      <trkpt lat="48.15919" lon="-1.30698">
        <ele>102</ele>
        <time>2010-08-01T06:28:26Z</time>
      </trkpt>
      <trkpt lat="48.15925" lon="-1.30695">
        <ele>102</ele>
        <time>2010-08-01T06:28:28Z</time>
      </trkpt>
      <trkpt lat="48.1593" lon="-1.30692">
        <ele>103</ele>
        <time>2010-08-01T06:28:30Z</time>
      </trkpt>
      <trkpt lat="48.15933" lon="-1.30692">
        <ele>103</ele>
        <time>2010-08-01T06:28:31Z</time>
      </trkpt>
      <trkpt lat="48.15939" lon="-1.3069">
        <ele>103</ele>
        <time>2010-08-01T06:28:33Z</time>
      </trkpt>
      <trkpt lat="48.15946" lon="-1.30687">
        <ele>104</ele>
        <time>2010-08-01T06:28:35Z</time>
      </trkpt>
      <trkpt lat="48.15951" lon="-1.30682">
        <ele>104</ele>
        <time>2010-08-01T06:28:37Z</time>
      </trkpt>
      <trkpt lat="48.15953" lon="-1.3068">
        <ele>104</ele>
        <time>2010-08-01T06:28:38Z</time>
      </trkpt>
      <trkpt lat="48.15956" lon="-1.30679">
        <ele>105</ele>
        <time>2010-08-01T06:28:39Z</time>
      </trkpt>
      <trkpt lat="48.15966" lon="-1.30675">
        <ele>105</ele>
        <time>2010-08-01T06:28:42Z</time>
      </trkpt>
      <trkpt lat="48.15973" lon="-1.30669">
        <ele>106</ele>
        <time>2010-08-01T06:28:44Z</time>
      </trkpt>
      <trkpt lat="48.15981" lon="-1.30665">
        <ele>106</ele>
        <time>2010-08-01T06:28:46Z</time>
      </trkpt>
      <trkpt lat="48.15988" lon="-1.30662">
        <ele>106</ele>
        <time>2010-08-01T06:28:48Z</time>
      </trkpt>
      <trkpt lat="48.15994" lon="-1.3066">
        <ele>107</ele>
        <time>2010-08-01T06:28:50Z</time>
      </trkpt>
      <trkpt lat="48.16005" lon="-1.30656">
        <ele>107</ele>
        <time>2010-08-01T06:28:53Z</time>
      </trkpt>
      <trkpt lat="48.16014" lon="-1.30654">
        <ele>107</ele>
        <time>2010-08-01T06:28:55Z</time>
      </trkpt>
      <trkpt lat="48.16022" lon="-1.30651">
        <ele>107</ele>
        <time>2010-08-01T06:28:57Z</time>
      </trkpt>
      <trkpt lat="48.1603" lon="-1.30646">
        <ele>107</ele>
        <time>2010-08-01T06:28:59Z</time>
      </trkpt>
      <trkpt lat="48.1604" lon="-1.30642">
        <ele>107</ele>
        <time>2010-08-01T06:29:01Z</time>
      </trkpt>
      <trkpt lat="48.16054" lon="-1.30637">
        <ele>107</ele>
        <time>2010-08-01T06:29:04Z</time>
      </trkpt>
      <trkpt lat="48.16062" lon="-1.30632">
        <ele>107</ele>
        <time>2010-08-01T06:29:06Z</time>
      </trkpt>
      <trkpt lat="48.1608" lon="-1.30634">
        <ele>106</ele>
        <time>2010-08-01T06:29:10Z</time>
      </trkpt>
      <trkpt lat="48.16084" lon="-1.30639">
        <ele>106</ele>
        <time>2010-08-01T06:29:11Z</time>
      </trkpt>
      <trkpt lat="48.16092" lon="-1.3065">
        <ele>106</ele>
        <time>2010-08-01T06:29:13Z</time>
      </trkpt>
      <trkpt lat="48.16113" lon="-1.30671">
        <ele>106</ele>
        <time>2010-08-01T06:29:19Z</time>
      </trkpt>
      <trkpt lat="48.16132" lon="-1.30687">
        <ele>107</ele>
        <time>2010-08-01T06:29:24Z</time>
      </trkpt>
      <trkpt lat="48.16137" lon="-1.3069">
        <ele>107</ele>
        <time>2010-08-01T06:29:25Z</time>
      </trkpt>
      <trkpt lat="48.16161" lon="-1.30683">
        <ele>106</ele>
        <time>2010-08-01T06:29:30Z</time>
      </trkpt>
      <trkpt lat="48.16185" lon="-1.3066">
        <ele>105</ele>
        <time>2010-08-01T06:29:35Z</time>
      </trkpt>
      <trkpt lat="48.16195" lon="-1.3066">
        <ele>105</ele>
        <time>2010-08-01T06:29:37Z</time>
      </trkpt>
      <trkpt lat="48.16222" lon="-1.30663">
        <ele>105</ele>
        <time>2010-08-01T06:29:42Z</time>
      </trkpt>
      <trkpt lat="48.16233" lon="-1.30665">
        <ele>105</ele>
        <time>2010-08-01T06:29:44Z</time>
      </trkpt>
      <trkpt lat="48.16244" lon="-1.30657">
        <ele>105</ele>
        <time>2010-08-01T06:29:47Z</time>
      </trkpt>
      <trkpt lat="48.16246" lon="-1.30645">
        <ele>104</ele>
        <time>2010-08-01T06:29:49Z</time>
      </trkpt>
      <trkpt lat="48.16247" lon="-1.30638">
        <ele>104</ele>
        <time>2010-08-01T06:29:50Z</time>
      </trkpt>
      <trkpt lat="48.16247" lon="-1.30629">
        <ele>103</ele>
        <time>2010-08-01T06:29:51Z</time>
      </trkpt>
      <trkpt lat="48.16241" lon="-1.30613">
        <ele>102</ele>
        <time>2010-08-01T06:29:54Z</time>
      </trkpt>
      <trkpt lat="48.16236" lon="-1.306">
        <ele>102</ele>
        <time>2010-08-01T06:29:56Z</time>
      </trkpt>
      <trkpt lat="48.16236" lon="-1.30597">
        <ele>101</ele>
        <time>2010-08-01T06:29:57Z</time>
      </trkpt>
      <trkpt lat="48.16236" lon="-1.30588">
        <ele>101</ele>
        <time>2010-08-01T06:29:59Z</time>
      </trkpt>
      <trkpt lat="48.16238" lon="-1.30582">
        <ele>100</ele>
        <time>2010-08-01T06:30:01Z</time>
      </trkpt>
      <trkpt lat="48.16239" lon="-1.30574">
        <ele>100</ele>
        <time>2010-08-01T06:30:03Z</time>
      </trkpt>
      <trkpt lat="48.1624" lon="-1.3056">
        <ele>100</ele>
        <time>2010-08-01T06:30:05Z</time>
      </trkpt>
      <trkpt lat="48.16239" lon="-1.30525">
        <ele>99</ele>
        <time>2010-08-01T06:30:09Z</time>
      </trkpt>
      <trkpt lat="48.16239" lon="-1.30515">
        <ele>98</ele>
        <time>2010-08-01T06:30:10Z</time>
      </trkpt>
      <trkpt lat="48.16238" lon="-1.30505">
        <ele>98</ele>
        <time>2010-08-01T06:30:11Z</time>
      </trkpt>
      <trkpt lat="48.16237" lon="-1.3048">
        <ele>97</ele>
        <time>2010-08-01T06:30:14Z</time>
      </trkpt>
      <trkpt lat="48.16235" lon="-1.30465">
        <ele>97</ele>
        <time>2010-08-01T06:30:16Z</time>
      </trkpt>
      <trkpt lat="48.16234" lon="-1.30459">
        <ele>97</ele>
        <time>2010-08-01T06:30:17Z</time>
      </trkpt>
      <trkpt lat="48.16233" lon="-1.30451">
        <ele>96</ele>
        <time>2010-08-01T06:30:18Z</time>
      </trkpt>
      <trkpt lat="48.16232" lon="-1.30437">
        <ele>96</ele>
        <time>2010-08-01T06:30:20Z</time>
      </trkpt>
      <trkpt lat="48.16234" lon="-1.30427">
        <ele>96</ele>
        <time>2010-08-01T06:30:21Z</time>
      </trkpt>
      <trkpt lat="48.16236" lon="-1.30417">
        <ele>96</ele>
        <time>2010-08-01T06:30:22Z</time>
      </trkpt>
      <trkpt lat="48.16242" lon="-1.30397">
        <ele>95</ele>
        <time>2010-08-01T06:30:24Z</time>
      </trkpt>
      <trkpt lat="48.16245" lon="-1.30387">
        <ele>95</ele>
        <time>2010-08-01T06:30:25Z</time>
      </trkpt>
      <trkpt lat="48.16251" lon="-1.30363">
        <ele>95</ele>
        <time>2010-08-01T06:30:28Z</time>
      </trkpt>
      <trkpt lat="48.16257" lon="-1.30347">
        <ele>95</ele>
        <time>2010-08-01T06:30:30Z</time>
      </trkpt>
      <trkpt lat="48.16268" lon="-1.30308">
        <ele>94</ele>
        <time>2010-08-01T06:30:34Z</time>
      </trkpt>
      <trkpt lat="48.16273" lon="-1.30286">
        <ele>93</ele>
        <time>2010-08-01T06:30:36Z</time>
      </trkpt>
      <trkpt lat="48.16276" lon="-1.30267">
        <ele>92</ele>
        <time>2010-08-01T06:30:38Z</time>
      </trkpt>
      <trkpt lat="48.16278" lon="-1.30257">
        <ele>92</ele>
        <time>2010-08-01T06:30:39Z</time>
      </trkpt>
      <trkpt lat="48.1628" lon="-1.30247">
        <ele>91</ele>
        <time>2010-08-01T06:30:40Z</time>
      </trkpt>
      <trkpt lat="48.16285" lon="-1.30227">
        <ele>91</ele>
        <time>2010-08-01T06:30:42Z</time>
      </trkpt>
      <trkpt lat="48.16287" lon="-1.30218">
        <ele>90</ele>
        <time>2010-08-01T06:30:43Z</time>
      </trkpt>
      <trkpt lat="48.16289" lon="-1.30208">
        <ele>90</ele>
        <time>2010-08-01T06:30:44Z</time>
      </trkpt>
      <trkpt lat="48.16293" lon="-1.30179">
        <ele>89</ele>
        <time>2010-08-01T06:30:47Z</time>
      </trkpt>
      <trkpt lat="48.16297" lon="-1.30161">
        <ele>89</ele>
        <time>2010-08-01T06:30:49Z</time>
      </trkpt>
      <trkpt lat="48.16297" lon="-1.30152">
        <ele>89</ele>
        <time>2010-08-01T06:30:50Z</time>
      </trkpt>
      <trkpt lat="48.16297" lon="-1.30142">
        <ele>89</ele>
        <time>2010-08-01T06:30:51Z</time>
      </trkpt>
      <trkpt lat="48.16297" lon="-1.30131">
        <ele>88</ele>
        <time>2010-08-01T06:30:52Z</time>
      </trkpt>
      <trkpt lat="48.16296" lon="-1.30112">
        <ele>88</ele>
        <time>2010-08-01T06:30:54Z</time>
      </trkpt>
      <trkpt lat="48.16297" lon="-1.30091">
        <ele>87</ele>
        <time>2010-08-01T06:30:56Z</time>
      </trkpt>
      <trkpt lat="48.163" lon="-1.30071">
        <ele>86</ele>
        <time>2010-08-01T06:30:58Z</time>
      </trkpt>
      <trkpt lat="48.16302" lon="-1.30063">
        <ele>86</ele>
        <time>2010-08-01T06:30:59Z</time>
      </trkpt>
      <trkpt lat="48.16303" lon="-1.30055">
        <ele>86</ele>
        <time>2010-08-01T06:31:00Z</time>
      </trkpt>
      <trkpt lat="48.16304" lon="-1.30048">
        <ele>85</ele>
        <time>2010-08-01T06:31:01Z</time>
      </trkpt>
      <trkpt lat="48.16305" lon="-1.3003">
        <ele>85</ele>
        <time>2010-08-01T06:31:03Z</time>
      </trkpt>
      <trkpt lat="48.16306" lon="-1.3001">
        <ele>84</ele>
        <time>2010-08-01T06:31:05Z</time>
      </trkpt>
      <trkpt lat="48.16307" lon="-1.30001">
        <ele>84</ele>
        <time>2010-08-01T06:31:06Z</time>
      </trkpt>
      <trkpt lat="48.16312" lon="-1.29986">
        <ele>84</ele>
        <time>2010-08-01T06:31:08Z</time>
      </trkpt>
      <trkpt lat="48.16318" lon="-1.29972">
        <ele>83</ele>
        <time>2010-08-01T06:31:10Z</time>
      </trkpt>
      <trkpt lat="48.16318" lon="-1.29965">
        <ele>83</ele>
        <time>2010-08-01T06:31:11Z</time>
      </trkpt>
      <trkpt lat="48.16318" lon="-1.29957">
        <ele>83</ele>
        <time>2010-08-01T06:31:12Z</time>
      </trkpt>
      <trkpt lat="48.16317" lon="-1.2995">
        <ele>83</ele>
        <time>2010-08-01T06:31:13Z</time>
      </trkpt>
      <trkpt lat="48.16315" lon="-1.29942">
        <ele>82</ele>
        <time>2010-08-01T06:31:14Z</time>
      </trkpt>
      <trkpt lat="48.16311" lon="-1.29889">
        <ele>81</ele>
        <time>2010-08-01T06:31:20Z</time>
      </trkpt>
      <trkpt lat="48.16312" lon="-1.29861">
        <ele>81</ele>
        <time>2010-08-01T06:31:23Z</time>
      </trkpt>
      <trkpt lat="48.16311" lon="-1.29822">
        <ele>81</ele>
        <time>2010-08-01T06:31:27Z</time>
      </trkpt>
      <trkpt lat="48.1631" lon="-1.29779">
        <ele>82</ele>
        <time>2010-08-01T06:31:32Z</time>
      </trkpt>
      <trkpt lat="48.16306" lon="-1.29734">
        <ele>84</ele>
        <time>2010-08-01T06:31:37Z</time>
      </trkpt>
      <trkpt lat="48.16304" lon="-1.29712">
        <ele>85</ele>
        <time>2010-08-01T06:31:40Z</time>
      </trkpt>
      <trkpt lat="48.16305" lon="-1.29696">
        <ele>85</ele>
        <time>2010-08-01T06:31:42Z</time>
      </trkpt>
      <trkpt lat="48.16303" lon="-1.29676">
        <ele>86</ele>
        <time>2010-08-01T06:31:45Z</time>
      </trkpt>
      <trkpt lat="48.16302" lon="-1.29669">
        <ele>87</ele>
        <time>2010-08-01T06:31:46Z</time>
      </trkpt>
      <trkpt lat="48.16303" lon="-1.29651">
        <ele>88</ele>
        <time>2010-08-01T06:31:49Z</time>
      </trkpt>
      <trkpt lat="48.16304" lon="-1.29642">
        <ele>88</ele>
        <time>2010-08-01T06:31:51Z</time>
      </trkpt>
      <trkpt lat="48.16304" lon="-1.29638">
        <ele>88</ele>
        <time>2010-08-01T06:31:52Z</time>
      </trkpt>
      <trkpt lat="48.16303" lon="-1.29632">
        <ele>88</ele>
        <time>2010-08-01T06:31:53Z</time>
      </trkpt>
      <trkpt lat="48.16303" lon="-1.29627">
        <ele>89</ele>
        <time>2010-08-01T06:31:54Z</time>
      </trkpt>
      <trkpt lat="48.16301" lon="-1.29617">
        <ele>89</ele>
        <time>2010-08-01T06:31:56Z</time>
      </trkpt>
      <trkpt lat="48.163" lon="-1.29608">
        <ele>90</ele>
        <time>2010-08-01T06:31:58Z</time>
      </trkpt>
      <trkpt lat="48.16299" lon="-1.29599">
        <ele>91</ele>
        <time>2010-08-01T06:32:00Z</time>
      </trkpt>
      <trkpt lat="48.16296" lon="-1.29588">
        <ele>91</ele>
        <time>2010-08-01T06:32:02Z</time>
      </trkpt>
      <trkpt lat="48.16292" lon="-1.29579">
        <ele>92</ele>
        <time>2010-08-01T06:32:04Z</time>
      </trkpt>
      <trkpt lat="48.1629" lon="-1.29573">
        <ele>92</ele>
        <time>2010-08-01T06:32:06Z</time>
      </trkpt>
      <trkpt lat="48.16288" lon="-1.2957">
        <ele>92</ele>
        <time>2010-08-01T06:32:08Z</time>
      </trkpt>
      <trkpt lat="48.16287" lon="-1.2957">
        <ele>93</ele>
        <time>2010-08-01T06:32:09Z</time>
      </trkpt>
      <trkpt lat="48.16286" lon="-1.29569">
        <ele>93</ele>
        <time>2010-08-01T06:32:22Z</time>
      </trkpt>
      <trkpt lat="48.16285" lon="-1.29567">
        <ele>93</ele>
        <time>2010-08-01T06:32:23Z</time>
      </trkpt>
      <trkpt lat="48.16283" lon="-1.29562">
        <ele>93</ele>
        <time>2010-08-01T06:32:24Z</time>
      </trkpt>
      <trkpt lat="48.16278" lon="-1.29545">
        <ele>94</ele>
        <time>2010-08-01T06:32:27Z</time>
      </trkpt>
      <trkpt lat="48.16275" lon="-1.29533">
        <ele>94</ele>
        <time>2010-08-01T06:32:29Z</time>
      </trkpt>
      <trkpt lat="48.16272" lon="-1.29522">
        <ele>95</ele>
        <time>2010-08-01T06:32:31Z</time>
      </trkpt>
      <trkpt lat="48.16269" lon="-1.29512">
        <ele>96</ele>
        <time>2010-08-01T06:32:33Z</time>
      </trkpt>
      <trkpt lat="48.16267" lon="-1.29502">
        <ele>96</ele>
        <time>2010-08-01T06:32:35Z</time>
      </trkpt>
      <trkpt lat="48.16265" lon="-1.29493">
        <ele>96</ele>
        <time>2010-08-01T06:32:37Z</time>
      </trkpt>
      <trkpt lat="48.16263" lon="-1.29484">
        <ele>97</ele>
        <time>2010-08-01T06:32:39Z</time>
      </trkpt>
      <trkpt lat="48.16262" lon="-1.29475">
        <ele>97</ele>
        <time>2010-08-01T06:32:41Z</time>
      </trkpt>
      <trkpt lat="48.16261" lon="-1.29467">
        <ele>97</ele>
        <time>2010-08-01T06:32:43Z</time>
      </trkpt>
      <trkpt lat="48.1626" lon="-1.29458">
        <ele>98</ele>
        <time>2010-08-01T06:32:45Z</time>
      </trkpt>
      <trkpt lat="48.16258" lon="-1.29449">
        <ele>98</ele>
        <time>2010-08-01T06:32:47Z</time>
      </trkpt>
      <trkpt lat="48.16255" lon="-1.2944">
        <ele>99</ele>
        <time>2010-08-01T06:32:49Z</time>
      </trkpt>
      <trkpt lat="48.16253" lon="-1.29432">
        <ele>99</ele>
        <time>2010-08-01T06:32:51Z</time>
      </trkpt>
      <trkpt lat="48.16252" lon="-1.29422">
        <ele>100</ele>
        <time>2010-08-01T06:32:53Z</time>
      </trkpt>
      <trkpt lat="48.1625" lon="-1.29414">
        <ele>100</ele>
        <time>2010-08-01T06:32:55Z</time>
      </trkpt>
      <trkpt lat="48.16247" lon="-1.29405">
        <ele>101</ele>
        <time>2010-08-01T06:32:57Z</time>
      </trkpt>
      <trkpt lat="48.16244" lon="-1.29395">
        <ele>101</ele>
        <time>2010-08-01T06:32:59Z</time>
      </trkpt>
      <trkpt lat="48.16243" lon="-1.2939">
        <ele>101</ele>
        <time>2010-08-01T06:33:00Z</time>
      </trkpt>
      <trkpt lat="48.16242" lon="-1.2938">
        <ele>102</ele>
        <time>2010-08-01T06:33:02Z</time>
      </trkpt>
      <trkpt lat="48.1624" lon="-1.29369">
        <ele>103</ele>
        <time>2010-08-01T06:33:04Z</time>
      </trkpt>
      <trkpt lat="48.16239" lon="-1.29359">
        <ele>103</ele>
        <time>2010-08-01T06:33:06Z</time>
      </trkpt>
      <trkpt lat="48.16238" lon="-1.29347">
        <ele>104</ele>
        <time>2010-08-01T06:33:08Z</time>
      </trkpt>
      <trkpt lat="48.16237" lon="-1.29337">
        <ele>105</ele>
        <time>2010-08-01T06:33:10Z</time>
      </trkpt>
      <trkpt lat="48.16237" lon="-1.29327">
        <ele>105</ele>
        <time>2010-08-01T06:33:12Z</time>
      </trkpt>
      <trkpt lat="48.16238" lon="-1.29317">
        <ele>106</ele>
        <time>2010-08-01T06:33:14Z</time>
      </trkpt>
      <trkpt lat="48.16237" lon="-1.29306">
        <ele>106</ele>
        <time>2010-08-01T06:33:16Z</time>
      </trkpt>
      <trkpt lat="48.16237" lon="-1.29296">
        <ele>107</ele>
        <time>2010-08-01T06:33:18Z</time>
      </trkpt>
      <trkpt lat="48.16236" lon="-1.29286">
        <ele>108</ele>
        <time>2010-08-01T06:33:20Z</time>
      </trkpt>
      <trkpt lat="48.16236" lon="-1.29276">
        <ele>108</ele>
        <time>2010-08-01T06:33:22Z</time>
      </trkpt>
      <trkpt lat="48.16236" lon="-1.29271">
        <ele>108</ele>
        <time>2010-08-01T06:33:23Z</time>
      </trkpt>
      <trkpt lat="48.16236" lon="-1.29261">
        <ele>109</ele>
        <time>2010-08-01T06:33:25Z</time>
      </trkpt>
      <trkpt lat="48.16235" lon="-1.29252">
        <ele>109</ele>
        <time>2010-08-01T06:33:27Z</time>
      </trkpt>
      <trkpt lat="48.16235" lon="-1.29243">
        <ele>109</ele>
        <time>2010-08-01T06:33:29Z</time>
      </trkpt>
      <trkpt lat="48.16235" lon="-1.29234">
        <ele>110</ele>
        <time>2010-08-01T06:33:31Z</time>
      </trkpt>
      <trkpt lat="48.16235" lon="-1.29224">
        <ele>110</ele>
        <time>2010-08-01T06:33:33Z</time>
      </trkpt>
      <trkpt lat="48.16236" lon="-1.29211">
        <ele>111</ele>
        <time>2010-08-01T06:33:35Z</time>
      </trkpt>
      <trkpt lat="48.16236" lon="-1.29197">
        <ele>112</ele>
        <time>2010-08-01T06:33:37Z</time>
      </trkpt>
      <trkpt lat="48.16237" lon="-1.29184">
        <ele>113</ele>
        <time>2010-08-01T06:33:39Z</time>
      </trkpt>
      <trkpt lat="48.16237" lon="-1.29175">
        <ele>113</ele>
        <time>2010-08-01T06:33:41Z</time>
      </trkpt>
      <trkpt lat="48.16237" lon="-1.29168">
        <ele>114</ele>
        <time>2010-08-01T06:33:43Z</time>
      </trkpt>
      <trkpt lat="48.16237" lon="-1.29165">
        <ele>114</ele>
        <time>2010-08-01T06:33:45Z</time>
      </trkpt>
      <trkpt lat="48.16238" lon="-1.29168">
        <ele>114</ele>
        <time>2010-08-01T06:35:08Z</time>
      </trkpt>
      <trkpt lat="48.16239" lon="-1.29169">
        <ele>114</ele>
        <time>2010-08-01T06:35:10Z</time>
      </trkpt>
      <trkpt lat="48.16239" lon="-1.2917">
        <ele>114</ele>
        <time>2010-08-01T06:35:11Z</time>
      </trkpt>
      <trkpt lat="48.16241" lon="-1.29177">
        <ele>113</ele>
        <time>2010-08-01T06:35:17Z</time>
      </trkpt>
      <trkpt lat="48.16241" lon="-1.29171">
        <ele>114</ele>
        <time>2010-08-01T06:35:22Z</time>
      </trkpt>
      <trkpt lat="48.16241" lon="-1.29169">
        <ele>114</ele>
        <time>2010-08-01T06:35:23Z</time>
      </trkpt>
      <trkpt lat="48.16241" lon="-1.29152">
        <ele>114</ele>
        <time>2010-08-01T06:35:27Z</time>
      </trkpt>
      <trkpt lat="48.16241" lon="-1.29145">
        <ele>115</ele>
        <time>2010-08-01T06:35:28Z</time>
      </trkpt>
      <trkpt lat="48.16241" lon="-1.29132">
        <ele>115</ele>
        <time>2010-08-01T06:35:30Z</time>
      </trkpt>
      <trkpt lat="48.16241" lon="-1.29119">
        <ele>116</ele>
        <time>2010-08-01T06:35:32Z</time>
      </trkpt>
      <trkpt lat="48.16241" lon="-1.29106">
        <ele>117</ele>
        <time>2010-08-01T06:35:34Z</time>
      </trkpt>
      <trkpt lat="48.1624" lon="-1.29099">
        <ele>117</ele>
        <time>2010-08-01T06:35:35Z</time>
      </trkpt>
      <trkpt lat="48.1624" lon="-1.29093">
        <ele>117</ele>
        <time>2010-08-01T06:35:36Z</time>
      </trkpt>
      <trkpt lat="48.16239" lon="-1.2908">
        <ele>118</ele>
        <time>2010-08-01T06:35:38Z</time>
      </trkpt>
      <trkpt lat="48.16238" lon="-1.29067">
        <ele>118</ele>
        <time>2010-08-01T06:35:40Z</time>
      </trkpt>
      <trkpt lat="48.16236" lon="-1.29054">
        <ele>119</ele>
        <time>2010-08-01T06:35:42Z</time>
      </trkpt>
      <trkpt lat="48.16235" lon="-1.29048">
        <ele>119</ele>
        <time>2010-08-01T06:35:43Z</time>
      </trkpt>
      <trkpt lat="48.16232" lon="-1.29035">
        <ele>120</ele>
        <time>2010-08-01T06:35:45Z</time>
      </trkpt>
      <trkpt lat="48.1623" lon="-1.29024">
        <ele>120</ele>
        <time>2010-08-01T06:35:47Z</time>
      </trkpt>
      <trkpt lat="48.16232" lon="-1.29014">
        <ele>120</ele>
        <time>2010-08-01T06:35:49Z</time>
      </trkpt>
      <trkpt lat="48.16234" lon="-1.29007">
        <ele>121</ele>
        <time>2010-08-01T06:35:50Z</time>
      </trkpt>
      <trkpt lat="48.16239" lon="-1.28985">
        <ele>122</ele>
        <time>2010-08-01T06:35:54Z</time>
      </trkpt>
      <trkpt lat="48.16239" lon="-1.28979">
        <ele>122</ele>
        <time>2010-08-01T06:35:55Z</time>
      </trkpt>
      <trkpt lat="48.16238" lon="-1.28973">
        <ele>122</ele>
        <time>2010-08-01T06:35:56Z</time>
      </trkpt>
      <trkpt lat="48.16239" lon="-1.28962">
        <ele>123</ele>
        <time>2010-08-01T06:35:58Z</time>
      </trkpt>
      <trkpt lat="48.16239" lon="-1.28952">
        <ele>123</ele>
        <time>2010-08-01T06:36:00Z</time>
      </trkpt>
      <trkpt lat="48.16239" lon="-1.28941">
        <ele>123</ele>
        <time>2010-08-01T06:36:02Z</time>
      </trkpt>
      <trkpt lat="48.16239" lon="-1.28926">
        <ele>124</ele>
        <time>2010-08-01T06:36:05Z</time>
      </trkpt>
      <trkpt lat="48.16239" lon="-1.28913">
        <ele>124</ele>
        <time>2010-08-01T06:36:07Z</time>
      </trkpt>
      <trkpt lat="48.1624" lon="-1.28902">
        <ele>125</ele>
        <time>2010-08-01T06:36:09Z</time>
      </trkpt>
      <trkpt lat="48.16243" lon="-1.2889">
        <ele>125</ele>
        <time>2010-08-01T06:36:11Z</time>
      </trkpt>
      <trkpt lat="48.16245" lon="-1.28878">
        <ele>125</ele>
        <time>2010-08-01T06:36:13Z</time>
      </trkpt>
      <trkpt lat="48.16247" lon="-1.28866">
        <ele>125</ele>
        <time>2010-08-01T06:36:15Z</time>
      </trkpt>
      <trkpt lat="48.1625" lon="-1.28847">
        <ele>125</ele>
        <time>2010-08-01T06:36:18Z</time>
      </trkpt>
      <trkpt lat="48.16258" lon="-1.28806">
        <ele>125</ele>
        <time>2010-08-01T06:36:24Z</time>
      </trkpt>
      <trkpt lat="48.1626" lon="-1.28792">
        <ele>125</ele>
        <time>2010-08-01T06:36:26Z</time>
      </trkpt>
      <trkpt lat="48.16259" lon="-1.28777">
        <ele>125</ele>
        <time>2010-08-01T06:36:28Z</time>
      </trkpt>
      <trkpt lat="48.16258" lon="-1.2877">
        <ele>125</ele>
        <time>2010-08-01T06:36:29Z</time>
      </trkpt>
      <trkpt lat="48.16258" lon="-1.28762">
        <ele>125</ele>
        <time>2010-08-01T06:36:30Z</time>
      </trkpt>
      <trkpt lat="48.16258" lon="-1.28747">
        <ele>125</ele>
        <time>2010-08-01T06:36:32Z</time>
      </trkpt>
      <trkpt lat="48.16258" lon="-1.28732">
        <ele>125</ele>
        <time>2010-08-01T06:36:34Z</time>
      </trkpt>
      <trkpt lat="48.16256" lon="-1.2871">
        <ele>125</ele>
        <time>2010-08-01T06:36:37Z</time>
      </trkpt>
      <trkpt lat="48.16255" lon="-1.2868">
        <ele>125</ele>
        <time>2010-08-01T06:36:41Z</time>
      </trkpt>
      <trkpt lat="48.16249" lon="-1.28636">
        <ele>125</ele>
        <time>2010-08-01T06:36:46Z</time>
      </trkpt>
      <trkpt lat="48.16247" lon="-1.28609">
        <ele>125</ele>
        <time>2010-08-01T06:36:49Z</time>
      </trkpt>
      <trkpt lat="48.16248" lon="-1.28601">
        <ele>125</ele>
        <time>2010-08-01T06:36:50Z</time>
      </trkpt>
      <trkpt lat="48.16249" lon="-1.28593">
        <ele>124</ele>
        <time>2010-08-01T06:36:51Z</time>
      </trkpt>
      <trkpt lat="48.16249" lon="-1.28575">
        <ele>124</ele>
        <time>2010-08-01T06:36:53Z</time>
      </trkpt>
      <trkpt lat="48.16247" lon="-1.28556">
        <ele>124</ele>
        <time>2010-08-01T06:36:55Z</time>
      </trkpt>
      <trkpt lat="48.16246" lon="-1.2854">
        <ele>124</ele>
        <time>2010-08-01T06:36:57Z</time>
      </trkpt>
      <trkpt lat="48.16245" lon="-1.28532">
        <ele>123</ele>
        <time>2010-08-01T06:36:58Z</time>
      </trkpt>
      <trkpt lat="48.16244" lon="-1.28497">
        <ele>123</ele>
        <time>2010-08-01T06:37:02Z</time>
      </trkpt>
      <trkpt lat="48.16241" lon="-1.28456">
        <ele>122</ele>
        <time>2010-08-01T06:37:06Z</time>
      </trkpt>
      <trkpt lat="48.16237" lon="-1.28426">
        <ele>121</ele>
        <time>2010-08-01T06:37:09Z</time>
      </trkpt>
      <trkpt lat="48.16235" lon="-1.28406">
        <ele>120</ele>
        <time>2010-08-01T06:37:11Z</time>
      </trkpt>
      <trkpt lat="48.16233" lon="-1.28387">
        <ele>119</ele>
        <time>2010-08-01T06:37:13Z</time>
      </trkpt>
      <trkpt lat="48.16232" lon="-1.28367">
        <ele>119</ele>
        <time>2010-08-01T06:37:15Z</time>
      </trkpt>
      <trkpt lat="48.1623" lon="-1.28347">
        <ele>118</ele>
        <time>2010-08-01T06:37:17Z</time>
      </trkpt>
      <trkpt lat="48.16228" lon="-1.28326">
        <ele>118</ele>
        <time>2010-08-01T06:37:19Z</time>
      </trkpt>
      <trkpt lat="48.16226" lon="-1.28317">
        <ele>117</ele>
        <time>2010-08-01T06:37:20Z</time>
      </trkpt>
      <trkpt lat="48.16224" lon="-1.28307">
        <ele>117</ele>
        <time>2010-08-01T06:37:21Z</time>
      </trkpt>
      <trkpt lat="48.1622" lon="-1.28289">
        <ele>116</ele>
        <time>2010-08-01T06:37:23Z</time>
      </trkpt>
      <trkpt lat="48.16218" lon="-1.2828">
        <ele>116</ele>
        <time>2010-08-01T06:37:24Z</time>
      </trkpt>
      <trkpt lat="48.16215" lon="-1.28249">
        <ele>115</ele>
        <time>2010-08-01T06:37:27Z</time>
      </trkpt>
      <trkpt lat="48.16215" lon="-1.28228">
        <ele>115</ele>
        <time>2010-08-01T06:37:29Z</time>
      </trkpt>
      <trkpt lat="48.16216" lon="-1.28207">
        <ele>115</ele>
        <time>2010-08-01T06:37:31Z</time>
      </trkpt>
      <trkpt lat="48.16216" lon="-1.28197">
        <ele>114</ele>
        <time>2010-08-01T06:37:32Z</time>
      </trkpt>
      <trkpt lat="48.16217" lon="-1.28177">
        <ele>114</ele>
        <time>2010-08-01T06:37:34Z</time>
      </trkpt>
      <trkpt lat="48.16218" lon="-1.28167">
        <ele>114</ele>
        <time>2010-08-01T06:37:35Z</time>
      </trkpt>
      <trkpt lat="48.16214" lon="-1.28142">
        <ele>113</ele>
        <time>2010-08-01T06:37:38Z</time>
      </trkpt>
      <trkpt lat="48.16206" lon="-1.28135">
        <ele>113</ele>
        <time>2010-08-01T06:37:40Z</time>
      </trkpt>
      <trkpt lat="48.16194" lon="-1.28137">
        <ele>112</ele>
        <time>2010-08-01T06:37:42Z</time>
      </trkpt>
      <trkpt lat="48.16187" lon="-1.28139">
        <ele>112</ele>
        <time>2010-08-01T06:37:43Z</time>
      </trkpt>
      <trkpt lat="48.16179" lon="-1.28142">
        <ele>111</ele>
        <time>2010-08-01T06:37:44Z</time>
      </trkpt>
      <trkpt lat="48.16163" lon="-1.28146">
        <ele>110</ele>
        <time>2010-08-01T06:37:46Z</time>
      </trkpt>
      <trkpt lat="48.16145" lon="-1.28149">
        <ele>110</ele>
        <time>2010-08-01T06:37:48Z</time>
      </trkpt>
      <trkpt lat="48.16128" lon="-1.28153">
        <ele>109</ele>
        <time>2010-08-01T06:37:50Z</time>
      </trkpt>
      <trkpt lat="48.1608" lon="-1.28169">
        <ele>111</ele>
        <time>2010-08-01T06:37:56Z</time>
      </trkpt>
      <trkpt lat="48.16038" lon="-1.28187">
        <ele>113</ele>
        <time>2010-08-01T06:38:03Z</time>
      </trkpt>
      <trkpt lat="48.1601" lon="-1.28209">
        <ele>114</ele>
        <time>2010-08-01T06:38:09Z</time>
      </trkpt>
      <trkpt lat="48.15989" lon="-1.28228">
        <ele>115</ele>
        <time>2010-08-01T06:38:14Z</time>
      </trkpt>
      <trkpt lat="48.15981" lon="-1.28234">
        <ele>115</ele>
        <time>2010-08-01T06:38:16Z</time>
      </trkpt>
      <trkpt lat="48.15972" lon="-1.28241">
        <ele>116</ele>
        <time>2010-08-01T06:38:18Z</time>
      </trkpt>
      <trkpt lat="48.15964" lon="-1.28249">
        <ele>116</ele>
        <time>2010-08-01T06:38:20Z</time>
      </trkpt>
      <trkpt lat="48.15955" lon="-1.28257">
        <ele>117</ele>
        <time>2010-08-01T06:38:22Z</time>
      </trkpt>
      <trkpt lat="48.15943" lon="-1.28272">
        <ele>117</ele>
        <time>2010-08-01T06:38:25Z</time>
      </trkpt>
      <trkpt lat="48.15936" lon="-1.28284">
        <ele>117</ele>
        <time>2010-08-01T06:38:27Z</time>
      </trkpt>
      <trkpt lat="48.1593" lon="-1.28295">
        <ele>117</ele>
        <time>2010-08-01T06:38:29Z</time>
      </trkpt>
      <trkpt lat="48.15924" lon="-1.28309">
        <ele>117</ele>
        <time>2010-08-01T06:38:31Z</time>
      </trkpt>
      <trkpt lat="48.15919" lon="-1.28322">
        <ele>117</ele>
        <time>2010-08-01T06:38:33Z</time>
      </trkpt>
      <trkpt lat="48.15907" lon="-1.28351">
        <ele>117</ele>
        <time>2010-08-01T06:38:37Z</time>
      </trkpt>
      <trkpt lat="48.15892" lon="-1.28373">
        <ele>117</ele>
        <time>2010-08-01T06:38:42Z</time>
      </trkpt>
      <trkpt lat="48.15887" lon="-1.2836">
        <ele>117</ele>
        <time>2010-08-01T06:38:44Z</time>
      </trkpt>
      <trkpt lat="48.15884" lon="-1.28341">
        <ele>116</ele>
        <time>2010-08-01T06:38:46Z</time>
      </trkpt>
      <trkpt lat="48.15884" lon="-1.28309">
        <ele>116</ele>
        <time>2010-08-01T06:38:50Z</time>
      </trkpt>
      <trkpt lat="48.15876" lon="-1.28292">
        <ele>116</ele>
        <time>2010-08-01T06:38:53Z</time>
      </trkpt>
      <trkpt lat="48.15871" lon="-1.28291">
        <ele>115</ele>
        <time>2010-08-01T06:38:54Z</time>
      </trkpt>
      <trkpt lat="48.15825" lon="-1.2829">
        <ele>114</ele>
        <time>2010-08-01T06:39:01Z</time>
      </trkpt>
      <trkpt lat="48.15818" lon="-1.28289">
        <ele>113</ele>
        <time>2010-08-01T06:39:02Z</time>
      </trkpt>
      <trkpt lat="48.15803" lon="-1.28275">
        <ele>113</ele>
        <time>2010-08-01T06:39:05Z</time>
      </trkpt>
      <trkpt lat="48.15795" lon="-1.28262">
        <ele>112</ele>
        <time>2010-08-01T06:39:07Z</time>
      </trkpt>
      <trkpt lat="48.15791" lon="-1.28257">
        <ele>112</ele>
        <time>2010-08-01T06:39:08Z</time>
      </trkpt>
      <trkpt lat="48.15787" lon="-1.28254">
        <ele>112</ele>
        <time>2010-08-01T06:39:09Z</time>
      </trkpt>
      <trkpt lat="48.15781" lon="-1.28254">
        <ele>112</ele>
        <time>2010-08-01T06:39:11Z</time>
      </trkpt>
      <trkpt lat="48.15773" lon="-1.28254">
        <ele>111</ele>
        <time>2010-08-01T06:39:13Z</time>
      </trkpt>
      <trkpt lat="48.15769" lon="-1.28255">
        <ele>111</ele>
        <time>2010-08-01T06:39:14Z</time>
      </trkpt>
      <trkpt lat="48.15762" lon="-1.28252">
        <ele>111</ele>
        <time>2010-08-01T06:39:15Z</time>
      </trkpt>
      <trkpt lat="48.15747" lon="-1.28249">
        <ele>110</ele>
        <time>2010-08-01T06:39:17Z</time>
      </trkpt>
      <trkpt lat="48.15731" lon="-1.28248">
        <ele>108</ele>
        <time>2010-08-01T06:39:19Z</time>
      </trkpt>
      <trkpt lat="48.15715" lon="-1.28248">
        <ele>107</ele>
        <time>2010-08-01T06:39:21Z</time>
      </trkpt>
      <trkpt lat="48.15708" lon="-1.28246">
        <ele>107</ele>
        <time>2010-08-01T06:39:22Z</time>
      </trkpt>
      <trkpt lat="48.15701" lon="-1.28242">
        <ele>107</ele>
        <time>2010-08-01T06:39:23Z</time>
      </trkpt>
      <trkpt lat="48.15695" lon="-1.28227">
        <ele>106</ele>
        <time>2010-08-01T06:39:25Z</time>
      </trkpt>
      <trkpt lat="48.15693" lon="-1.28207">
        <ele>106</ele>
        <time>2010-08-01T06:39:27Z</time>
      </trkpt>
      <trkpt lat="48.15693" lon="-1.28194">
        <ele>106</ele>
        <time>2010-08-01T06:39:28Z</time>
      </trkpt>
      <trkpt lat="48.15693" lon="-1.28182">
        <ele>106</ele>
        <time>2010-08-01T06:39:29Z</time>
      </trkpt>
      <trkpt lat="48.15689" lon="-1.28133">
        <ele>105</ele>
        <time>2010-08-01T06:39:34Z</time>
      </trkpt>
      <trkpt lat="48.15688" lon="-1.28124">
        <ele>105</ele>
        <time>2010-08-01T06:39:35Z</time>
      </trkpt>
      <trkpt lat="48.15687" lon="-1.28115">
        <ele>104</ele>
        <time>2010-08-01T06:39:36Z</time>
      </trkpt>
      <trkpt lat="48.15686" lon="-1.28097">
        <ele>104</ele>
        <time>2010-08-01T06:39:39Z</time>
      </trkpt>
      <trkpt lat="48.15683" lon="-1.28094">
        <ele>103</ele>
        <time>2010-08-01T06:39:41Z</time>
      </trkpt>
      <trkpt lat="48.1568" lon="-1.28092">
        <ele>103</ele>
        <time>2010-08-01T06:39:42Z</time>
      </trkpt>
      <trkpt lat="48.15675" lon="-1.28093">
        <ele>103</ele>
        <time>2010-08-01T06:39:43Z</time>
      </trkpt>
      <trkpt lat="48.15665" lon="-1.28091">
        <ele>102</ele>
        <time>2010-08-01T06:39:45Z</time>
      </trkpt>
      <trkpt lat="48.15661" lon="-1.28091">
        <ele>102</ele>
        <time>2010-08-01T06:39:46Z</time>
      </trkpt>
      <trkpt lat="48.15647" lon="-1.28091">
        <ele>101</ele>
        <time>2010-08-01T06:39:48Z</time>
      </trkpt>
      <trkpt lat="48.15635" lon="-1.2809">
        <ele>100</ele>
        <time>2010-08-01T06:39:50Z</time>
      </trkpt>
      <trkpt lat="48.15625" lon="-1.28091">
        <ele>99</ele>
        <time>2010-08-01T06:39:52Z</time>
      </trkpt>
      <trkpt lat="48.15609" lon="-1.28078">
        <ele>98</ele>
        <time>2010-08-01T06:39:55Z</time>
      </trkpt>
      <trkpt lat="48.15605" lon="-1.28071">
        <ele>97</ele>
        <time>2010-08-01T06:39:56Z</time>
      </trkpt>
      <trkpt lat="48.15596" lon="-1.28064">
        <ele>97</ele>
        <time>2010-08-01T06:39:58Z</time>
      </trkpt>
      <trkpt lat="48.15591" lon="-1.2806">
        <ele>96</ele>
        <time>2010-08-01T06:39:59Z</time>
      </trkpt>
      <trkpt lat="48.15571" lon="-1.28051">
        <ele>96</ele>
        <time>2010-08-01T06:40:02Z</time>
      </trkpt>
      <trkpt lat="48.15556" lon="-1.28046">
        <ele>95</ele>
        <time>2010-08-01T06:40:04Z</time>
      </trkpt>
      <trkpt lat="48.15521" lon="-1.28029">
        <ele>97</ele>
        <time>2010-08-01T06:40:10Z</time>
      </trkpt>
      <trkpt lat="48.15499" lon="-1.28021">
        <ele>99</ele>
        <time>2010-08-01T06:40:15Z</time>
      </trkpt>
      <trkpt lat="48.15491" lon="-1.28016">
        <ele>99</ele>
        <time>2010-08-01T06:40:17Z</time>
      </trkpt>
      <trkpt lat="48.15482" lon="-1.28012">
        <ele>100</ele>
        <time>2010-08-01T06:40:19Z</time>
      </trkpt>
      <trkpt lat="48.15473" lon="-1.28009">
        <ele>100</ele>
        <time>2010-08-01T06:40:21Z</time>
      </trkpt>
      <trkpt lat="48.15468" lon="-1.28008">
        <ele>101</ele>
        <time>2010-08-01T06:40:22Z</time>
      </trkpt>
      <trkpt lat="48.15464" lon="-1.28007">
        <ele>101</ele>
        <time>2010-08-01T06:40:23Z</time>
      </trkpt>
      <trkpt lat="48.15452" lon="-1.28">
        <ele>101</ele>
        <time>2010-08-01T06:40:26Z</time>
      </trkpt>
      <trkpt lat="48.15449" lon="-1.27997">
        <ele>101</ele>
        <time>2010-08-01T06:40:27Z</time>
      </trkpt>
      <trkpt lat="48.15439" lon="-1.27988">
        <ele>100</ele>
        <time>2010-08-01T06:40:30Z</time>
      </trkpt>
      <trkpt lat="48.15434" lon="-1.27983">
        <ele>100</ele>
        <time>2010-08-01T06:40:31Z</time>
      </trkpt>
      <trkpt lat="48.15429" lon="-1.27966">
        <ele>100</ele>
        <time>2010-08-01T06:40:34Z</time>
      </trkpt>
      <trkpt lat="48.15431" lon="-1.27957">
        <ele>100</ele>
        <time>2010-08-01T06:40:35Z</time>
      </trkpt>
      <trkpt lat="48.15435" lon="-1.27942">
        <ele>99</ele>
        <time>2010-08-01T06:40:37Z</time>
      </trkpt>
      <trkpt lat="48.15443" lon="-1.27904">
        <ele>99</ele>
        <time>2010-08-01T06:40:41Z</time>
      </trkpt>
      <trkpt lat="48.15444" lon="-1.2789">
        <ele>99</ele>
        <time>2010-08-01T06:40:42Z</time>
      </trkpt>
      <trkpt lat="48.15445" lon="-1.27867">
        <ele>98</ele>
        <time>2010-08-01T06:40:44Z</time>
      </trkpt>
      <trkpt lat="48.15446" lon="-1.27844">
        <ele>98</ele>
        <time>2010-08-01T06:40:46Z</time>
      </trkpt>
      <trkpt lat="48.15446" lon="-1.2782">
        <ele>97</ele>
        <time>2010-08-01T06:40:48Z</time>
      </trkpt>
      <trkpt lat="48.15445" lon="-1.27809">
        <ele>97</ele>
        <time>2010-08-01T06:40:49Z</time>
      </trkpt>
      <trkpt lat="48.15446" lon="-1.27789">
        <ele>96</ele>
        <time>2010-08-01T06:40:51Z</time>
      </trkpt>
      <trkpt lat="48.15448" lon="-1.27772">
        <ele>96</ele>
        <time>2010-08-01T06:40:53Z</time>
      </trkpt>
      <trkpt lat="48.15449" lon="-1.27763">
        <ele>96</ele>
        <time>2010-08-01T06:40:54Z</time>
      </trkpt>
      <trkpt lat="48.15454" lon="-1.27744">
        <ele>96</ele>
        <time>2010-08-01T06:40:57Z</time>
      </trkpt>
      <trkpt lat="48.15459" lon="-1.27743">
        <ele>96</ele>
        <time>2010-08-01T06:40:59Z</time>
      </trkpt>
      <trkpt lat="48.15461" lon="-1.27745">
        <ele>96</ele>
        <time>2010-08-01T06:41:00Z</time>
      </trkpt>
      <trkpt lat="48.15465" lon="-1.27746">
        <ele>96</ele>
        <time>2010-08-01T06:41:01Z</time>
      </trkpt>
      <trkpt lat="48.15472" lon="-1.27747">
        <ele>96</ele>
        <time>2010-08-01T06:41:03Z</time>
      </trkpt>
      <trkpt lat="48.15477" lon="-1.27746">
        <ele>96</ele>
        <time>2010-08-01T06:41:04Z</time>
      </trkpt>
      <trkpt lat="48.15481" lon="-1.27744">
        <ele>96</ele>
        <time>2010-08-01T06:41:05Z</time>
      </trkpt>
      <trkpt lat="48.15485" lon="-1.27744">
        <ele>96</ele>
        <time>2010-08-01T06:41:06Z</time>
      </trkpt>
      <trkpt lat="48.15493" lon="-1.2774">
        <ele>96</ele>
        <time>2010-08-01T06:41:08Z</time>
      </trkpt>
      <trkpt lat="48.15497" lon="-1.27737">
        <ele>96</ele>
        <time>2010-08-01T06:41:09Z</time>
      </trkpt>
      <trkpt lat="48.15508" lon="-1.2773">
        <ele>96</ele>
        <time>2010-08-01T06:41:11Z</time>
      </trkpt>
      <trkpt lat="48.15527" lon="-1.27715">
        <ele>95</ele>
        <time>2010-08-01T06:41:14Z</time>
      </trkpt>
      <trkpt lat="48.15558" lon="-1.27687">
        <ele>93</ele>
        <time>2010-08-01T06:41:19Z</time>
      </trkpt>
      <trkpt lat="48.15572" lon="-1.27677">
        <ele>91</ele>
        <time>2010-08-01T06:41:21Z</time>
      </trkpt>
      <trkpt lat="48.1558" lon="-1.27672">
        <ele>90</ele>
        <time>2010-08-01T06:41:22Z</time>
      </trkpt>
      <trkpt lat="48.15587" lon="-1.27668">
        <ele>89</ele>
        <time>2010-08-01T06:41:23Z</time>
      </trkpt>
      <trkpt lat="48.15595" lon="-1.27665">
        <ele>88</ele>
        <time>2010-08-01T06:41:24Z</time>
      </trkpt>
      <trkpt lat="48.15604" lon="-1.27663">
        <ele>87</ele>
        <time>2010-08-01T06:41:25Z</time>
      </trkpt>
      <trkpt lat="48.15619" lon="-1.27659">
        <ele>86</ele>
        <time>2010-08-01T06:41:27Z</time>
      </trkpt>
      <trkpt lat="48.15633" lon="-1.27655">
        <ele>86</ele>
        <time>2010-08-01T06:41:29Z</time>
      </trkpt>
      <trkpt lat="48.15637" lon="-1.27647">
        <ele>85</ele>
        <time>2010-08-01T06:41:30Z</time>
      </trkpt>
      <trkpt lat="48.15639" lon="-1.27639">
        <ele>85</ele>
        <time>2010-08-01T06:41:31Z</time>
      </trkpt>
      <trkpt lat="48.15641" lon="-1.27632">
        <ele>85</ele>
        <time>2010-08-01T06:41:32Z</time>
      </trkpt>
      <trkpt lat="48.15643" lon="-1.27615">
        <ele>85</ele>
        <time>2010-08-01T06:41:34Z</time>
      </trkpt>
      <trkpt lat="48.15644" lon="-1.27606">
        <ele>85</ele>
        <time>2010-08-01T06:41:35Z</time>
      </trkpt>
      <trkpt lat="48.15644" lon="-1.27599">
        <ele>85</ele>
        <time>2010-08-01T06:41:36Z</time>
      </trkpt>
      <trkpt lat="48.15645" lon="-1.27581">
        <ele>84</ele>
        <time>2010-08-01T06:41:38Z</time>
      </trkpt>
      <trkpt lat="48.15646" lon="-1.27562">
        <ele>84</ele>
        <time>2010-08-01T06:41:40Z</time>
      </trkpt>
      <trkpt lat="48.15648" lon="-1.27536">
        <ele>83</ele>
        <time>2010-08-01T06:41:43Z</time>
      </trkpt>
      <trkpt lat="48.15647" lon="-1.27528">
        <ele>83</ele>
        <time>2010-08-01T06:41:44Z</time>
      </trkpt>
      <trkpt lat="48.15646" lon="-1.2752">
        <ele>82</ele>
        <time>2010-08-01T06:41:45Z</time>
      </trkpt>
      <trkpt lat="48.15643" lon="-1.27513">
        <ele>82</ele>
        <time>2010-08-01T06:41:46Z</time>
      </trkpt>
      <trkpt lat="48.15641" lon="-1.27505">
        <ele>82</ele>
        <time>2010-08-01T06:41:47Z</time>
      </trkpt>
      <trkpt lat="48.15638" lon="-1.27499">
        <ele>81</ele>
        <time>2010-08-01T06:41:48Z</time>
      </trkpt>
      <trkpt lat="48.15634" lon="-1.27491">
        <ele>81</ele>
        <time>2010-08-01T06:41:49Z</time>
      </trkpt>
      <trkpt lat="48.15627" lon="-1.27476">
        <ele>81</ele>
        <time>2010-08-01T06:41:51Z</time>
      </trkpt>
      <trkpt lat="48.15624" lon="-1.2747">
        <ele>81</ele>
        <time>2010-08-01T06:41:52Z</time>
      </trkpt>
      <trkpt lat="48.15621" lon="-1.2746">
        <ele>80</ele>
        <time>2010-08-01T06:41:54Z</time>
      </trkpt>
      <trkpt lat="48.15617" lon="-1.27459">
        <ele>80</ele>
        <time>2010-08-01T06:41:57Z</time>
      </trkpt>
      <trkpt lat="48.15615" lon="-1.27459">
        <ele>80</ele>
        <time>2010-08-01T06:41:59Z</time>
      </trkpt>
      <trkpt lat="48.15613" lon="-1.27457">
        <ele>80</ele>
        <time>2010-08-01T06:42:01Z</time>
      </trkpt>
      <trkpt lat="48.15609" lon="-1.27447">
        <ele>80</ele>
        <time>2010-08-01T06:42:06Z</time>
      </trkpt>
      <trkpt lat="48.15607" lon="-1.27448">
        <ele>80</ele>
        <time>2010-08-01T06:42:08Z</time>
      </trkpt>
      <trkpt lat="48.15607" lon="-1.27447">
        <ele>80</ele>
        <time>2010-08-01T06:42:19Z</time>
      </trkpt>
      <trkpt lat="48.15606" lon="-1.27444">
        <ele>80</ele>
        <time>2010-08-01T06:42:21Z</time>
      </trkpt>
      <trkpt lat="48.15612" lon="-1.27427">
        <ele>81</ele>
        <time>2010-08-01T06:42:26Z</time>
      </trkpt>
      <trkpt lat="48.15619" lon="-1.27421">
        <ele>81</ele>
        <time>2010-08-01T06:42:30Z</time>
      </trkpt>
      <trkpt lat="48.1562" lon="-1.27419">
        <ele>81</ele>
        <time>2010-08-01T06:42:31Z</time>
      </trkpt>
      <trkpt lat="48.15621" lon="-1.27416">
        <ele>81</ele>
        <time>2010-08-01T06:42:32Z</time>
      </trkpt>
      <trkpt lat="48.15621" lon="-1.27411">
        <ele>82</ele>
        <time>2010-08-01T06:42:33Z</time>
      </trkpt>
      <trkpt lat="48.15622" lon="-1.27409">
        <ele>82</ele>
        <time>2010-08-01T06:42:34Z</time>
      </trkpt>
      <trkpt lat="48.15623" lon="-1.27403">
        <ele>82</ele>
        <time>2010-08-01T06:42:36Z</time>
      </trkpt>
      <trkpt lat="48.15625" lon="-1.27401">
        <ele>82</ele>
        <time>2010-08-01T06:42:38Z</time>
      </trkpt>
      <trkpt lat="48.15625" lon="-1.27395">
        <ele>82</ele>
        <time>2010-08-01T06:42:40Z</time>
      </trkpt>
      <trkpt lat="48.15629" lon="-1.27391">
        <ele>83</ele>
        <time>2010-08-01T06:42:42Z</time>
      </trkpt>
      <trkpt lat="48.15631" lon="-1.27388">
        <ele>83</ele>
        <time>2010-08-01T06:42:43Z</time>
      </trkpt>
      <trkpt lat="48.15634" lon="-1.27384">
        <ele>83</ele>
        <time>2010-08-01T06:42:44Z</time>
      </trkpt>
      <trkpt lat="48.15638" lon="-1.27375">
        <ele>83</ele>
        <time>2010-08-01T06:42:47Z</time>
      </trkpt>
      <trkpt lat="48.15641" lon="-1.27371">
        <ele>84</ele>
        <time>2010-08-01T06:42:49Z</time>
      </trkpt>
      <trkpt lat="48.15645" lon="-1.27364">
        <ele>84</ele>
        <time>2010-08-01T06:42:51Z</time>
      </trkpt>
      <trkpt lat="48.15646" lon="-1.27361">
        <ele>84</ele>
        <time>2010-08-01T06:42:52Z</time>
      </trkpt>
      <trkpt lat="48.1565" lon="-1.27348">
        <ele>85</ele>
        <time>2010-08-01T06:42:55Z</time>
      </trkpt>
      <trkpt lat="48.15653" lon="-1.27341">
        <ele>86</ele>
        <time>2010-08-01T06:42:57Z</time>
      </trkpt>
      <trkpt lat="48.15656" lon="-1.27333">
        <ele>87</ele>
        <time>2010-08-01T06:42:59Z</time>
      </trkpt>
      <trkpt lat="48.15658" lon="-1.27327">
        <ele>87</ele>
        <time>2010-08-01T06:43:01Z</time>
      </trkpt>
      <trkpt lat="48.1566" lon="-1.27318">
        <ele>88</ele>
        <time>2010-08-01T06:43:03Z</time>
      </trkpt>
      <trkpt lat="48.15662" lon="-1.27308">
        <ele>89</ele>
        <time>2010-08-01T06:43:05Z</time>
      </trkpt>
      <trkpt lat="48.15665" lon="-1.27298">
        <ele>89</ele>
        <time>2010-08-01T06:43:07Z</time>
      </trkpt>
      <trkpt lat="48.15666" lon="-1.27288">
        <ele>90</ele>
        <time>2010-08-01T06:43:09Z</time>
      </trkpt>
      <trkpt lat="48.15667" lon="-1.27279">
        <ele>90</ele>
        <time>2010-08-01T06:43:11Z</time>
      </trkpt>
      <trkpt lat="48.15669" lon="-1.27269">
        <ele>90</ele>
        <time>2010-08-01T06:43:13Z</time>
      </trkpt>
      <trkpt lat="48.15671" lon="-1.2726">
        <ele>91</ele>
        <time>2010-08-01T06:43:15Z</time>
      </trkpt>
      <trkpt lat="48.15673" lon="-1.27251">
        <ele>91</ele>
        <time>2010-08-01T06:43:17Z</time>
      </trkpt>
      <trkpt lat="48.15676" lon="-1.27236">
        <ele>92</ele>
        <time>2010-08-01T06:43:20Z</time>
      </trkpt>
      <trkpt lat="48.15678" lon="-1.27225">
        <ele>92</ele>
        <time>2010-08-01T06:43:22Z</time>
      </trkpt>
      <trkpt lat="48.15679" lon="-1.27215">
        <ele>93</ele>
        <time>2010-08-01T06:43:24Z</time>
      </trkpt>
      <trkpt lat="48.15681" lon="-1.27204">
        <ele>93</ele>
        <time>2010-08-01T06:43:26Z</time>
      </trkpt>
      <trkpt lat="48.15683" lon="-1.27194">
        <ele>94</ele>
        <time>2010-08-01T06:43:28Z</time>
      </trkpt>
      <trkpt lat="48.15689" lon="-1.27148">
        <ele>95</ele>
        <time>2010-08-01T06:43:37Z</time>
      </trkpt>
      <trkpt lat="48.15691" lon="-1.27138">
        <ele>96</ele>
        <time>2010-08-01T06:43:39Z</time>
      </trkpt>
      <trkpt lat="48.15692" lon="-1.27128">
        <ele>96</ele>
        <time>2010-08-01T06:43:41Z</time>
      </trkpt>
      <trkpt lat="48.15694" lon="-1.27118">
        <ele>97</ele>
        <time>2010-08-01T06:43:43Z</time>
      </trkpt>
      <trkpt lat="48.15696" lon="-1.27107">
        <ele>97</ele>
        <time>2010-08-01T06:43:45Z</time>
      </trkpt>
      <trkpt lat="48.15699" lon="-1.27092">
        <ele>97</ele>
        <time>2010-08-01T06:43:48Z</time>
      </trkpt>
      <trkpt lat="48.157" lon="-1.27083">
        <ele>98</ele>
        <time>2010-08-01T06:43:50Z</time>
      </trkpt>
      <trkpt lat="48.15702" lon="-1.27073">
        <ele>98</ele>
        <time>2010-08-01T06:43:52Z</time>
      </trkpt>
      <trkpt lat="48.15703" lon="-1.27063">
        <ele>98</ele>
        <time>2010-08-01T06:43:54Z</time>
      </trkpt>
      <trkpt lat="48.15705" lon="-1.27053">
        <ele>98</ele>
        <time>2010-08-01T06:43:56Z</time>
      </trkpt>
      <trkpt lat="48.1571" lon="-1.27022">
        <ele>99</ele>
        <time>2010-08-01T06:44:02Z</time>
      </trkpt>
      <trkpt lat="48.15712" lon="-1.27012">
        <ele>100</ele>
        <time>2010-08-01T06:44:04Z</time>
      </trkpt>
      <trkpt lat="48.15714" lon="-1.27001">
        <ele>100</ele>
        <time>2010-08-01T06:44:06Z</time>
      </trkpt>
      <trkpt lat="48.15716" lon="-1.2699">
        <ele>101</ele>
        <time>2010-08-01T06:44:08Z</time>
      </trkpt>
      <trkpt lat="48.15718" lon="-1.26978">
        <ele>101</ele>
        <time>2010-08-01T06:44:10Z</time>
      </trkpt>
      <trkpt lat="48.15723" lon="-1.26951">
        <ele>101</ele>
        <time>2010-08-01T06:44:15Z</time>
      </trkpt>
      <trkpt lat="48.15725" lon="-1.26939">
        <ele>101</ele>
        <time>2010-08-01T06:44:17Z</time>
      </trkpt>
      <trkpt lat="48.15727" lon="-1.26927">
        <ele>101</ele>
        <time>2010-08-01T06:44:19Z</time>
      </trkpt>
      <trkpt lat="48.15729" lon="-1.26914">
        <ele>102</ele>
        <time>2010-08-01T06:44:21Z</time>
      </trkpt>
      <trkpt lat="48.15732" lon="-1.269">
        <ele>102</ele>
        <time>2010-08-01T06:44:23Z</time>
      </trkpt>
      <trkpt lat="48.15737" lon="-1.26862">
        <ele>102</ele>
        <time>2010-08-01T06:44:29Z</time>
      </trkpt>
      <trkpt lat="48.15737" lon="-1.26849">
        <ele>103</ele>
        <time>2010-08-01T06:44:31Z</time>
      </trkpt>
      <trkpt lat="48.15746" lon="-1.26809">
        <ele>103</ele>
        <time>2010-08-01T06:44:37Z</time>
      </trkpt>
      <trkpt lat="48.1575" lon="-1.26789">
        <ele>103</ele>
        <time>2010-08-01T06:44:40Z</time>
      </trkpt>
      <trkpt lat="48.15759" lon="-1.26777">
        <ele>102</ele>
        <time>2010-08-01T06:44:43Z</time>
      </trkpt>
      <trkpt lat="48.15764" lon="-1.26776">
        <ele>101</ele>
        <time>2010-08-01T06:44:44Z</time>
      </trkpt>
      <trkpt lat="48.15776" lon="-1.26776">
        <ele>101</ele>
        <time>2010-08-01T06:44:46Z</time>
      </trkpt>
      <trkpt lat="48.15787" lon="-1.26761">
        <ele>101</ele>
        <time>2010-08-01T06:44:49Z</time>
      </trkpt>
      <trkpt lat="48.15788" lon="-1.26753">
        <ele>101</ele>
        <time>2010-08-01T06:44:50Z</time>
      </trkpt>
      <trkpt lat="48.15789" lon="-1.26737">
        <ele>102</ele>
        <time>2010-08-01T06:44:52Z</time>
      </trkpt>
      <trkpt lat="48.15799" lon="-1.26724">
        <ele>102</ele>
        <time>2010-08-01T06:44:56Z</time>
      </trkpt>
      <trkpt lat="48.15807" lon="-1.26731">
        <ele>101</ele>
        <time>2010-08-01T06:44:58Z</time>
      </trkpt>
      <trkpt lat="48.15846" lon="-1.26776">
        <ele>96</ele>
        <time>2010-08-01T06:45:06Z</time>
      </trkpt>
      <trkpt lat="48.15858" lon="-1.2679">
        <ele>94</ele>
        <time>2010-08-01T06:45:08Z</time>
      </trkpt>
      <trkpt lat="48.15865" lon="-1.26797">
        <ele>93</ele>
        <time>2010-08-01T06:45:09Z</time>
      </trkpt>
      <trkpt lat="48.15878" lon="-1.26811">
        <ele>91</ele>
        <time>2010-08-01T06:45:11Z</time>
      </trkpt>
      <trkpt lat="48.15883" lon="-1.26817">
        <ele>91</ele>
        <time>2010-08-01T06:45:12Z</time>
      </trkpt>
      <trkpt lat="48.15888" lon="-1.26823">
        <ele>90</ele>
        <time>2010-08-01T06:45:13Z</time>
      </trkpt>
      <trkpt lat="48.15894" lon="-1.26825">
        <ele>89</ele>
        <time>2010-08-01T06:45:15Z</time>
      </trkpt>
      <trkpt lat="48.15897" lon="-1.26818">
        <ele>89</ele>
        <time>2010-08-01T06:45:17Z</time>
      </trkpt>
      <trkpt lat="48.15898" lon="-1.26812">
        <ele>89</ele>
        <time>2010-08-01T06:45:18Z</time>
      </trkpt>
      <trkpt lat="48.15904" lon="-1.26798">
        <ele>89</ele>
        <time>2010-08-01T06:45:20Z</time>
      </trkpt>
      <trkpt lat="48.15914" lon="-1.26793">
        <ele>88</ele>
        <time>2010-08-01T06:45:22Z</time>
      </trkpt>
      <trkpt lat="48.1592" lon="-1.26795">
        <ele>88</ele>
        <time>2010-08-01T06:45:23Z</time>
      </trkpt>
      <trkpt lat="48.15935" lon="-1.26815">
        <ele>87</ele>
        <time>2010-08-01T06:45:26Z</time>
      </trkpt>
      <trkpt lat="48.15941" lon="-1.26822">
        <ele>86</ele>
        <time>2010-08-01T06:45:27Z</time>
      </trkpt>
      <trkpt lat="48.15952" lon="-1.26832">
        <ele>86</ele>
        <time>2010-08-01T06:45:29Z</time>
      </trkpt>
      <trkpt lat="48.15963" lon="-1.26842">
        <ele>85</ele>
        <time>2010-08-01T06:45:31Z</time>
      </trkpt>
      <trkpt lat="48.15972" lon="-1.26851">
        <ele>85</ele>
        <time>2010-08-01T06:45:33Z</time>
      </trkpt>
      <trkpt lat="48.15976" lon="-1.26854">
        <ele>85</ele>
        <time>2010-08-01T06:45:34Z</time>
      </trkpt>
      <trkpt lat="48.15979" lon="-1.26854">
        <ele>85</ele>
        <time>2010-08-01T06:45:35Z</time>
      </trkpt>
      <trkpt lat="48.15983" lon="-1.26849">
        <ele>85</ele>
        <time>2010-08-01T06:45:37Z</time>
      </trkpt>
      <trkpt lat="48.15989" lon="-1.26835">
        <ele>85</ele>
        <time>2010-08-01T06:45:39Z</time>
      </trkpt>
      <trkpt lat="48.15995" lon="-1.26819">
        <ele>86</ele>
        <time>2010-08-01T06:45:41Z</time>
      </trkpt>
      <trkpt lat="48.1601" lon="-1.26802">
        <ele>86</ele>
        <time>2010-08-01T06:45:44Z</time>
      </trkpt>
      <trkpt lat="48.16042" lon="-1.26778">
        <ele>86</ele>
        <time>2010-08-01T06:45:50Z</time>
      </trkpt>
      <trkpt lat="48.16046" lon="-1.26774">
        <ele>87</ele>
        <time>2010-08-01T06:45:51Z</time>
      </trkpt>
      <trkpt lat="48.16061" lon="-1.26766">
        <ele>87</ele>
        <time>2010-08-01T06:45:54Z</time>
      </trkpt>
      <trkpt lat="48.1609" lon="-1.26747">
        <ele>89</ele>
        <time>2010-08-01T06:46:01Z</time>
      </trkpt>
      <trkpt lat="48.16105" lon="-1.26741">
        <ele>91</ele>
        <time>2010-08-01T06:46:05Z</time>
      </trkpt>
      <trkpt lat="48.16112" lon="-1.2674">
        <ele>91</ele>
        <time>2010-08-01T06:46:07Z</time>
      </trkpt>
      <trkpt lat="48.16119" lon="-1.26738">
        <ele>92</ele>
        <time>2010-08-01T06:46:09Z</time>
      </trkpt>
      <trkpt lat="48.16125" lon="-1.26737">
        <ele>92</ele>
        <time>2010-08-01T06:46:11Z</time>
      </trkpt>
      <trkpt lat="48.16131" lon="-1.26734">
        <ele>93</ele>
        <time>2010-08-01T06:46:13Z</time>
      </trkpt>
      <trkpt lat="48.16134" lon="-1.26733">
        <ele>93</ele>
        <time>2010-08-01T06:46:14Z</time>
      </trkpt>
      <trkpt lat="48.1614" lon="-1.26732">
        <ele>94</ele>
        <time>2010-08-01T06:46:16Z</time>
      </trkpt>
      <trkpt lat="48.16146" lon="-1.2673">
        <ele>94</ele>
        <time>2010-08-01T06:46:18Z</time>
      </trkpt>
      <trkpt lat="48.16152" lon="-1.26729">
        <ele>95</ele>
        <time>2010-08-01T06:46:20Z</time>
      </trkpt>
      <trkpt lat="48.16157" lon="-1.26727">
        <ele>95</ele>
        <time>2010-08-01T06:46:22Z</time>
      </trkpt>
      <trkpt lat="48.16163" lon="-1.26725">
        <ele>96</ele>
        <time>2010-08-01T06:46:24Z</time>
      </trkpt>
      <trkpt lat="48.16168" lon="-1.26723">
        <ele>96</ele>
        <time>2010-08-01T06:46:26Z</time>
      </trkpt>
      <trkpt lat="48.16174" lon="-1.26721">
        <ele>97</ele>
        <time>2010-08-01T06:46:28Z</time>
      </trkpt>
      <trkpt lat="48.16177" lon="-1.2672">
        <ele>97</ele>
        <time>2010-08-01T06:46:29Z</time>
      </trkpt>
      <trkpt lat="48.16183" lon="-1.26718">
        <ele>97</ele>
        <time>2010-08-01T06:46:31Z</time>
      </trkpt>
      <trkpt lat="48.16189" lon="-1.26716">
        <ele>98</ele>
        <time>2010-08-01T06:46:33Z</time>
      </trkpt>
      <trkpt lat="48.16195" lon="-1.26714">
        <ele>98</ele>
        <time>2010-08-01T06:46:35Z</time>
      </trkpt>
      <trkpt lat="48.16201" lon="-1.26712">
        <ele>99</ele>
        <time>2010-08-01T06:46:37Z</time>
      </trkpt>
      <trkpt lat="48.16207" lon="-1.2671">
        <ele>99</ele>
        <time>2010-08-01T06:46:39Z</time>
      </trkpt>
      <trkpt lat="48.16213" lon="-1.26707">
        <ele>100</ele>
        <time>2010-08-01T06:46:41Z</time>
      </trkpt>
      <trkpt lat="48.16219" lon="-1.26705">
        <ele>100</ele>
        <time>2010-08-01T06:46:43Z</time>
      </trkpt>
      <trkpt lat="48.16226" lon="-1.26702">
        <ele>101</ele>
        <time>2010-08-01T06:46:45Z</time>
      </trkpt>
      <trkpt lat="48.16233" lon="-1.26699">
        <ele>101</ele>
        <time>2010-08-01T06:46:47Z</time>
      </trkpt>
      <trkpt lat="48.16238" lon="-1.26696">
        <ele>102</ele>
        <time>2010-08-01T06:46:49Z</time>
      </trkpt>
      <trkpt lat="48.16244" lon="-1.26693">
        <ele>102</ele>
        <time>2010-08-01T06:46:51Z</time>
      </trkpt>
      <trkpt lat="48.1625" lon="-1.2669">
        <ele>103</ele>
        <time>2010-08-01T06:46:53Z</time>
      </trkpt>
      <trkpt lat="48.16256" lon="-1.26687">
        <ele>103</ele>
        <time>2010-08-01T06:46:55Z</time>
      </trkpt>
      <trkpt lat="48.16263" lon="-1.26684">
        <ele>103</ele>
        <time>2010-08-01T06:46:57Z</time>
      </trkpt>
      <trkpt lat="48.16266" lon="-1.26682">
        <ele>104</ele>
        <time>2010-08-01T06:46:58Z</time>
      </trkpt>
      <trkpt lat="48.16273" lon="-1.26678">
        <ele>104</ele>
        <time>2010-08-01T06:47:00Z</time>
      </trkpt>
      <trkpt lat="48.16279" lon="-1.26674">
        <ele>104</ele>
        <time>2010-08-01T06:47:02Z</time>
      </trkpt>
      <trkpt lat="48.16286" lon="-1.26671">
        <ele>104</ele>
        <time>2010-08-01T06:47:04Z</time>
      </trkpt>
      <trkpt lat="48.16292" lon="-1.26669">
        <ele>104</ele>
        <time>2010-08-01T06:47:06Z</time>
      </trkpt>
      <trkpt lat="48.16305" lon="-1.26663">
        <ele>105</ele>
        <time>2010-08-01T06:47:10Z</time>
      </trkpt>
      <trkpt lat="48.16311" lon="-1.26659">
        <ele>105</ele>
        <time>2010-08-01T06:47:12Z</time>
      </trkpt>
      <trkpt lat="48.16317" lon="-1.26657">
        <ele>105</ele>
        <time>2010-08-01T06:47:14Z</time>
      </trkpt>
      <trkpt lat="48.16324" lon="-1.26654">
        <ele>106</ele>
        <time>2010-08-01T06:47:16Z</time>
      </trkpt>
      <trkpt lat="48.1633" lon="-1.26651">
        <ele>106</ele>
        <time>2010-08-01T06:47:18Z</time>
      </trkpt>
      <trkpt lat="48.16343" lon="-1.26637">
        <ele>107</ele>
        <time>2010-08-01T06:47:23Z</time>
      </trkpt>
      <trkpt lat="48.16344" lon="-1.26633">
        <ele>107</ele>
        <time>2010-08-01T06:47:24Z</time>
      </trkpt>
      <trkpt lat="48.16343" lon="-1.26618">
        <ele>109</ele>
        <time>2010-08-01T06:47:27Z</time>
      </trkpt>
      <trkpt lat="48.16342" lon="-1.26609">
        <ele>109</ele>
        <time>2010-08-01T06:47:29Z</time>
      </trkpt>
      <trkpt lat="48.16341" lon="-1.26601">
        <ele>110</ele>
        <time>2010-08-01T06:47:31Z</time>
      </trkpt>
      <trkpt lat="48.1634" lon="-1.26597">
        <ele>110</ele>
        <time>2010-08-01T06:47:32Z</time>
      </trkpt>
      <trkpt lat="48.16338" lon="-1.26589">
        <ele>110</ele>
        <time>2010-08-01T06:47:34Z</time>
      </trkpt>
      <trkpt lat="48.16337" lon="-1.26582">
        <ele>110</ele>
        <time>2010-08-01T06:47:36Z</time>
      </trkpt>
      <trkpt lat="48.16337" lon="-1.26577">
        <ele>111</ele>
        <time>2010-08-01T06:47:38Z</time>
      </trkpt>
      <trkpt lat="48.16335" lon="-1.26575">
        <ele>111</ele>
        <time>2010-08-01T06:47:39Z</time>
      </trkpt>
      <trkpt lat="48.16332" lon="-1.2657">
        <ele>111</ele>
        <time>2010-08-01T06:47:41Z</time>
      </trkpt>
      <trkpt lat="48.1633" lon="-1.26563">
        <ele>111</ele>
        <time>2010-08-01T06:47:43Z</time>
      </trkpt>
      <trkpt lat="48.16329" lon="-1.26557">
        <ele>111</ele>
        <time>2010-08-01T06:47:45Z</time>
      </trkpt>
      <trkpt lat="48.16327" lon="-1.26549">
        <ele>111</ele>
        <time>2010-08-01T06:47:47Z</time>
      </trkpt>
      <trkpt lat="48.16328" lon="-1.26545">
        <ele>112</ele>
        <time>2010-08-01T06:47:48Z</time>
      </trkpt>
      <trkpt lat="48.16327" lon="-1.26535">
        <ele>112</ele>
        <time>2010-08-01T06:47:50Z</time>
      </trkpt>
      <trkpt lat="48.16329" lon="-1.26524">
        <ele>112</ele>
        <time>2010-08-01T06:47:52Z</time>
      </trkpt>
      <trkpt lat="48.16328" lon="-1.26519">
        <ele>112</ele>
        <time>2010-08-01T06:47:53Z</time>
      </trkpt>
      <trkpt lat="48.16328" lon="-1.26514">
        <ele>112</ele>
        <time>2010-08-01T06:47:54Z</time>
      </trkpt>
      <trkpt lat="48.16333" lon="-1.26503">
        <ele>113</ele>
        <time>2010-08-01T06:47:56Z</time>
      </trkpt>
      <trkpt lat="48.16341" lon="-1.26481">
        <ele>114</ele>
        <time>2010-08-01T06:48:00Z</time>
      </trkpt>
      <trkpt lat="48.16342" lon="-1.2647">
        <ele>114</ele>
        <time>2010-08-01T06:48:02Z</time>
      </trkpt>
      <trkpt lat="48.16349" lon="-1.26447">
        <ele>114</ele>
        <time>2010-08-01T06:48:06Z</time>
      </trkpt>
      <trkpt lat="48.16352" lon="-1.2644">
        <ele>114</ele>
        <time>2010-08-01T06:48:07Z</time>
      </trkpt>
      <trkpt lat="48.16355" lon="-1.26431">
        <ele>114</ele>
        <time>2010-08-01T06:48:08Z</time>
      </trkpt>
      <trkpt lat="48.16363" lon="-1.26417">
        <ele>115</ele>
        <time>2010-08-01T06:48:10Z</time>
      </trkpt>
      <trkpt lat="48.16374" lon="-1.26402">
        <ele>115</ele>
        <time>2010-08-01T06:48:13Z</time>
      </trkpt>
      <trkpt lat="48.16377" lon="-1.26398">
        <ele>115</ele>
        <time>2010-08-01T06:48:14Z</time>
      </trkpt>
      <trkpt lat="48.16385" lon="-1.26389">
        <ele>115</ele>
        <time>2010-08-01T06:48:16Z</time>
      </trkpt>
      <trkpt lat="48.16398" lon="-1.26377">
        <ele>116</ele>
        <time>2010-08-01T06:48:19Z</time>
      </trkpt>
      <trkpt lat="48.16404" lon="-1.26366">
        <ele>116</ele>
        <time>2010-08-01T06:48:21Z</time>
      </trkpt>
      <trkpt lat="48.16407" lon="-1.26359">
        <ele>116</ele>
        <time>2010-08-01T06:48:22Z</time>
      </trkpt>
      <trkpt lat="48.16409" lon="-1.26353">
        <ele>116</ele>
        <time>2010-08-01T06:48:23Z</time>
      </trkpt>
      <trkpt lat="48.16414" lon="-1.26342">
        <ele>116</ele>
        <time>2010-08-01T06:48:25Z</time>
      </trkpt>
      <trkpt lat="48.16416" lon="-1.26335">
        <ele>116</ele>
        <time>2010-08-01T06:48:26Z</time>
      </trkpt>
      <trkpt lat="48.16418" lon="-1.26329">
        <ele>116</ele>
        <time>2010-08-01T06:48:27Z</time>
      </trkpt>
      <trkpt lat="48.16423" lon="-1.26318">
        <ele>116</ele>
        <time>2010-08-01T06:48:29Z</time>
      </trkpt>
      <trkpt lat="48.16435" lon="-1.2629">
        <ele>117</ele>
        <time>2010-08-01T06:48:34Z</time>
      </trkpt>
      <trkpt lat="48.16439" lon="-1.26278">
        <ele>117</ele>
        <time>2010-08-01T06:48:36Z</time>
      </trkpt>
      <trkpt lat="48.16444" lon="-1.26263">
        <ele>118</ele>
        <time>2010-08-01T06:48:38Z</time>
      </trkpt>
      <trkpt lat="48.16449" lon="-1.26251">
        <ele>118</ele>
        <time>2010-08-01T06:48:40Z</time>
      </trkpt>
      <trkpt lat="48.16454" lon="-1.26238">
        <ele>118</ele>
        <time>2010-08-01T06:48:42Z</time>
      </trkpt>
      <trkpt lat="48.16458" lon="-1.26231">
        <ele>119</ele>
        <time>2010-08-01T06:48:43Z</time>
      </trkpt>
      <trkpt lat="48.16466" lon="-1.26216">
        <ele>119</ele>
        <time>2010-08-01T06:48:45Z</time>
      </trkpt>
      <trkpt lat="48.16472" lon="-1.26204">
        <ele>120</ele>
        <time>2010-08-01T06:48:47Z</time>
      </trkpt>
      <trkpt lat="48.16477" lon="-1.26192">
        <ele>120</ele>
        <time>2010-08-01T06:48:49Z</time>
      </trkpt>
      <trkpt lat="48.16483" lon="-1.2618">
        <ele>120</ele>
        <time>2010-08-01T06:48:51Z</time>
      </trkpt>
      <trkpt lat="48.16489" lon="-1.26168">
        <ele>121</ele>
        <time>2010-08-01T06:48:53Z</time>
      </trkpt>
      <trkpt lat="48.16507" lon="-1.26129">
        <ele>121</ele>
        <time>2010-08-01T06:49:00Z</time>
      </trkpt>
      <trkpt lat="48.16512" lon="-1.26117">
        <ele>121</ele>
        <time>2010-08-01T06:49:02Z</time>
      </trkpt>
      <trkpt lat="48.16518" lon="-1.26104">
        <ele>121</ele>
        <time>2010-08-01T06:49:04Z</time>
      </trkpt>
      <trkpt lat="48.16525" lon="-1.26091">
        <ele>121</ele>
        <time>2010-08-01T06:49:06Z</time>
      </trkpt>
      <trkpt lat="48.16532" lon="-1.26077">
        <ele>122</ele>
        <time>2010-08-01T06:49:08Z</time>
      </trkpt>
      <trkpt lat="48.16538" lon="-1.26064">
        <ele>122</ele>
        <time>2010-08-01T06:49:10Z</time>
      </trkpt>
      <trkpt lat="48.16566" lon="-1.26008">
        <ele>122</ele>
        <time>2010-08-01T06:49:19Z</time>
      </trkpt>
      <trkpt lat="48.16571" lon="-1.25996">
        <ele>122</ele>
        <time>2010-08-01T06:49:21Z</time>
      </trkpt>
      <trkpt lat="48.16574" lon="-1.2599">
        <ele>122</ele>
        <time>2010-08-01T06:49:22Z</time>
      </trkpt>
      <trkpt lat="48.16578" lon="-1.25976">
        <ele>122</ele>
        <time>2010-08-01T06:49:25Z</time>
      </trkpt>
      <trkpt lat="48.16578" lon="-1.25974">
        <ele>122</ele>
        <time>2010-08-01T06:49:27Z</time>
      </trkpt>
      <trkpt lat="48.16578" lon="-1.25975">
        <ele>122</ele>
        <time>2010-08-01T06:50:21Z</time>
      </trkpt>
      <trkpt lat="48.16578" lon="-1.25969">
        <ele>122</ele>
        <time>2010-08-01T06:50:24Z</time>
      </trkpt>
      <trkpt lat="48.16578" lon="-1.25967">
        <ele>122</ele>
        <time>2010-08-01T06:50:25Z</time>
      </trkpt>
      <trkpt lat="48.16577" lon="-1.25966">
        <ele>122</ele>
        <time>2010-08-01T06:50:27Z</time>
      </trkpt>
      <trkpt lat="48.16578" lon="-1.25964">
        <ele>122</ele>
        <time>2010-08-01T06:51:31Z</time>
      </trkpt>
      <trkpt lat="48.1658" lon="-1.25953">
        <ele>122</ele>
        <time>2010-08-01T06:51:33Z</time>
      </trkpt>
      <trkpt lat="48.16588" lon="-1.25909">
        <ele>122</ele>
        <time>2010-08-01T06:51:39Z</time>
      </trkpt>
      <trkpt lat="48.16591" lon="-1.25893">
        <ele>122</ele>
        <time>2010-08-01T06:51:41Z</time>
      </trkpt>
      <trkpt lat="48.16602" lon="-1.25831">
        <ele>122</ele>
        <time>2010-08-01T06:51:49Z</time>
      </trkpt>
      <trkpt lat="48.16611" lon="-1.25775">
        <ele>122</ele>
        <time>2010-08-01T06:51:56Z</time>
      </trkpt>
      <trkpt lat="48.16613" lon="-1.25756">
        <ele>122</ele>
        <time>2010-08-01T06:51:58Z</time>
      </trkpt>
      <trkpt lat="48.16616" lon="-1.25709">
        <ele>122</ele>
        <time>2010-08-01T06:52:03Z</time>
      </trkpt>
      <trkpt lat="48.16612" lon="-1.25639">
        <ele>122</ele>
        <time>2010-08-01T06:52:10Z</time>
      </trkpt>
      <trkpt lat="48.16609" lon="-1.2559">
        <ele>122</ele>
        <time>2010-08-01T06:52:15Z</time>
      </trkpt>
      <trkpt lat="48.166" lon="-1.25532">
        <ele>122</ele>
        <time>2010-08-01T06:52:21Z</time>
      </trkpt>
      <trkpt lat="48.16606" lon="-1.25451">
        <ele>122</ele>
        <time>2010-08-01T06:52:29Z</time>
      </trkpt>
      <trkpt lat="48.1661" lon="-1.25368">
        <ele>122</ele>
        <time>2010-08-01T06:52:37Z</time>
      </trkpt>
      <trkpt lat="48.16613" lon="-1.25319">
        <ele>123</ele>
        <time>2010-08-01T06:52:42Z</time>
      </trkpt>
      <trkpt lat="48.16603" lon="-1.25295">
        <ele>123</ele>
        <time>2010-08-01T06:52:45Z</time>
      </trkpt>
      <trkpt lat="48.1658" lon="-1.25295">
        <ele>123</ele>
        <time>2010-08-01T06:52:48Z</time>
      </trkpt>
      <trkpt lat="48.16572" lon="-1.25298">
        <ele>123</ele>
        <time>2010-08-01T06:52:49Z</time>
      </trkpt>
      <trkpt lat="48.16514" lon="-1.25322">
        <ele>122</ele>
        <time>2010-08-01T06:52:56Z</time>
      </trkpt>
      <trkpt lat="48.16476" lon="-1.25334">
        <ele>121</ele>
        <time>2010-08-01T06:53:01Z</time>
      </trkpt>
      <trkpt lat="48.16458" lon="-1.2534">
        <ele>120</ele>
        <time>2010-08-01T06:53:03Z</time>
      </trkpt>
      <trkpt lat="48.16439" lon="-1.25346">
        <ele>119</ele>
        <time>2010-08-01T06:53:05Z</time>
      </trkpt>
      <trkpt lat="48.1643" lon="-1.2535">
        <ele>118</ele>
        <time>2010-08-01T06:53:06Z</time>
      </trkpt>
      <trkpt lat="48.16411" lon="-1.25356">
        <ele>117</ele>
        <time>2010-08-01T06:53:08Z</time>
      </trkpt>
      <trkpt lat="48.16392" lon="-1.25362">
        <ele>116</ele>
        <time>2010-08-01T06:53:10Z</time>
      </trkpt>
      <trkpt lat="48.16373" lon="-1.25368">
        <ele>115</ele>
        <time>2010-08-01T06:53:12Z</time>
      </trkpt>
      <trkpt lat="48.16354" lon="-1.25374">
        <ele>114</ele>
        <time>2010-08-01T06:53:14Z</time>
      </trkpt>
      <trkpt lat="48.16345" lon="-1.25377">
        <ele>114</ele>
        <time>2010-08-01T06:53:15Z</time>
      </trkpt>
      <trkpt lat="48.16326" lon="-1.25382">
        <ele>113</ele>
        <time>2010-08-01T06:53:17Z</time>
      </trkpt>
      <trkpt lat="48.16317" lon="-1.25383">
        <ele>113</ele>
        <time>2010-08-01T06:53:18Z</time>
      </trkpt>
      <trkpt lat="48.16308" lon="-1.25383">
        <ele>112</ele>
        <time>2010-08-01T06:53:19Z</time>
      </trkpt>
      <trkpt lat="48.16289" lon="-1.25373">
        <ele>112</ele>
        <time>2010-08-01T06:53:21Z</time>
      </trkpt>
      <trkpt lat="48.1628" lon="-1.25365">
        <ele>112</ele>
        <time>2010-08-01T06:53:22Z</time>
      </trkpt>
      <trkpt lat="48.16266" lon="-1.25345">
        <ele>112</ele>
        <time>2010-08-01T06:53:24Z</time>
      </trkpt>
      <trkpt lat="48.1626" lon="-1.25333">
        <ele>112</ele>
        <time>2010-08-01T06:53:25Z</time>
      </trkpt>
      <trkpt lat="48.16244" lon="-1.25298">
        <ele>112</ele>
        <time>2010-08-01T06:53:28Z</time>
      </trkpt>
      <trkpt lat="48.16234" lon="-1.25276">
        <ele>112</ele>
        <time>2010-08-01T06:53:30Z</time>
      </trkpt>
      <trkpt lat="48.16212" lon="-1.25236">
        <ele>112</ele>
        <time>2010-08-01T06:53:34Z</time>
      </trkpt>
      <trkpt lat="48.16185" lon="-1.2521">
        <ele>112</ele>
        <time>2010-08-01T06:53:38Z</time>
      </trkpt>
      <trkpt lat="48.1616" lon="-1.25205">
        <ele>113</ele>
        <time>2010-08-01T06:53:41Z</time>
      </trkpt>
      <trkpt lat="48.16151" lon="-1.25205">
        <ele>113</ele>
        <time>2010-08-01T06:53:42Z</time>
      </trkpt>
      <trkpt lat="48.16092" lon="-1.2521">
        <ele>113</ele>
        <time>2010-08-01T06:53:50Z</time>
      </trkpt>
      <trkpt lat="48.16043" lon="-1.25213">
        <ele>115</ele>
        <time>2010-08-01T06:53:58Z</time>
      </trkpt>
      <trkpt lat="48.15993" lon="-1.25213">
        <ele>116</ele>
        <time>2010-08-01T06:54:07Z</time>
      </trkpt>
      <trkpt lat="48.15982" lon="-1.2521">
        <ele>116</ele>
        <time>2010-08-01T06:54:09Z</time>
      </trkpt>
      <trkpt lat="48.1596" lon="-1.25188">
        <ele>116</ele>
        <time>2010-08-01T06:54:14Z</time>
      </trkpt>
      <trkpt lat="48.15956" lon="-1.25181">
        <ele>116</ele>
        <time>2010-08-01T06:54:15Z</time>
      </trkpt>
      <trkpt lat="48.15954" lon="-1.25175">
        <ele>116</ele>
        <time>2010-08-01T06:54:16Z</time>
      </trkpt>
      <trkpt lat="48.15949" lon="-1.2516">
        <ele>116</ele>
        <time>2010-08-01T06:54:18Z</time>
      </trkpt>
      <trkpt lat="48.15946" lon="-1.25153">
        <ele>116</ele>
        <time>2010-08-01T06:54:19Z</time>
      </trkpt>
      <trkpt lat="48.1594" lon="-1.25137">
        <ele>116</ele>
        <time>2010-08-01T06:54:21Z</time>
      </trkpt>
      <trkpt lat="48.15934" lon="-1.2512">
        <ele>116</ele>
        <time>2010-08-01T06:54:23Z</time>
      </trkpt>
      <trkpt lat="48.15906" lon="-1.25046">
        <ele>115</ele>
        <time>2010-08-01T06:54:32Z</time>
      </trkpt>
      <trkpt lat="48.15879" lon="-1.24973">
        <ele>113</ele>
        <time>2010-08-01T06:54:40Z</time>
      </trkpt>
      <trkpt lat="48.15872" lon="-1.24955">
        <ele>113</ele>
        <time>2010-08-01T06:54:42Z</time>
      </trkpt>
      <trkpt lat="48.15865" lon="-1.24936">
        <ele>113</ele>
        <time>2010-08-01T06:54:44Z</time>
      </trkpt>
      <trkpt lat="48.15858" lon="-1.24918">
        <ele>112</ele>
        <time>2010-08-01T06:54:46Z</time>
      </trkpt>
      <trkpt lat="48.15851" lon="-1.24902">
        <ele>112</ele>
        <time>2010-08-01T06:54:48Z</time>
      </trkpt>
      <trkpt lat="48.15847" lon="-1.24894">
        <ele>112</ele>
        <time>2010-08-01T06:54:49Z</time>
      </trkpt>
      <trkpt lat="48.15832" lon="-1.24878">
        <ele>112</ele>
        <time>2010-08-01T06:54:52Z</time>
      </trkpt>
      <trkpt lat="48.15827" lon="-1.24875">
        <ele>112</ele>
        <time>2010-08-01T06:54:53Z</time>
      </trkpt>
      <trkpt lat="48.15806" lon="-1.24869">
        <ele>111</ele>
        <time>2010-08-01T06:54:56Z</time>
      </trkpt>
      <trkpt lat="48.15792" lon="-1.2487">
        <ele>110</ele>
        <time>2010-08-01T06:54:58Z</time>
      </trkpt>
      <trkpt lat="48.15778" lon="-1.24874">
        <ele>110</ele>
        <time>2010-08-01T06:55:00Z</time>
      </trkpt>
      <trkpt lat="48.15771" lon="-1.24877">
        <ele>110</ele>
        <time>2010-08-01T06:55:01Z</time>
      </trkpt>
      <trkpt lat="48.15761" lon="-1.24882">
        <ele>109</ele>
        <time>2010-08-01T06:55:02Z</time>
      </trkpt>
      <trkpt lat="48.15749" lon="-1.24886">
        <ele>109</ele>
        <time>2010-08-01T06:55:04Z</time>
      </trkpt>
      <trkpt lat="48.15734" lon="-1.24891">
        <ele>108</ele>
        <time>2010-08-01T06:55:06Z</time>
      </trkpt>
      <trkpt lat="48.15719" lon="-1.24895">
        <ele>107</ele>
        <time>2010-08-01T06:55:08Z</time>
      </trkpt>
      <trkpt lat="48.15703" lon="-1.24899">
        <ele>106</ele>
        <time>2010-08-01T06:55:10Z</time>
      </trkpt>
      <trkpt lat="48.15687" lon="-1.24901">
        <ele>105</ele>
        <time>2010-08-01T06:55:12Z</time>
      </trkpt>
      <trkpt lat="48.15678" lon="-1.24902">
        <ele>104</ele>
        <time>2010-08-01T06:55:13Z</time>
      </trkpt>
      <trkpt lat="48.15661" lon="-1.24902">
        <ele>103</ele>
        <time>2010-08-01T06:55:15Z</time>
      </trkpt>
      <trkpt lat="48.15643" lon="-1.24902">
        <ele>102</ele>
        <time>2010-08-01T06:55:17Z</time>
      </trkpt>
      <trkpt lat="48.15625" lon="-1.249">
        <ele>100</ele>
        <time>2010-08-01T06:55:19Z</time>
      </trkpt>
      <trkpt lat="48.15618" lon="-1.24897">
        <ele>99</ele>
        <time>2010-08-01T06:55:20Z</time>
      </trkpt>
      <trkpt lat="48.1561" lon="-1.24894">
        <ele>99</ele>
        <time>2010-08-01T06:55:21Z</time>
      </trkpt>
      <trkpt lat="48.15604" lon="-1.24891">
        <ele>98</ele>
        <time>2010-08-01T06:55:22Z</time>
      </trkpt>
      <trkpt lat="48.156" lon="-1.24888">
        <ele>98</ele>
        <time>2010-08-01T06:55:23Z</time>
      </trkpt>
      <trkpt lat="48.15596" lon="-1.24882">
        <ele>98</ele>
        <time>2010-08-01T06:55:24Z</time>
      </trkpt>
      <trkpt lat="48.15593" lon="-1.24876">
        <ele>97</ele>
        <time>2010-08-01T06:55:25Z</time>
      </trkpt>
      <trkpt lat="48.15587" lon="-1.2486">
        <ele>97</ele>
        <time>2010-08-01T06:55:27Z</time>
      </trkpt>
      <trkpt lat="48.15584" lon="-1.24838">
        <ele>96</ele>
        <time>2010-08-01T06:55:29Z</time>
      </trkpt>
      <trkpt lat="48.15583" lon="-1.24827">
        <ele>96</ele>
        <time>2010-08-01T06:55:30Z</time>
      </trkpt>
      <trkpt lat="48.15582" lon="-1.24815">
        <ele>96</ele>
        <time>2010-08-01T06:55:31Z</time>
      </trkpt>
      <trkpt lat="48.15582" lon="-1.24789">
        <ele>95</ele>
        <time>2010-08-01T06:55:33Z</time>
      </trkpt>
      <trkpt lat="48.15583" lon="-1.24776">
        <ele>94</ele>
        <time>2010-08-01T06:55:34Z</time>
      </trkpt>
      <trkpt lat="48.15584" lon="-1.24762">
        <ele>94</ele>
        <time>2010-08-01T06:55:35Z</time>
      </trkpt>
      <trkpt lat="48.15588" lon="-1.24733">
        <ele>93</ele>
        <time>2010-08-01T06:55:37Z</time>
      </trkpt>
      <trkpt lat="48.15596" lon="-1.24696">
        <ele>92</ele>
        <time>2010-08-01T06:55:40Z</time>
      </trkpt>
      <trkpt lat="48.15598" lon="-1.24673">
        <ele>92</ele>
        <time>2010-08-01T06:55:42Z</time>
      </trkpt>
      <trkpt lat="48.15598" lon="-1.2466">
        <ele>91</ele>
        <time>2010-08-01T06:55:43Z</time>
      </trkpt>
      <trkpt lat="48.15597" lon="-1.24636">
        <ele>89</ele>
        <time>2010-08-01T06:55:45Z</time>
      </trkpt>
      <trkpt lat="48.15599" lon="-1.24609">
        <ele>88</ele>
        <time>2010-08-01T06:55:47Z</time>
      </trkpt>
      <trkpt lat="48.15599" lon="-1.24595">
        <ele>87</ele>
        <time>2010-08-01T06:55:48Z</time>
      </trkpt>
      <trkpt lat="48.15599" lon="-1.2458">
        <ele>87</ele>
        <time>2010-08-01T06:55:49Z</time>
      </trkpt>
      <trkpt lat="48.15598" lon="-1.2455">
        <ele>85</ele>
        <time>2010-08-01T06:55:51Z</time>
      </trkpt>
      <trkpt lat="48.15597" lon="-1.24536">
        <ele>84</ele>
        <time>2010-08-01T06:55:52Z</time>
      </trkpt>
      <trkpt lat="48.15594" lon="-1.24513">
        <ele>83</ele>
        <time>2010-08-01T06:55:54Z</time>
      </trkpt>
      <trkpt lat="48.15594" lon="-1.24503">
        <ele>83</ele>
        <time>2010-08-01T06:55:55Z</time>
      </trkpt>
      <trkpt lat="48.1559" lon="-1.24474">
        <ele>82</ele>
        <time>2010-08-01T06:55:58Z</time>
      </trkpt>
      <trkpt lat="48.15587" lon="-1.24453">
        <ele>81</ele>
        <time>2010-08-01T06:56:00Z</time>
      </trkpt>
      <trkpt lat="48.15583" lon="-1.24441">
        <ele>80</ele>
        <time>2010-08-01T06:56:01Z</time>
      </trkpt>
      <trkpt lat="48.15579" lon="-1.24431">
        <ele>79</ele>
        <time>2010-08-01T06:56:02Z</time>
      </trkpt>
      <trkpt lat="48.15573" lon="-1.24406">
        <ele>78</ele>
        <time>2010-08-01T06:56:04Z</time>
      </trkpt>
      <trkpt lat="48.1557" lon="-1.24395">
        <ele>77</ele>
        <time>2010-08-01T06:56:05Z</time>
      </trkpt>
      <trkpt lat="48.15566" lon="-1.24384">
        <ele>76</ele>
        <time>2010-08-01T06:56:06Z</time>
      </trkpt>
      <trkpt lat="48.15562" lon="-1.24375">
        <ele>75</ele>
        <time>2010-08-01T06:56:07Z</time>
      </trkpt>
      <trkpt lat="48.15559" lon="-1.2437">
        <ele>74</ele>
        <time>2010-08-01T06:56:08Z</time>
      </trkpt>
      <trkpt lat="48.15558" lon="-1.24362">
        <ele>74</ele>
        <time>2010-08-01T06:56:10Z</time>
      </trkpt>
      <trkpt lat="48.1556" lon="-1.24357">
        <ele>74</ele>
        <time>2010-08-01T06:56:12Z</time>
      </trkpt>
      <trkpt lat="48.15562" lon="-1.24355">
        <ele>74</ele>
        <time>2010-08-01T06:56:13Z</time>
      </trkpt>
      <trkpt lat="48.15564" lon="-1.24353">
        <ele>74</ele>
        <time>2010-08-01T06:56:14Z</time>
      </trkpt>
      <trkpt lat="48.15568" lon="-1.2435">
        <ele>74</ele>
        <time>2010-08-01T06:56:16Z</time>
      </trkpt>
      <trkpt lat="48.15573" lon="-1.24347">
        <ele>74</ele>
        <time>2010-08-01T06:56:18Z</time>
      </trkpt>
      <trkpt lat="48.15586" lon="-1.2434">
        <ele>75</ele>
        <time>2010-08-01T06:56:22Z</time>
      </trkpt>
      <trkpt lat="48.15599" lon="-1.2433">
        <ele>76</ele>
        <time>2010-08-01T06:56:25Z</time>
      </trkpt>
      <trkpt lat="48.1564" lon="-1.24318">
        <ele>77</ele>
        <time>2010-08-01T06:56:31Z</time>
      </trkpt>
      <trkpt lat="48.15645" lon="-1.24316">
        <ele>77</ele>
        <time>2010-08-01T06:56:32Z</time>
      </trkpt>
      <trkpt lat="48.15661" lon="-1.24309">
        <ele>77</ele>
        <time>2010-08-01T06:56:35Z</time>
      </trkpt>
      <trkpt lat="48.1567" lon="-1.24304">
        <ele>77</ele>
        <time>2010-08-01T06:56:37Z</time>
      </trkpt>
      <trkpt lat="48.15681" lon="-1.24299">
        <ele>76</ele>
        <time>2010-08-01T06:56:39Z</time>
      </trkpt>
      <trkpt lat="48.15691" lon="-1.24293">
        <ele>76</ele>
        <time>2010-08-01T06:56:41Z</time>
      </trkpt>
      <trkpt lat="48.15701" lon="-1.24289">
        <ele>76</ele>
        <time>2010-08-01T06:56:43Z</time>
      </trkpt>
      <trkpt lat="48.15728" lon="-1.24281">
        <ele>76</ele>
        <time>2010-08-01T06:56:49Z</time>
      </trkpt>
      <trkpt lat="48.15738" lon="-1.24276">
        <ele>76</ele>
        <time>2010-08-01T06:56:51Z</time>
      </trkpt>
      <trkpt lat="48.15749" lon="-1.24271">
        <ele>76</ele>
        <time>2010-08-01T06:56:53Z</time>
      </trkpt>
      <trkpt lat="48.1576" lon="-1.24266">
        <ele>76</ele>
        <time>2010-08-01T06:56:55Z</time>
      </trkpt>
      <trkpt lat="48.15771" lon="-1.2426">
        <ele>76</ele>
        <time>2010-08-01T06:56:57Z</time>
      </trkpt>
      <trkpt lat="48.15792" lon="-1.24247">
        <ele>75</ele>
        <time>2010-08-01T06:57:01Z</time>
      </trkpt>
      <trkpt lat="48.15802" lon="-1.2424">
        <ele>75</ele>
        <time>2010-08-01T06:57:03Z</time>
      </trkpt>
      <trkpt lat="48.15812" lon="-1.24232">
        <ele>74</ele>
        <time>2010-08-01T06:57:05Z</time>
      </trkpt>
      <trkpt lat="48.15822" lon="-1.24224">
        <ele>74</ele>
        <time>2010-08-01T06:57:07Z</time>
      </trkpt>
      <trkpt lat="48.15827" lon="-1.24221">
        <ele>74</ele>
        <time>2010-08-01T06:57:08Z</time>
      </trkpt>
      <trkpt lat="48.15871" lon="-1.24185">
        <ele>75</ele>
        <time>2010-08-01T06:57:17Z</time>
      </trkpt>
      <trkpt lat="48.15903" lon="-1.24162">
        <ele>76</ele>
        <time>2010-08-01T06:57:24Z</time>
      </trkpt>
      <trkpt lat="48.1593" lon="-1.2415">
        <ele>78</ele>
        <time>2010-08-01T06:57:30Z</time>
      </trkpt>
      <trkpt lat="48.15943" lon="-1.24137">
        <ele>78</ele>
        <time>2010-08-01T06:57:34Z</time>
      </trkpt>
      <trkpt lat="48.15945" lon="-1.24135">
        <ele>78</ele>
        <time>2010-08-01T06:57:35Z</time>
      </trkpt>
      <trkpt lat="48.15955" lon="-1.24127">
        <ele>79</ele>
        <time>2010-08-01T06:57:38Z</time>
      </trkpt>
      <trkpt lat="48.15963" lon="-1.24121">
        <ele>79</ele>
        <time>2010-08-01T06:57:40Z</time>
      </trkpt>
      <trkpt lat="48.15967" lon="-1.24115">
        <ele>78</ele>
        <time>2010-08-01T06:57:41Z</time>
      </trkpt>
      <trkpt lat="48.15974" lon="-1.24112">
        <ele>79</ele>
        <time>2010-08-01T06:57:42Z</time>
      </trkpt>
      <trkpt lat="48.1598" lon="-1.24108">
        <ele>79</ele>
        <time>2010-08-01T06:57:43Z</time>
      </trkpt>
      <trkpt lat="48.15993" lon="-1.24096">
        <ele>78</ele>
        <time>2010-08-01T06:57:46Z</time>
      </trkpt>
      <trkpt lat="48.16011" lon="-1.2408">
        <ele>79</ele>
        <time>2010-08-01T06:57:50Z</time>
      </trkpt>
      <trkpt lat="48.16025" lon="-1.24065">
        <ele>78</ele>
        <time>2010-08-01T06:57:53Z</time>
      </trkpt>
      <trkpt lat="48.16036" lon="-1.24051">
        <ele>77</ele>
        <time>2010-08-01T06:57:55Z</time>
      </trkpt>
      <trkpt lat="48.1605" lon="-1.24023">
        <ele>76</ele>
        <time>2010-08-01T06:57:58Z</time>
      </trkpt>
      <trkpt lat="48.16064" lon="-1.24008">
        <ele>77</ele>
        <time>2010-08-01T06:58:00Z</time>
      </trkpt>
      <trkpt lat="48.16074" lon="-1.23992">
        <ele>76</ele>
        <time>2010-08-01T06:58:02Z</time>
      </trkpt>
      <trkpt lat="48.16079" lon="-1.23987">
        <ele>75</ele>
        <time>2010-08-01T06:58:03Z</time>
      </trkpt>
      <trkpt lat="48.16084" lon="-1.23979">
        <ele>75</ele>
        <time>2010-08-01T06:58:04Z</time>
      </trkpt>
      <trkpt lat="48.16092" lon="-1.23963">
        <ele>75</ele>
        <time>2010-08-01T06:58:06Z</time>
      </trkpt>
      <trkpt lat="48.161" lon="-1.23946">
        <ele>75</ele>
        <time>2010-08-01T06:58:08Z</time>
      </trkpt>
      <trkpt lat="48.16107" lon="-1.23929">
        <ele>76</ele>
        <time>2010-08-01T06:58:10Z</time>
      </trkpt>
      <trkpt lat="48.16117" lon="-1.23892">
        <ele>77</ele>
        <time>2010-08-01T06:58:14Z</time>
      </trkpt>
      <trkpt lat="48.16121" lon="-1.23864">
        <ele>78</ele>
        <time>2010-08-01T06:58:17Z</time>
      </trkpt>
      <trkpt lat="48.16125" lon="-1.23841">
        <ele>79</ele>
        <time>2010-08-01T06:58:21Z</time>
      </trkpt>
      <trkpt lat="48.16128" lon="-1.23817">
        <ele>79</ele>
        <time>2010-08-01T06:58:26Z</time>
      </trkpt>
      <trkpt lat="48.16128" lon="-1.23804">
        <ele>79</ele>
        <time>2010-08-01T06:58:28Z</time>
      </trkpt>
      <trkpt lat="48.16127" lon="-1.23791">
        <ele>80</ele>
        <time>2010-08-01T06:58:30Z</time>
      </trkpt>
      <trkpt lat="48.16126" lon="-1.23779">
        <ele>80</ele>
        <time>2010-08-01T06:58:32Z</time>
      </trkpt>
      <trkpt lat="48.16127" lon="-1.23765">
        <ele>80</ele>
        <time>2010-08-01T06:58:34Z</time>
      </trkpt>
      <trkpt lat="48.16127" lon="-1.23757">
        <ele>80</ele>
        <time>2010-08-01T06:58:35Z</time>
      </trkpt>
      <trkpt lat="48.16126" lon="-1.23743">
        <ele>80</ele>
        <time>2010-08-01T06:58:37Z</time>
      </trkpt>
      <trkpt lat="48.16125" lon="-1.23738">
        <ele>80</ele>
        <time>2010-08-01T06:58:38Z</time>
      </trkpt>
      <trkpt lat="48.16124" lon="-1.23718">
        <ele>81</ele>
        <time>2010-08-01T06:58:41Z</time>
      </trkpt>
      <trkpt lat="48.16125" lon="-1.23705">
        <ele>81</ele>
        <time>2010-08-01T06:58:43Z</time>
      </trkpt>
      <trkpt lat="48.16126" lon="-1.23663">
        <ele>82</ele>
        <time>2010-08-01T06:58:49Z</time>
      </trkpt>
      <trkpt lat="48.16124" lon="-1.23629">
        <ele>81</ele>
        <time>2010-08-01T06:58:54Z</time>
      </trkpt>
      <trkpt lat="48.16122" lon="-1.23622">
        <ele>81</ele>
        <time>2010-08-01T06:58:55Z</time>
      </trkpt>
      <trkpt lat="48.16127" lon="-1.23614">
        <ele>82</ele>
        <time>2010-08-01T06:58:57Z</time>
      </trkpt>
      <trkpt lat="48.16132" lon="-1.23612">
        <ele>82</ele>
        <time>2010-08-01T06:58:59Z</time>
      </trkpt>
      <trkpt lat="48.16138" lon="-1.23613">
        <ele>83</ele>
        <time>2010-08-01T06:59:01Z</time>
      </trkpt>
      <trkpt lat="48.16143" lon="-1.23615">
        <ele>84</ele>
        <time>2010-08-01T06:59:03Z</time>
      </trkpt>
      <trkpt lat="48.16149" lon="-1.23615">
        <ele>84</ele>
        <time>2010-08-01T06:59:05Z</time>
      </trkpt>
      <trkpt lat="48.16157" lon="-1.23617">
        <ele>85</ele>
        <time>2010-08-01T06:59:08Z</time>
      </trkpt>
      <trkpt lat="48.16162" lon="-1.23618">
        <ele>86</ele>
        <time>2010-08-01T06:59:10Z</time>
      </trkpt>
      <trkpt lat="48.16167" lon="-1.23619">
        <ele>86</ele>
        <time>2010-08-01T06:59:12Z</time>
      </trkpt>
      <trkpt lat="48.16172" lon="-1.2362">
        <ele>87</ele>
        <time>2010-08-01T06:59:14Z</time>
      </trkpt>
      <trkpt lat="48.16177" lon="-1.2362">
        <ele>87</ele>
        <time>2010-08-01T06:59:16Z</time>
      </trkpt>
      <trkpt lat="48.16182" lon="-1.23622">
        <ele>88</ele>
        <time>2010-08-01T06:59:18Z</time>
      </trkpt>
      <trkpt lat="48.16186" lon="-1.23623">
        <ele>89</ele>
        <time>2010-08-01T06:59:20Z</time>
      </trkpt>
      <trkpt lat="48.16191" lon="-1.23625">
        <ele>89</ele>
        <time>2010-08-01T06:59:22Z</time>
      </trkpt>
      <trkpt lat="48.16195" lon="-1.23625">
        <ele>90</ele>
        <time>2010-08-01T06:59:24Z</time>
      </trkpt>
      <trkpt lat="48.162" lon="-1.23626">
        <ele>90</ele>
        <time>2010-08-01T06:59:26Z</time>
      </trkpt>
      <trkpt lat="48.16204" lon="-1.23627">
        <ele>91</ele>
        <time>2010-08-01T06:59:28Z</time>
      </trkpt>
      <trkpt lat="48.16208" lon="-1.23628">
        <ele>92</ele>
        <time>2010-08-01T06:59:30Z</time>
      </trkpt>
      <trkpt lat="48.16212" lon="-1.23628">
        <ele>92</ele>
        <time>2010-08-01T06:59:32Z</time>
      </trkpt>
      <trkpt lat="48.16216" lon="-1.2363">
        <ele>93</ele>
        <time>2010-08-01T06:59:34Z</time>
      </trkpt>
      <trkpt lat="48.16221" lon="-1.2363">
        <ele>93</ele>
        <time>2010-08-01T06:59:36Z</time>
      </trkpt>
      <trkpt lat="48.16225" lon="-1.23631">
        <ele>94</ele>
        <time>2010-08-01T06:59:38Z</time>
      </trkpt>
      <trkpt lat="48.16229" lon="-1.23632">
        <ele>95</ele>
        <time>2010-08-01T06:59:40Z</time>
      </trkpt>
      <trkpt lat="48.16231" lon="-1.23632">
        <ele>95</ele>
        <time>2010-08-01T06:59:41Z</time>
      </trkpt>
      <trkpt lat="48.16234" lon="-1.23631">
        <ele>96</ele>
        <time>2010-08-01T06:59:43Z</time>
      </trkpt>
      <trkpt lat="48.16237" lon="-1.23628">
        <ele>96</ele>
        <time>2010-08-01T06:59:45Z</time>
      </trkpt>
      <trkpt lat="48.16239" lon="-1.23626">
        <ele>96</ele>
        <time>2010-08-01T06:59:46Z</time>
      </trkpt>
      <trkpt lat="48.16242" lon="-1.23617">
        <ele>97</ele>
        <time>2010-08-01T06:59:49Z</time>
      </trkpt>
      <trkpt lat="48.16242" lon="-1.23614">
        <ele>97</ele>
        <time>2010-08-01T06:59:50Z</time>
      </trkpt>
      <trkpt lat="48.16241" lon="-1.23602">
        <ele>96</ele>
        <time>2010-08-01T06:59:53Z</time>
      </trkpt>
      <trkpt lat="48.16241" lon="-1.23598">
        <ele>96</ele>
        <time>2010-08-01T06:59:54Z</time>
      </trkpt>
      <trkpt lat="48.16246" lon="-1.23587">
        <ele>97</ele>
        <time>2010-08-01T06:59:57Z</time>
      </trkpt>
      <trkpt lat="48.16254" lon="-1.23579">
        <ele>99</ele>
        <time>2010-08-01T07:00:01Z</time>
      </trkpt>
      <trkpt lat="48.16254" lon="-1.23575">
        <ele>99</ele>
        <time>2010-08-01T07:00:02Z</time>
      </trkpt>
      <trkpt lat="48.16253" lon="-1.23567">
        <ele>98</ele>
        <time>2010-08-01T07:00:04Z</time>
      </trkpt>
      <trkpt lat="48.16255" lon="-1.23559">
        <ele>99</ele>
        <time>2010-08-01T07:00:06Z</time>
      </trkpt>
      <trkpt lat="48.16256" lon="-1.23555">
        <ele>99</ele>
        <time>2010-08-01T07:00:07Z</time>
      </trkpt>
      <trkpt lat="48.16258" lon="-1.23541">
        <ele>99</ele>
        <time>2010-08-01T07:00:10Z</time>
      </trkpt>
      <trkpt lat="48.16257" lon="-1.23535">
        <ele>99</ele>
        <time>2010-08-01T07:00:11Z</time>
      </trkpt>
      <trkpt lat="48.16257" lon="-1.23531">
        <ele>99</ele>
        <time>2010-08-01T07:00:12Z</time>
      </trkpt>
      <trkpt lat="48.16256" lon="-1.23525">
        <ele>99</ele>
        <time>2010-08-01T07:00:14Z</time>
      </trkpt>
      <trkpt lat="48.16259" lon="-1.23513">
        <ele>99</ele>
        <time>2010-08-01T07:00:17Z</time>
      </trkpt>
      <trkpt lat="48.1626" lon="-1.23506">
        <ele>99</ele>
        <time>2010-08-01T07:00:19Z</time>
      </trkpt>
      <trkpt lat="48.1626" lon="-1.23499">
        <ele>99</ele>
        <time>2010-08-01T07:00:22Z</time>
      </trkpt>
      <trkpt lat="48.1626" lon="-1.23496">
        <ele>99</ele>
        <time>2010-08-01T07:00:25Z</time>
      </trkpt>
      <trkpt lat="48.1626" lon="-1.23496">
        <ele>99</ele>
        <time>2010-08-01T07:00:26Z</time>
      </trkpt>
      <trkpt lat="48.1626" lon="-1.23491">
        <ele>99</ele>
        <time>2010-08-01T07:00:30Z</time>
      </trkpt>
      <trkpt lat="48.1626" lon="-1.23467">
        <ele>99</ele>
        <time>2010-08-01T07:00:37Z</time>
      </trkpt>
      <trkpt lat="48.16258" lon="-1.23449">
        <ele>99</ele>
        <time>2010-08-01T07:00:40Z</time>
      </trkpt>
      <trkpt lat="48.16263" lon="-1.23436">
        <ele>99</ele>
        <time>2010-08-01T07:00:43Z</time>
      </trkpt>
      <trkpt lat="48.16266" lon="-1.23436">
        <ele>100</ele>
        <time>2010-08-01T07:00:44Z</time>
      </trkpt>
      <trkpt lat="48.16273" lon="-1.2344">
        <ele>102</ele>
        <time>2010-08-01T07:00:47Z</time>
      </trkpt>
      <trkpt lat="48.16275" lon="-1.23441">
        <ele>102</ele>
        <time>2010-08-01T07:00:48Z</time>
      </trkpt>
      <trkpt lat="48.16278" lon="-1.23443">
        <ele>103</ele>
        <time>2010-08-01T07:00:51Z</time>
      </trkpt>
      <trkpt lat="48.16282" lon="-1.23445">
        <ele>103</ele>
        <time>2010-08-01T07:00:53Z</time>
      </trkpt>
      <trkpt lat="48.16284" lon="-1.23445">
        <ele>104</ele>
        <time>2010-08-01T07:00:54Z</time>
      </trkpt>
      <trkpt lat="48.16286" lon="-1.23446">
        <ele>104</ele>
        <time>2010-08-01T07:00:55Z</time>
      </trkpt>
      <trkpt lat="48.16289" lon="-1.23447">
        <ele>105</ele>
        <time>2010-08-01T07:00:57Z</time>
      </trkpt>
      <trkpt lat="48.16292" lon="-1.23447">
        <ele>105</ele>
        <time>2010-08-01T07:00:59Z</time>
      </trkpt>
      <trkpt lat="48.16296" lon="-1.23447">
        <ele>106</ele>
        <time>2010-08-01T07:01:01Z</time>
      </trkpt>
      <trkpt lat="48.16297" lon="-1.23448">
        <ele>107</ele>
        <time>2010-08-01T07:01:02Z</time>
      </trkpt>
      <trkpt lat="48.16299" lon="-1.23449">
        <ele>107</ele>
        <time>2010-08-01T07:01:03Z</time>
      </trkpt>
      <trkpt lat="48.16303" lon="-1.23451">
        <ele>108</ele>
        <time>2010-08-01T07:01:05Z</time>
      </trkpt>
      <trkpt lat="48.16307" lon="-1.23453">
        <ele>108</ele>
        <time>2010-08-01T07:01:07Z</time>
      </trkpt>
      <trkpt lat="48.1631" lon="-1.23453">
        <ele>109</ele>
        <time>2010-08-01T07:01:09Z</time>
      </trkpt>
      <trkpt lat="48.16312" lon="-1.23454">
        <ele>110</ele>
        <time>2010-08-01T07:01:10Z</time>
      </trkpt>
      <trkpt lat="48.16314" lon="-1.23454">
        <ele>110</ele>
        <time>2010-08-01T07:01:11Z</time>
      </trkpt>
      <trkpt lat="48.16317" lon="-1.23455">
        <ele>111</ele>
        <time>2010-08-01T07:01:13Z</time>
      </trkpt>
      <trkpt lat="48.16321" lon="-1.23457">
        <ele>111</ele>
        <time>2010-08-01T07:01:15Z</time>
      </trkpt>
      <trkpt lat="48.16324" lon="-1.23456">
        <ele>112</ele>
        <time>2010-08-01T07:01:17Z</time>
      </trkpt>
      <trkpt lat="48.16326" lon="-1.23456">
        <ele>112</ele>
        <time>2010-08-01T07:01:18Z</time>
      </trkpt>
      <trkpt lat="48.16327" lon="-1.23456">
        <ele>112</ele>
        <time>2010-08-01T07:01:19Z</time>
      </trkpt>
      <trkpt lat="48.16329" lon="-1.23456">
        <ele>112</ele>
        <time>2010-08-01T07:01:20Z</time>
      </trkpt>
      <trkpt lat="48.16332" lon="-1.23456">
        <ele>113</ele>
        <time>2010-08-01T07:01:22Z</time>
      </trkpt>
      <trkpt lat="48.16336" lon="-1.23456">
        <ele>113</ele>
        <time>2010-08-01T07:01:24Z</time>
      </trkpt>
      <trkpt lat="48.16338" lon="-1.23457">
        <ele>114</ele>
        <time>2010-08-01T07:01:25Z</time>
      </trkpt>
      <trkpt lat="48.16341" lon="-1.23458">
        <ele>114</ele>
        <time>2010-08-01T07:01:27Z</time>
      </trkpt>
      <trkpt lat="48.16344" lon="-1.23457">
        <ele>114</ele>
        <time>2010-08-01T07:01:29Z</time>
      </trkpt>
      <trkpt lat="48.16347" lon="-1.23456">
        <ele>115</ele>
        <time>2010-08-01T07:01:31Z</time>
      </trkpt>
      <trkpt lat="48.16349" lon="-1.23457">
        <ele>115</ele>
        <time>2010-08-01T07:01:32Z</time>
      </trkpt>
      <trkpt lat="48.16351" lon="-1.23455">
        <ele>115</ele>
        <time>2010-08-01T07:01:34Z</time>
      </trkpt>
      <trkpt lat="48.16352" lon="-1.23455">
        <ele>115</ele>
        <time>2010-08-01T07:01:36Z</time>
      </trkpt>
      <trkpt lat="48.16353" lon="-1.23454">
        <ele>116</ele>
        <time>2010-08-01T07:01:37Z</time>
      </trkpt>
      <trkpt lat="48.16355" lon="-1.23454">
        <ele>116</ele>
        <time>2010-08-01T07:01:38Z</time>
      </trkpt>
      <trkpt lat="48.16357" lon="-1.23454">
        <ele>116</ele>
        <time>2010-08-01T07:01:39Z</time>
      </trkpt>
      <trkpt lat="48.16363" lon="-1.23457">
        <ele>117</ele>
        <time>2010-08-01T07:01:42Z</time>
      </trkpt>
      <trkpt lat="48.16369" lon="-1.23471">
        <ele>118</ele>
        <time>2010-08-01T07:01:46Z</time>
      </trkpt>
      <trkpt lat="48.16373" lon="-1.2348">
        <ele>118</ele>
        <time>2010-08-01T07:01:48Z</time>
      </trkpt>
      <trkpt lat="48.16374" lon="-1.23485">
        <ele>118</ele>
        <time>2010-08-01T07:01:49Z</time>
      </trkpt>
      <trkpt lat="48.16378" lon="-1.23497">
        <ele>119</ele>
        <time>2010-08-01T07:01:52Z</time>
      </trkpt>
      <trkpt lat="48.16381" lon="-1.23505">
        <ele>119</ele>
        <time>2010-08-01T07:01:54Z</time>
      </trkpt>
      <trkpt lat="48.16382" lon="-1.23513">
        <ele>119</ele>
        <time>2010-08-01T07:01:56Z</time>
      </trkpt>
      <trkpt lat="48.16384" lon="-1.23523">
        <ele>119</ele>
        <time>2010-08-01T07:01:58Z</time>
      </trkpt>
      <trkpt lat="48.16387" lon="-1.23532">
        <ele>120</ele>
        <time>2010-08-01T07:02:00Z</time>
      </trkpt>
      <trkpt lat="48.1639" lon="-1.23542">
        <ele>120</ele>
        <time>2010-08-01T07:02:02Z</time>
      </trkpt>
      <trkpt lat="48.16389" lon="-1.23548">
        <ele>120</ele>
        <time>2010-08-01T07:02:03Z</time>
      </trkpt>
      <trkpt lat="48.16389" lon="-1.23553">
        <ele>121</ele>
        <time>2010-08-01T07:02:04Z</time>
      </trkpt>
      <trkpt lat="48.16389" lon="-1.23566">
        <ele>121</ele>
        <time>2010-08-01T07:02:06Z</time>
      </trkpt>
      <trkpt lat="48.16389" lon="-1.23603">
        <ele>121</ele>
        <time>2010-08-01T07:02:12Z</time>
      </trkpt>
      <trkpt lat="48.1639" lon="-1.23632">
        <ele>122</ele>
        <time>2010-08-01T07:02:16Z</time>
      </trkpt>
      <trkpt lat="48.16392" lon="-1.23662">
        <ele>122</ele>
        <time>2010-08-01T07:02:20Z</time>
      </trkpt>
      <trkpt lat="48.16403" lon="-1.23694">
        <ele>123</ele>
        <time>2010-08-01T07:07:35Z</time>
      </trkpt>
      <trkpt lat="48.16421" lon="-1.23686">
        <ele>123</ele>
        <time>2010-08-01T07:07:38Z</time>
      </trkpt>
      <trkpt lat="48.16428" lon="-1.23686">
        <ele>123</ele>
        <time>2010-08-01T07:07:39Z</time>
      </trkpt>
      <trkpt lat="48.16488" lon="-1.23689">
        <ele>122</ele>
        <time>2010-08-01T07:07:48Z</time>
      </trkpt>
      <trkpt lat="48.16523" lon="-1.23699">
        <ele>122</ele>
        <time>2010-08-01T07:07:54Z</time>
      </trkpt>
      <trkpt lat="48.16563" lon="-1.23709">
        <ele>123</ele>
        <time>2010-08-01T07:08:01Z</time>
      </trkpt>
      <trkpt lat="48.16613" lon="-1.2372">
        <ele>124</ele>
        <time>2010-08-01T07:08:10Z</time>
      </trkpt>
      <trkpt lat="48.16645" lon="-1.23727">
        <ele>125</ele>
        <time>2010-08-01T07:08:16Z</time>
      </trkpt>
      <trkpt lat="48.16654" lon="-1.23728">
        <ele>126</ele>
        <time>2010-08-01T07:08:18Z</time>
      </trkpt>
      <trkpt lat="48.16664" lon="-1.2373">
        <ele>126</ele>
        <time>2010-08-01T07:08:20Z</time>
      </trkpt>
      <trkpt lat="48.16673" lon="-1.23731">
        <ele>127</ele>
        <time>2010-08-01T07:08:22Z</time>
      </trkpt>
      <trkpt lat="48.16682" lon="-1.23732">
        <ele>127</ele>
        <time>2010-08-01T07:08:24Z</time>
      </trkpt>
      <trkpt lat="48.16696" lon="-1.23734">
        <ele>128</ele>
        <time>2010-08-01T07:08:27Z</time>
      </trkpt>
      <trkpt lat="48.16705" lon="-1.23735">
        <ele>128</ele>
        <time>2010-08-01T07:08:29Z</time>
      </trkpt>
      <trkpt lat="48.16714" lon="-1.23736">
        <ele>129</ele>
        <time>2010-08-01T07:08:31Z</time>
      </trkpt>
      <trkpt lat="48.16725" lon="-1.23737">
        <ele>129</ele>
        <time>2010-08-01T07:08:33Z</time>
      </trkpt>
      <trkpt lat="48.16731" lon="-1.23737">
        <ele>130</ele>
        <time>2010-08-01T07:08:34Z</time>
      </trkpt>
      <trkpt lat="48.16742" lon="-1.23737">
        <ele>131</ele>
        <time>2010-08-01T07:08:36Z</time>
      </trkpt>
      <trkpt lat="48.16753" lon="-1.23736">
        <ele>131</ele>
        <time>2010-08-01T07:08:38Z</time>
      </trkpt>
      <trkpt lat="48.16758" lon="-1.23736">
        <ele>132</ele>
        <time>2010-08-01T07:08:39Z</time>
      </trkpt>
      <trkpt lat="48.16768" lon="-1.23736">
        <ele>132</ele>
        <time>2010-08-01T07:08:41Z</time>
      </trkpt>
      <trkpt lat="48.16778" lon="-1.23735">
        <ele>132</ele>
        <time>2010-08-01T07:08:43Z</time>
      </trkpt>
      <trkpt lat="48.16788" lon="-1.23733">
        <ele>132</ele>
        <time>2010-08-01T07:08:45Z</time>
      </trkpt>
      <trkpt lat="48.16794" lon="-1.23732">
        <ele>132</ele>
        <time>2010-08-01T07:08:46Z</time>
      </trkpt>
      <trkpt lat="48.16804" lon="-1.23731">
        <ele>132</ele>
        <time>2010-08-01T07:08:48Z</time>
      </trkpt>
      <trkpt lat="48.16814" lon="-1.23729">
        <ele>133</ele>
        <time>2010-08-01T07:08:50Z</time>
      </trkpt>
      <trkpt lat="48.16824" lon="-1.23727">
        <ele>133</ele>
        <time>2010-08-01T07:08:52Z</time>
      </trkpt>
      <trkpt lat="48.16835" lon="-1.23724">
        <ele>133</ele>
        <time>2010-08-01T07:08:54Z</time>
      </trkpt>
      <trkpt lat="48.16857" lon="-1.23716">
        <ele>134</ele>
        <time>2010-08-01T07:08:58Z</time>
      </trkpt>
      <trkpt lat="48.16878" lon="-1.23702">
        <ele>134</ele>
        <time>2010-08-01T07:09:02Z</time>
      </trkpt>
      <trkpt lat="48.16897" lon="-1.23683">
        <ele>134</ele>
        <time>2010-08-01T07:09:06Z</time>
      </trkpt>
      <trkpt lat="48.16902" lon="-1.2367">
        <ele>134</ele>
        <time>2010-08-01T07:09:09Z</time>
      </trkpt>
      <trkpt lat="48.16901" lon="-1.23666">
        <ele>134</ele>
        <time>2010-08-01T07:09:10Z</time>
      </trkpt>
      <trkpt lat="48.16894" lon="-1.23662">
        <ele>134</ele>
        <time>2010-08-01T07:09:12Z</time>
      </trkpt>
      <trkpt lat="48.1689" lon="-1.23658">
        <ele>134</ele>
        <time>2010-08-01T07:09:13Z</time>
      </trkpt>
      <trkpt lat="48.16885" lon="-1.23651">
        <ele>134</ele>
        <time>2010-08-01T07:09:15Z</time>
      </trkpt>
      <trkpt lat="48.16883" lon="-1.23631">
        <ele>135</ele>
        <time>2010-08-01T07:09:18Z</time>
      </trkpt>
      <trkpt lat="48.16877" lon="-1.23599">
        <ele>134</ele>
        <time>2010-08-01T07:09:22Z</time>
      </trkpt>
      <trkpt lat="48.16875" lon="-1.23592">
        <ele>134</ele>
        <time>2010-08-01T07:09:23Z</time>
      </trkpt>
      <trkpt lat="48.16873" lon="-1.23575">
        <ele>134</ele>
        <time>2010-08-01T07:09:25Z</time>
      </trkpt>
      <trkpt lat="48.16871" lon="-1.23565">
        <ele>134</ele>
        <time>2010-08-01T07:09:27Z</time>
      </trkpt>
      <trkpt lat="48.16866" lon="-1.23559">
        <ele>134</ele>
        <time>2010-08-01T07:09:29Z</time>
      </trkpt>
      <trkpt lat="48.16862" lon="-1.23553">
        <ele>134</ele>
        <time>2010-08-01T07:09:31Z</time>
      </trkpt>
      <trkpt lat="48.1686" lon="-1.23545">
        <ele>134</ele>
        <time>2010-08-01T07:09:32Z</time>
      </trkpt>
      <trkpt lat="48.16858" lon="-1.23536">
        <ele>133</ele>
        <time>2010-08-01T07:09:33Z</time>
      </trkpt>
      <trkpt lat="48.16856" lon="-1.23532">
        <ele>133</ele>
        <time>2010-08-01T07:09:34Z</time>
      </trkpt>
      <trkpt lat="48.16853" lon="-1.23526">
        <ele>133</ele>
        <time>2010-08-01T07:09:35Z</time>
      </trkpt>
      <trkpt lat="48.16849" lon="-1.23521">
        <ele>133</ele>
        <time>2010-08-01T07:09:36Z</time>
      </trkpt>
      <trkpt lat="48.16842" lon="-1.2351">
        <ele>132</ele>
        <time>2010-08-01T07:09:38Z</time>
      </trkpt>
      <trkpt lat="48.16837" lon="-1.23502">
        <ele>131</ele>
        <time>2010-08-01T07:09:40Z</time>
      </trkpt>
      <trkpt lat="48.16833" lon="-1.23495">
        <ele>131</ele>
        <time>2010-08-01T07:09:42Z</time>
      </trkpt>
      <trkpt lat="48.16826" lon="-1.23486">
        <ele>131</ele>
        <time>2010-08-01T07:09:44Z</time>
      </trkpt>
      <trkpt lat="48.16822" lon="-1.23483">
        <ele>130</ele>
        <time>2010-08-01T07:09:45Z</time>
      </trkpt>
      <trkpt lat="48.16814" lon="-1.23473">
        <ele>130</ele>
        <time>2010-08-01T07:09:47Z</time>
      </trkpt>
      <trkpt lat="48.16811" lon="-1.23469">
        <ele>130</ele>
        <time>2010-08-01T07:09:48Z</time>
      </trkpt>
      <trkpt lat="48.16802" lon="-1.23458">
        <ele>129</ele>
        <time>2010-08-01T07:09:50Z</time>
      </trkpt>
      <trkpt lat="48.16795" lon="-1.23447">
        <ele>128</ele>
        <time>2010-08-01T07:09:52Z</time>
      </trkpt>
      <trkpt lat="48.16791" lon="-1.23445">
        <ele>128</ele>
        <time>2010-08-01T07:09:53Z</time>
      </trkpt>
      <trkpt lat="48.16787" lon="-1.23439">
        <ele>128</ele>
        <time>2010-08-01T07:09:54Z</time>
      </trkpt>
      <trkpt lat="48.16779" lon="-1.23434">
        <ele>127</ele>
        <time>2010-08-01T07:09:56Z</time>
      </trkpt>
      <trkpt lat="48.16773" lon="-1.23433">
        <ele>127</ele>
        <time>2010-08-01T07:09:57Z</time>
      </trkpt>
      <trkpt lat="48.16768" lon="-1.23431">
        <ele>126</ele>
        <time>2010-08-01T07:09:58Z</time>
      </trkpt>
      <trkpt lat="48.16763" lon="-1.23427">
        <ele>126</ele>
        <time>2010-08-01T07:09:59Z</time>
      </trkpt>
      <trkpt lat="48.16749" lon="-1.23421">
        <ele>125</ele>
        <time>2010-08-01T07:10:01Z</time>
      </trkpt>
      <trkpt lat="48.16744" lon="-1.23415">
        <ele>124</ele>
        <time>2010-08-01T07:10:02Z</time>
      </trkpt>
      <trkpt lat="48.16738" lon="-1.23411">
        <ele>124</ele>
        <time>2010-08-01T07:10:03Z</time>
      </trkpt>
      <trkpt lat="48.16728" lon="-1.23405">
        <ele>123</ele>
        <time>2010-08-01T07:10:05Z</time>
      </trkpt>
      <trkpt lat="48.16721" lon="-1.23403">
        <ele>122</ele>
        <time>2010-08-01T07:10:06Z</time>
      </trkpt>
      <trkpt lat="48.16714" lon="-1.23397">
        <ele>121</ele>
        <time>2010-08-01T07:10:07Z</time>
      </trkpt>
      <trkpt lat="48.16707" lon="-1.23391">
        <ele>120</ele>
        <time>2010-08-01T07:10:08Z</time>
      </trkpt>
      <trkpt lat="48.16695" lon="-1.23376">
        <ele>119</ele>
        <time>2010-08-01T07:10:10Z</time>
      </trkpt>
      <trkpt lat="48.16688" lon="-1.23369">
        <ele>117</ele>
        <time>2010-08-01T07:10:11Z</time>
      </trkpt>
      <trkpt lat="48.16681" lon="-1.23362">
        <ele>117</ele>
        <time>2010-08-01T07:10:12Z</time>
      </trkpt>
      <trkpt lat="48.16674" lon="-1.23354">
        <ele>116</ele>
        <time>2010-08-01T07:10:13Z</time>
      </trkpt>
      <trkpt lat="48.16655" lon="-1.23327">
        <ele>114</ele>
        <time>2010-08-01T07:10:16Z</time>
      </trkpt>
      <trkpt lat="48.16642" lon="-1.23311">
        <ele>112</ele>
        <time>2010-08-01T07:10:18Z</time>
      </trkpt>
      <trkpt lat="48.16634" lon="-1.23302">
        <ele>112</ele>
        <time>2010-08-01T07:10:19Z</time>
      </trkpt>
      <trkpt lat="48.16616" lon="-1.2327">
        <ele>111</ele>
        <time>2010-08-01T07:10:22Z</time>
      </trkpt>
      <trkpt lat="48.16604" lon="-1.23249">
        <ele>110</ele>
        <time>2010-08-01T07:10:24Z</time>
      </trkpt>
      <trkpt lat="48.16593" lon="-1.23229">
        <ele>109</ele>
        <time>2010-08-01T07:10:26Z</time>
      </trkpt>
      <trkpt lat="48.16583" lon="-1.2321">
        <ele>109</ele>
        <time>2010-08-01T07:10:28Z</time>
      </trkpt>
      <trkpt lat="48.16572" lon="-1.23193">
        <ele>108</ele>
        <time>2010-08-01T07:10:30Z</time>
      </trkpt>
      <trkpt lat="48.16567" lon="-1.23186">
        <ele>108</ele>
        <time>2010-08-01T07:10:31Z</time>
      </trkpt>
      <trkpt lat="48.16562" lon="-1.2318">
        <ele>108</ele>
        <time>2010-08-01T07:10:32Z</time>
      </trkpt>
      <trkpt lat="48.16551" lon="-1.23169">
        <ele>108</ele>
        <time>2010-08-01T07:10:34Z</time>
      </trkpt>
      <trkpt lat="48.1654" lon="-1.23158">
        <ele>108</ele>
        <time>2010-08-01T07:10:36Z</time>
      </trkpt>
      <trkpt lat="48.16528" lon="-1.23146">
        <ele>107</ele>
        <time>2010-08-01T07:10:38Z</time>
      </trkpt>
      <trkpt lat="48.16522" lon="-1.2314">
        <ele>107</ele>
        <time>2010-08-01T07:10:39Z</time>
      </trkpt>
      <trkpt lat="48.16484" lon="-1.23092">
        <ele>105</ele>
        <time>2010-08-01T07:10:46Z</time>
      </trkpt>
      <trkpt lat="48.16474" lon="-1.23078">
        <ele>104</ele>
        <time>2010-08-01T07:10:48Z</time>
      </trkpt>
      <trkpt lat="48.16469" lon="-1.2307">
        <ele>104</ele>
        <time>2010-08-01T07:10:49Z</time>
      </trkpt>
      <trkpt lat="48.16464" lon="-1.23062">
        <ele>103</ele>
        <time>2010-08-01T07:10:50Z</time>
      </trkpt>
      <trkpt lat="48.16456" lon="-1.23042">
        <ele>102</ele>
        <time>2010-08-01T07:10:52Z</time>
      </trkpt>
      <trkpt lat="48.16453" lon="-1.23034">
        <ele>102</ele>
        <time>2010-08-01T07:10:53Z</time>
      </trkpt>
      <trkpt lat="48.1645" lon="-1.23027">
        <ele>102</ele>
        <time>2010-08-01T07:10:54Z</time>
      </trkpt>
      <trkpt lat="48.1644" lon="-1.23024">
        <ele>102</ele>
        <time>2010-08-01T07:10:56Z</time>
      </trkpt>
      <trkpt lat="48.16429" lon="-1.23025">
        <ele>102</ele>
        <time>2010-08-01T07:10:58Z</time>
      </trkpt>
      <trkpt lat="48.1642" lon="-1.23025">
        <ele>102</ele>
        <time>2010-08-01T07:11:00Z</time>
      </trkpt>
      <trkpt lat="48.16408" lon="-1.2302">
        <ele>102</ele>
        <time>2010-08-01T07:11:04Z</time>
      </trkpt>
      <trkpt lat="48.16405" lon="-1.23016">
        <ele>101</ele>
        <time>2010-08-01T07:11:05Z</time>
      </trkpt>
      <trkpt lat="48.16396" lon="-1.2301">
        <ele>101</ele>
        <time>2010-08-01T07:11:07Z</time>
      </trkpt>
      <trkpt lat="48.16384" lon="-1.23">
        <ele>100</ele>
        <time>2010-08-01T07:11:09Z</time>
      </trkpt>
      <trkpt lat="48.16372" lon="-1.22988">
        <ele>99</ele>
        <time>2010-08-01T07:11:11Z</time>
      </trkpt>
      <trkpt lat="48.16366" lon="-1.22981">
        <ele>98</ele>
        <time>2010-08-01T07:11:12Z</time>
      </trkpt>
      <trkpt lat="48.16342" lon="-1.22965">
        <ele>95</ele>
        <time>2010-08-01T07:11:15Z</time>
      </trkpt>
      <trkpt lat="48.16333" lon="-1.2296">
        <ele>94</ele>
        <time>2010-08-01T07:11:16Z</time>
      </trkpt>
      <trkpt lat="48.16316" lon="-1.22948">
        <ele>92</ele>
        <time>2010-08-01T07:11:18Z</time>
      </trkpt>
      <trkpt lat="48.16308" lon="-1.22942">
        <ele>92</ele>
        <time>2010-08-01T07:11:19Z</time>
      </trkpt>
      <trkpt lat="48.16289" lon="-1.22927">
        <ele>89</ele>
        <time>2010-08-01T07:11:21Z</time>
      </trkpt>
      <trkpt lat="48.1628" lon="-1.22917">
        <ele>88</ele>
        <time>2010-08-01T07:11:22Z</time>
      </trkpt>
      <trkpt lat="48.16261" lon="-1.22898">
        <ele>85</ele>
        <time>2010-08-01T07:11:24Z</time>
      </trkpt>
      <trkpt lat="48.16244" lon="-1.22878">
        <ele>82</ele>
        <time>2010-08-01T07:11:26Z</time>
      </trkpt>
      <trkpt lat="48.1623" lon="-1.22863">
        <ele>80</ele>
        <time>2010-08-01T07:11:28Z</time>
      </trkpt>
      <trkpt lat="48.16223" lon="-1.22858">
        <ele>79</ele>
        <time>2010-08-01T07:11:29Z</time>
      </trkpt>
      <trkpt lat="48.16217" lon="-1.22853">
        <ele>78</ele>
        <time>2010-08-01T07:11:30Z</time>
      </trkpt>
      <trkpt lat="48.16204" lon="-1.22843">
        <ele>77</ele>
        <time>2010-08-01T07:11:32Z</time>
      </trkpt>
      <trkpt lat="48.1619" lon="-1.22833">
        <ele>76</ele>
        <time>2010-08-01T07:11:34Z</time>
      </trkpt>
      <trkpt lat="48.16185" lon="-1.22829">
        <ele>76</ele>
        <time>2010-08-01T07:11:35Z</time>
      </trkpt>
      <trkpt lat="48.16166" lon="-1.22819">
        <ele>74</ele>
        <time>2010-08-01T07:11:38Z</time>
      </trkpt>
      <trkpt lat="48.16155" lon="-1.22814">
        <ele>74</ele>
        <time>2010-08-01T07:11:40Z</time>
      </trkpt>
      <trkpt lat="48.16151" lon="-1.22814">
        <ele>74</ele>
        <time>2010-08-01T07:11:41Z</time>
      </trkpt>
      <trkpt lat="48.16146" lon="-1.22812">
        <ele>74</ele>
        <time>2010-08-01T07:11:42Z</time>
      </trkpt>
      <trkpt lat="48.16135" lon="-1.22814">
        <ele>75</ele>
        <time>2010-08-01T07:11:45Z</time>
      </trkpt>
      <trkpt lat="48.1613" lon="-1.22815">
        <ele>75</ele>
        <time>2010-08-01T07:11:46Z</time>
      </trkpt>
      <trkpt lat="48.16112" lon="-1.22812">
        <ele>75</ele>
        <time>2010-08-01T07:11:50Z</time>
      </trkpt>
      <trkpt lat="48.16097" lon="-1.22808">
        <ele>76</ele>
        <time>2010-08-01T07:11:54Z</time>
      </trkpt>
      <trkpt lat="48.16083" lon="-1.22798">
        <ele>77</ele>
        <time>2010-08-01T07:11:58Z</time>
      </trkpt>
      <trkpt lat="48.16064" lon="-1.2279">
        <ele>79</ele>
        <time>2010-08-01T07:12:03Z</time>
      </trkpt>
      <trkpt lat="48.16055" lon="-1.22787">
        <ele>80</ele>
        <time>2010-08-01T07:12:06Z</time>
      </trkpt>
      <trkpt lat="48.16049" lon="-1.22784">
        <ele>81</ele>
        <time>2010-08-01T07:12:08Z</time>
      </trkpt>
      <trkpt lat="48.16043" lon="-1.22782">
        <ele>81</ele>
        <time>2010-08-01T07:12:10Z</time>
      </trkpt>
      <trkpt lat="48.16037" lon="-1.22781">
        <ele>82</ele>
        <time>2010-08-01T07:12:12Z</time>
      </trkpt>
      <trkpt lat="48.16031" lon="-1.2278">
        <ele>82</ele>
        <time>2010-08-01T07:12:14Z</time>
      </trkpt>
      <trkpt lat="48.16026" lon="-1.22779">
        <ele>83</ele>
        <time>2010-08-01T07:12:16Z</time>
      </trkpt>
      <trkpt lat="48.16021" lon="-1.22775">
        <ele>84</ele>
        <time>2010-08-01T07:12:18Z</time>
      </trkpt>
      <trkpt lat="48.16015" lon="-1.22773">
        <ele>84</ele>
        <time>2010-08-01T07:12:20Z</time>
      </trkpt>
      <trkpt lat="48.1601" lon="-1.22771">
        <ele>85</ele>
        <time>2010-08-01T07:12:22Z</time>
      </trkpt>
      <trkpt lat="48.16006" lon="-1.2277">
        <ele>85</ele>
        <time>2010-08-01T07:12:24Z</time>
      </trkpt>
      <trkpt lat="48.16001" lon="-1.22768">
        <ele>86</ele>
        <time>2010-08-01T07:12:26Z</time>
      </trkpt>
      <trkpt lat="48.15995" lon="-1.22766">
        <ele>86</ele>
        <time>2010-08-01T07:12:28Z</time>
      </trkpt>
      <trkpt lat="48.1599" lon="-1.22763">
        <ele>87</ele>
        <time>2010-08-01T07:12:30Z</time>
      </trkpt>
      <trkpt lat="48.15985" lon="-1.22762">
        <ele>88</ele>
        <time>2010-08-01T07:12:32Z</time>
      </trkpt>
      <trkpt lat="48.15979" lon="-1.2276">
        <ele>88</ele>
        <time>2010-08-01T07:12:34Z</time>
      </trkpt>
      <trkpt lat="48.15973" lon="-1.22758">
        <ele>89</ele>
        <time>2010-08-01T07:12:36Z</time>
      </trkpt>
      <trkpt lat="48.15968" lon="-1.22756">
        <ele>89</ele>
        <time>2010-08-01T07:12:38Z</time>
      </trkpt>
      <trkpt lat="48.15963" lon="-1.22753">
        <ele>90</ele>
        <time>2010-08-01T07:12:40Z</time>
      </trkpt>
      <trkpt lat="48.15958" lon="-1.22751">
        <ele>90</ele>
        <time>2010-08-01T07:12:42Z</time>
      </trkpt>
      <trkpt lat="48.15953" lon="-1.22749">
        <ele>90</ele>
        <time>2010-08-01T07:12:44Z</time>
      </trkpt>
      <trkpt lat="48.1594" lon="-1.2274">
        <ele>91</ele>
        <time>2010-08-01T07:12:49Z</time>
      </trkpt>
      <trkpt lat="48.15936" lon="-1.22737">
        <ele>92</ele>
        <time>2010-08-01T07:12:51Z</time>
      </trkpt>
      <trkpt lat="48.15932" lon="-1.22736">
        <ele>92</ele>
        <time>2010-08-01T07:12:53Z</time>
      </trkpt>
      <trkpt lat="48.15931" lon="-1.22735">
        <ele>92</ele>
        <time>2010-08-01T07:12:54Z</time>
      </trkpt>
      <trkpt lat="48.1593" lon="-1.22734">
        <ele>92</ele>
        <time>2010-08-01T07:12:55Z</time>
      </trkpt>
      <trkpt lat="48.15925" lon="-1.22731">
        <ele>92</ele>
        <time>2010-08-01T07:12:57Z</time>
      </trkpt>
      <trkpt lat="48.15911" lon="-1.22721">
        <ele>93</ele>
        <time>2010-08-01T07:13:02Z</time>
      </trkpt>
      <trkpt lat="48.15905" lon="-1.22716">
        <ele>93</ele>
        <time>2010-08-01T07:13:04Z</time>
      </trkpt>
      <trkpt lat="48.15901" lon="-1.22712">
        <ele>93</ele>
        <time>2010-08-01T07:13:06Z</time>
      </trkpt>
      <trkpt lat="48.15896" lon="-1.22708">
        <ele>93</ele>
        <time>2010-08-01T07:13:08Z</time>
      </trkpt>
      <trkpt lat="48.1589" lon="-1.22705">
        <ele>93</ele>
        <time>2010-08-01T07:13:10Z</time>
      </trkpt>
      <trkpt lat="48.15883" lon="-1.22702">
        <ele>94</ele>
        <time>2010-08-01T07:13:12Z</time>
      </trkpt>
      <trkpt lat="48.1587" lon="-1.22692">
        <ele>94</ele>
        <time>2010-08-01T07:13:16Z</time>
      </trkpt>
      <trkpt lat="48.15866" lon="-1.22689">
        <ele>94</ele>
        <time>2010-08-01T07:13:17Z</time>
      </trkpt>
      <trkpt lat="48.15862" lon="-1.22686">
        <ele>94</ele>
        <time>2010-08-01T07:13:18Z</time>
      </trkpt>
      <trkpt lat="48.1585" lon="-1.22675">
        <ele>95</ele>
        <time>2010-08-01T07:13:21Z</time>
      </trkpt>
      <trkpt lat="48.15842" lon="-1.22669">
        <ele>95</ele>
        <time>2010-08-01T07:13:23Z</time>
      </trkpt>
      <trkpt lat="48.15833" lon="-1.22663">
        <ele>96</ele>
        <time>2010-08-01T07:13:25Z</time>
      </trkpt>
      <trkpt lat="48.15826" lon="-1.22657">
        <ele>96</ele>
        <time>2010-08-01T07:13:27Z</time>
      </trkpt>
      <trkpt lat="48.15805" lon="-1.22638">
        <ele>97</ele>
        <time>2010-08-01T07:13:33Z</time>
      </trkpt>
      <trkpt lat="48.15798" lon="-1.22633">
        <ele>97</ele>
        <time>2010-08-01T07:13:35Z</time>
      </trkpt>
      <trkpt lat="48.15791" lon="-1.22627">
        <ele>98</ele>
        <time>2010-08-01T07:13:37Z</time>
      </trkpt>
      <trkpt lat="48.15784" lon="-1.22621">
        <ele>98</ele>
        <time>2010-08-01T07:13:39Z</time>
      </trkpt>
      <trkpt lat="48.15777" lon="-1.22618">
        <ele>99</ele>
        <time>2010-08-01T07:13:41Z</time>
      </trkpt>
      <trkpt lat="48.1576" lon="-1.22604">
        <ele>100</ele>
        <time>2010-08-01T07:13:46Z</time>
      </trkpt>
      <trkpt lat="48.15754" lon="-1.22598">
        <ele>100</ele>
        <time>2010-08-01T07:13:48Z</time>
      </trkpt>
      <trkpt lat="48.15751" lon="-1.22597">
        <ele>101</ele>
        <time>2010-08-01T07:13:49Z</time>
      </trkpt>
      <trkpt lat="48.1574" lon="-1.22589">
        <ele>101</ele>
        <time>2010-08-01T07:13:52Z</time>
      </trkpt>
      <trkpt lat="48.15732" lon="-1.22583">
        <ele>102</ele>
        <time>2010-08-01T07:13:54Z</time>
      </trkpt>
      <trkpt lat="48.15726" lon="-1.22577">
        <ele>102</ele>
        <time>2010-08-01T07:13:56Z</time>
      </trkpt>
      <trkpt lat="48.15719" lon="-1.22571">
        <ele>102</ele>
        <time>2010-08-01T07:13:58Z</time>
      </trkpt>
      <trkpt lat="48.15712" lon="-1.22565">
        <ele>103</ele>
        <time>2010-08-01T07:14:00Z</time>
      </trkpt>
      <trkpt lat="48.15705" lon="-1.22561">
        <ele>103</ele>
        <time>2010-08-01T07:14:02Z</time>
      </trkpt>
      <trkpt lat="48.15697" lon="-1.22556">
        <ele>104</ele>
        <time>2010-08-01T07:14:04Z</time>
      </trkpt>
      <trkpt lat="48.15679" lon="-1.22543">
        <ele>105</ele>
        <time>2010-08-01T07:14:09Z</time>
      </trkpt>
      <trkpt lat="48.15671" lon="-1.22538">
        <ele>105</ele>
        <time>2010-08-01T07:14:11Z</time>
      </trkpt>
      <trkpt lat="48.15663" lon="-1.22532">
        <ele>105</ele>
        <time>2010-08-01T07:14:13Z</time>
      </trkpt>
      <trkpt lat="48.15656" lon="-1.22525">
        <ele>106</ele>
        <time>2010-08-01T07:14:15Z</time>
      </trkpt>
      <trkpt lat="48.15649" lon="-1.22519">
        <ele>106</ele>
        <time>2010-08-01T07:14:17Z</time>
      </trkpt>
      <trkpt lat="48.15641" lon="-1.22514">
        <ele>106</ele>
        <time>2010-08-01T07:14:19Z</time>
      </trkpt>
      <trkpt lat="48.15632" lon="-1.2251">
        <ele>106</ele>
        <time>2010-08-01T07:14:21Z</time>
      </trkpt>
      <trkpt lat="48.15625" lon="-1.22505">
        <ele>106</ele>
        <time>2010-08-01T07:14:23Z</time>
      </trkpt>
      <trkpt lat="48.15617" lon="-1.225">
        <ele>106</ele>
        <time>2010-08-01T07:14:25Z</time>
      </trkpt>
      <trkpt lat="48.15609" lon="-1.22496">
        <ele>106</ele>
        <time>2010-08-01T07:14:27Z</time>
      </trkpt>
      <trkpt lat="48.15602" lon="-1.22491">
        <ele>106</ele>
        <time>2010-08-01T07:14:29Z</time>
      </trkpt>
      <trkpt lat="48.15591" lon="-1.22479">
        <ele>106</ele>
        <time>2010-08-01T07:14:32Z</time>
      </trkpt>
      <trkpt lat="48.1558" lon="-1.22475">
        <ele>106</ele>
        <time>2010-08-01T07:14:36Z</time>
      </trkpt>
      <trkpt lat="48.15578" lon="-1.22487">
        <ele>106</ele>
        <time>2010-08-01T07:14:39Z</time>
      </trkpt>
      <trkpt lat="48.15578" lon="-1.22493">
        <ele>106</ele>
        <time>2010-08-01T07:14:40Z</time>
      </trkpt>
      <trkpt lat="48.1558" lon="-1.225">
        <ele>107</ele>
        <time>2010-08-01T07:14:41Z</time>
      </trkpt>
      <trkpt lat="48.15581" lon="-1.22526">
        <ele>108</ele>
        <time>2010-08-01T07:14:45Z</time>
      </trkpt>
      <trkpt lat="48.1558" lon="-1.22537">
        <ele>108</ele>
        <time>2010-08-01T07:14:47Z</time>
      </trkpt>
      <trkpt lat="48.1558" lon="-1.22548">
        <ele>109</ele>
        <time>2010-08-01T07:14:49Z</time>
      </trkpt>
      <trkpt lat="48.15579" lon="-1.2256">
        <ele>109</ele>
        <time>2010-08-01T07:14:51Z</time>
      </trkpt>
      <trkpt lat="48.15579" lon="-1.22565">
        <ele>110</ele>
        <time>2010-08-01T07:14:52Z</time>
      </trkpt>
      <trkpt lat="48.15577" lon="-1.22579">
        <ele>110</ele>
        <time>2010-08-01T07:14:54Z</time>
      </trkpt>
      <trkpt lat="48.15577" lon="-1.22587">
        <ele>111</ele>
        <time>2010-08-01T07:14:56Z</time>
      </trkpt>
      <trkpt lat="48.15575" lon="-1.22598">
        <ele>111</ele>
        <time>2010-08-01T07:14:58Z</time>
      </trkpt>
      <trkpt lat="48.15575" lon="-1.22608">
        <ele>112</ele>
        <time>2010-08-01T07:15:00Z</time>
      </trkpt>
      <trkpt lat="48.15574" lon="-1.22619">
        <ele>112</ele>
        <time>2010-08-01T07:15:02Z</time>
      </trkpt>
      <trkpt lat="48.15574" lon="-1.22629">
        <ele>112</ele>
        <time>2010-08-01T07:15:04Z</time>
      </trkpt>
      <trkpt lat="48.15573" lon="-1.22639">
        <ele>113</ele>
        <time>2010-08-01T07:15:06Z</time>
      </trkpt>
      <trkpt lat="48.15572" lon="-1.22649">
        <ele>113</ele>
        <time>2010-08-01T07:15:08Z</time>
      </trkpt>
      <trkpt lat="48.15571" lon="-1.2266">
        <ele>114</ele>
        <time>2010-08-01T07:15:10Z</time>
      </trkpt>
      <trkpt lat="48.15571" lon="-1.2267">
        <ele>114</ele>
        <time>2010-08-01T07:15:12Z</time>
      </trkpt>
      <trkpt lat="48.15571" lon="-1.22681">
        <ele>114</ele>
        <time>2010-08-01T07:15:14Z</time>
      </trkpt>
      <trkpt lat="48.15571" lon="-1.22691">
        <ele>115</ele>
        <time>2010-08-01T07:15:16Z</time>
      </trkpt>
      <trkpt lat="48.1557" lon="-1.22701">
        <ele>115</ele>
        <time>2010-08-01T07:15:18Z</time>
      </trkpt>
      <trkpt lat="48.1557" lon="-1.22717">
        <ele>115</ele>
        <time>2010-08-01T07:15:21Z</time>
      </trkpt>
      <trkpt lat="48.15569" lon="-1.22727">
        <ele>116</ele>
        <time>2010-08-01T07:15:23Z</time>
      </trkpt>
      <trkpt lat="48.15569" lon="-1.22738">
        <ele>116</ele>
        <time>2010-08-01T07:15:25Z</time>
      </trkpt>
      <trkpt lat="48.15568" lon="-1.2275">
        <ele>116</ele>
        <time>2010-08-01T07:15:27Z</time>
      </trkpt>
      <trkpt lat="48.15567" lon="-1.22763">
        <ele>116</ele>
        <time>2010-08-01T07:15:29Z</time>
      </trkpt>
      <trkpt lat="48.15566" lon="-1.22803">
        <ele>117</ele>
        <time>2010-08-01T07:15:35Z</time>
      </trkpt>
      <trkpt lat="48.15565" lon="-1.22823">
        <ele>117</ele>
        <time>2010-08-01T07:15:38Z</time>
      </trkpt>
      <trkpt lat="48.15563" lon="-1.22836">
        <ele>117</ele>
        <time>2010-08-01T07:15:40Z</time>
      </trkpt>
      <trkpt lat="48.15562" lon="-1.22853">
        <ele>117</ele>
        <time>2010-08-01T07:15:42Z</time>
      </trkpt>
      <trkpt lat="48.15561" lon="-1.22867">
        <ele>117</ele>
        <time>2010-08-01T07:15:44Z</time>
      </trkpt>
      <trkpt lat="48.15559" lon="-1.22882">
        <ele>117</ele>
        <time>2010-08-01T07:15:46Z</time>
      </trkpt>
      <trkpt lat="48.15556" lon="-1.22955">
        <ele>118</ele>
        <time>2010-08-01T07:15:56Z</time>
      </trkpt>
      <trkpt lat="48.15555" lon="-1.22976">
        <ele>119</ele>
        <time>2010-08-01T07:15:59Z</time>
      </trkpt>
      <trkpt lat="48.15554" lon="-1.22988">
        <ele>119</ele>
        <time>2010-08-01T07:16:01Z</time>
      </trkpt>
      <trkpt lat="48.15554" lon="-1.22996">
        <ele>119</ele>
        <time>2010-08-01T07:16:02Z</time>
      </trkpt>
      <trkpt lat="48.15554" lon="-1.23001">
        <ele>119</ele>
        <time>2010-08-01T07:16:03Z</time>
      </trkpt>
      <trkpt lat="48.15556" lon="-1.23011">
        <ele>119</ele>
        <time>2010-08-01T07:16:05Z</time>
      </trkpt>
      <trkpt lat="48.15558" lon="-1.23021">
        <ele>119</ele>
        <time>2010-08-01T07:16:07Z</time>
      </trkpt>
      <trkpt lat="48.15558" lon="-1.23028">
        <ele>119</ele>
        <time>2010-08-01T07:16:08Z</time>
      </trkpt>
      <trkpt lat="48.15555" lon="-1.23054">
        <ele>119</ele>
        <time>2010-08-01T07:16:12Z</time>
      </trkpt>
      <trkpt lat="48.15548" lon="-1.23096">
        <ele>119</ele>
        <time>2010-08-01T07:16:18Z</time>
      </trkpt>
      <trkpt lat="48.15549" lon="-1.23102">
        <ele>119</ele>
        <time>2010-08-01T07:16:19Z</time>
      </trkpt>
      <trkpt lat="48.15544" lon="-1.23126">
        <ele>119</ele>
        <time>2010-08-01T07:16:22Z</time>
      </trkpt>
      <trkpt lat="48.1554" lon="-1.23175">
        <ele>118</ele>
        <time>2010-08-01T07:16:27Z</time>
      </trkpt>
      <trkpt lat="48.1554" lon="-1.23197">
        <ele>118</ele>
        <time>2010-08-01T07:16:29Z</time>
      </trkpt>
      <trkpt lat="48.15547" lon="-1.23256">
        <ele>117</ele>
        <time>2010-08-01T07:16:34Z</time>
      </trkpt>
      <trkpt lat="48.1555" lon="-1.233">
        <ele>116</ele>
        <time>2010-08-01T07:16:37Z</time>
      </trkpt>
      <trkpt lat="48.15555" lon="-1.23353">
        <ele>115</ele>
        <time>2010-08-01T07:16:41Z</time>
      </trkpt>
      <trkpt lat="48.15559" lon="-1.23374">
        <ele>114</ele>
        <time>2010-08-01T07:16:43Z</time>
      </trkpt>
      <trkpt lat="48.1556" lon="-1.23383">
        <ele>114</ele>
        <time>2010-08-01T07:16:44Z</time>
      </trkpt>
      <trkpt lat="48.15551" lon="-1.23403">
        <ele>113</ele>
        <time>2010-08-01T07:16:47Z</time>
      </trkpt>
      <trkpt lat="48.15545" lon="-1.23408">
        <ele>112</ele>
        <time>2010-08-01T07:16:48Z</time>
      </trkpt>
      <trkpt lat="48.15522" lon="-1.23424">
        <ele>111</ele>
        <time>2010-08-01T07:16:51Z</time>
      </trkpt>
      <trkpt lat="48.15515" lon="-1.23429">
        <ele>111</ele>
        <time>2010-08-01T07:16:52Z</time>
      </trkpt>
      <trkpt lat="48.15506" lon="-1.23435">
        <ele>110</ele>
        <time>2010-08-01T07:16:53Z</time>
      </trkpt>
      <trkpt lat="48.15482" lon="-1.23446">
        <ele>108</ele>
        <time>2010-08-01T07:16:56Z</time>
      </trkpt>
      <trkpt lat="48.15475" lon="-1.23443">
        <ele>107</ele>
        <time>2010-08-01T07:16:57Z</time>
      </trkpt>
      <trkpt lat="48.15468" lon="-1.23437">
        <ele>106</ele>
        <time>2010-08-01T07:16:58Z</time>
      </trkpt>
      <trkpt lat="48.15463" lon="-1.23429">
        <ele>106</ele>
        <time>2010-08-01T07:16:59Z</time>
      </trkpt>
      <trkpt lat="48.15455" lon="-1.23408">
        <ele>105</ele>
        <time>2010-08-01T07:17:01Z</time>
      </trkpt>
      <trkpt lat="48.15451" lon="-1.23396">
        <ele>104</ele>
        <time>2010-08-01T07:17:02Z</time>
      </trkpt>
      <trkpt lat="48.15448" lon="-1.23384">
        <ele>104</ele>
        <time>2010-08-01T07:17:03Z</time>
      </trkpt>
      <trkpt lat="48.15445" lon="-1.23373">
        <ele>104</ele>
        <time>2010-08-01T07:17:04Z</time>
      </trkpt>
      <trkpt lat="48.15438" lon="-1.23349">
        <ele>103</ele>
        <time>2010-08-01T07:17:06Z</time>
      </trkpt>
      <trkpt lat="48.15432" lon="-1.23326">
        <ele>102</ele>
        <time>2010-08-01T07:17:08Z</time>
      </trkpt>
      <trkpt lat="48.1543" lon="-1.23314">
        <ele>102</ele>
        <time>2010-08-01T07:17:09Z</time>
      </trkpt>
      <trkpt lat="48.15427" lon="-1.2329">
        <ele>101</ele>
        <time>2010-08-01T07:17:11Z</time>
      </trkpt>
      <trkpt lat="48.15426" lon="-1.2328">
        <ele>101</ele>
        <time>2010-08-01T07:17:12Z</time>
      </trkpt>
      <trkpt lat="48.15415" lon="-1.23264">
        <ele>100</ele>
        <time>2010-08-01T07:17:15Z</time>
      </trkpt>
      <trkpt lat="48.15402" lon="-1.23264">
        <ele>99</ele>
        <time>2010-08-01T07:17:17Z</time>
      </trkpt>
      <trkpt lat="48.15395" lon="-1.23265">
        <ele>98</ele>
        <time>2010-08-01T07:17:18Z</time>
      </trkpt>
      <trkpt lat="48.15388" lon="-1.23265">
        <ele>98</ele>
        <time>2010-08-01T07:17:19Z</time>
      </trkpt>
      <trkpt lat="48.15374" lon="-1.23264">
        <ele>97</ele>
        <time>2010-08-01T07:17:21Z</time>
      </trkpt>
      <trkpt lat="48.15359" lon="-1.23263">
        <ele>95</ele>
        <time>2010-08-01T07:17:23Z</time>
      </trkpt>
      <trkpt lat="48.15343" lon="-1.2326">
        <ele>94</ele>
        <time>2010-08-01T07:17:25Z</time>
      </trkpt>
      <trkpt lat="48.15335" lon="-1.23259">
        <ele>93</ele>
        <time>2010-08-01T07:17:26Z</time>
      </trkpt>
      <trkpt lat="48.15319" lon="-1.23257">
        <ele>92</ele>
        <time>2010-08-01T07:17:28Z</time>
      </trkpt>
      <trkpt lat="48.15302" lon="-1.23255">
        <ele>91</ele>
        <time>2010-08-01T07:17:30Z</time>
      </trkpt>
      <trkpt lat="48.15294" lon="-1.23254">
        <ele>90</ele>
        <time>2010-08-01T07:17:31Z</time>
      </trkpt>
      <trkpt lat="48.15277" lon="-1.23252">
        <ele>89</ele>
        <time>2010-08-01T07:17:33Z</time>
      </trkpt>
      <trkpt lat="48.15268" lon="-1.23251">
        <ele>88</ele>
        <time>2010-08-01T07:17:34Z</time>
      </trkpt>
      <trkpt lat="48.1525" lon="-1.23249">
        <ele>86</ele>
        <time>2010-08-01T07:17:36Z</time>
      </trkpt>
      <trkpt lat="48.15231" lon="-1.23246">
        <ele>85</ele>
        <time>2010-08-01T07:17:38Z</time>
      </trkpt>
      <trkpt lat="48.15211" lon="-1.23243">
        <ele>83</ele>
        <time>2010-08-01T07:17:40Z</time>
      </trkpt>
      <trkpt lat="48.15201" lon="-1.23241">
        <ele>82</ele>
        <time>2010-08-01T07:17:41Z</time>
      </trkpt>
      <trkpt lat="48.15179" lon="-1.23238">
        <ele>79</ele>
        <time>2010-08-01T07:17:43Z</time>
      </trkpt>
      <trkpt lat="48.15156" lon="-1.23233">
        <ele>76</ele>
        <time>2010-08-01T07:17:45Z</time>
      </trkpt>
      <trkpt lat="48.15135" lon="-1.2323">
        <ele>73</ele>
        <time>2010-08-01T07:17:47Z</time>
      </trkpt>
      <trkpt lat="48.15123" lon="-1.23228">
        <ele>72</ele>
        <time>2010-08-01T07:17:49Z</time>
      </trkpt>
      <trkpt lat="48.15117" lon="-1.2323">
        <ele>71</ele>
        <time>2010-08-01T07:17:50Z</time>
      </trkpt>
      <trkpt lat="48.15114" lon="-1.23234">
        <ele>70</ele>
        <time>2010-08-01T07:17:51Z</time>
      </trkpt>
      <trkpt lat="48.15112" lon="-1.23247">
        <ele>70</ele>
        <time>2010-08-01T07:17:53Z</time>
      </trkpt>
      <trkpt lat="48.15113" lon="-1.23257">
        <ele>70</ele>
        <time>2010-08-01T07:17:54Z</time>
      </trkpt>
      <trkpt lat="48.15116" lon="-1.23279">
        <ele>70</ele>
        <time>2010-08-01T07:17:56Z</time>
      </trkpt>
      <trkpt lat="48.15118" lon="-1.23291">
        <ele>70</ele>
        <time>2010-08-01T07:17:57Z</time>
      </trkpt>
      <trkpt lat="48.15121" lon="-1.23313">
        <ele>70</ele>
        <time>2010-08-01T07:17:59Z</time>
      </trkpt>
      <trkpt lat="48.15122" lon="-1.23335">
        <ele>69</ele>
        <time>2010-08-01T07:18:01Z</time>
      </trkpt>
      <trkpt lat="48.15124" lon="-1.23345">
        <ele>69</ele>
        <time>2010-08-01T07:18:02Z</time>
      </trkpt>
      <trkpt lat="48.15133" lon="-1.2337">
        <ele>69</ele>
        <time>2010-08-01T07:18:05Z</time>
      </trkpt>
      <trkpt lat="48.15145" lon="-1.23407">
        <ele>70</ele>
        <time>2010-08-01T07:18:10Z</time>
      </trkpt>
      <trkpt lat="48.1515" lon="-1.23421">
        <ele>70</ele>
        <time>2010-08-01T07:18:12Z</time>
      </trkpt>
      <trkpt lat="48.15151" lon="-1.23428">
        <ele>70</ele>
        <time>2010-08-01T07:18:13Z</time>
      </trkpt>
      <trkpt lat="48.15144" lon="-1.23451">
        <ele>68</ele>
        <time>2010-08-01T07:18:16Z</time>
      </trkpt>
      <trkpt lat="48.15137" lon="-1.23464">
        <ele>67</ele>
        <time>2010-08-01T07:18:18Z</time>
      </trkpt>
      <trkpt lat="48.15133" lon="-1.23471">
        <ele>67</ele>
        <time>2010-08-01T07:18:19Z</time>
      </trkpt>
      <trkpt lat="48.15124" lon="-1.23481">
        <ele>66</ele>
        <time>2010-08-01T07:18:22Z</time>
      </trkpt>
      <trkpt lat="48.1512" lon="-1.23486">
        <ele>66</ele>
        <time>2010-08-01T07:18:23Z</time>
      </trkpt>
      <trkpt lat="48.15103" lon="-1.23493">
        <ele>66</ele>
        <time>2010-08-01T07:18:26Z</time>
      </trkpt>
      <trkpt lat="48.15099" lon="-1.23495">
        <ele>66</ele>
        <time>2010-08-01T07:18:27Z</time>
      </trkpt>
      <trkpt lat="48.15086" lon="-1.23494">
        <ele>68</ele>
        <time>2010-08-01T07:18:31Z</time>
      </trkpt>
      <trkpt lat="48.15083" lon="-1.23491">
        <ele>68</ele>
        <time>2010-08-01T07:18:32Z</time>
      </trkpt>
      <trkpt lat="48.15073" lon="-1.23481">
        <ele>69</ele>
        <time>2010-08-01T07:18:35Z</time>
      </trkpt>
      <trkpt lat="48.15068" lon="-1.23474">
        <ele>70</ele>
        <time>2010-08-01T07:18:37Z</time>
      </trkpt>
      <trkpt lat="48.15064" lon="-1.23471">
        <ele>70</ele>
        <time>2010-08-01T07:18:38Z</time>
      </trkpt>
      <trkpt lat="48.15061" lon="-1.23469">
        <ele>71</ele>
        <time>2010-08-01T07:18:39Z</time>
      </trkpt>
      <trkpt lat="48.15052" lon="-1.23466">
        <ele>71</ele>
        <time>2010-08-01T07:18:41Z</time>
      </trkpt>
      <trkpt lat="48.15049" lon="-1.23465">
        <ele>72</ele>
        <time>2010-08-01T07:18:42Z</time>
      </trkpt>
      <trkpt lat="48.15045" lon="-1.23462">
        <ele>72</ele>
        <time>2010-08-01T07:18:43Z</time>
      </trkpt>
      <trkpt lat="48.15042" lon="-1.23452">
        <ele>72</ele>
        <time>2010-08-01T07:18:45Z</time>
      </trkpt>
      <trkpt lat="48.1504" lon="-1.23447">
        <ele>73</ele>
        <time>2010-08-01T07:18:46Z</time>
      </trkpt>
      <trkpt lat="48.15039" lon="-1.23441">
        <ele>73</ele>
        <time>2010-08-01T07:18:47Z</time>
      </trkpt>
      <trkpt lat="48.15038" lon="-1.23435">
        <ele>73</ele>
        <time>2010-08-01T07:18:48Z</time>
      </trkpt>
      <trkpt lat="48.15035" lon="-1.23424">
        <ele>73</ele>
        <time>2010-08-01T07:18:50Z</time>
      </trkpt>
      <trkpt lat="48.15034" lon="-1.23418">
        <ele>73</ele>
        <time>2010-08-01T07:18:51Z</time>
      </trkpt>
      <trkpt lat="48.1503" lon="-1.23407">
        <ele>74</ele>
        <time>2010-08-01T07:18:53Z</time>
      </trkpt>
      <trkpt lat="48.15026" lon="-1.23404">
        <ele>74</ele>
        <time>2010-08-01T07:18:54Z</time>
      </trkpt>
      <trkpt lat="48.15022" lon="-1.23403">
        <ele>74</ele>
        <time>2010-08-01T07:18:55Z</time>
      </trkpt>
      <trkpt lat="48.15012" lon="-1.23402">
        <ele>75</ele>
        <time>2010-08-01T07:18:57Z</time>
      </trkpt>
      <trkpt lat="48.15008" lon="-1.23404">
        <ele>76</ele>
        <time>2010-08-01T07:18:58Z</time>
      </trkpt>
      <trkpt lat="48.15004" lon="-1.23404">
        <ele>76</ele>
        <time>2010-08-01T07:18:59Z</time>
      </trkpt>
      <trkpt lat="48.14993" lon="-1.23408">
        <ele>78</ele>
        <time>2010-08-01T07:19:02Z</time>
      </trkpt>
      <trkpt lat="48.14986" lon="-1.23409">
        <ele>79</ele>
        <time>2010-08-01T07:19:04Z</time>
      </trkpt>
      <trkpt lat="48.14982" lon="-1.2341">
        <ele>80</ele>
        <time>2010-08-01T07:19:05Z</time>
      </trkpt>
      <trkpt lat="48.14975" lon="-1.2341">
        <ele>81</ele>
        <time>2010-08-01T07:19:07Z</time>
      </trkpt>
      <trkpt lat="48.14968" lon="-1.23411">
        <ele>82</ele>
        <time>2010-08-01T07:19:09Z</time>
      </trkpt>
      <trkpt lat="48.14962" lon="-1.23412">
        <ele>83</ele>
        <time>2010-08-01T07:19:11Z</time>
      </trkpt>
      <trkpt lat="48.14957" lon="-1.23414">
        <ele>84</ele>
        <time>2010-08-01T07:19:13Z</time>
      </trkpt>
      <trkpt lat="48.14953" lon="-1.2342">
        <ele>85</ele>
        <time>2010-08-01T07:19:15Z</time>
      </trkpt>
      <trkpt lat="48.14952" lon="-1.23424">
        <ele>85</ele>
        <time>2010-08-01T07:19:16Z</time>
      </trkpt>
      <trkpt lat="48.14952" lon="-1.2343">
        <ele>85</ele>
        <time>2010-08-01T07:19:17Z</time>
      </trkpt>
      <trkpt lat="48.14954" lon="-1.23446">
        <ele>83</ele>
        <time>2010-08-01T07:19:19Z</time>
      </trkpt>
      <trkpt lat="48.14957" lon="-1.23465">
        <ele>81</ele>
        <time>2010-08-01T07:19:21Z</time>
      </trkpt>
      <trkpt lat="48.14956" lon="-1.23475">
        <ele>81</ele>
        <time>2010-08-01T07:19:22Z</time>
      </trkpt>
      <trkpt lat="48.14952" lon="-1.23483">
        <ele>81</ele>
        <time>2010-08-01T07:19:23Z</time>
      </trkpt>
      <trkpt lat="48.14944" lon="-1.23492">
        <ele>82</ele>
        <time>2010-08-01T07:19:25Z</time>
      </trkpt>
      <trkpt lat="48.1494" lon="-1.23495">
        <ele>83</ele>
        <time>2010-08-01T07:19:26Z</time>
      </trkpt>
      <trkpt lat="48.14936" lon="-1.23496">
        <ele>84</ele>
        <time>2010-08-01T07:19:27Z</time>
      </trkpt>
      <trkpt lat="48.14931" lon="-1.23499">
        <ele>85</ele>
        <time>2010-08-01T07:19:29Z</time>
      </trkpt>
      <trkpt lat="48.14926" lon="-1.23504">
        <ele>85</ele>
        <time>2010-08-01T07:19:31Z</time>
      </trkpt>
      <trkpt lat="48.14925" lon="-1.23508">
        <ele>85</ele>
        <time>2010-08-01T07:19:32Z</time>
      </trkpt>
      <trkpt lat="48.14924" lon="-1.23512">
        <ele>85</ele>
        <time>2010-08-01T07:19:33Z</time>
      </trkpt>
      <trkpt lat="48.14924" lon="-1.23523">
        <ele>85</ele>
        <time>2010-08-01T07:19:35Z</time>
      </trkpt>
      <trkpt lat="48.14924" lon="-1.23534">
        <ele>84</ele>
        <time>2010-08-01T07:19:37Z</time>
      </trkpt>
      <trkpt lat="48.14922" lon="-1.23547">
        <ele>83</ele>
        <time>2010-08-01T07:19:39Z</time>
      </trkpt>
      <trkpt lat="48.14919" lon="-1.23561">
        <ele>84</ele>
        <time>2010-08-01T07:19:41Z</time>
      </trkpt>
      <trkpt lat="48.14917" lon="-1.23576">
        <ele>83</ele>
        <time>2010-08-01T07:19:43Z</time>
      </trkpt>
      <trkpt lat="48.1492" lon="-1.236">
        <ele>81</ele>
        <time>2010-08-01T07:19:46Z</time>
      </trkpt>
      <trkpt lat="48.14934" lon="-1.23648">
        <ele>74</ele>
        <time>2010-08-01T07:19:50Z</time>
      </trkpt>
      <trkpt lat="48.14937" lon="-1.23663">
        <ele>73</ele>
        <time>2010-08-01T07:19:51Z</time>
      </trkpt>
      <trkpt lat="48.14932" lon="-1.23711">
        <ele>72</ele>
        <time>2010-08-01T07:19:54Z</time>
      </trkpt>
      <trkpt lat="48.14929" lon="-1.23726">
        <ele>71</ele>
        <time>2010-08-01T07:19:55Z</time>
      </trkpt>
      <trkpt lat="48.14926" lon="-1.23755">
        <ele>71</ele>
        <time>2010-08-01T07:19:57Z</time>
      </trkpt>
      <trkpt lat="48.14924" lon="-1.23783">
        <ele>70</ele>
        <time>2010-08-01T07:19:59Z</time>
      </trkpt>
      <trkpt lat="48.14923" lon="-1.2381">
        <ele>70</ele>
        <time>2010-08-01T07:20:01Z</time>
      </trkpt>
      <trkpt lat="48.14922" lon="-1.23824">
        <ele>70</ele>
        <time>2010-08-01T07:20:02Z</time>
      </trkpt>
      <trkpt lat="48.1492" lon="-1.23849">
        <ele>70</ele>
        <time>2010-08-01T07:20:04Z</time>
      </trkpt>
      <trkpt lat="48.14918" lon="-1.23874">
        <ele>70</ele>
        <time>2010-08-01T07:20:06Z</time>
      </trkpt>
      <trkpt lat="48.14916" lon="-1.23897">
        <ele>69</ele>
        <time>2010-08-01T07:20:08Z</time>
      </trkpt>
      <trkpt lat="48.14914" lon="-1.2392">
        <ele>69</ele>
        <time>2010-08-01T07:20:10Z</time>
      </trkpt>
      <trkpt lat="48.14909" lon="-1.23964">
        <ele>69</ele>
        <time>2010-08-01T07:20:14Z</time>
      </trkpt>
      <trkpt lat="48.14908" lon="-1.23985">
        <ele>69</ele>
        <time>2010-08-01T07:20:16Z</time>
      </trkpt>
      <trkpt lat="48.14905" lon="-1.24005">
        <ele>69</ele>
        <time>2010-08-01T07:20:18Z</time>
      </trkpt>
      <trkpt lat="48.14902" lon="-1.24025">
        <ele>69</ele>
        <time>2010-08-01T07:20:20Z</time>
      </trkpt>
      <trkpt lat="48.14897" lon="-1.24044">
        <ele>70</ele>
        <time>2010-08-01T07:20:22Z</time>
      </trkpt>
      <trkpt lat="48.14895" lon="-1.24053">
        <ele>70</ele>
        <time>2010-08-01T07:20:23Z</time>
      </trkpt>
      <trkpt lat="48.14899" lon="-1.24075">
        <ele>69</ele>
        <time>2010-08-01T07:20:26Z</time>
      </trkpt>
      <trkpt lat="48.14911" lon="-1.2408">
        <ele>67</ele>
        <time>2010-08-01T07:20:28Z</time>
      </trkpt>
      <trkpt lat="48.14918" lon="-1.24082">
        <ele>67</ele>
        <time>2010-08-01T07:20:29Z</time>
      </trkpt>
      <trkpt lat="48.14926" lon="-1.24083">
        <ele>66</ele>
        <time>2010-08-01T07:20:30Z</time>
      </trkpt>
      <trkpt lat="48.14933" lon="-1.24084">
        <ele>66</ele>
        <time>2010-08-01T07:20:31Z</time>
      </trkpt>
      <trkpt lat="48.14946" lon="-1.24089">
        <ele>65</ele>
        <time>2010-08-01T07:20:33Z</time>
      </trkpt>
      <trkpt lat="48.14954" lon="-1.24091">
        <ele>65</ele>
        <time>2010-08-01T07:20:35Z</time>
      </trkpt>
      <trkpt lat="48.14958" lon="-1.24093">
        <ele>66</ele>
        <time>2010-08-01T07:20:37Z</time>
      </trkpt>
      <trkpt lat="48.14961" lon="-1.24094">
        <ele>66</ele>
        <time>2010-08-01T07:20:39Z</time>
      </trkpt>
      <trkpt lat="48.14965" lon="-1.24094">
        <ele>66</ele>
        <time>2010-08-01T07:20:41Z</time>
      </trkpt>
      <trkpt lat="48.14969" lon="-1.24093">
        <ele>66</ele>
        <time>2010-08-01T07:20:43Z</time>
      </trkpt>
      <trkpt lat="48.14971" lon="-1.24095">
        <ele>66</ele>
        <time>2010-08-01T07:20:44Z</time>
      </trkpt>
      <trkpt lat="48.14972" lon="-1.24098">
        <ele>66</ele>
        <time>2010-08-01T07:20:45Z</time>
      </trkpt>
      <trkpt lat="48.14971" lon="-1.24118">
        <ele>67</ele>
        <time>2010-08-01T07:20:48Z</time>
      </trkpt>
      <trkpt lat="48.14962" lon="-1.24137">
        <ele>67</ele>
        <time>2010-08-01T07:20:51Z</time>
      </trkpt>
      <trkpt lat="48.14957" lon="-1.24143">
        <ele>66</ele>
        <time>2010-08-01T07:20:52Z</time>
      </trkpt>
      <trkpt lat="48.14954" lon="-1.24149">
        <ele>66</ele>
        <time>2010-08-01T07:20:53Z</time>
      </trkpt>
      <trkpt lat="48.14942" lon="-1.24178">
        <ele>65</ele>
        <time>2010-08-01T07:20:57Z</time>
      </trkpt>
      <trkpt lat="48.1493" lon="-1.24196">
        <ele>66</ele>
        <time>2010-08-01T07:21:00Z</time>
      </trkpt>
      <trkpt lat="48.1492" lon="-1.2422">
        <ele>66</ele>
        <time>2010-08-01T07:21:03Z</time>
      </trkpt>
      <trkpt lat="48.14909" lon="-1.2424">
        <ele>65</ele>
        <time>2010-08-01T07:21:06Z</time>
      </trkpt>
      <trkpt lat="48.149" lon="-1.24272">
        <ele>64</ele>
        <time>2010-08-01T07:21:10Z</time>
      </trkpt>
      <trkpt lat="48.14899" lon="-1.24282">
        <ele>64</ele>
        <time>2010-08-01T07:21:11Z</time>
      </trkpt>
      <trkpt lat="48.14899" lon="-1.24292">
        <ele>64</ele>
        <time>2010-08-01T07:21:12Z</time>
      </trkpt>
      <trkpt lat="48.14896" lon="-1.24348">
        <ele>63</ele>
        <time>2010-08-01T07:21:18Z</time>
      </trkpt>
      <trkpt lat="48.14889" lon="-1.24385">
        <ele>64</ele>
        <time>2010-08-01T07:21:22Z</time>
      </trkpt>
      <trkpt lat="48.14895" lon="-1.24421">
        <ele>64</ele>
        <time>2010-08-01T07:21:26Z</time>
      </trkpt>
      <trkpt lat="48.14908" lon="-1.24442">
        <ele>65</ele>
        <time>2010-08-01T07:21:29Z</time>
      </trkpt>
      <trkpt lat="48.14929" lon="-1.24482">
        <ele>66</ele>
        <time>2010-08-01T07:21:35Z</time>
      </trkpt>
      <trkpt lat="48.14931" lon="-1.24492">
        <ele>65</ele>
        <time>2010-08-01T07:21:36Z</time>
      </trkpt>
      <trkpt lat="48.14945" lon="-1.24546">
        <ele>65</ele>
        <time>2010-08-01T07:21:42Z</time>
      </trkpt>
      <trkpt lat="48.14948" lon="-1.24554">
        <ele>65</ele>
        <time>2010-08-01T07:21:43Z</time>
      </trkpt>
      <trkpt lat="48.14945" lon="-1.2459">
        <ele>65</ele>
        <time>2010-08-01T07:21:47Z</time>
      </trkpt>
      <trkpt lat="48.14941" lon="-1.24608">
        <ele>64</ele>
        <time>2010-08-01T07:21:50Z</time>
      </trkpt>
      <trkpt lat="48.14943" lon="-1.24612">
        <ele>64</ele>
        <time>2010-08-01T07:21:51Z</time>
      </trkpt>
      <trkpt lat="48.14946" lon="-1.2462">
        <ele>64</ele>
        <time>2010-08-01T07:21:53Z</time>
      </trkpt>
      <trkpt lat="48.14939" lon="-1.24632">
        <ele>64</ele>
        <time>2010-08-01T07:21:55Z</time>
      </trkpt>
      <trkpt lat="48.14935" lon="-1.2464">
        <ele>63</ele>
        <time>2010-08-01T07:21:56Z</time>
      </trkpt>
      <trkpt lat="48.1493" lon="-1.24654">
        <ele>63</ele>
        <time>2010-08-01T07:21:58Z</time>
      </trkpt>
      <trkpt lat="48.14928" lon="-1.24672">
        <ele>62</ele>
        <time>2010-08-01T07:22:00Z</time>
      </trkpt>
      <trkpt lat="48.14909" lon="-1.24706">
        <ele>62</ele>
        <time>2010-08-01T07:22:05Z</time>
      </trkpt>
      <trkpt lat="48.14903" lon="-1.24711">
        <ele>62</ele>
        <time>2010-08-01T07:22:06Z</time>
      </trkpt>
      <trkpt lat="48.149" lon="-1.24713">
        <ele>62</ele>
        <time>2010-08-01T07:22:07Z</time>
      </trkpt>
      <trkpt lat="48.14895" lon="-1.2473">
        <ele>62</ele>
        <time>2010-08-01T07:22:11Z</time>
      </trkpt>
      <trkpt lat="48.1489" lon="-1.24743">
        <ele>61</ele>
        <time>2010-08-01T07:22:15Z</time>
      </trkpt>
      <trkpt lat="48.14869" lon="-1.24761">
        <ele>61</ele>
        <time>2010-08-01T07:22:22Z</time>
      </trkpt>
      <trkpt lat="48.14866" lon="-1.24765">
        <ele>61</ele>
        <time>2010-08-01T07:22:24Z</time>
      </trkpt>
      <trkpt lat="48.1486" lon="-1.24758">
        <ele>61</ele>
        <time>2010-08-01T07:22:27Z</time>
      </trkpt>
      <trkpt lat="48.14848" lon="-1.24752">
        <ele>61</ele>
        <time>2010-08-01T07:22:31Z</time>
      </trkpt>
      <trkpt lat="48.14843" lon="-1.24753">
        <ele>61</ele>
        <time>2010-08-01T07:22:36Z</time>
      </trkpt>
      <trkpt lat="48.14842" lon="-1.24753">
        <ele>61</ele>
        <time>2010-08-01T07:22:37Z</time>
      </trkpt>
      <trkpt lat="48.1484" lon="-1.24748">
        <ele>61</ele>
        <time>2010-08-01T07:22:39Z</time>
      </trkpt>
      <trkpt lat="48.14826" lon="-1.24739">
        <ele>61</ele>
        <time>2010-08-01T07:22:43Z</time>
      </trkpt>
      <trkpt lat="48.14791" lon="-1.24721">
        <ele>61</ele>
        <time>2010-08-01T07:22:50Z</time>
      </trkpt>
      <trkpt lat="48.14771" lon="-1.24713">
        <ele>61</ele>
        <time>2010-08-01T07:22:55Z</time>
      </trkpt>
      <trkpt lat="48.14768" lon="-1.24719">
        <ele>61</ele>
        <time>2010-08-01T07:22:57Z</time>
      </trkpt>
      <trkpt lat="48.14768" lon="-1.24723">
        <ele>60</ele>
        <time>2010-08-01T07:22:58Z</time>
      </trkpt>
      <trkpt lat="48.1477" lon="-1.24739">
        <ele>60</ele>
        <time>2010-08-01T07:23:00Z</time>
      </trkpt>
      <trkpt lat="48.1477" lon="-1.24765">
        <ele>60</ele>
        <time>2010-08-01T07:23:03Z</time>
      </trkpt>
      <trkpt lat="48.14776" lon="-1.24795">
        <ele>61</ele>
        <time>2010-08-01T07:23:07Z</time>
      </trkpt>
      <trkpt lat="48.14778" lon="-1.24803">
        <ele>61</ele>
        <time>2010-08-01T07:23:08Z</time>
      </trkpt>
      <trkpt lat="48.14776" lon="-1.24827">
        <ele>62</ele>
        <time>2010-08-01T07:23:11Z</time>
      </trkpt>
      <trkpt lat="48.14773" lon="-1.24835">
        <ele>63</ele>
        <time>2010-08-01T07:23:12Z</time>
      </trkpt>
      <trkpt lat="48.14767" lon="-1.2485">
        <ele>64</ele>
        <time>2010-08-01T07:23:14Z</time>
      </trkpt>
      <trkpt lat="48.14749" lon="-1.24873">
        <ele>64</ele>
        <time>2010-08-01T07:23:19Z</time>
      </trkpt>
      <trkpt lat="48.14717" lon="-1.24909">
        <ele>64</ele>
        <time>2010-08-01T07:23:26Z</time>
      </trkpt>
      <trkpt lat="48.14706" lon="-1.24918">
        <ele>64</ele>
        <time>2010-08-01T07:23:28Z</time>
      </trkpt>
      <trkpt lat="48.14682" lon="-1.24924">
        <ele>63</ele>
        <time>2010-08-01T07:23:32Z</time>
      </trkpt>
      <trkpt lat="48.14676" lon="-1.24925">
        <ele>62</ele>
        <time>2010-08-01T07:23:33Z</time>
      </trkpt>
      <trkpt lat="48.14653" lon="-1.24949">
        <ele>61</ele>
        <time>2010-08-01T07:23:38Z</time>
      </trkpt>
      <trkpt lat="48.14649" lon="-1.24955">
        <ele>61</ele>
        <time>2010-08-01T07:23:39Z</time>
      </trkpt>
      <trkpt lat="48.14622" lon="-1.25">
        <ele>61</ele>
        <time>2010-08-01T07:23:46Z</time>
      </trkpt>
      <trkpt lat="48.14594" lon="-1.25058">
        <ele>61</ele>
        <time>2010-08-01T07:23:54Z</time>
      </trkpt>
      <trkpt lat="48.14584" lon="-1.25082">
        <ele>61</ele>
        <time>2010-08-01T07:23:57Z</time>
      </trkpt>
      <trkpt lat="48.14569" lon="-1.25152">
        <ele>61</ele>
        <time>2010-08-01T07:24:05Z</time>
      </trkpt>
      <trkpt lat="48.14558" lon="-1.25236">
        <ele>61</ele>
        <time>2010-08-01T07:24:14Z</time>
      </trkpt>
      <trkpt lat="48.14548" lon="-1.25309">
        <ele>61</ele>
        <time>2010-08-01T07:24:22Z</time>
      </trkpt>
      <trkpt lat="48.14553" lon="-1.25343">
        <ele>61</ele>
        <time>2010-08-01T07:24:26Z</time>
      </trkpt>
      <trkpt lat="48.14556" lon="-1.25351">
        <ele>61</ele>
        <time>2010-08-01T07:24:27Z</time>
      </trkpt>
      <trkpt lat="48.14555" lon="-1.2536">
        <ele>62</ele>
        <time>2010-08-01T07:24:28Z</time>
      </trkpt>
      <trkpt lat="48.14547" lon="-1.25394">
        <ele>62</ele>
        <time>2010-08-01T07:24:33Z</time>
      </trkpt>
      <trkpt lat="48.14545" lon="-1.2541">
        <ele>62</ele>
        <time>2010-08-01T07:24:37Z</time>
      </trkpt>
      <trkpt lat="48.14545" lon="-1.25414">
        <ele>62</ele>
        <time>2010-08-01T07:24:38Z</time>
      </trkpt>
      <trkpt lat="48.1454" lon="-1.25427">
        <ele>62</ele>
        <time>2010-08-01T07:24:42Z</time>
      </trkpt>
      <trkpt lat="48.1453" lon="-1.25434">
        <ele>61</ele>
        <time>2010-08-01T07:24:45Z</time>
      </trkpt>
      <trkpt lat="48.14529" lon="-1.25454">
        <ele>61</ele>
        <time>2010-08-01T07:24:48Z</time>
      </trkpt>
      <trkpt lat="48.1453" lon="-1.25463">
        <ele>62</ele>
        <time>2010-08-01T07:24:49Z</time>
      </trkpt>
      <trkpt lat="48.14531" lon="-1.25474">
        <ele>62</ele>
        <time>2010-08-01T07:24:50Z</time>
      </trkpt>
      <trkpt lat="48.14527" lon="-1.25548">
        <ele>62</ele>
        <time>2010-08-01T07:24:58Z</time>
      </trkpt>
      <trkpt lat="48.14518" lon="-1.25626">
        <ele>62</ele>
        <time>2010-08-01T07:25:07Z</time>
      </trkpt>
      <trkpt lat="48.14518" lon="-1.25646">
        <ele>62</ele>
        <time>2010-08-01T07:25:09Z</time>
      </trkpt>
      <trkpt lat="48.1452" lon="-1.25665">
        <ele>62</ele>
        <time>2010-08-01T07:25:11Z</time>
      </trkpt>
      <trkpt lat="48.14523" lon="-1.25683">
        <ele>62</ele>
        <time>2010-08-01T07:25:13Z</time>
      </trkpt>
      <trkpt lat="48.14525" lon="-1.25692">
        <ele>62</ele>
        <time>2010-08-01T07:25:14Z</time>
      </trkpt>
      <trkpt lat="48.14534" lon="-1.25714">
        <ele>62</ele>
        <time>2010-08-01T07:25:17Z</time>
      </trkpt>
      <trkpt lat="48.1455" lon="-1.2574">
        <ele>62</ele>
        <time>2010-08-01T07:25:21Z</time>
      </trkpt>
      <trkpt lat="48.14551" lon="-1.25771">
        <ele>62</ele>
        <time>2010-08-01T07:25:25Z</time>
      </trkpt>
      <trkpt lat="48.14549" lon="-1.25779">
        <ele>62</ele>
        <time>2010-08-01T07:25:26Z</time>
      </trkpt>
      <trkpt lat="48.14542" lon="-1.2584">
        <ele>61</ele>
        <time>2010-08-01T07:25:33Z</time>
      </trkpt>
      <trkpt lat="48.1454" lon="-1.25911">
        <ele>61</ele>
        <time>2010-08-01T07:25:41Z</time>
      </trkpt>
      <trkpt lat="48.14551" lon="-1.25953">
        <ele>61</ele>
        <time>2010-08-01T07:25:46Z</time>
      </trkpt>
      <trkpt lat="48.14553" lon="-1.25961">
        <ele>61</ele>
        <time>2010-08-01T07:25:47Z</time>
      </trkpt>
      <trkpt lat="48.14569" lon="-1.26035">
        <ele>61</ele>
        <time>2010-08-01T07:25:56Z</time>
      </trkpt>
      <trkpt lat="48.14582" lon="-1.26062">
        <ele>61</ele>
        <time>2010-08-01T07:26:00Z</time>
      </trkpt>
      <trkpt lat="48.14598" lon="-1.26122">
        <ele>61</ele>
        <time>2010-08-01T07:26:07Z</time>
      </trkpt>
      <trkpt lat="48.14593" lon="-1.26156">
        <ele>61</ele>
        <time>2010-08-01T07:26:11Z</time>
      </trkpt>
      <trkpt lat="48.14589" lon="-1.26172">
        <ele>61</ele>
        <time>2010-08-01T07:26:13Z</time>
      </trkpt>
      <trkpt lat="48.14587" lon="-1.26184">
        <ele>61</ele>
        <time>2010-08-01T07:26:15Z</time>
      </trkpt>
      <trkpt lat="48.14587" lon="-1.26215">
        <ele>61</ele>
        <time>2010-08-01T07:26:19Z</time>
      </trkpt>
      <trkpt lat="48.14605" lon="-1.26237">
        <ele>61</ele>
        <time>2010-08-01T07:26:23Z</time>
      </trkpt>
      <trkpt lat="48.14621" lon="-1.2625">
        <ele>61</ele>
        <time>2010-08-01T07:26:26Z</time>
      </trkpt>
      <trkpt lat="48.14625" lon="-1.26276">
        <ele>61</ele>
        <time>2010-08-01T07:26:29Z</time>
      </trkpt>
      <trkpt lat="48.14623" lon="-1.26284">
        <ele>61</ele>
        <time>2010-08-01T07:26:30Z</time>
      </trkpt>
      <trkpt lat="48.14616" lon="-1.26303">
        <ele>61</ele>
        <time>2010-08-01T07:26:32Z</time>
      </trkpt>
      <trkpt lat="48.14615" lon="-1.2634">
        <ele>61</ele>
        <time>2010-08-01T07:26:36Z</time>
      </trkpt>
      <trkpt lat="48.14616" lon="-1.26375">
        <ele>61</ele>
        <time>2010-08-01T07:26:40Z</time>
      </trkpt>
      <trkpt lat="48.14634" lon="-1.26409">
        <ele>61</ele>
        <time>2010-08-01T07:26:45Z</time>
      </trkpt>
      <trkpt lat="48.1464" lon="-1.26414">
        <ele>61</ele>
        <time>2010-08-01T07:26:46Z</time>
      </trkpt>
      <trkpt lat="48.14645" lon="-1.26419">
        <ele>61</ele>
        <time>2010-08-01T07:26:47Z</time>
      </trkpt>
      <trkpt lat="48.1468" lon="-1.26433">
        <ele>62</ele>
        <time>2010-08-01T07:26:53Z</time>
      </trkpt>
      <trkpt lat="48.14707" lon="-1.26442">
        <ele>62</ele>
        <time>2010-08-01T07:26:58Z</time>
      </trkpt>
      <trkpt lat="48.14713" lon="-1.26455">
        <ele>62</ele>
        <time>2010-08-01T07:27:01Z</time>
      </trkpt>
      <trkpt lat="48.14711" lon="-1.26462">
        <ele>62</ele>
        <time>2010-08-01T07:27:02Z</time>
      </trkpt>
      <trkpt lat="48.14702" lon="-1.26486">
        <ele>62</ele>
        <time>2010-08-01T07:27:05Z</time>
      </trkpt>
      <trkpt lat="48.14687" lon="-1.26557">
        <ele>62</ele>
        <time>2010-08-01T07:27:13Z</time>
      </trkpt>
      <trkpt lat="48.14682" lon="-1.26582">
        <ele>62</ele>
        <time>2010-08-01T07:27:16Z</time>
      </trkpt>
      <trkpt lat="48.14677" lon="-1.26597">
        <ele>62</ele>
        <time>2010-08-01T07:27:18Z</time>
      </trkpt>
      <trkpt lat="48.14675" lon="-1.26614">
        <ele>62</ele>
        <time>2010-08-01T07:27:20Z</time>
      </trkpt>
      <trkpt lat="48.14681" lon="-1.26669">
        <ele>62</ele>
        <time>2010-08-01T07:27:26Z</time>
      </trkpt>
      <trkpt lat="48.14681" lon="-1.26704">
        <ele>62</ele>
        <time>2010-08-01T07:27:30Z</time>
      </trkpt>
      <trkpt lat="48.14684" lon="-1.26785">
        <ele>62</ele>
        <time>2010-08-01T07:27:39Z</time>
      </trkpt>
      <trkpt lat="48.14684" lon="-1.26803">
        <ele>61</ele>
        <time>2010-08-01T07:27:41Z</time>
      </trkpt>
      <trkpt lat="48.1469" lon="-1.26866">
        <ele>61</ele>
        <time>2010-08-01T07:27:48Z</time>
      </trkpt>
      <trkpt lat="48.14691" lon="-1.26875">
        <ele>61</ele>
        <time>2010-08-01T07:27:49Z</time>
      </trkpt>
      <trkpt lat="48.14706" lon="-1.26943">
        <ele>62</ele>
        <time>2010-08-01T07:27:57Z</time>
      </trkpt>
      <trkpt lat="48.14708" lon="-1.26951">
        <ele>62</ele>
        <time>2010-08-01T07:27:58Z</time>
      </trkpt>
      <trkpt lat="48.14701" lon="-1.26982">
        <ele>61</ele>
        <time>2010-08-01T07:28:02Z</time>
      </trkpt>
      <trkpt lat="48.14694" lon="-1.26989">
        <ele>61</ele>
        <time>2010-08-01T07:28:03Z</time>
      </trkpt>
      <trkpt lat="48.14667" lon="-1.27014">
        <ele>61</ele>
        <time>2010-08-01T07:28:08Z</time>
      </trkpt>
      <trkpt lat="48.14655" lon="-1.27047">
        <ele>61</ele>
        <time>2010-08-01T07:28:12Z</time>
      </trkpt>
      <trkpt lat="48.14656" lon="-1.27066">
        <ele>61</ele>
        <time>2010-08-01T07:28:14Z</time>
      </trkpt>
      <trkpt lat="48.14659" lon="-1.27085">
        <ele>61</ele>
        <time>2010-08-01T07:28:16Z</time>
      </trkpt>
      <trkpt lat="48.14673" lon="-1.27097">
        <ele>62</ele>
        <time>2010-08-01T07:28:19Z</time>
      </trkpt>
      <trkpt lat="48.14692" lon="-1.27085">
        <ele>62</ele>
        <time>2010-08-01T07:28:22Z</time>
      </trkpt>
      <trkpt lat="48.14707" lon="-1.27066">
        <ele>62</ele>
        <time>2010-08-01T07:28:25Z</time>
      </trkpt>
      <trkpt lat="48.14717" lon="-1.27056">
        <ele>62</ele>
        <time>2010-08-01T07:28:27Z</time>
      </trkpt>
      <trkpt lat="48.1473" lon="-1.27058">
        <ele>62</ele>
        <time>2010-08-01T07:28:30Z</time>
      </trkpt>
      <trkpt lat="48.14731" lon="-1.27064">
        <ele>63</ele>
        <time>2010-08-01T07:28:31Z</time>
      </trkpt>
      <trkpt lat="48.14745" lon="-1.27142">
        <ele>64</ele>
        <time>2010-08-01T07:28:40Z</time>
      </trkpt>
      <trkpt lat="48.1475" lon="-1.27159">
        <ele>64</ele>
        <time>2010-08-01T07:28:42Z</time>
      </trkpt>
      <trkpt lat="48.14754" lon="-1.27172">
        <ele>64</ele>
        <time>2010-08-01T07:28:44Z</time>
      </trkpt>
      <trkpt lat="48.14755" lon="-1.27179">
        <ele>64</ele>
        <time>2010-08-01T07:28:45Z</time>
      </trkpt>
      <trkpt lat="48.14751" lon="-1.27185">
        <ele>64</ele>
        <time>2010-08-01T07:28:46Z</time>
      </trkpt>
      <trkpt lat="48.14742" lon="-1.27192">
        <ele>63</ele>
        <time>2010-08-01T07:28:48Z</time>
      </trkpt>
      <trkpt lat="48.14736" lon="-1.27194">
        <ele>63</ele>
        <time>2010-08-01T07:28:49Z</time>
      </trkpt>
      <trkpt lat="48.14706" lon="-1.27208">
        <ele>63</ele>
        <time>2010-08-01T07:28:54Z</time>
      </trkpt>
      <trkpt lat="48.1468" lon="-1.27219">
        <ele>62</ele>
        <time>2010-08-01T07:28:59Z</time>
      </trkpt>
      <trkpt lat="48.14679" lon="-1.27224">
        <ele>62</ele>
        <time>2010-08-01T07:29:00Z</time>
      </trkpt>
      <trkpt lat="48.14681" lon="-1.27244">
        <ele>62</ele>
        <time>2010-08-01T07:29:03Z</time>
      </trkpt>
      <trkpt lat="48.14682" lon="-1.27253">
        <ele>62</ele>
        <time>2010-08-01T07:29:04Z</time>
      </trkpt>
      <trkpt lat="48.14682" lon="-1.27292">
        <ele>61</ele>
        <time>2010-08-01T07:29:08Z</time>
      </trkpt>
      <trkpt lat="48.14682" lon="-1.2731">
        <ele>61</ele>
        <time>2010-08-01T07:29:10Z</time>
      </trkpt>
      <trkpt lat="48.14704" lon="-1.27334">
        <ele>62</ele>
        <time>2010-08-01T07:29:14Z</time>
      </trkpt>
      <trkpt lat="48.1473" lon="-1.27361">
        <ele>62</ele>
        <time>2010-08-01T07:29:19Z</time>
      </trkpt>
      <trkpt lat="48.14736" lon="-1.27368">
        <ele>62</ele>
        <time>2010-08-01T07:29:20Z</time>
      </trkpt>
      <trkpt lat="48.14764" lon="-1.27401">
        <ele>63</ele>
        <time>2010-08-01T07:29:26Z</time>
      </trkpt>
      <trkpt lat="48.14768" lon="-1.27405">
        <ele>63</ele>
        <time>2010-08-01T07:29:27Z</time>
      </trkpt>
      <trkpt lat="48.14777" lon="-1.27416">
        <ele>63</ele>
        <time>2010-08-01T07:29:29Z</time>
      </trkpt>
      <trkpt lat="48.14775" lon="-1.27441">
        <ele>63</ele>
        <time>2010-08-01T07:29:32Z</time>
      </trkpt>
      <trkpt lat="48.14751" lon="-1.27496">
        <ele>62</ele>
        <time>2010-08-01T07:29:39Z</time>
      </trkpt>
      <trkpt lat="48.14741" lon="-1.27522">
        <ele>62</ele>
        <time>2010-08-01T07:29:42Z</time>
      </trkpt>
      <trkpt lat="48.14733" lon="-1.27533">
        <ele>62</ele>
        <time>2010-08-01T07:29:45Z</time>
      </trkpt>
      <trkpt lat="48.14736" lon="-1.27543">
        <ele>62</ele>
        <time>2010-08-01T07:29:49Z</time>
      </trkpt>
      <trkpt lat="48.14733" lon="-1.27555">
        <ele>62</ele>
        <time>2010-08-01T07:29:52Z</time>
      </trkpt>
      <trkpt lat="48.14743" lon="-1.27567">
        <ele>62</ele>
        <time>2010-08-01T07:29:56Z</time>
      </trkpt>
      <trkpt lat="48.14748" lon="-1.27569">
        <ele>62</ele>
        <time>2010-08-01T07:29:57Z</time>
      </trkpt>
      <trkpt lat="48.14759" lon="-1.2757">
        <ele>62</ele>
        <time>2010-08-01T07:29:59Z</time>
      </trkpt>
      <trkpt lat="48.14782" lon="-1.27567">
        <ele>63</ele>
        <time>2010-08-01T07:30:04Z</time>
      </trkpt>
      <trkpt lat="48.14796" lon="-1.27585">
        <ele>63</ele>
        <time>2010-08-01T07:30:08Z</time>
      </trkpt>
      <trkpt lat="48.14798" lon="-1.27592">
        <ele>63</ele>
        <time>2010-08-01T07:30:09Z</time>
      </trkpt>
      <trkpt lat="48.14803" lon="-1.27606">
        <ele>63</ele>
        <time>2010-08-01T07:30:11Z</time>
      </trkpt>
      <trkpt lat="48.14812" lon="-1.2764">
        <ele>63</ele>
        <time>2010-08-01T07:30:16Z</time>
      </trkpt>
      <trkpt lat="48.14816" lon="-1.27644">
        <ele>63</ele>
        <time>2010-08-01T07:30:17Z</time>
      </trkpt>
      <trkpt lat="48.14827" lon="-1.27648">
        <ele>64</ele>
        <time>2010-08-01T07:30:20Z</time>
      </trkpt>
      <trkpt lat="48.14833" lon="-1.27647">
        <ele>64</ele>
        <time>2010-08-01T07:30:21Z</time>
      </trkpt>
      <trkpt lat="48.14838" lon="-1.27645">
        <ele>64</ele>
        <time>2010-08-01T07:30:22Z</time>
      </trkpt>
      <trkpt lat="48.14856" lon="-1.2764">
        <ele>64</ele>
        <time>2010-08-01T07:30:26Z</time>
      </trkpt>
      <trkpt lat="48.14866" lon="-1.27639">
        <ele>65</ele>
        <time>2010-08-01T07:30:28Z</time>
      </trkpt>
      <trkpt lat="48.14889" lon="-1.27636">
        <ele>65</ele>
        <time>2010-08-01T07:30:33Z</time>
      </trkpt>
      <trkpt lat="48.149" lon="-1.27646">
        <ele>65</ele>
        <time>2010-08-01T07:30:36Z</time>
      </trkpt>
      <trkpt lat="48.14919" lon="-1.27653">
        <ele>65</ele>
        <time>2010-08-01T07:30:40Z</time>
      </trkpt>
      <trkpt lat="48.14938" lon="-1.27655">
        <ele>65</ele>
        <time>2010-08-01T07:30:44Z</time>
      </trkpt>
      <trkpt lat="48.14946" lon="-1.2766">
        <ele>65</ele>
        <time>2010-08-01T07:30:46Z</time>
      </trkpt>
      <trkpt lat="48.14951" lon="-1.27672">
        <ele>65</ele>
        <time>2010-08-01T07:30:48Z</time>
      </trkpt>
      <trkpt lat="48.14957" lon="-1.27685">
        <ele>66</ele>
        <time>2010-08-01T07:30:50Z</time>
      </trkpt>
      <trkpt lat="48.14964" lon="-1.27693">
        <ele>66</ele>
        <time>2010-08-01T07:30:52Z</time>
      </trkpt>
      <trkpt lat="48.14972" lon="-1.27695">
        <ele>66</ele>
        <time>2010-08-01T07:30:54Z</time>
      </trkpt>
      <trkpt lat="48.14981" lon="-1.2769">
        <ele>66</ele>
        <time>2010-08-01T07:30:56Z</time>
      </trkpt>
      <trkpt lat="48.14989" lon="-1.27685">
        <ele>66</ele>
        <time>2010-08-01T07:30:58Z</time>
      </trkpt>
      <trkpt lat="48.15002" lon="-1.27692">
        <ele>66</ele>
        <time>2010-08-01T07:31:01Z</time>
      </trkpt>
      <trkpt lat="48.15006" lon="-1.277">
        <ele>66</ele>
        <time>2010-08-01T07:31:02Z</time>
      </trkpt>
      <trkpt lat="48.15014" lon="-1.27722">
        <ele>66</ele>
        <time>2010-08-01T07:31:07Z</time>
      </trkpt>
      <trkpt lat="48.15015" lon="-1.27725">
        <ele>66</ele>
        <time>2010-08-01T07:31:09Z</time>
      </trkpt>
      <trkpt lat="48.15012" lon="-1.27726">
        <ele>66</ele>
        <time>2010-08-01T07:31:12Z</time>
      </trkpt>
      <trkpt lat="48.15012" lon="-1.27725">
        <ele>66</ele>
        <time>2010-08-01T07:31:25Z</time>
      </trkpt>
      <trkpt lat="48.1501" lon="-1.27725">
        <ele>66</ele>
        <time>2010-08-01T07:31:26Z</time>
      </trkpt>
      <trkpt lat="48.15008" lon="-1.27726">
        <ele>66</ele>
        <time>2010-08-01T07:31:27Z</time>
      </trkpt>
      <trkpt lat="48.15004" lon="-1.27727">
        <ele>66</ele>
        <time>2010-08-01T07:31:28Z</time>
      </trkpt>
      <trkpt lat="48.14992" lon="-1.27729">
        <ele>66</ele>
        <time>2010-08-01T07:31:30Z</time>
      </trkpt>
      <trkpt lat="48.14979" lon="-1.27731">
        <ele>66</ele>
        <time>2010-08-01T07:31:32Z</time>
      </trkpt>
      <trkpt lat="48.14966" lon="-1.27731">
        <ele>66</ele>
        <time>2010-08-01T07:31:34Z</time>
      </trkpt>
      <trkpt lat="48.14936" lon="-1.27736">
        <ele>65</ele>
        <time>2010-08-01T07:31:39Z</time>
      </trkpt>
      <trkpt lat="48.14926" lon="-1.27743">
        <ele>65</ele>
        <time>2010-08-01T07:31:41Z</time>
      </trkpt>
      <trkpt lat="48.14909" lon="-1.27771">
        <ele>65</ele>
        <time>2010-08-01T07:31:45Z</time>
      </trkpt>
      <trkpt lat="48.14871" lon="-1.27807">
        <ele>65</ele>
        <time>2010-08-01T07:31:52Z</time>
      </trkpt>
      <trkpt lat="48.14834" lon="-1.2784">
        <ele>65</ele>
        <time>2010-08-01T07:31:59Z</time>
      </trkpt>
      <trkpt lat="48.14797" lon="-1.27876">
        <ele>65</ele>
        <time>2010-08-01T07:32:06Z</time>
      </trkpt>
      <trkpt lat="48.14776" lon="-1.279">
        <ele>65</ele>
        <time>2010-08-01T07:32:10Z</time>
      </trkpt>
      <trkpt lat="48.14768" lon="-1.27911">
        <ele>65</ele>
        <time>2010-08-01T07:32:12Z</time>
      </trkpt>
      <trkpt lat="48.14758" lon="-1.27921">
        <ele>65</ele>
        <time>2010-08-01T07:32:14Z</time>
      </trkpt>
      <trkpt lat="48.14749" lon="-1.27932">
        <ele>65</ele>
        <time>2010-08-01T07:32:16Z</time>
      </trkpt>
      <trkpt lat="48.1474" lon="-1.27942">
        <ele>65</ele>
        <time>2010-08-01T07:32:18Z</time>
      </trkpt>
      <trkpt lat="48.14731" lon="-1.27952">
        <ele>65</ele>
        <time>2010-08-01T07:32:20Z</time>
      </trkpt>
      <trkpt lat="48.14726" lon="-1.27956">
        <ele>65</ele>
        <time>2010-08-01T07:32:21Z</time>
      </trkpt>
      <trkpt lat="48.14709" lon="-1.27961">
        <ele>66</ele>
        <time>2010-08-01T07:32:24Z</time>
      </trkpt>
      <trkpt lat="48.14704" lon="-1.27962">
        <ele>66</ele>
        <time>2010-08-01T07:32:25Z</time>
      </trkpt>
      <trkpt lat="48.1466" lon="-1.27955">
        <ele>67</ele>
        <time>2010-08-01T07:32:33Z</time>
      </trkpt>
      <trkpt lat="48.14655" lon="-1.27955">
        <ele>67</ele>
        <time>2010-08-01T07:32:34Z</time>
      </trkpt>
      <trkpt lat="48.14642" lon="-1.2796">
        <ele>68</ele>
        <time>2010-08-01T07:32:37Z</time>
      </trkpt>
      <trkpt lat="48.14638" lon="-1.27963">
        <ele>68</ele>
        <time>2010-08-01T07:32:38Z</time>
      </trkpt>
      <trkpt lat="48.1463" lon="-1.2798">
        <ele>69</ele>
        <time>2010-08-01T07:32:41Z</time>
      </trkpt>
      <trkpt lat="48.14628" lon="-1.27986">
        <ele>69</ele>
        <time>2010-08-01T07:32:42Z</time>
      </trkpt>
      <trkpt lat="48.14625" lon="-1.27998">
        <ele>70</ele>
        <time>2010-08-01T07:32:44Z</time>
      </trkpt>
      <trkpt lat="48.14621" lon="-1.28008">
        <ele>70</ele>
        <time>2010-08-01T07:32:46Z</time>
      </trkpt>
      <trkpt lat="48.14615" lon="-1.28014">
        <ele>71</ele>
        <time>2010-08-01T07:32:48Z</time>
      </trkpt>
      <trkpt lat="48.14611" lon="-1.28016">
        <ele>71</ele>
        <time>2010-08-01T07:32:49Z</time>
      </trkpt>
      <trkpt lat="48.14598" lon="-1.28018">
        <ele>72</ele>
        <time>2010-08-01T07:32:52Z</time>
      </trkpt>
      <trkpt lat="48.14594" lon="-1.28018">
        <ele>72</ele>
        <time>2010-08-01T07:32:53Z</time>
      </trkpt>
      <trkpt lat="48.14585" lon="-1.28018">
        <ele>72</ele>
        <time>2010-08-01T07:32:55Z</time>
      </trkpt>
      <trkpt lat="48.14576" lon="-1.28018">
        <ele>72</ele>
        <time>2010-08-01T07:32:57Z</time>
      </trkpt>
      <trkpt lat="48.14567" lon="-1.28018">
        <ele>72</ele>
        <time>2010-08-01T07:32:59Z</time>
      </trkpt>
      <trkpt lat="48.14557" lon="-1.28018">
        <ele>73</ele>
        <time>2010-08-01T07:33:01Z</time>
      </trkpt>
      <trkpt lat="48.14538" lon="-1.28017">
        <ele>73</ele>
        <time>2010-08-01T07:33:05Z</time>
      </trkpt>
      <trkpt lat="48.14528" lon="-1.28016">
        <ele>73</ele>
        <time>2010-08-01T07:33:07Z</time>
      </trkpt>
      <trkpt lat="48.14519" lon="-1.28014">
        <ele>73</ele>
        <time>2010-08-01T07:33:09Z</time>
      </trkpt>
      <trkpt lat="48.1451" lon="-1.28009">
        <ele>73</ele>
        <time>2010-08-01T07:33:11Z</time>
      </trkpt>
      <trkpt lat="48.145" lon="-1.28004">
        <ele>73</ele>
        <time>2010-08-01T07:33:13Z</time>
      </trkpt>
      <trkpt lat="48.14491" lon="-1.28">
        <ele>73</ele>
        <time>2010-08-01T07:33:15Z</time>
      </trkpt>
      <trkpt lat="48.14453" lon="-1.28">
        <ele>73</ele>
        <time>2010-08-01T07:33:22Z</time>
      </trkpt>
      <trkpt lat="48.14408" lon="-1.28009">
        <ele>74</ele>
        <time>2010-08-01T07:33:31Z</time>
      </trkpt>
      <trkpt lat="48.1437" lon="-1.2802">
        <ele>75</ele>
        <time>2010-08-01T07:33:38Z</time>
      </trkpt>
      <trkpt lat="48.14366" lon="-1.28023">
        <ele>75</ele>
        <time>2010-08-01T07:33:39Z</time>
      </trkpt>
      <trkpt lat="48.14346" lon="-1.28043">
        <ele>76</ele>
        <time>2010-08-01T07:33:45Z</time>
      </trkpt>
      <trkpt lat="48.14343" lon="-1.28047">
        <ele>77</ele>
        <time>2010-08-01T07:33:46Z</time>
      </trkpt>
      <trkpt lat="48.1434" lon="-1.28052">
        <ele>77</ele>
        <time>2010-08-01T07:33:47Z</time>
      </trkpt>
      <trkpt lat="48.14337" lon="-1.28057">
        <ele>77</ele>
        <time>2010-08-01T07:33:48Z</time>
      </trkpt>
      <trkpt lat="48.1433" lon="-1.28073">
        <ele>78</ele>
        <time>2010-08-01T07:33:51Z</time>
      </trkpt>
      <trkpt lat="48.14326" lon="-1.28084">
        <ele>78</ele>
        <time>2010-08-01T07:33:53Z</time>
      </trkpt>
      <trkpt lat="48.14324" lon="-1.2809">
        <ele>78</ele>
        <time>2010-08-01T07:33:54Z</time>
      </trkpt>
      <trkpt lat="48.14321" lon="-1.28102">
        <ele>79</ele>
        <time>2010-08-01T07:33:56Z</time>
      </trkpt>
      <trkpt lat="48.14317" lon="-1.28113">
        <ele>79</ele>
        <time>2010-08-01T07:33:58Z</time>
      </trkpt>
      <trkpt lat="48.14314" lon="-1.28124">
        <ele>80</ele>
        <time>2010-08-01T07:34:00Z</time>
      </trkpt>
      <trkpt lat="48.1431" lon="-1.28134">
        <ele>80</ele>
        <time>2010-08-01T07:34:02Z</time>
      </trkpt>
      <trkpt lat="48.14306" lon="-1.28144">
        <ele>80</ele>
        <time>2010-08-01T07:34:04Z</time>
      </trkpt>
      <trkpt lat="48.14304" lon="-1.28148">
        <ele>80</ele>
        <time>2010-08-01T07:34:05Z</time>
      </trkpt>
      <trkpt lat="48.14299" lon="-1.28155">
        <ele>81</ele>
        <time>2010-08-01T07:34:07Z</time>
      </trkpt>
      <trkpt lat="48.14293" lon="-1.28162">
        <ele>81</ele>
        <time>2010-08-01T07:34:09Z</time>
      </trkpt>
      <trkpt lat="48.14287" lon="-1.28166">
        <ele>81</ele>
        <time>2010-08-01T07:34:11Z</time>
      </trkpt>
      <trkpt lat="48.14279" lon="-1.28168">
        <ele>82</ele>
        <time>2010-08-01T07:34:13Z</time>
      </trkpt>
      <trkpt lat="48.14276" lon="-1.28169">
        <ele>82</ele>
        <time>2010-08-01T07:34:14Z</time>
      </trkpt>
      <trkpt lat="48.14267" lon="-1.28169">
        <ele>82</ele>
        <time>2010-08-01T07:34:16Z</time>
      </trkpt>
      <trkpt lat="48.14259" lon="-1.2817">
        <ele>83</ele>
        <time>2010-08-01T07:34:18Z</time>
      </trkpt>
      <trkpt lat="48.14252" lon="-1.2817">
        <ele>83</ele>
        <time>2010-08-01T07:34:20Z</time>
      </trkpt>
      <trkpt lat="48.14244" lon="-1.28171">
        <ele>83</ele>
        <time>2010-08-01T07:34:22Z</time>
      </trkpt>
      <trkpt lat="48.14236" lon="-1.28171">
        <ele>84</ele>
        <time>2010-08-01T07:34:24Z</time>
      </trkpt>
      <trkpt lat="48.14229" lon="-1.28172">
        <ele>84</ele>
        <time>2010-08-01T07:34:26Z</time>
      </trkpt>
      <trkpt lat="48.14221" lon="-1.28173">
        <ele>85</ele>
        <time>2010-08-01T07:34:28Z</time>
      </trkpt>
      <trkpt lat="48.14213" lon="-1.28174">
        <ele>85</ele>
        <time>2010-08-01T07:34:30Z</time>
      </trkpt>
      <trkpt lat="48.14206" lon="-1.28174">
        <ele>86</ele>
        <time>2010-08-01T07:34:32Z</time>
      </trkpt>
      <trkpt lat="48.14198" lon="-1.28175">
        <ele>86</ele>
        <time>2010-08-01T07:34:34Z</time>
      </trkpt>
      <trkpt lat="48.14191" lon="-1.28176">
        <ele>87</ele>
        <time>2010-08-01T07:34:36Z</time>
      </trkpt>
      <trkpt lat="48.14183" lon="-1.28177">
        <ele>87</ele>
        <time>2010-08-01T07:34:38Z</time>
      </trkpt>
      <trkpt lat="48.14175" lon="-1.28178">
        <ele>88</ele>
        <time>2010-08-01T07:34:40Z</time>
      </trkpt>
      <trkpt lat="48.14168" lon="-1.28179">
        <ele>88</ele>
        <time>2010-08-01T07:34:42Z</time>
      </trkpt>
      <trkpt lat="48.14156" lon="-1.28179">
        <ele>89</ele>
        <time>2010-08-01T07:34:45Z</time>
      </trkpt>
      <trkpt lat="48.14149" lon="-1.28179">
        <ele>90</ele>
        <time>2010-08-01T07:34:47Z</time>
      </trkpt>
      <trkpt lat="48.14141" lon="-1.28179">
        <ele>90</ele>
        <time>2010-08-01T07:34:49Z</time>
      </trkpt>
      <trkpt lat="48.14133" lon="-1.28178">
        <ele>90</ele>
        <time>2010-08-01T07:34:51Z</time>
      </trkpt>
      <trkpt lat="48.14126" lon="-1.28178">
        <ele>91</ele>
        <time>2010-08-01T07:34:53Z</time>
      </trkpt>
      <trkpt lat="48.14122" lon="-1.28178">
        <ele>91</ele>
        <time>2010-08-01T07:34:54Z</time>
      </trkpt>
      <trkpt lat="48.14114" lon="-1.28178">
        <ele>91</ele>
        <time>2010-08-01T07:34:56Z</time>
      </trkpt>
      <trkpt lat="48.14106" lon="-1.28178">
        <ele>92</ele>
        <time>2010-08-01T07:34:58Z</time>
      </trkpt>
      <trkpt lat="48.14098" lon="-1.28179">
        <ele>92</ele>
        <time>2010-08-01T07:35:00Z</time>
      </trkpt>
      <trkpt lat="48.14091" lon="-1.2818">
        <ele>92</ele>
        <time>2010-08-01T07:35:02Z</time>
      </trkpt>
      <trkpt lat="48.14054" lon="-1.28182">
        <ele>91</ele>
        <time>2010-08-01T07:35:10Z</time>
      </trkpt>
      <trkpt lat="48.14005" lon="-1.28184">
        <ele>90</ele>
        <time>2010-08-01T07:35:20Z</time>
      </trkpt>
      <trkpt lat="48.13988" lon="-1.28184">
        <ele>90</ele>
        <time>2010-08-01T07:35:24Z</time>
      </trkpt>
      <trkpt lat="48.13982" lon="-1.28191">
        <ele>91</ele>
        <time>2010-08-01T07:38:25Z</time>
      </trkpt>
      <trkpt lat="48.13982" lon="-1.28207">
        <ele>91</ele>
        <time>2010-08-01T07:38:27Z</time>
      </trkpt>
      <trkpt lat="48.13982" lon="-1.28218">
        <ele>91</ele>
        <time>2010-08-01T07:38:29Z</time>
      </trkpt>
      <trkpt lat="48.13982" lon="-1.28231">
        <ele>92</ele>
        <time>2010-08-01T07:38:31Z</time>
      </trkpt>
      <trkpt lat="48.13981" lon="-1.28245">
        <ele>92</ele>
        <time>2010-08-01T07:38:33Z</time>
      </trkpt>
      <trkpt lat="48.13981" lon="-1.28258">
        <ele>93</ele>
        <time>2010-08-01T07:38:35Z</time>
      </trkpt>
      <trkpt lat="48.1398" lon="-1.28296">
        <ele>94</ele>
        <time>2010-08-01T07:38:41Z</time>
      </trkpt>
      <trkpt lat="48.1398" lon="-1.28309">
        <ele>94</ele>
        <time>2010-08-01T07:38:43Z</time>
      </trkpt>
      <trkpt lat="48.1398" lon="-1.28322">
        <ele>95</ele>
        <time>2010-08-01T07:38:45Z</time>
      </trkpt>
      <trkpt lat="48.13979" lon="-1.28335">
        <ele>95</ele>
        <time>2010-08-01T07:38:47Z</time>
      </trkpt>
      <trkpt lat="48.13979" lon="-1.28348">
        <ele>95</ele>
        <time>2010-08-01T07:38:49Z</time>
      </trkpt>
      <trkpt lat="48.13977" lon="-1.28374">
        <ele>95</ele>
        <time>2010-08-01T07:38:53Z</time>
      </trkpt>
      <trkpt lat="48.13977" lon="-1.28387">
        <ele>96</ele>
        <time>2010-08-01T07:38:55Z</time>
      </trkpt>
      <trkpt lat="48.13977" lon="-1.28401">
        <ele>96</ele>
        <time>2010-08-01T07:38:57Z</time>
      </trkpt>
      <trkpt lat="48.13977" lon="-1.28414">
        <ele>96</ele>
        <time>2010-08-01T07:38:59Z</time>
      </trkpt>
      <trkpt lat="48.13977" lon="-1.28428">
        <ele>97</ele>
        <time>2010-08-01T07:39:01Z</time>
      </trkpt>
      <trkpt lat="48.13977" lon="-1.28441">
        <ele>97</ele>
        <time>2010-08-01T07:39:03Z</time>
      </trkpt>
      <trkpt lat="48.1398" lon="-1.2846">
        <ele>98</ele>
        <time>2010-08-01T07:39:06Z</time>
      </trkpt>
      <trkpt lat="48.13982" lon="-1.28473">
        <ele>98</ele>
        <time>2010-08-01T07:39:08Z</time>
      </trkpt>
      <trkpt lat="48.13981" lon="-1.2848">
        <ele>98</ele>
        <time>2010-08-01T07:39:09Z</time>
      </trkpt>
      <trkpt lat="48.1398" lon="-1.28486">
        <ele>99</ele>
        <time>2010-08-01T07:39:10Z</time>
      </trkpt>
      <trkpt lat="48.13974" lon="-1.28496">
        <ele>99</ele>
        <time>2010-08-01T07:39:12Z</time>
      </trkpt>
      <trkpt lat="48.1396" lon="-1.285">
        <ele>99</ele>
        <time>2010-08-01T07:39:15Z</time>
      </trkpt>
      <trkpt lat="48.13955" lon="-1.285">
        <ele>100</ele>
        <time>2010-08-01T07:39:16Z</time>
      </trkpt>
      <trkpt lat="48.13936" lon="-1.285">
        <ele>100</ele>
        <time>2010-08-01T07:39:20Z</time>
      </trkpt>
      <trkpt lat="48.13928" lon="-1.28501">
        <ele>101</ele>
        <time>2010-08-01T07:39:22Z</time>
      </trkpt>
      <trkpt lat="48.13919" lon="-1.28501">
        <ele>101</ele>
        <time>2010-08-01T07:39:24Z</time>
      </trkpt>
      <trkpt lat="48.13915" lon="-1.28501">
        <ele>101</ele>
        <time>2010-08-01T07:39:25Z</time>
      </trkpt>
      <trkpt lat="48.13901" lon="-1.28503">
        <ele>102</ele>
        <time>2010-08-01T07:39:28Z</time>
      </trkpt>
      <trkpt lat="48.13892" lon="-1.28504">
        <ele>102</ele>
        <time>2010-08-01T07:39:30Z</time>
      </trkpt>
      <trkpt lat="48.13883" lon="-1.28504">
        <ele>103</ele>
        <time>2010-08-01T07:39:32Z</time>
      </trkpt>
      <trkpt lat="48.13874" lon="-1.28504">
        <ele>103</ele>
        <time>2010-08-01T07:39:34Z</time>
      </trkpt>
      <trkpt lat="48.13866" lon="-1.28504">
        <ele>104</ele>
        <time>2010-08-01T07:39:36Z</time>
      </trkpt>
      <trkpt lat="48.13857" lon="-1.28505">
        <ele>104</ele>
        <time>2010-08-01T07:39:38Z</time>
      </trkpt>
      <trkpt lat="48.13851" lon="-1.28505">
        <ele>104</ele>
        <time>2010-08-01T07:39:40Z</time>
      </trkpt>
      <trkpt lat="48.13862" lon="-1.28507">
        <ele>104</ele>
        <time>2010-08-01T07:39:45Z</time>
      </trkpt>
      <trkpt lat="48.13865" lon="-1.28518">
        <ele>104</ele>
        <time>2010-08-01T07:39:47Z</time>
      </trkpt>
      <trkpt lat="48.13865" lon="-1.28534">
        <ele>104</ele>
        <time>2010-08-01T07:39:49Z</time>
      </trkpt>
      <trkpt lat="48.13864" lon="-1.28549">
        <ele>104</ele>
        <time>2010-08-01T07:39:51Z</time>
      </trkpt>
      <trkpt lat="48.13864" lon="-1.28557">
        <ele>105</ele>
        <time>2010-08-01T07:39:52Z</time>
      </trkpt>
      <trkpt lat="48.13864" lon="-1.28578">
        <ele>105</ele>
        <time>2010-08-01T07:39:55Z</time>
      </trkpt>
      <trkpt lat="48.13863" lon="-1.28584">
        <ele>105</ele>
        <time>2010-08-01T07:39:56Z</time>
      </trkpt>
      <trkpt lat="48.13864" lon="-1.28604">
        <ele>105</ele>
        <time>2010-08-01T07:39:59Z</time>
      </trkpt>
      <trkpt lat="48.13862" lon="-1.28625">
        <ele>106</ele>
        <time>2010-08-01T07:40:02Z</time>
      </trkpt>
      <trkpt lat="48.13869" lon="-1.28641">
        <ele>106</ele>
        <time>2010-08-01T07:40:05Z</time>
      </trkpt>
      <trkpt lat="48.13872" lon="-1.28661">
        <ele>107</ele>
        <time>2010-08-01T07:40:08Z</time>
      </trkpt>
      <trkpt lat="48.13873" lon="-1.28667">
        <ele>107</ele>
        <time>2010-08-01T07:40:09Z</time>
      </trkpt>
      <trkpt lat="48.13874" lon="-1.2869">
        <ele>107</ele>
        <time>2010-08-01T07:40:12Z</time>
      </trkpt>
      <trkpt lat="48.13874" lon="-1.28697">
        <ele>108</ele>
        <time>2010-08-01T07:40:13Z</time>
      </trkpt>
      <trkpt lat="48.13877" lon="-1.28716">
        <ele>108</ele>
        <time>2010-08-01T07:40:16Z</time>
      </trkpt>
      <trkpt lat="48.13883" lon="-1.28748">
        <ele>109</ele>
        <time>2010-08-01T07:40:22Z</time>
      </trkpt>
      <trkpt lat="48.13885" lon="-1.28764">
        <ele>109</ele>
        <time>2010-08-01T07:40:25Z</time>
      </trkpt>
      <trkpt lat="48.13884" lon="-1.2877">
        <ele>109</ele>
        <time>2010-08-01T07:40:26Z</time>
      </trkpt>
      <trkpt lat="48.13884" lon="-1.28777">
        <ele>109</ele>
        <time>2010-08-01T07:40:27Z</time>
      </trkpt>
      <trkpt lat="48.13886" lon="-1.28788">
        <ele>110</ele>
        <time>2010-08-01T07:40:29Z</time>
      </trkpt>
      <trkpt lat="48.13887" lon="-1.28795">
        <ele>110</ele>
        <time>2010-08-01T07:40:30Z</time>
      </trkpt>
      <trkpt lat="48.13889" lon="-1.288">
        <ele>110</ele>
        <time>2010-08-01T07:40:31Z</time>
      </trkpt>
      <trkpt lat="48.1389" lon="-1.28806">
        <ele>110</ele>
        <time>2010-08-01T07:40:32Z</time>
      </trkpt>
      <trkpt lat="48.13892" lon="-1.28827">
        <ele>110</ele>
        <time>2010-08-01T07:40:35Z</time>
      </trkpt>
      <trkpt lat="48.13892" lon="-1.28842">
        <ele>111</ele>
        <time>2010-08-01T07:40:37Z</time>
      </trkpt>
      <trkpt lat="48.13893" lon="-1.28855">
        <ele>111</ele>
        <time>2010-08-01T07:40:39Z</time>
      </trkpt>
      <trkpt lat="48.13895" lon="-1.28868">
        <ele>111</ele>
        <time>2010-08-01T07:40:41Z</time>
      </trkpt>
      <trkpt lat="48.13896" lon="-1.28881">
        <ele>111</ele>
        <time>2010-08-01T07:40:43Z</time>
      </trkpt>
      <trkpt lat="48.13897" lon="-1.28894">
        <ele>111</ele>
        <time>2010-08-01T07:40:45Z</time>
      </trkpt>
      <trkpt lat="48.13901" lon="-1.28922">
        <ele>112</ele>
        <time>2010-08-01T07:40:49Z</time>
      </trkpt>
      <trkpt lat="48.13902" lon="-1.2893">
        <ele>112</ele>
        <time>2010-08-01T07:40:50Z</time>
      </trkpt>
      <trkpt lat="48.13903" lon="-1.28945">
        <ele>112</ele>
        <time>2010-08-01T07:40:52Z</time>
      </trkpt>
      <trkpt lat="48.13904" lon="-1.28958">
        <ele>112</ele>
        <time>2010-08-01T07:40:54Z</time>
      </trkpt>
      <trkpt lat="48.13904" lon="-1.28965">
        <ele>112</ele>
        <time>2010-08-01T07:40:55Z</time>
      </trkpt>
      <trkpt lat="48.13906" lon="-1.28988">
        <ele>112</ele>
        <time>2010-08-01T07:40:58Z</time>
      </trkpt>
      <trkpt lat="48.13909" lon="-1.29005">
        <ele>112</ele>
        <time>2010-08-01T07:41:00Z</time>
      </trkpt>
      <trkpt lat="48.13913" lon="-1.29028">
        <ele>111</ele>
        <time>2010-08-01T07:41:03Z</time>
      </trkpt>
      <trkpt lat="48.13924" lon="-1.29066">
        <ele>111</ele>
        <time>2010-08-01T07:41:08Z</time>
      </trkpt>
      <trkpt lat="48.13923" lon="-1.29073">
        <ele>111</ele>
        <time>2010-08-01T07:41:09Z</time>
      </trkpt>
      <trkpt lat="48.13922" lon="-1.29104">
        <ele>111</ele>
        <time>2010-08-01T07:41:13Z</time>
      </trkpt>
      <trkpt lat="48.13923" lon="-1.29113">
        <ele>111</ele>
        <time>2010-08-01T07:41:14Z</time>
      </trkpt>
      <trkpt lat="48.13934" lon="-1.29193">
        <ele>111</ele>
        <time>2010-08-01T07:41:23Z</time>
      </trkpt>
      <trkpt lat="48.13939" lon="-1.2923">
        <ele>111</ele>
        <time>2010-08-01T07:41:27Z</time>
      </trkpt>
      <trkpt lat="48.13952" lon="-1.29276">
        <ele>111</ele>
        <time>2010-08-01T07:41:33Z</time>
      </trkpt>
      <trkpt lat="48.13953" lon="-1.29288">
        <ele>111</ele>
        <time>2010-08-01T07:41:35Z</time>
      </trkpt>
      <trkpt lat="48.13956" lon="-1.29294">
        <ele>111</ele>
        <time>2010-08-01T07:41:39Z</time>
      </trkpt>
      <trkpt lat="48.13956" lon="-1.29293">
        <ele>111</ele>
        <time>2010-08-01T07:42:13Z</time>
      </trkpt>
      <trkpt lat="48.13954" lon="-1.29295">
        <ele>111</ele>
        <time>2010-08-01T07:42:14Z</time>
      </trkpt>
      <trkpt lat="48.13946" lon="-1.29295">
        <ele>111</ele>
        <time>2010-08-01T07:42:17Z</time>
      </trkpt>
      <trkpt lat="48.13942" lon="-1.29294">
        <ele>111</ele>
        <time>2010-08-01T07:42:18Z</time>
      </trkpt>
      <trkpt lat="48.13929" lon="-1.29293">
        <ele>111</ele>
        <time>2010-08-01T07:42:20Z</time>
      </trkpt>
      <trkpt lat="48.13915" lon="-1.29295">
        <ele>111</ele>
        <time>2010-08-01T07:42:22Z</time>
      </trkpt>
      <trkpt lat="48.13894" lon="-1.29303">
        <ele>111</ele>
        <time>2010-08-01T07:42:25Z</time>
      </trkpt>
      <trkpt lat="48.1385" lon="-1.2933">
        <ele>109</ele>
        <time>2010-08-01T07:42:32Z</time>
      </trkpt>
      <trkpt lat="48.13831" lon="-1.29344">
        <ele>109</ele>
        <time>2010-08-01T07:42:35Z</time>
      </trkpt>
      <trkpt lat="48.13801" lon="-1.29361">
        <ele>109</ele>
        <time>2010-08-01T07:42:40Z</time>
      </trkpt>
      <trkpt lat="48.1379" lon="-1.29368">
        <ele>108</ele>
        <time>2010-08-01T07:42:42Z</time>
      </trkpt>
      <trkpt lat="48.13777" lon="-1.29374">
        <ele>107</ele>
        <time>2010-08-01T07:42:44Z</time>
      </trkpt>
      <trkpt lat="48.13763" lon="-1.2938">
        <ele>107</ele>
        <time>2010-08-01T07:42:46Z</time>
      </trkpt>
      <trkpt lat="48.1375" lon="-1.29387">
        <ele>106</ele>
        <time>2010-08-01T07:42:48Z</time>
      </trkpt>
      <trkpt lat="48.13743" lon="-1.2939">
        <ele>106</ele>
        <time>2010-08-01T07:42:49Z</time>
      </trkpt>
      <trkpt lat="48.13729" lon="-1.29399">
        <ele>105</ele>
        <time>2010-08-01T07:42:51Z</time>
      </trkpt>
      <trkpt lat="48.13716" lon="-1.29408">
        <ele>104</ele>
        <time>2010-08-01T07:42:53Z</time>
      </trkpt>
      <trkpt lat="48.13702" lon="-1.29416">
        <ele>104</ele>
        <time>2010-08-01T07:42:55Z</time>
      </trkpt>
      <trkpt lat="48.13697" lon="-1.2942">
        <ele>104</ele>
        <time>2010-08-01T07:42:56Z</time>
      </trkpt>
      <trkpt lat="48.13686" lon="-1.29427">
        <ele>103</ele>
        <time>2010-08-01T07:42:58Z</time>
      </trkpt>
      <trkpt lat="48.13678" lon="-1.29433">
        <ele>102</ele>
        <time>2010-08-01T07:43:00Z</time>
      </trkpt>
      <trkpt lat="48.13675" lon="-1.29436">
        <ele>102</ele>
        <time>2010-08-01T07:43:01Z</time>
      </trkpt>
      <trkpt lat="48.13672" lon="-1.29438">
        <ele>102</ele>
        <time>2010-08-01T07:43:02Z</time>
      </trkpt>
      <trkpt lat="48.13666" lon="-1.29431">
        <ele>102</ele>
        <time>2010-08-01T07:43:05Z</time>
      </trkpt>
      <trkpt lat="48.13666" lon="-1.29426">
        <ele>102</ele>
        <time>2010-08-01T07:43:06Z</time>
      </trkpt>
      <trkpt lat="48.13666" lon="-1.29407">
        <ele>102</ele>
        <time>2010-08-01T07:43:09Z</time>
      </trkpt>
      <trkpt lat="48.13666" lon="-1.294">
        <ele>102</ele>
        <time>2010-08-01T07:43:10Z</time>
      </trkpt>
      <trkpt lat="48.13665" lon="-1.29364">
        <ele>102</ele>
        <time>2010-08-01T07:43:15Z</time>
      </trkpt>
      <trkpt lat="48.13665" lon="-1.29357">
        <ele>102</ele>
        <time>2010-08-01T07:43:16Z</time>
      </trkpt>
      <trkpt lat="48.13656" lon="-1.29307">
        <ele>102</ele>
        <time>2010-08-01T07:43:22Z</time>
      </trkpt>
      <trkpt lat="48.13654" lon="-1.29288">
        <ele>102</ele>
        <time>2010-08-01T07:43:24Z</time>
      </trkpt>
      <trkpt lat="48.1365" lon="-1.29256">
        <ele>102</ele>
        <time>2010-08-01T07:43:28Z</time>
      </trkpt>
      <trkpt lat="48.13652" lon="-1.29246">
        <ele>102</ele>
        <time>2010-08-01T07:43:29Z</time>
      </trkpt>
      <trkpt lat="48.13654" lon="-1.29235">
        <ele>102</ele>
        <time>2010-08-01T07:43:30Z</time>
      </trkpt>
      <trkpt lat="48.1365" lon="-1.29185">
        <ele>101</ele>
        <time>2010-08-01T07:43:35Z</time>
      </trkpt>
      <trkpt lat="48.1365" lon="-1.29174">
        <ele>101</ele>
        <time>2010-08-01T07:43:36Z</time>
      </trkpt>
      <trkpt lat="48.13649" lon="-1.29115">
        <ele>101</ele>
        <time>2010-08-01T07:43:42Z</time>
      </trkpt>
      <trkpt lat="48.13649" lon="-1.29104">
        <ele>101</ele>
        <time>2010-08-01T07:43:43Z</time>
      </trkpt>
      <trkpt lat="48.13643" lon="-1.29089">
        <ele>100</ele>
        <time>2010-08-01T07:43:45Z</time>
      </trkpt>
      <trkpt lat="48.13637" lon="-1.29076">
        <ele>100</ele>
        <time>2010-08-01T07:43:47Z</time>
      </trkpt>
      <trkpt lat="48.13629" lon="-1.29062">
        <ele>99</ele>
        <time>2010-08-01T07:43:49Z</time>
      </trkpt>
      <trkpt lat="48.13624" lon="-1.29046">
        <ele>99</ele>
        <time>2010-08-01T07:43:51Z</time>
      </trkpt>
      <trkpt lat="48.13621" lon="-1.29037">
        <ele>98</ele>
        <time>2010-08-01T07:43:52Z</time>
      </trkpt>
      <trkpt lat="48.13621" lon="-1.29028">
        <ele>99</ele>
        <time>2010-08-01T07:43:53Z</time>
      </trkpt>
      <trkpt lat="48.13627" lon="-1.29016">
        <ele>99</ele>
        <time>2010-08-01T07:43:55Z</time>
      </trkpt>
      <trkpt lat="48.1363" lon="-1.29012">
        <ele>100</ele>
        <time>2010-08-01T07:43:56Z</time>
      </trkpt>
      <trkpt lat="48.13655" lon="-1.29001">
        <ele>102</ele>
        <time>2010-08-01T07:44:02Z</time>
      </trkpt>
      <trkpt lat="48.13668" lon="-1.28991">
        <ele>104</ele>
        <time>2010-08-01T07:44:06Z</time>
      </trkpt>
      <trkpt lat="48.13673" lon="-1.28984">
        <ele>105</ele>
        <time>2010-08-01T07:44:08Z</time>
      </trkpt>
      <trkpt lat="48.13678" lon="-1.28976">
        <ele>105</ele>
        <time>2010-08-01T07:44:10Z</time>
      </trkpt>
      <trkpt lat="48.1368" lon="-1.28972">
        <ele>105</ele>
        <time>2010-08-01T07:44:11Z</time>
      </trkpt>
      <trkpt lat="48.13687" lon="-1.28957">
        <ele>106</ele>
        <time>2010-08-01T07:44:14Z</time>
      </trkpt>
      <trkpt lat="48.13688" lon="-1.28951">
        <ele>106</ele>
        <time>2010-08-01T07:44:15Z</time>
      </trkpt>
      <trkpt lat="48.13691" lon="-1.28939">
        <ele>106</ele>
        <time>2010-08-01T07:44:17Z</time>
      </trkpt>
      <trkpt lat="48.13692" lon="-1.28928">
        <ele>106</ele>
        <time>2010-08-01T07:44:19Z</time>
      </trkpt>
      <trkpt lat="48.13691" lon="-1.28917">
        <ele>106</ele>
        <time>2010-08-01T07:44:21Z</time>
      </trkpt>
      <trkpt lat="48.1369" lon="-1.28904">
        <ele>106</ele>
        <time>2010-08-01T07:44:23Z</time>
      </trkpt>
      <trkpt lat="48.13691" lon="-1.28871">
        <ele>107</ele>
        <time>2010-08-01T07:44:28Z</time>
      </trkpt>
      <trkpt lat="48.13691" lon="-1.28856">
        <ele>107</ele>
        <time>2010-08-01T07:44:30Z</time>
      </trkpt>
      <trkpt lat="48.13691" lon="-1.28841">
        <ele>107</ele>
        <time>2010-08-01T07:44:32Z</time>
      </trkpt>
      <trkpt lat="48.1369" lon="-1.28824">
        <ele>107</ele>
        <time>2010-08-01T07:44:34Z</time>
      </trkpt>
      <trkpt lat="48.1369" lon="-1.28806">
        <ele>107</ele>
        <time>2010-08-01T07:44:36Z</time>
      </trkpt>
      <trkpt lat="48.13689" lon="-1.28722">
        <ele>107</ele>
        <time>2010-08-01T07:44:45Z</time>
      </trkpt>
      <trkpt lat="48.13683" lon="-1.28653">
        <ele>107</ele>
        <time>2010-08-01T07:44:52Z</time>
      </trkpt>
      <trkpt lat="48.13675" lon="-1.28575">
        <ele>106</ele>
        <time>2010-08-01T07:45:00Z</time>
      </trkpt>
      <trkpt lat="48.13671" lon="-1.28543">
        <ele>106</ele>
        <time>2010-08-01T07:45:05Z</time>
      </trkpt>
      <trkpt lat="48.13667" lon="-1.28512">
        <ele>106</ele>
        <time>2010-08-01T07:45:09Z</time>
      </trkpt>
      <trkpt lat="48.13668" lon="-1.28501">
        <ele>106</ele>
        <time>2010-08-01T07:45:10Z</time>
      </trkpt>
      <trkpt lat="48.13668" lon="-1.28429">
        <ele>106</ele>
        <time>2010-08-01T07:45:17Z</time>
      </trkpt>
      <trkpt lat="48.13665" lon="-1.28348">
        <ele>106</ele>
        <time>2010-08-01T07:45:25Z</time>
      </trkpt>
      <trkpt lat="48.13663" lon="-1.28271">
        <ele>105</ele>
        <time>2010-08-01T07:45:33Z</time>
      </trkpt>
      <trkpt lat="48.13661" lon="-1.28204">
        <ele>105</ele>
        <time>2010-08-01T07:45:40Z</time>
      </trkpt>
      <trkpt lat="48.1366" lon="-1.28186">
        <ele>104</ele>
        <time>2010-08-01T07:45:42Z</time>
      </trkpt>
      <trkpt lat="48.13671" lon="-1.28139">
        <ele>104</ele>
        <time>2010-08-01T07:45:47Z</time>
      </trkpt>
      <trkpt lat="48.13673" lon="-1.28131">
        <ele>104</ele>
        <time>2010-08-01T07:45:48Z</time>
      </trkpt>
      <trkpt lat="48.13691" lon="-1.28083">
        <ele>104</ele>
        <time>2010-08-01T07:45:54Z</time>
      </trkpt>
      <trkpt lat="48.137" lon="-1.28061">
        <ele>104</ele>
        <time>2010-08-01T07:45:57Z</time>
      </trkpt>
      <trkpt lat="48.13705" lon="-1.28046">
        <ele>104</ele>
        <time>2010-08-01T07:45:59Z</time>
      </trkpt>
      <trkpt lat="48.13709" lon="-1.28032">
        <ele>103</ele>
        <time>2010-08-01T07:46:01Z</time>
      </trkpt>
      <trkpt lat="48.13714" lon="-1.28017">
        <ele>103</ele>
        <time>2010-08-01T07:46:03Z</time>
      </trkpt>
      <trkpt lat="48.13718" lon="-1.2801">
        <ele>102</ele>
        <time>2010-08-01T07:46:04Z</time>
      </trkpt>
      <trkpt lat="48.13721" lon="-1.28003">
        <ele>102</ele>
        <time>2010-08-01T07:46:05Z</time>
      </trkpt>
      <trkpt lat="48.13734" lon="-1.27984">
        <ele>101</ele>
        <time>2010-08-01T07:46:08Z</time>
      </trkpt>
      <trkpt lat="48.13745" lon="-1.27974">
        <ele>100</ele>
        <time>2010-08-01T07:46:10Z</time>
      </trkpt>
      <trkpt lat="48.13752" lon="-1.27967">
        <ele>99</ele>
        <time>2010-08-01T07:46:11Z</time>
      </trkpt>
      <trkpt lat="48.13765" lon="-1.27939">
        <ele>96</ele>
        <time>2010-08-01T07:46:14Z</time>
      </trkpt>
      <trkpt lat="48.13769" lon="-1.27927">
        <ele>95</ele>
        <time>2010-08-01T07:46:15Z</time>
      </trkpt>
      <trkpt lat="48.13772" lon="-1.27914">
        <ele>94</ele>
        <time>2010-08-01T07:46:16Z</time>
      </trkpt>
      <trkpt lat="48.13776" lon="-1.27901">
        <ele>93</ele>
        <time>2010-08-01T07:46:17Z</time>
      </trkpt>
      <trkpt lat="48.1378" lon="-1.27887">
        <ele>91</ele>
        <time>2010-08-01T07:46:18Z</time>
      </trkpt>
      <trkpt lat="48.13787" lon="-1.27862">
        <ele>89</ele>
        <time>2010-08-01T07:46:20Z</time>
      </trkpt>
      <trkpt lat="48.1379" lon="-1.2785">
        <ele>88</ele>
        <time>2010-08-01T07:46:21Z</time>
      </trkpt>
      <trkpt lat="48.13793" lon="-1.27841">
        <ele>87</ele>
        <time>2010-08-01T07:46:22Z</time>
      </trkpt>
      <trkpt lat="48.13801" lon="-1.27825">
        <ele>86</ele>
        <time>2010-08-01T07:46:24Z</time>
      </trkpt>
      <trkpt lat="48.13798" lon="-1.27793">
        <ele>83</ele>
        <time>2010-08-01T07:46:27Z</time>
      </trkpt>
      <trkpt lat="48.13794" lon="-1.27781">
        <ele>82</ele>
        <time>2010-08-01T07:46:28Z</time>
      </trkpt>
      <trkpt lat="48.13789" lon="-1.27769">
        <ele>82</ele>
        <time>2010-08-01T07:46:29Z</time>
      </trkpt>
      <trkpt lat="48.13785" lon="-1.27759">
        <ele>82</ele>
        <time>2010-08-01T07:46:30Z</time>
      </trkpt>
      <trkpt lat="48.13782" lon="-1.27748">
        <ele>81</ele>
        <time>2010-08-01T07:46:31Z</time>
      </trkpt>
      <trkpt lat="48.13775" lon="-1.27729">
        <ele>80</ele>
        <time>2010-08-01T07:46:33Z</time>
      </trkpt>
      <trkpt lat="48.13772" lon="-1.27722">
        <ele>80</ele>
        <time>2010-08-01T07:46:34Z</time>
      </trkpt>
      <trkpt lat="48.13765" lon="-1.2771">
        <ele>79</ele>
        <time>2010-08-01T07:46:36Z</time>
      </trkpt>
      <trkpt lat="48.1376" lon="-1.27696">
        <ele>77</ele>
        <time>2010-08-01T07:46:38Z</time>
      </trkpt>
      <trkpt lat="48.13759" lon="-1.2769">
        <ele>77</ele>
        <time>2010-08-01T07:46:39Z</time>
      </trkpt>
      <trkpt lat="48.1376" lon="-1.27683">
        <ele>76</ele>
        <time>2010-08-01T07:46:40Z</time>
      </trkpt>
      <trkpt lat="48.1376" lon="-1.27675">
        <ele>75</ele>
        <time>2010-08-01T07:46:41Z</time>
      </trkpt>
      <trkpt lat="48.13759" lon="-1.27669">
        <ele>74</ele>
        <time>2010-08-01T07:46:42Z</time>
      </trkpt>
      <trkpt lat="48.13756" lon="-1.27662">
        <ele>74</ele>
        <time>2010-08-01T07:46:44Z</time>
      </trkpt>
      <trkpt lat="48.13753" lon="-1.27657">
        <ele>74</ele>
        <time>2010-08-01T07:46:45Z</time>
      </trkpt>
      <trkpt lat="48.13745" lon="-1.27643">
        <ele>73</ele>
        <time>2010-08-01T07:46:47Z</time>
      </trkpt>
      <trkpt lat="48.13737" lon="-1.27627">
        <ele>72</ele>
        <time>2010-08-01T07:46:49Z</time>
      </trkpt>
      <trkpt lat="48.13729" lon="-1.27611">
        <ele>71</ele>
        <time>2010-08-01T07:46:51Z</time>
      </trkpt>
      <trkpt lat="48.1372" lon="-1.27593">
        <ele>69</ele>
        <time>2010-08-01T07:46:53Z</time>
      </trkpt>
      <trkpt lat="48.1371" lon="-1.27575">
        <ele>68</ele>
        <time>2010-08-01T07:46:55Z</time>
      </trkpt>
      <trkpt lat="48.137" lon="-1.27555">
        <ele>67</ele>
        <time>2010-08-01T07:46:57Z</time>
      </trkpt>
      <trkpt lat="48.13691" lon="-1.27535">
        <ele>67</ele>
        <time>2010-08-01T07:46:59Z</time>
      </trkpt>
      <trkpt lat="48.13683" lon="-1.27514">
        <ele>66</ele>
        <time>2010-08-01T07:47:01Z</time>
      </trkpt>
      <trkpt lat="48.1368" lon="-1.27501">
        <ele>65</ele>
        <time>2010-08-01T07:47:02Z</time>
      </trkpt>
      <trkpt lat="48.13675" lon="-1.27476">
        <ele>63</ele>
        <time>2010-08-01T07:47:04Z</time>
      </trkpt>
      <trkpt lat="48.13671" lon="-1.27449">
        <ele>60</ele>
        <time>2010-08-01T07:47:06Z</time>
      </trkpt>
      <trkpt lat="48.13669" lon="-1.27421">
        <ele>58</ele>
        <time>2010-08-01T07:47:08Z</time>
      </trkpt>
      <trkpt lat="48.13669" lon="-1.27407">
        <ele>57</ele>
        <time>2010-08-01T07:47:09Z</time>
      </trkpt>
      <trkpt lat="48.13668" lon="-1.27381">
        <ele>56</ele>
        <time>2010-08-01T07:47:11Z</time>
      </trkpt>
      <trkpt lat="48.13666" lon="-1.27356">
        <ele>56</ele>
        <time>2010-08-01T07:47:13Z</time>
      </trkpt>
      <trkpt lat="48.13665" lon="-1.27333">
        <ele>58</ele>
        <time>2010-08-01T07:47:15Z</time>
      </trkpt>
      <trkpt lat="48.13664" lon="-1.27312">
        <ele>59</ele>
        <time>2010-08-01T07:47:17Z</time>
      </trkpt>
      <trkpt lat="48.13661" lon="-1.27268">
        <ele>64</ele>
        <time>2010-08-01T07:47:22Z</time>
      </trkpt>
      <trkpt lat="48.13659" lon="-1.27264">
        <ele>64</ele>
        <time>2010-08-01T07:47:23Z</time>
      </trkpt>
      <trkpt lat="48.13654" lon="-1.27265">
        <ele>65</ele>
        <time>2010-08-01T07:47:25Z</time>
      </trkpt>
      <trkpt lat="48.13652" lon="-1.27267">
        <ele>65</ele>
        <time>2010-08-01T07:47:26Z</time>
      </trkpt>
      <trkpt lat="48.13638" lon="-1.27267">
        <ele>67</ele>
        <time>2010-08-01T07:47:30Z</time>
      </trkpt>
      <trkpt lat="48.13627" lon="-1.27271">
        <ele>68</ele>
        <time>2010-08-01T07:47:33Z</time>
      </trkpt>
      <trkpt lat="48.13622" lon="-1.27269">
        <ele>68</ele>
        <time>2010-08-01T07:47:34Z</time>
      </trkpt>
      <trkpt lat="48.13617" lon="-1.27268">
        <ele>69</ele>
        <time>2010-08-01T07:47:35Z</time>
      </trkpt>
      <trkpt lat="48.13614" lon="-1.27269">
        <ele>69</ele>
        <time>2010-08-01T07:47:36Z</time>
      </trkpt>
      <trkpt lat="48.13613" lon="-1.27268">
        <ele>70</ele>
        <time>2010-08-01T07:47:37Z</time>
      </trkpt>
      <trkpt lat="48.13611" lon="-1.27266">
        <ele>70</ele>
        <time>2010-08-01T07:47:38Z</time>
      </trkpt>
      <trkpt lat="48.1361" lon="-1.27266">
        <ele>70</ele>
        <time>2010-08-01T07:47:39Z</time>
      </trkpt>
      <trkpt lat="48.1361" lon="-1.27266">
        <ele>70</ele>
        <time>2010-08-01T07:47:41Z</time>
      </trkpt>
      <trkpt lat="48.13604" lon="-1.27266">
        <ele>71</ele>
        <time>2010-08-01T07:47:48Z</time>
      </trkpt>
      <trkpt lat="48.13598" lon="-1.27267">
        <ele>72</ele>
        <time>2010-08-01T07:47:50Z</time>
      </trkpt>
      <trkpt lat="48.1358" lon="-1.27282">
        <ele>71</ele>
        <time>2010-08-01T07:47:54Z</time>
      </trkpt>
      <trkpt lat="48.13573" lon="-1.27291">
        <ele>70</ele>
        <time>2010-08-01T07:47:55Z</time>
      </trkpt>
      <trkpt lat="48.13563" lon="-1.27305">
        <ele>68</ele>
        <time>2010-08-01T07:47:58Z</time>
      </trkpt>
      <trkpt lat="48.13557" lon="-1.27314">
        <ele>67</ele>
        <time>2010-08-01T07:48:00Z</time>
      </trkpt>
      <trkpt lat="48.13546" lon="-1.2732">
        <ele>66</ele>
        <time>2010-08-01T07:48:02Z</time>
      </trkpt>
      <trkpt lat="48.13527" lon="-1.27331">
        <ele>64</ele>
        <time>2010-08-01T07:48:06Z</time>
      </trkpt>
      <trkpt lat="48.13522" lon="-1.27331">
        <ele>64</ele>
        <time>2010-08-01T07:48:07Z</time>
      </trkpt>
      <trkpt lat="48.13511" lon="-1.27332">
        <ele>64</ele>
        <time>2010-08-01T07:48:10Z</time>
      </trkpt>
      <trkpt lat="48.13509" lon="-1.27332">
        <ele>64</ele>
        <time>2010-08-01T07:48:11Z</time>
      </trkpt>
      <trkpt lat="48.13507" lon="-1.27332">
        <ele>64</ele>
        <time>2010-08-01T07:48:12Z</time>
      </trkpt>
      <trkpt lat="48.13506" lon="-1.2733">
        <ele>65</ele>
        <time>2010-08-01T07:48:13Z</time>
      </trkpt>
      <trkpt lat="48.13506" lon="-1.2733">
        <ele>65</ele>
        <time>2010-08-01T07:48:14Z</time>
      </trkpt>
      <trkpt lat="48.13503" lon="-1.2733">
        <ele>65</ele>
        <time>2010-08-01T07:48:15Z</time>
      </trkpt>
      <trkpt lat="48.13499" lon="-1.27328">
        <ele>65</ele>
        <time>2010-08-01T07:48:17Z</time>
      </trkpt>
      <trkpt lat="48.13495" lon="-1.27324">
        <ele>65</ele>
        <time>2010-08-01T07:48:19Z</time>
      </trkpt>
      <trkpt lat="48.13489" lon="-1.27318">
        <ele>66</ele>
        <time>2010-08-01T07:48:21Z</time>
      </trkpt>
      <trkpt lat="48.13478" lon="-1.27313">
        <ele>65</ele>
        <time>2010-08-01T07:48:23Z</time>
      </trkpt>
      <trkpt lat="48.13461" lon="-1.27305">
        <ele>64</ele>
        <time>2010-08-01T07:48:26Z</time>
      </trkpt>
      <trkpt lat="48.13454" lon="-1.27298">
        <ele>64</ele>
        <time>2010-08-01T07:48:27Z</time>
      </trkpt>
      <trkpt lat="48.13448" lon="-1.27293">
        <ele>64</ele>
        <time>2010-08-01T07:48:28Z</time>
      </trkpt>
      <trkpt lat="48.13441" lon="-1.27286">
        <ele>64</ele>
        <time>2010-08-01T07:48:29Z</time>
      </trkpt>
      <trkpt lat="48.13435" lon="-1.2728">
        <ele>64</ele>
        <time>2010-08-01T07:48:30Z</time>
      </trkpt>
      <trkpt lat="48.13418" lon="-1.27268">
        <ele>63</ele>
        <time>2010-08-01T07:48:33Z</time>
      </trkpt>
      <trkpt lat="48.13405" lon="-1.27262">
        <ele>63</ele>
        <time>2010-08-01T07:48:35Z</time>
      </trkpt>
      <trkpt lat="48.13388" lon="-1.27252">
        <ele>63</ele>
        <time>2010-08-01T07:48:38Z</time>
      </trkpt>
      <trkpt lat="48.13377" lon="-1.27247">
        <ele>63</ele>
        <time>2010-08-01T07:48:40Z</time>
      </trkpt>
      <trkpt lat="48.13366" lon="-1.2724">
        <ele>63</ele>
        <time>2010-08-01T07:48:42Z</time>
      </trkpt>
      <trkpt lat="48.13361" lon="-1.27236">
        <ele>63</ele>
        <time>2010-08-01T07:48:43Z</time>
      </trkpt>
      <trkpt lat="48.13354" lon="-1.27231">
        <ele>63</ele>
        <time>2010-08-01T07:48:44Z</time>
      </trkpt>
      <trkpt lat="48.13345" lon="-1.27223">
        <ele>63</ele>
        <time>2010-08-01T07:48:46Z</time>
      </trkpt>
      <trkpt lat="48.13331" lon="-1.27208">
        <ele>63</ele>
        <time>2010-08-01T07:48:49Z</time>
      </trkpt>
      <trkpt lat="48.13314" lon="-1.27198">
        <ele>62</ele>
        <time>2010-08-01T07:48:52Z</time>
      </trkpt>
      <trkpt lat="48.13299" lon="-1.2717">
        <ele>62</ele>
        <time>2010-08-01T07:48:56Z</time>
      </trkpt>
      <trkpt lat="48.13298" lon="-1.27161">
        <ele>63</ele>
        <time>2010-08-01T07:48:57Z</time>
      </trkpt>
      <trkpt lat="48.13284" lon="-1.27112">
        <ele>64</ele>
        <time>2010-08-01T07:49:03Z</time>
      </trkpt>
      <trkpt lat="48.13263" lon="-1.27099">
        <ele>63</ele>
        <time>2010-08-01T07:49:07Z</time>
      </trkpt>
      <trkpt lat="48.13257" lon="-1.271">
        <ele>63</ele>
        <time>2010-08-01T07:49:08Z</time>
      </trkpt>
      <trkpt lat="48.13238" lon="-1.27105">
        <ele>61</ele>
        <time>2010-08-01T07:49:11Z</time>
      </trkpt>
      <trkpt lat="48.13211" lon="-1.27118">
        <ele>61</ele>
        <time>2010-08-01T07:49:16Z</time>
      </trkpt>
      <trkpt lat="48.13168" lon="-1.27132">
        <ele>64</ele>
        <time>2010-08-01T07:49:25Z</time>
      </trkpt>
      <trkpt lat="48.1316" lon="-1.27136">
        <ele>65</ele>
        <time>2010-08-01T07:49:27Z</time>
      </trkpt>
      <trkpt lat="48.13151" lon="-1.27144">
        <ele>66</ele>
        <time>2010-08-01T07:49:30Z</time>
      </trkpt>
      <trkpt lat="48.13148" lon="-1.27148">
        <ele>67</ele>
        <time>2010-08-01T07:49:31Z</time>
      </trkpt>
      <trkpt lat="48.13143" lon="-1.27159">
        <ele>68</ele>
        <time>2010-08-01T07:49:34Z</time>
      </trkpt>
      <trkpt lat="48.13139" lon="-1.27167">
        <ele>69</ele>
        <time>2010-08-01T07:49:36Z</time>
      </trkpt>
      <trkpt lat="48.13138" lon="-1.27171">
        <ele>69</ele>
        <time>2010-08-01T07:49:37Z</time>
      </trkpt>
      <trkpt lat="48.13142" lon="-1.27186">
        <ele>69</ele>
        <time>2010-08-01T07:49:40Z</time>
      </trkpt>
      <trkpt lat="48.13149" lon="-1.27198">
        <ele>69</ele>
        <time>2010-08-01T07:49:42Z</time>
      </trkpt>
      <trkpt lat="48.13154" lon="-1.27209">
        <ele>69</ele>
        <time>2010-08-01T07:49:44Z</time>
      </trkpt>
      <trkpt lat="48.13159" lon="-1.27225">
        <ele>68</ele>
        <time>2010-08-01T07:49:46Z</time>
      </trkpt>
      <trkpt lat="48.13164" lon="-1.27242">
        <ele>68</ele>
        <time>2010-08-01T07:49:48Z</time>
      </trkpt>
      <trkpt lat="48.13169" lon="-1.27259">
        <ele>68</ele>
        <time>2010-08-01T07:49:50Z</time>
      </trkpt>
      <trkpt lat="48.13176" lon="-1.27284">
        <ele>68</ele>
        <time>2010-08-01T07:49:54Z</time>
      </trkpt>
      <trkpt lat="48.13179" lon="-1.27288">
        <ele>67</ele>
        <time>2010-08-01T07:49:55Z</time>
      </trkpt>
      <trkpt lat="48.13185" lon="-1.27298">
        <ele>67</ele>
        <time>2010-08-01T07:49:57Z</time>
      </trkpt>
      <trkpt lat="48.13188" lon="-1.27303">
        <ele>67</ele>
        <time>2010-08-01T07:49:58Z</time>
      </trkpt>
      <trkpt lat="48.13194" lon="-1.27312">
        <ele>66</ele>
        <time>2010-08-01T07:50:00Z</time>
      </trkpt>
      <trkpt lat="48.132" lon="-1.27323">
        <ele>65</ele>
        <time>2010-08-01T07:50:02Z</time>
      </trkpt>
      <trkpt lat="48.13204" lon="-1.27328">
        <ele>65</ele>
        <time>2010-08-01T07:50:03Z</time>
      </trkpt>
      <trkpt lat="48.13217" lon="-1.27352">
        <ele>63</ele>
        <time>2010-08-01T07:50:06Z</time>
      </trkpt>
      <trkpt lat="48.13223" lon="-1.2737">
        <ele>62</ele>
        <time>2010-08-01T07:50:08Z</time>
      </trkpt>
      <trkpt lat="48.13227" lon="-1.2739">
        <ele>61</ele>
        <time>2010-08-01T07:50:10Z</time>
      </trkpt>
      <trkpt lat="48.13226" lon="-1.27413">
        <ele>61</ele>
        <time>2010-08-01T07:50:12Z</time>
      </trkpt>
      <trkpt lat="48.13221" lon="-1.27434">
        <ele>61</ele>
        <time>2010-08-01T07:50:14Z</time>
      </trkpt>
      <trkpt lat="48.13213" lon="-1.27453">
        <ele>62</ele>
        <time>2010-08-01T07:50:16Z</time>
      </trkpt>
      <trkpt lat="48.13203" lon="-1.27467">
        <ele>62</ele>
        <time>2010-08-01T07:50:18Z</time>
      </trkpt>
      <trkpt lat="48.13181" lon="-1.27484">
        <ele>62</ele>
        <time>2010-08-01T07:50:22Z</time>
      </trkpt>
      <trkpt lat="48.13159" lon="-1.27485">
        <ele>63</ele>
        <time>2010-08-01T07:50:26Z</time>
      </trkpt>
      <trkpt lat="48.13149" lon="-1.27484">
        <ele>63</ele>
        <time>2010-08-01T07:50:28Z</time>
      </trkpt>
      <trkpt lat="48.13144" lon="-1.27483">
        <ele>64</ele>
        <time>2010-08-01T07:50:29Z</time>
      </trkpt>
      <trkpt lat="48.13139" lon="-1.27481">
        <ele>64</ele>
        <time>2010-08-01T07:50:30Z</time>
      </trkpt>
      <trkpt lat="48.13134" lon="-1.27478">
        <ele>64</ele>
        <time>2010-08-01T07:50:31Z</time>
      </trkpt>
      <trkpt lat="48.1313" lon="-1.27475">
        <ele>65</ele>
        <time>2010-08-01T07:50:32Z</time>
      </trkpt>
      <trkpt lat="48.13125" lon="-1.2747">
        <ele>65</ele>
        <time>2010-08-01T07:50:33Z</time>
      </trkpt>
      <trkpt lat="48.13114" lon="-1.27462">
        <ele>65</ele>
        <time>2010-08-01T07:50:35Z</time>
      </trkpt>
      <trkpt lat="48.13099" lon="-1.27442">
        <ele>65</ele>
        <time>2010-08-01T07:50:38Z</time>
      </trkpt>
      <trkpt lat="48.13094" lon="-1.27434">
        <ele>65</ele>
        <time>2010-08-01T07:50:39Z</time>
      </trkpt>
      <trkpt lat="48.1309" lon="-1.27426">
        <ele>66</ele>
        <time>2010-08-01T07:50:40Z</time>
      </trkpt>
      <trkpt lat="48.13071" lon="-1.27435">
        <ele>65</ele>
        <time>2010-08-01T07:50:43Z</time>
      </trkpt>
      <trkpt lat="48.13059" lon="-1.27452">
        <ele>64</ele>
        <time>2010-08-01T07:50:45Z</time>
      </trkpt>
      <trkpt lat="48.13054" lon="-1.27461">
        <ele>64</ele>
        <time>2010-08-01T07:50:46Z</time>
      </trkpt>
      <trkpt lat="48.1305" lon="-1.27468">
        <ele>64</ele>
        <time>2010-08-01T07:50:47Z</time>
      </trkpt>
      <trkpt lat="48.13046" lon="-1.27476">
        <ele>63</ele>
        <time>2010-08-01T07:50:48Z</time>
      </trkpt>
      <trkpt lat="48.13021" lon="-1.27524">
        <ele>62</ele>
        <time>2010-08-01T07:50:55Z</time>
      </trkpt>
      <trkpt lat="48.12992" lon="-1.27554">
        <ele>63</ele>
        <time>2010-08-01T07:51:01Z</time>
      </trkpt>
      <trkpt lat="48.12967" lon="-1.27578">
        <ele>63</ele>
        <time>2010-08-01T07:51:06Z</time>
      </trkpt>
      <trkpt lat="48.12941" lon="-1.27608">
        <ele>65</ele>
        <time>2010-08-01T07:51:12Z</time>
      </trkpt>
      <trkpt lat="48.12914" lon="-1.27644">
        <ele>67</ele>
        <time>2010-08-01T07:51:19Z</time>
      </trkpt>
      <trkpt lat="48.12907" lon="-1.27655">
        <ele>68</ele>
        <time>2010-08-01T07:51:21Z</time>
      </trkpt>
      <trkpt lat="48.129" lon="-1.27664">
        <ele>68</ele>
        <time>2010-08-01T07:51:23Z</time>
      </trkpt>
      <trkpt lat="48.12893" lon="-1.27673">
        <ele>68</ele>
        <time>2010-08-01T07:51:25Z</time>
      </trkpt>
      <trkpt lat="48.12886" lon="-1.27682">
        <ele>69</ele>
        <time>2010-08-01T07:51:27Z</time>
      </trkpt>
      <trkpt lat="48.1288" lon="-1.27688">
        <ele>69</ele>
        <time>2010-08-01T07:51:29Z</time>
      </trkpt>
      <trkpt lat="48.12876" lon="-1.27692">
        <ele>69</ele>
        <time>2010-08-01T07:51:30Z</time>
      </trkpt>
      <trkpt lat="48.12868" lon="-1.27709">
        <ele>69</ele>
        <time>2010-08-01T07:51:33Z</time>
      </trkpt>
      <trkpt lat="48.12866" lon="-1.27725">
        <ele>68</ele>
        <time>2010-08-01T07:51:35Z</time>
      </trkpt>
      <trkpt lat="48.12865" lon="-1.27735">
        <ele>68</ele>
        <time>2010-08-01T07:51:36Z</time>
      </trkpt>
      <trkpt lat="48.12857" lon="-1.27803">
        <ele>67</ele>
        <time>2010-08-01T07:51:43Z</time>
      </trkpt>
      <trkpt lat="48.12854" lon="-1.27829">
        <ele>67</ele>
        <time>2010-08-01T07:51:46Z</time>
      </trkpt>
      <trkpt lat="48.12857" lon="-1.27853">
        <ele>66</ele>
        <time>2010-08-01T07:51:49Z</time>
      </trkpt>
      <trkpt lat="48.12859" lon="-1.27861">
        <ele>66</ele>
        <time>2010-08-01T07:51:50Z</time>
      </trkpt>
      <trkpt lat="48.12867" lon="-1.27885">
        <ele>65</ele>
        <time>2010-08-01T07:51:53Z</time>
      </trkpt>
      <trkpt lat="48.12872" lon="-1.27904">
        <ele>65</ele>
        <time>2010-08-01T07:51:55Z</time>
      </trkpt>
      <trkpt lat="48.12877" lon="-1.27924">
        <ele>65</ele>
        <time>2010-08-01T07:51:57Z</time>
      </trkpt>
      <trkpt lat="48.12879" lon="-1.27934">
        <ele>65</ele>
        <time>2010-08-01T07:51:58Z</time>
      </trkpt>
      <trkpt lat="48.12878" lon="-1.27987">
        <ele>65</ele>
        <time>2010-08-01T07:52:03Z</time>
      </trkpt>
      <trkpt lat="48.12876" lon="-1.28019">
        <ele>66</ele>
        <time>2010-08-01T07:52:07Z</time>
      </trkpt>
      <trkpt lat="48.12877" lon="-1.28064">
        <ele>66</ele>
        <time>2010-08-01T07:52:13Z</time>
      </trkpt>
      <trkpt lat="48.12876" lon="-1.28091">
        <ele>67</ele>
        <time>2010-08-01T07:52:17Z</time>
      </trkpt>
      <trkpt lat="48.12876" lon="-1.28097">
        <ele>67</ele>
        <time>2010-08-01T07:52:18Z</time>
      </trkpt>
      <trkpt lat="48.12877" lon="-1.28115">
        <ele>67</ele>
        <time>2010-08-01T07:52:21Z</time>
      </trkpt>
      <trkpt lat="48.12876" lon="-1.28122">
        <ele>68</ele>
        <time>2010-08-01T07:52:22Z</time>
      </trkpt>
      <trkpt lat="48.12876" lon="-1.28127">
        <ele>68</ele>
        <time>2010-08-01T07:52:23Z</time>
      </trkpt>
      <trkpt lat="48.12874" lon="-1.2814">
        <ele>69</ele>
        <time>2010-08-01T07:52:25Z</time>
      </trkpt>
      <trkpt lat="48.12874" lon="-1.28153">
        <ele>69</ele>
        <time>2010-08-01T07:52:27Z</time>
      </trkpt>
      <trkpt lat="48.12874" lon="-1.28168">
        <ele>69</ele>
        <time>2010-08-01T07:52:29Z</time>
      </trkpt>
      <trkpt lat="48.12875" lon="-1.28172">
        <ele>70</ele>
        <time>2010-08-01T07:52:30Z</time>
      </trkpt>
      <trkpt lat="48.12873" lon="-1.28184">
        <ele>70</ele>
        <time>2010-08-01T07:52:32Z</time>
      </trkpt>
      <trkpt lat="48.12873" lon="-1.28194">
        <ele>70</ele>
        <time>2010-08-01T07:52:34Z</time>
      </trkpt>
      <trkpt lat="48.12874" lon="-1.28199">
        <ele>70</ele>
        <time>2010-08-01T07:52:35Z</time>
      </trkpt>
      <trkpt lat="48.12875" lon="-1.28218">
        <ele>70</ele>
        <time>2010-08-01T07:52:38Z</time>
      </trkpt>
      <trkpt lat="48.12877" lon="-1.28232">
        <ele>70</ele>
        <time>2010-08-01T07:52:40Z</time>
      </trkpt>
      <trkpt lat="48.12876" lon="-1.2824">
        <ele>71</ele>
        <time>2010-08-01T07:52:41Z</time>
      </trkpt>
      <trkpt lat="48.12877" lon="-1.28248">
        <ele>70</ele>
        <time>2010-08-01T07:52:42Z</time>
      </trkpt>
      <trkpt lat="48.12877" lon="-1.28265">
        <ele>71</ele>
        <time>2010-08-01T07:52:44Z</time>
      </trkpt>
      <trkpt lat="48.12876" lon="-1.28282">
        <ele>70</ele>
        <time>2010-08-01T07:52:46Z</time>
      </trkpt>
      <trkpt lat="48.12873" lon="-1.28337">
        <ele>70</ele>
        <time>2010-08-01T07:52:53Z</time>
      </trkpt>
      <trkpt lat="48.12874" lon="-1.28346">
        <ele>69</ele>
        <time>2010-08-01T07:52:54Z</time>
      </trkpt>
      <trkpt lat="48.1288" lon="-1.28379">
        <ele>68</ele>
        <time>2010-08-01T07:52:57Z</time>
      </trkpt>
      <trkpt lat="48.12884" lon="-1.28404">
        <ele>67</ele>
        <time>2010-08-01T07:52:59Z</time>
      </trkpt>
      <trkpt lat="48.12889" lon="-1.28429">
        <ele>66</ele>
        <time>2010-08-01T07:53:01Z</time>
      </trkpt>
      <trkpt lat="48.12892" lon="-1.28453">
        <ele>65</ele>
        <time>2010-08-01T07:53:03Z</time>
      </trkpt>
      <trkpt lat="48.12897" lon="-1.28476">
        <ele>65</ele>
        <time>2010-08-01T07:53:05Z</time>
      </trkpt>
      <trkpt lat="48.12899" lon="-1.28488">
        <ele>64</ele>
        <time>2010-08-01T07:53:06Z</time>
      </trkpt>
      <trkpt lat="48.12904" lon="-1.2851">
        <ele>64</ele>
        <time>2010-08-01T07:53:08Z</time>
      </trkpt>
      <trkpt lat="48.12909" lon="-1.28533">
        <ele>63</ele>
        <time>2010-08-01T07:53:10Z</time>
      </trkpt>
      <trkpt lat="48.12914" lon="-1.28557">
        <ele>63</ele>
        <time>2010-08-01T07:53:12Z</time>
      </trkpt>
      <trkpt lat="48.12919" lon="-1.28579">
        <ele>62</ele>
        <time>2010-08-01T07:53:14Z</time>
      </trkpt>
      <trkpt lat="48.12924" lon="-1.28599">
        <ele>62</ele>
        <time>2010-08-01T07:53:16Z</time>
      </trkpt>
      <trkpt lat="48.12926" lon="-1.28609">
        <ele>62</ele>
        <time>2010-08-01T07:53:17Z</time>
      </trkpt>
      <trkpt lat="48.12925" lon="-1.2864">
        <ele>62</ele>
        <time>2010-08-01T07:53:20Z</time>
      </trkpt>
      <trkpt lat="48.12925" lon="-1.28652">
        <ele>62</ele>
        <time>2010-08-01T07:53:21Z</time>
      </trkpt>
      <trkpt lat="48.12923" lon="-1.28663">
        <ele>63</ele>
        <time>2010-08-01T07:53:22Z</time>
      </trkpt>
      <trkpt lat="48.12921" lon="-1.28687">
        <ele>62</ele>
        <time>2010-08-01T07:53:24Z</time>
      </trkpt>
      <trkpt lat="48.1292" lon="-1.28709">
        <ele>62</ele>
        <time>2010-08-01T07:53:26Z</time>
      </trkpt>
      <trkpt lat="48.12917" lon="-1.28729">
        <ele>62</ele>
        <time>2010-08-01T07:53:28Z</time>
      </trkpt>
      <trkpt lat="48.12916" lon="-1.28739">
        <ele>62</ele>
        <time>2010-08-01T07:53:29Z</time>
      </trkpt>
      <trkpt lat="48.12897" lon="-1.28803">
        <ele>61</ele>
        <time>2010-08-01T07:53:36Z</time>
      </trkpt>
      <trkpt lat="48.12871" lon="-1.2887">
        <ele>62</ele>
        <time>2010-08-01T07:53:44Z</time>
      </trkpt>
      <trkpt lat="48.12847" lon="-1.28932">
        <ele>62</ele>
        <time>2010-08-01T07:53:52Z</time>
      </trkpt>
      <trkpt lat="48.12844" lon="-1.28939">
        <ele>62</ele>
        <time>2010-08-01T07:53:53Z</time>
      </trkpt>
      <trkpt lat="48.12821" lon="-1.28986">
        <ele>63</ele>
        <time>2010-08-01T07:54:00Z</time>
      </trkpt>
      <trkpt lat="48.12806" lon="-1.29021">
        <ele>64</ele>
        <time>2010-08-01T07:54:05Z</time>
      </trkpt>
      <trkpt lat="48.12795" lon="-1.29048">
        <ele>64</ele>
        <time>2010-08-01T07:54:09Z</time>
      </trkpt>
      <trkpt lat="48.12789" lon="-1.29063">
        <ele>65</ele>
        <time>2010-08-01T07:54:11Z</time>
      </trkpt>
      <trkpt lat="48.12783" lon="-1.29077">
        <ele>65</ele>
        <time>2010-08-01T07:54:13Z</time>
      </trkpt>
      <trkpt lat="48.12779" lon="-1.2909">
        <ele>66</ele>
        <time>2010-08-01T07:54:15Z</time>
      </trkpt>
      <trkpt lat="48.12774" lon="-1.29102">
        <ele>66</ele>
        <time>2010-08-01T07:54:17Z</time>
      </trkpt>
      <trkpt lat="48.12768" lon="-1.29118">
        <ele>66</ele>
        <time>2010-08-01T07:54:20Z</time>
      </trkpt>
      <trkpt lat="48.12767" lon="-1.29129">
        <ele>66</ele>
        <time>2010-08-01T07:54:22Z</time>
      </trkpt>
      <trkpt lat="48.12768" lon="-1.29134">
        <ele>66</ele>
        <time>2010-08-01T07:54:23Z</time>
      </trkpt>
      <trkpt lat="48.1277" lon="-1.29141">
        <ele>66</ele>
        <time>2010-08-01T07:54:24Z</time>
      </trkpt>
      <trkpt lat="48.12774" lon="-1.29158">
        <ele>65</ele>
        <time>2010-08-01T07:54:26Z</time>
      </trkpt>
      <trkpt lat="48.12774" lon="-1.29168">
        <ele>64</ele>
        <time>2010-08-01T07:54:27Z</time>
      </trkpt>
      <trkpt lat="48.12774" lon="-1.29177">
        <ele>64</ele>
        <time>2010-08-01T07:54:28Z</time>
      </trkpt>
      <trkpt lat="48.1277" lon="-1.29194">
        <ele>64</ele>
        <time>2010-08-01T07:54:30Z</time>
      </trkpt>
      <trkpt lat="48.12767" lon="-1.29207">
        <ele>64</ele>
        <time>2010-08-01T07:54:32Z</time>
      </trkpt>
      <trkpt lat="48.12768" lon="-1.29225">
        <ele>62</ele>
        <time>2010-08-01T07:54:35Z</time>
      </trkpt>
      <trkpt lat="48.12765" lon="-1.29233">
        <ele>62</ele>
        <time>2010-08-01T07:54:36Z</time>
      </trkpt>
      <trkpt lat="48.12762" lon="-1.29236">
        <ele>62</ele>
        <time>2010-08-01T07:54:37Z</time>
      </trkpt>
      <trkpt lat="48.12752" lon="-1.29243">
        <ele>62</ele>
        <time>2010-08-01T07:54:39Z</time>
      </trkpt>
      <trkpt lat="48.1274" lon="-1.29244">
        <ele>62</ele>
        <time>2010-08-01T07:54:41Z</time>
      </trkpt>
      <trkpt lat="48.12732" lon="-1.29244">
        <ele>62</ele>
        <time>2010-08-01T07:54:42Z</time>
      </trkpt>
      <trkpt lat="48.12726" lon="-1.29245">
        <ele>62</ele>
        <time>2010-08-01T07:54:43Z</time>
      </trkpt>
      <trkpt lat="48.12719" lon="-1.29247">
        <ele>62</ele>
        <time>2010-08-01T07:54:44Z</time>
      </trkpt>
      <trkpt lat="48.12713" lon="-1.29251">
        <ele>62</ele>
        <time>2010-08-01T07:54:45Z</time>
      </trkpt>
      <trkpt lat="48.12706" lon="-1.29255">
        <ele>61</ele>
        <time>2010-08-01T07:54:46Z</time>
      </trkpt>
      <trkpt lat="48.12689" lon="-1.29276">
        <ele>58</ele>
        <time>2010-08-01T07:54:49Z</time>
      </trkpt>
      <trkpt lat="48.12682" lon="-1.29284">
        <ele>57</ele>
        <time>2010-08-01T07:54:50Z</time>
      </trkpt>
      <trkpt lat="48.12671" lon="-1.29295">
        <ele>56</ele>
        <time>2010-08-01T07:54:52Z</time>
      </trkpt>
      <trkpt lat="48.12672" lon="-1.29319">
        <ele>53</ele>
        <time>2010-08-01T07:54:55Z</time>
      </trkpt>
      <trkpt lat="48.12676" lon="-1.29327">
        <ele>53</ele>
        <time>2010-08-01T07:54:56Z</time>
      </trkpt>
      <trkpt lat="48.12692" lon="-1.29347">
        <ele>53</ele>
        <time>2010-08-01T07:54:58Z</time>
      </trkpt>
      <trkpt lat="48.12696" lon="-1.29354">
        <ele>53</ele>
        <time>2010-08-01T07:54:59Z</time>
      </trkpt>
      <trkpt lat="48.12703" lon="-1.29364">
        <ele>53</ele>
        <time>2010-08-01T07:55:00Z</time>
      </trkpt>
      <trkpt lat="48.12718" lon="-1.29394">
        <ele>52</ele>
        <time>2010-08-01T07:55:03Z</time>
      </trkpt>
      <trkpt lat="48.12724" lon="-1.294">
        <ele>53</ele>
        <time>2010-08-01T07:55:04Z</time>
      </trkpt>
      <trkpt lat="48.12729" lon="-1.29405">
        <ele>53</ele>
        <time>2010-08-01T07:55:05Z</time>
      </trkpt>
      <trkpt lat="48.12741" lon="-1.2941">
        <ele>54</ele>
        <time>2010-08-01T07:55:07Z</time>
      </trkpt>
      <trkpt lat="48.12748" lon="-1.29412">
        <ele>55</ele>
        <time>2010-08-01T07:55:08Z</time>
      </trkpt>
      <trkpt lat="48.12754" lon="-1.29414">
        <ele>55</ele>
        <time>2010-08-01T07:55:09Z</time>
      </trkpt>
      <trkpt lat="48.12762" lon="-1.29433">
        <ele>57</ele>
        <time>2010-08-01T07:55:13Z</time>
      </trkpt>
      <trkpt lat="48.12759" lon="-1.29443">
        <ele>58</ele>
        <time>2010-08-01T07:55:16Z</time>
      </trkpt>
      <trkpt lat="48.12755" lon="-1.29446">
        <ele>58</ele>
        <time>2010-08-01T07:55:18Z</time>
      </trkpt>
      <trkpt lat="48.12752" lon="-1.29448">
        <ele>58</ele>
        <time>2010-08-01T07:55:19Z</time>
      </trkpt>
      <trkpt lat="48.12751" lon="-1.29448">
        <ele>58</ele>
        <time>2010-08-01T07:55:20Z</time>
      </trkpt>
      <trkpt lat="48.12748" lon="-1.29451">
        <ele>58</ele>
        <time>2010-08-01T07:55:22Z</time>
      </trkpt>
      <trkpt lat="48.12746" lon="-1.29452">
        <ele>58</ele>
        <time>2010-08-01T07:55:23Z</time>
      </trkpt>
      <trkpt lat="48.12745" lon="-1.29455">
        <ele>58</ele>
        <time>2010-08-01T07:55:25Z</time>
      </trkpt>
      <trkpt lat="48.12742" lon="-1.29459">
        <ele>58</ele>
        <time>2010-08-01T07:55:27Z</time>
      </trkpt>
      <trkpt lat="48.12739" lon="-1.29462">
        <ele>59</ele>
        <time>2010-08-01T07:55:29Z</time>
      </trkpt>
      <trkpt lat="48.12738" lon="-1.29465">
        <ele>59</ele>
        <time>2010-08-01T07:55:30Z</time>
      </trkpt>
      <trkpt lat="48.12736" lon="-1.29467">
        <ele>59</ele>
        <time>2010-08-01T07:55:31Z</time>
      </trkpt>
      <trkpt lat="48.12733" lon="-1.29471">
        <ele>60</ele>
        <time>2010-08-01T07:55:33Z</time>
      </trkpt>
      <trkpt lat="48.12732" lon="-1.29475">
        <ele>61</ele>
        <time>2010-08-01T07:55:35Z</time>
      </trkpt>
      <trkpt lat="48.12731" lon="-1.29479">
        <ele>61</ele>
        <time>2010-08-01T07:55:37Z</time>
      </trkpt>
      <trkpt lat="48.12729" lon="-1.29483">
        <ele>62</ele>
        <time>2010-08-01T07:55:39Z</time>
      </trkpt>
      <trkpt lat="48.12729" lon="-1.29485">
        <ele>62</ele>
        <time>2010-08-01T07:55:40Z</time>
      </trkpt>
      <trkpt lat="48.12729" lon="-1.29488">
        <ele>63</ele>
        <time>2010-08-01T07:55:41Z</time>
      </trkpt>
      <trkpt lat="48.12732" lon="-1.29492">
        <ele>64</ele>
        <time>2010-08-01T07:55:43Z</time>
      </trkpt>
      <trkpt lat="48.12737" lon="-1.29496">
        <ele>65</ele>
        <time>2010-08-01T07:55:45Z</time>
      </trkpt>
      <trkpt lat="48.12741" lon="-1.29497">
        <ele>66</ele>
        <time>2010-08-01T07:55:47Z</time>
      </trkpt>
      <trkpt lat="48.12742" lon="-1.29499">
        <ele>66</ele>
        <time>2010-08-01T07:55:48Z</time>
      </trkpt>
      <trkpt lat="48.12743" lon="-1.29497">
        <ele>66</ele>
        <time>2010-08-01T07:55:49Z</time>
      </trkpt>
      <trkpt lat="48.12746" lon="-1.29498">
        <ele>67</ele>
        <time>2010-08-01T07:55:50Z</time>
      </trkpt>
      <trkpt lat="48.12747" lon="-1.29499">
        <ele>67</ele>
        <time>2010-08-01T07:55:51Z</time>
      </trkpt>
      <trkpt lat="48.12749" lon="-1.29501">
        <ele>67</ele>
        <time>2010-08-01T07:55:53Z</time>
      </trkpt>
      <trkpt lat="48.1275" lon="-1.29502">
        <ele>68</ele>
        <time>2010-08-01T07:55:55Z</time>
      </trkpt>
      <trkpt lat="48.12752" lon="-1.29504">
        <ele>68</ele>
        <time>2010-08-01T07:55:57Z</time>
      </trkpt>
      <trkpt lat="48.12755" lon="-1.29506">
        <ele>69</ele>
        <time>2010-08-01T07:55:59Z</time>
      </trkpt>
      <trkpt lat="48.12758" lon="-1.29508">
        <ele>70</ele>
        <time>2010-08-01T07:56:01Z</time>
      </trkpt>
      <trkpt lat="48.12759" lon="-1.29511">
        <ele>71</ele>
        <time>2010-08-01T07:56:02Z</time>
      </trkpt>
      <trkpt lat="48.1276" lon="-1.29512">
        <ele>71</ele>
        <time>2010-08-01T07:56:03Z</time>
      </trkpt>
      <trkpt lat="48.12761" lon="-1.29515">
        <ele>72</ele>
        <time>2010-08-01T07:56:05Z</time>
      </trkpt>
      <trkpt lat="48.12763" lon="-1.29517">
        <ele>72</ele>
        <time>2010-08-01T07:56:06Z</time>
      </trkpt>
      <trkpt lat="48.12766" lon="-1.29521">
        <ele>74</ele>
        <time>2010-08-01T07:56:08Z</time>
      </trkpt>
      <trkpt lat="48.12769" lon="-1.29523">
        <ele>75</ele>
        <time>2010-08-01T07:56:10Z</time>
      </trkpt>
      <trkpt lat="48.1277" lon="-1.29524">
        <ele>75</ele>
        <time>2010-08-01T07:56:11Z</time>
      </trkpt>
      <trkpt lat="48.12772" lon="-1.29522">
        <ele>74</ele>
        <time>2010-08-01T07:56:13Z</time>
      </trkpt>
      <trkpt lat="48.12773" lon="-1.2952">
        <ele>74</ele>
        <time>2010-08-01T07:56:14Z</time>
      </trkpt>
      <trkpt lat="48.12773" lon="-1.29518">
        <ele>74</ele>
        <time>2010-08-01T07:56:15Z</time>
      </trkpt>
      <trkpt lat="48.12772" lon="-1.29514">
        <ele>73</ele>
        <time>2010-08-01T07:56:17Z</time>
      </trkpt>
      <trkpt lat="48.12771" lon="-1.29507">
        <ele>71</ele>
        <time>2010-08-01T07:56:19Z</time>
      </trkpt>
      <trkpt lat="48.12771" lon="-1.29503">
        <ele>70</ele>
        <time>2010-08-01T07:56:20Z</time>
      </trkpt>
      <trkpt lat="48.12774" lon="-1.29489">
        <ele>67</ele>
        <time>2010-08-01T07:56:26Z</time>
      </trkpt>
      <trkpt lat="48.12776" lon="-1.29487">
        <ele>66</ele>
        <time>2010-08-01T07:58:48Z</time>
      </trkpt>
      <trkpt lat="48.12777" lon="-1.29487">
        <ele>66</ele>
        <time>2010-08-01T07:58:49Z</time>
      </trkpt>
      <trkpt lat="48.12779" lon="-1.29486">
        <ele>66</ele>
        <time>2010-08-01T07:58:50Z</time>
      </trkpt>
      <trkpt lat="48.1279" lon="-1.29494">
        <ele>69</ele>
        <time>2010-08-01T07:58:54Z</time>
      </trkpt>
      <trkpt lat="48.12793" lon="-1.29502">
        <ele>71</ele>
        <time>2010-08-01T07:58:56Z</time>
      </trkpt>
      <trkpt lat="48.12795" lon="-1.29509">
        <ele>74</ele>
        <time>2010-08-01T07:58:58Z</time>
      </trkpt>
      <trkpt lat="48.12798" lon="-1.29513">
        <ele>75</ele>
        <time>2010-08-01T07:58:59Z</time>
      </trkpt>
      <trkpt lat="48.128" lon="-1.29517">
        <ele>76</ele>
        <time>2010-08-01T07:59:00Z</time>
      </trkpt>
      <trkpt lat="48.12802" lon="-1.2952">
        <ele>77</ele>
        <time>2010-08-01T07:59:01Z</time>
      </trkpt>
      <trkpt lat="48.12808" lon="-1.29527">
        <ele>78</ele>
        <time>2010-08-01T07:59:03Z</time>
      </trkpt>
      <trkpt lat="48.12812" lon="-1.29532">
        <ele>79</ele>
        <time>2010-08-01T07:59:05Z</time>
      </trkpt>
      <trkpt lat="48.12815" lon="-1.29536">
        <ele>79</ele>
        <time>2010-08-01T07:59:07Z</time>
      </trkpt>
      <trkpt lat="48.12828" lon="-1.29535">
        <ele>77</ele>
        <time>2010-08-01T07:59:10Z</time>
      </trkpt>
      <trkpt lat="48.12833" lon="-1.29532">
        <ele>76</ele>
        <time>2010-08-01T07:59:11Z</time>
      </trkpt>
      <trkpt lat="48.12844" lon="-1.29516">
        <ele>70</ele>
        <time>2010-08-01T07:59:13Z</time>
      </trkpt>
      <trkpt lat="48.12858" lon="-1.29497">
        <ele>65</ele>
        <time>2010-08-01T07:59:15Z</time>
      </trkpt>
      <trkpt lat="48.12868" lon="-1.29488">
        <ele>63</ele>
        <time>2010-08-01T07:59:16Z</time>
      </trkpt>
      <trkpt lat="48.12891" lon="-1.29479">
        <ele>62</ele>
        <time>2010-08-01T07:59:18Z</time>
      </trkpt>
      <trkpt lat="48.12899" lon="-1.29479">
        <ele>62</ele>
        <time>2010-08-01T07:59:19Z</time>
      </trkpt>
      <trkpt lat="48.12907" lon="-1.29477">
        <ele>63</ele>
        <time>2010-08-01T07:59:20Z</time>
      </trkpt>
      <trkpt lat="48.12914" lon="-1.29471">
        <ele>62</ele>
        <time>2010-08-01T07:59:21Z</time>
      </trkpt>
      <trkpt lat="48.12931" lon="-1.29462">
        <ele>63</ele>
        <time>2010-08-01T07:59:23Z</time>
      </trkpt>
      <trkpt lat="48.12949" lon="-1.29447">
        <ele>62</ele>
        <time>2010-08-01T07:59:25Z</time>
      </trkpt>
      <trkpt lat="48.12958" lon="-1.29442">
        <ele>62</ele>
        <time>2010-08-01T07:59:26Z</time>
      </trkpt>
      <trkpt lat="48.12968" lon="-1.29442">
        <ele>62</ele>
        <time>2010-08-01T07:59:27Z</time>
      </trkpt>
      <trkpt lat="48.12977" lon="-1.2944">
        <ele>62</ele>
        <time>2010-08-01T07:59:28Z</time>
      </trkpt>
      <trkpt lat="48.12994" lon="-1.29439">
        <ele>63</ele>
        <time>2010-08-01T07:59:30Z</time>
      </trkpt>
      <trkpt lat="48.13009" lon="-1.29436">
        <ele>64</ele>
        <time>2010-08-01T07:59:32Z</time>
      </trkpt>
      <trkpt lat="48.13024" lon="-1.29433">
        <ele>65</ele>
        <time>2010-08-01T07:59:34Z</time>
      </trkpt>
      <trkpt lat="48.13037" lon="-1.29431">
        <ele>68</ele>
        <time>2010-08-01T07:59:36Z</time>
      </trkpt>
      <trkpt lat="48.1305" lon="-1.29434">
        <ele>70</ele>
        <time>2010-08-01T07:59:38Z</time>
      </trkpt>
      <trkpt lat="48.13055" lon="-1.29441">
        <ele>71</ele>
        <time>2010-08-01T07:59:39Z</time>
      </trkpt>
      <trkpt lat="48.13056" lon="-1.29445">
        <ele>71</ele>
        <time>2010-08-01T07:59:40Z</time>
      </trkpt>
      <trkpt lat="48.1306" lon="-1.29457">
        <ele>72</ele>
        <time>2010-08-01T07:59:42Z</time>
      </trkpt>
      <trkpt lat="48.13061" lon="-1.29461">
        <ele>72</ele>
        <time>2010-08-01T07:59:43Z</time>
      </trkpt>
      <trkpt lat="48.13068" lon="-1.29485">
        <ele>72</ele>
        <time>2010-08-01T07:59:48Z</time>
      </trkpt>
      <trkpt lat="48.13074" lon="-1.2951">
        <ele>72</ele>
        <time>2010-08-01T07:59:53Z</time>
      </trkpt>
      <trkpt lat="48.13078" lon="-1.29527">
        <ele>73</ele>
        <time>2010-08-01T07:59:57Z</time>
      </trkpt>
      <trkpt lat="48.13081" lon="-1.29536">
        <ele>73</ele>
        <time>2010-08-01T07:59:59Z</time>
      </trkpt>
      <trkpt lat="48.13081" lon="-1.29546">
        <ele>73</ele>
        <time>2010-08-01T08:00:01Z</time>
      </trkpt>
      <trkpt lat="48.13082" lon="-1.29553">
        <ele>73</ele>
        <time>2010-08-01T08:00:03Z</time>
      </trkpt>
      <trkpt lat="48.13082" lon="-1.29559">
        <ele>73</ele>
        <time>2010-08-01T08:00:04Z</time>
      </trkpt>
      <trkpt lat="48.13083" lon="-1.29569">
        <ele>74</ele>
        <time>2010-08-01T08:00:06Z</time>
      </trkpt>
      <trkpt lat="48.13085" lon="-1.29576">
        <ele>74</ele>
        <time>2010-08-01T08:00:08Z</time>
      </trkpt>
      <trkpt lat="48.13085" lon="-1.29581">
        <ele>74</ele>
        <time>2010-08-01T08:00:10Z</time>
      </trkpt>
      <trkpt lat="48.13085" lon="-1.29584">
        <ele>74</ele>
        <time>2010-08-01T08:00:11Z</time>
      </trkpt>
      <trkpt lat="48.13083" lon="-1.29589">
        <ele>74</ele>
        <time>2010-08-01T08:00:13Z</time>
      </trkpt>
      <trkpt lat="48.13081" lon="-1.29598">
        <ele>73</ele>
        <time>2010-08-01T08:00:15Z</time>
      </trkpt>
      <trkpt lat="48.13078" lon="-1.29608">
        <ele>73</ele>
        <time>2010-08-01T08:00:17Z</time>
      </trkpt>
      <trkpt lat="48.13075" lon="-1.29616">
        <ele>73</ele>
        <time>2010-08-01T08:00:19Z</time>
      </trkpt>
      <trkpt lat="48.13071" lon="-1.29643">
        <ele>73</ele>
        <time>2010-08-01T08:00:23Z</time>
      </trkpt>
      <trkpt lat="48.13073" lon="-1.29677">
        <ele>75</ele>
        <time>2010-08-01T08:00:29Z</time>
      </trkpt>
      <trkpt lat="48.13073" lon="-1.29689">
        <ele>76</ele>
        <time>2010-08-01T08:00:31Z</time>
      </trkpt>
      <trkpt lat="48.13072" lon="-1.29699">
        <ele>76</ele>
        <time>2010-08-01T08:00:33Z</time>
      </trkpt>
      <trkpt lat="48.13073" lon="-1.29702">
        <ele>76</ele>
        <time>2010-08-01T08:00:34Z</time>
      </trkpt>
      <trkpt lat="48.13073" lon="-1.29706">
        <ele>77</ele>
        <time>2010-08-01T08:00:35Z</time>
      </trkpt>
      <trkpt lat="48.13073" lon="-1.29711">
        <ele>77</ele>
        <time>2010-08-01T08:00:36Z</time>
      </trkpt>
      <trkpt lat="48.13074" lon="-1.29715">
        <ele>77</ele>
        <time>2010-08-01T08:00:37Z</time>
      </trkpt>
      <trkpt lat="48.13077" lon="-1.29733">
        <ele>78</ele>
        <time>2010-08-01T08:00:41Z</time>
      </trkpt>
      <trkpt lat="48.13079" lon="-1.29747">
        <ele>79</ele>
        <time>2010-08-01T08:00:44Z</time>
      </trkpt>
      <trkpt lat="48.13079" lon="-1.29754">
        <ele>79</ele>
        <time>2010-08-01T08:00:46Z</time>
      </trkpt>
      <trkpt lat="48.13077" lon="-1.29762">
        <ele>79</ele>
        <time>2010-08-01T08:00:48Z</time>
      </trkpt>
      <trkpt lat="48.13075" lon="-1.29767">
        <ele>79</ele>
        <time>2010-08-01T08:00:50Z</time>
      </trkpt>
      <trkpt lat="48.13076" lon="-1.29774">
        <ele>79</ele>
        <time>2010-08-01T08:00:52Z</time>
      </trkpt>
      <trkpt lat="48.13079" lon="-1.29779">
        <ele>80</ele>
        <time>2010-08-01T08:00:54Z</time>
      </trkpt>
      <trkpt lat="48.1308" lon="-1.2978">
        <ele>80</ele>
        <time>2010-08-01T08:00:55Z</time>
      </trkpt>
      <trkpt lat="48.13082" lon="-1.2978">
        <ele>80</ele>
        <time>2010-08-01T08:00:56Z</time>
      </trkpt>
      <trkpt lat="48.13081" lon="-1.29784">
        <ele>80</ele>
        <time>2010-08-01T08:00:58Z</time>
      </trkpt>
      <trkpt lat="48.13082" lon="-1.29788">
        <ele>81</ele>
        <time>2010-08-01T08:01:00Z</time>
      </trkpt>
      <trkpt lat="48.13082" lon="-1.29791">
        <ele>81</ele>
        <time>2010-08-01T08:01:01Z</time>
      </trkpt>
      <trkpt lat="48.13083" lon="-1.29797">
        <ele>81</ele>
        <time>2010-08-01T08:01:04Z</time>
      </trkpt>
      <trkpt lat="48.13085" lon="-1.29803">
        <ele>81</ele>
        <time>2010-08-01T08:01:06Z</time>
      </trkpt>
      <trkpt lat="48.13087" lon="-1.29812">
        <ele>82</ele>
        <time>2010-08-01T08:01:08Z</time>
      </trkpt>
      <trkpt lat="48.13088" lon="-1.29824">
        <ele>82</ele>
        <time>2010-08-01T08:01:10Z</time>
      </trkpt>
      <trkpt lat="48.13088" lon="-1.29829">
        <ele>83</ele>
        <time>2010-08-01T08:01:11Z</time>
      </trkpt>
      <trkpt lat="48.13088" lon="-1.29831">
        <ele>83</ele>
        <time>2010-08-01T08:01:12Z</time>
      </trkpt>
      <trkpt lat="48.13088" lon="-1.29834">
        <ele>83</ele>
        <time>2010-08-01T08:01:13Z</time>
      </trkpt>
      <trkpt lat="48.13089" lon="-1.29835">
        <ele>83</ele>
        <time>2010-08-01T08:01:14Z</time>
      </trkpt>
      <trkpt lat="48.13093" lon="-1.29843">
        <ele>83</ele>
        <time>2010-08-01T08:01:17Z</time>
      </trkpt>
      <trkpt lat="48.13094" lon="-1.29851">
        <ele>84</ele>
        <time>2010-08-01T08:01:19Z</time>
      </trkpt>
      <trkpt lat="48.13097" lon="-1.29861">
        <ele>84</ele>
        <time>2010-08-01T08:01:21Z</time>
      </trkpt>
      <trkpt lat="48.13097" lon="-1.29873">
        <ele>85</ele>
        <time>2010-08-01T08:01:23Z</time>
      </trkpt>
      <trkpt lat="48.13095" lon="-1.29879">
        <ele>85</ele>
        <time>2010-08-01T08:01:24Z</time>
      </trkpt>
      <trkpt lat="48.13086" lon="-1.29889">
        <ele>85</ele>
        <time>2010-08-01T08:01:27Z</time>
      </trkpt>
      <trkpt lat="48.13081" lon="-1.29892">
        <ele>85</ele>
        <time>2010-08-01T08:01:29Z</time>
      </trkpt>
      <trkpt lat="48.13075" lon="-1.29896">
        <ele>84</ele>
        <time>2010-08-01T08:01:31Z</time>
      </trkpt>
      <trkpt lat="48.13073" lon="-1.29897">
        <ele>84</ele>
        <time>2010-08-01T08:01:32Z</time>
      </trkpt>
      <trkpt lat="48.13056" lon="-1.2991">
        <ele>84</ele>
        <time>2010-08-01T08:01:38Z</time>
      </trkpt>
      <trkpt lat="48.13052" lon="-1.29912">
        <ele>85</ele>
        <time>2010-08-01T08:01:39Z</time>
      </trkpt>
      <trkpt lat="48.13047" lon="-1.2992">
        <ele>85</ele>
        <time>2010-08-01T08:01:41Z</time>
      </trkpt>
      <trkpt lat="48.13042" lon="-1.29924">
        <ele>85</ele>
        <time>2010-08-01T08:01:43Z</time>
      </trkpt>
      <trkpt lat="48.13039" lon="-1.29925">
        <ele>86</ele>
        <time>2010-08-01T08:01:44Z</time>
      </trkpt>
      <trkpt lat="48.13037" lon="-1.29927">
        <ele>86</ele>
        <time>2010-08-01T08:01:45Z</time>
      </trkpt>
      <trkpt lat="48.1303" lon="-1.29929">
        <ele>86</ele>
        <time>2010-08-01T08:01:47Z</time>
      </trkpt>
      <trkpt lat="48.13022" lon="-1.29932">
        <ele>87</ele>
        <time>2010-08-01T08:01:50Z</time>
      </trkpt>
      <trkpt lat="48.13016" lon="-1.29933">
        <ele>87</ele>
        <time>2010-08-01T08:01:52Z</time>
      </trkpt>
      <trkpt lat="48.13012" lon="-1.29934">
        <ele>87</ele>
        <time>2010-08-01T08:01:54Z</time>
      </trkpt>
      <trkpt lat="48.13007" lon="-1.29939">
        <ele>88</ele>
        <time>2010-08-01T08:01:56Z</time>
      </trkpt>
      <trkpt lat="48.13002" lon="-1.29942">
        <ele>89</ele>
        <time>2010-08-01T08:01:58Z</time>
      </trkpt>
      <trkpt lat="48.12989" lon="-1.29948">
        <ele>90</ele>
        <time>2010-08-01T08:02:01Z</time>
      </trkpt>
      <trkpt lat="48.12982" lon="-1.29951">
        <ele>90</ele>
        <time>2010-08-01T08:02:03Z</time>
      </trkpt>
      <trkpt lat="48.12977" lon="-1.29955">
        <ele>91</ele>
        <time>2010-08-01T08:02:05Z</time>
      </trkpt>
      <trkpt lat="48.12971" lon="-1.29957">
        <ele>92</ele>
        <time>2010-08-01T08:02:07Z</time>
      </trkpt>
      <trkpt lat="48.12966" lon="-1.29959">
        <ele>92</ele>
        <time>2010-08-01T08:02:09Z</time>
      </trkpt>
      <trkpt lat="48.12962" lon="-1.29961">
        <ele>92</ele>
        <time>2010-08-01T08:02:11Z</time>
      </trkpt>
      <trkpt lat="48.12955" lon="-1.29964">
        <ele>93</ele>
        <time>2010-08-01T08:02:13Z</time>
      </trkpt>
      <trkpt lat="48.12948" lon="-1.29967">
        <ele>93</ele>
        <time>2010-08-01T08:02:15Z</time>
      </trkpt>
      <trkpt lat="48.12946" lon="-1.29969">
        <ele>93</ele>
        <time>2010-08-01T08:02:16Z</time>
      </trkpt>
      <trkpt lat="48.12941" lon="-1.29972">
        <ele>94</ele>
        <time>2010-08-01T08:02:18Z</time>
      </trkpt>
      <trkpt lat="48.12937" lon="-1.29974">
        <ele>94</ele>
        <time>2010-08-01T08:02:20Z</time>
      </trkpt>
      <trkpt lat="48.12931" lon="-1.29977">
        <ele>94</ele>
        <time>2010-08-01T08:02:22Z</time>
      </trkpt>
      <trkpt lat="48.12926" lon="-1.29981">
        <ele>95</ele>
        <time>2010-08-01T08:02:24Z</time>
      </trkpt>
      <trkpt lat="48.12919" lon="-1.29986">
        <ele>95</ele>
        <time>2010-08-01T08:02:27Z</time>
      </trkpt>
      <trkpt lat="48.12916" lon="-1.29988">
        <ele>95</ele>
        <time>2010-08-01T08:02:29Z</time>
      </trkpt>
      <trkpt lat="48.12914" lon="-1.29988">
        <ele>95</ele>
        <time>2010-08-01T08:02:30Z</time>
      </trkpt>
      <trkpt lat="48.12913" lon="-1.29988">
        <ele>95</ele>
        <time>2010-08-01T08:02:31Z</time>
      </trkpt>
      <trkpt lat="48.12911" lon="-1.29989">
        <ele>95</ele>
        <time>2010-08-01T08:02:33Z</time>
      </trkpt>
      <trkpt lat="48.12908" lon="-1.2999">
        <ele>95</ele>
        <time>2010-08-01T08:02:35Z</time>
      </trkpt>
      <trkpt lat="48.12895" lon="-1.29997">
        <ele>96</ele>
        <time>2010-08-01T08:02:39Z</time>
      </trkpt>
      <trkpt lat="48.12887" lon="-1.29999">
        <ele>96</ele>
        <time>2010-08-01T08:02:41Z</time>
      </trkpt>
      <trkpt lat="48.12869" lon="-1.3">
        <ele>95</ele>
        <time>2010-08-01T08:02:44Z</time>
      </trkpt>
      <trkpt lat="48.12854" lon="-1.30003">
        <ele>95</ele>
        <time>2010-08-01T08:02:46Z</time>
      </trkpt>
      <trkpt lat="48.1283" lon="-1.3002">
        <ele>94</ele>
        <time>2010-08-01T08:02:51Z</time>
      </trkpt>
      <trkpt lat="48.12824" lon="-1.30023">
        <ele>94</ele>
        <time>2010-08-01T08:02:52Z</time>
      </trkpt>
      <trkpt lat="48.12806" lon="-1.30049">
        <ele>93</ele>
        <time>2010-08-01T08:02:56Z</time>
      </trkpt>
      <trkpt lat="48.128" lon="-1.30055">
        <ele>93</ele>
        <time>2010-08-01T08:02:57Z</time>
      </trkpt>
      <trkpt lat="48.12795" lon="-1.30061">
        <ele>93</ele>
        <time>2010-08-01T08:02:58Z</time>
      </trkpt>
      <trkpt lat="48.1279" lon="-1.30066">
        <ele>92</ele>
        <time>2010-08-01T08:02:59Z</time>
      </trkpt>
      <trkpt lat="48.12785" lon="-1.30073">
        <ele>92</ele>
        <time>2010-08-01T08:03:00Z</time>
      </trkpt>
      <trkpt lat="48.12778" lon="-1.30077">
        <ele>92</ele>
        <time>2010-08-01T08:03:01Z</time>
      </trkpt>
      <trkpt lat="48.12772" lon="-1.30086">
        <ele>91</ele>
        <time>2010-08-01T08:03:03Z</time>
      </trkpt>
      <trkpt lat="48.12768" lon="-1.30093">
        <ele>91</ele>
        <time>2010-08-01T08:03:04Z</time>
      </trkpt>
      <trkpt lat="48.12761" lon="-1.30105">
        <ele>91</ele>
        <time>2010-08-01T08:03:06Z</time>
      </trkpt>
      <trkpt lat="48.12757" lon="-1.30112">
        <ele>91</ele>
        <time>2010-08-01T08:03:07Z</time>
      </trkpt>
      <trkpt lat="48.12747" lon="-1.30136">
        <ele>91</ele>
        <time>2010-08-01T08:03:10Z</time>
      </trkpt>
      <trkpt lat="48.12742" lon="-1.30154">
        <ele>90</ele>
        <time>2010-08-01T08:03:12Z</time>
      </trkpt>
      <trkpt lat="48.1274" lon="-1.30166">
        <ele>90</ele>
        <time>2010-08-01T08:03:13Z</time>
      </trkpt>
      <trkpt lat="48.12735" lon="-1.30213">
        <ele>90</ele>
        <time>2010-08-01T08:03:18Z</time>
      </trkpt>
      <trkpt lat="48.12733" lon="-1.30222">
        <ele>89</ele>
        <time>2010-08-01T08:03:19Z</time>
      </trkpt>
      <trkpt lat="48.12726" lon="-1.30239">
        <ele>89</ele>
        <time>2010-08-01T08:03:21Z</time>
      </trkpt>
      <trkpt lat="48.12722" lon="-1.30247">
        <ele>88</ele>
        <time>2010-08-01T08:03:22Z</time>
      </trkpt>
      <trkpt lat="48.12719" lon="-1.30254">
        <ele>88</ele>
        <time>2010-08-01T08:03:23Z</time>
      </trkpt>
      <trkpt lat="48.12716" lon="-1.30261">
        <ele>87</ele>
        <time>2010-08-01T08:03:24Z</time>
      </trkpt>
      <trkpt lat="48.12701" lon="-1.30272">
        <ele>86</ele>
        <time>2010-08-01T08:03:27Z</time>
      </trkpt>
      <trkpt lat="48.12699" lon="-1.30273">
        <ele>86</ele>
        <time>2010-08-01T08:03:28Z</time>
      </trkpt>
      <trkpt lat="48.12694" lon="-1.30272">
        <ele>85</ele>
        <time>2010-08-01T08:03:29Z</time>
      </trkpt>
      <trkpt lat="48.12675" lon="-1.30263">
        <ele>84</ele>
        <time>2010-08-01T08:03:32Z</time>
      </trkpt>
      <trkpt lat="48.1267" lon="-1.30258">
        <ele>84</ele>
        <time>2010-08-01T08:03:33Z</time>
      </trkpt>
      <trkpt lat="48.12646" lon="-1.30253">
        <ele>82</ele>
        <time>2010-08-01T08:03:36Z</time>
      </trkpt>
      <trkpt lat="48.12638" lon="-1.30252">
        <ele>81</ele>
        <time>2010-08-01T08:03:37Z</time>
      </trkpt>
      <trkpt lat="48.12611" lon="-1.3026">
        <ele>79</ele>
        <time>2010-08-01T08:03:40Z</time>
      </trkpt>
      <trkpt lat="48.12603" lon="-1.30263">
        <ele>78</ele>
        <time>2010-08-01T08:03:41Z</time>
      </trkpt>
      <trkpt lat="48.12584" lon="-1.30272">
        <ele>77</ele>
        <time>2010-08-01T08:03:43Z</time>
      </trkpt>
      <trkpt lat="48.12573" lon="-1.30277">
        <ele>76</ele>
        <time>2010-08-01T08:03:44Z</time>
      </trkpt>
      <trkpt lat="48.12553" lon="-1.30285">
        <ele>74</ele>
        <time>2010-08-01T08:03:46Z</time>
      </trkpt>
      <trkpt lat="48.1253" lon="-1.30295">
        <ele>72</ele>
        <time>2010-08-01T08:03:48Z</time>
      </trkpt>
      <trkpt lat="48.12504" lon="-1.30306">
        <ele>70</ele>
        <time>2010-08-01T08:03:50Z</time>
      </trkpt>
      <trkpt lat="48.12481" lon="-1.30316">
        <ele>68</ele>
        <time>2010-08-01T08:03:52Z</time>
      </trkpt>
      <trkpt lat="48.12458" lon="-1.30325">
        <ele>65</ele>
        <time>2010-08-01T08:03:54Z</time>
      </trkpt>
      <trkpt lat="48.12445" lon="-1.3033">
        <ele>64</ele>
        <time>2010-08-01T08:03:55Z</time>
      </trkpt>
      <trkpt lat="48.12411" lon="-1.30356">
        <ele>59</ele>
        <time>2010-08-01T08:03:58Z</time>
      </trkpt>
      <trkpt lat="48.12388" lon="-1.30376">
        <ele>56</ele>
        <time>2010-08-01T08:04:00Z</time>
      </trkpt>
      <trkpt lat="48.12366" lon="-1.30397">
        <ele>53</ele>
        <time>2010-08-01T08:04:02Z</time>
      </trkpt>
      <trkpt lat="48.12346" lon="-1.30415">
        <ele>53</ele>
        <time>2010-08-01T08:04:04Z</time>
      </trkpt>
      <trkpt lat="48.12336" lon="-1.30424">
        <ele>52</ele>
        <time>2010-08-01T08:04:05Z</time>
      </trkpt>
      <trkpt lat="48.12318" lon="-1.30441">
        <ele>52</ele>
        <time>2010-08-01T08:04:07Z</time>
      </trkpt>
      <trkpt lat="48.12302" lon="-1.30456">
        <ele>52</ele>
        <time>2010-08-01T08:04:09Z</time>
      </trkpt>
      <trkpt lat="48.12294" lon="-1.30463">
        <ele>51</ele>
        <time>2010-08-01T08:04:10Z</time>
      </trkpt>
      <trkpt lat="48.1228" lon="-1.30476">
        <ele>52</ele>
        <time>2010-08-01T08:04:12Z</time>
      </trkpt>
      <trkpt lat="48.12267" lon="-1.30489">
        <ele>52</ele>
        <time>2010-08-01T08:04:14Z</time>
      </trkpt>
      <trkpt lat="48.12252" lon="-1.305">
        <ele>53</ele>
        <time>2010-08-01T08:04:16Z</time>
      </trkpt>
      <trkpt lat="48.12245" lon="-1.30503">
        <ele>54</ele>
        <time>2010-08-01T08:04:17Z</time>
      </trkpt>
      <trkpt lat="48.12237" lon="-1.30505">
        <ele>54</ele>
        <time>2010-08-01T08:04:18Z</time>
      </trkpt>
      <trkpt lat="48.1223" lon="-1.30505">
        <ele>54</ele>
        <time>2010-08-01T08:04:19Z</time>
      </trkpt>
      <trkpt lat="48.12213" lon="-1.30502">
        <ele>55</ele>
        <time>2010-08-01T08:04:22Z</time>
      </trkpt>
      <trkpt lat="48.12211" lon="-1.30507">
        <ele>55</ele>
        <time>2010-08-01T08:04:23Z</time>
      </trkpt>
      <trkpt lat="48.12216" lon="-1.30519">
        <ele>56</ele>
        <time>2010-08-01T08:04:26Z</time>
      </trkpt>
      <trkpt lat="48.12222" lon="-1.3053">
        <ele>56</ele>
        <time>2010-08-01T08:04:28Z</time>
      </trkpt>
      <trkpt lat="48.12229" lon="-1.30541">
        <ele>56</ele>
        <time>2010-08-01T08:04:30Z</time>
      </trkpt>
      <trkpt lat="48.12234" lon="-1.30551">
        <ele>56</ele>
        <time>2010-08-01T08:04:32Z</time>
      </trkpt>
      <trkpt lat="48.12237" lon="-1.30557">
        <ele>56</ele>
        <time>2010-08-01T08:04:33Z</time>
      </trkpt>
      <trkpt lat="48.12239" lon="-1.30563">
        <ele>56</ele>
        <time>2010-08-01T08:04:34Z</time>
      </trkpt>
      <trkpt lat="48.12229" lon="-1.30584">
        <ele>58</ele>
        <time>2010-08-01T08:04:38Z</time>
      </trkpt>
      <trkpt lat="48.12225" lon="-1.30588">
        <ele>58</ele>
        <time>2010-08-01T08:04:39Z</time>
      </trkpt>
      <trkpt lat="48.12215" lon="-1.30604">
        <ele>60</ele>
        <time>2010-08-01T08:04:43Z</time>
      </trkpt>
      <trkpt lat="48.12209" lon="-1.30613">
        <ele>60</ele>
        <time>2010-08-01T08:04:45Z</time>
      </trkpt>
      <trkpt lat="48.12204" lon="-1.30621">
        <ele>61</ele>
        <time>2010-08-01T08:04:47Z</time>
      </trkpt>
      <trkpt lat="48.12201" lon="-1.30628">
        <ele>62</ele>
        <time>2010-08-01T08:04:49Z</time>
      </trkpt>
      <trkpt lat="48.12199" lon="-1.30632">
        <ele>62</ele>
        <time>2010-08-01T08:04:50Z</time>
      </trkpt>
      <trkpt lat="48.12195" lon="-1.3064">
        <ele>63</ele>
        <time>2010-08-01T08:04:52Z</time>
      </trkpt>
      <trkpt lat="48.12191" lon="-1.30647">
        <ele>63</ele>
        <time>2010-08-01T08:04:54Z</time>
      </trkpt>
      <trkpt lat="48.12187" lon="-1.30654">
        <ele>63</ele>
        <time>2010-08-01T08:04:56Z</time>
      </trkpt>
      <trkpt lat="48.12181" lon="-1.30658">
        <ele>64</ele>
        <time>2010-08-01T08:04:58Z</time>
      </trkpt>
      <trkpt lat="48.12178" lon="-1.30661">
        <ele>64</ele>
        <time>2010-08-01T08:04:59Z</time>
      </trkpt>
      <trkpt lat="48.12171" lon="-1.30665">
        <ele>64</ele>
        <time>2010-08-01T08:05:01Z</time>
      </trkpt>
      <trkpt lat="48.12166" lon="-1.3067">
        <ele>64</ele>
        <time>2010-08-01T08:05:03Z</time>
      </trkpt>
      <trkpt lat="48.1216" lon="-1.30675">
        <ele>65</ele>
        <time>2010-08-01T08:05:05Z</time>
      </trkpt>
      <trkpt lat="48.12154" lon="-1.30679">
        <ele>65</ele>
        <time>2010-08-01T08:05:07Z</time>
      </trkpt>
      <trkpt lat="48.12148" lon="-1.30683">
        <ele>65</ele>
        <time>2010-08-01T08:05:09Z</time>
      </trkpt>
      <trkpt lat="48.1214" lon="-1.30688">
        <ele>65</ele>
        <time>2010-08-01T08:05:11Z</time>
      </trkpt>
      <trkpt lat="48.12133" lon="-1.30696">
        <ele>65</ele>
        <time>2010-08-01T08:05:13Z</time>
      </trkpt>
      <trkpt lat="48.12133" lon="-1.30701">
        <ele>65</ele>
        <time>2010-08-01T08:05:14Z</time>
      </trkpt>
      <trkpt lat="48.12133" lon="-1.30706">
        <ele>65</ele>
        <time>2010-08-01T08:05:15Z</time>
      </trkpt>
      <trkpt lat="48.12137" lon="-1.30716">
        <ele>66</ele>
        <time>2010-08-01T08:05:17Z</time>
      </trkpt>
      <trkpt lat="48.12145" lon="-1.30728">
        <ele>66</ele>
        <time>2010-08-01T08:05:20Z</time>
      </trkpt>
      <trkpt lat="48.12151" lon="-1.30737">
        <ele>66</ele>
        <time>2010-08-01T08:05:22Z</time>
      </trkpt>
      <trkpt lat="48.12153" lon="-1.30742">
        <ele>66</ele>
        <time>2010-08-01T08:05:23Z</time>
      </trkpt>
      <trkpt lat="48.12155" lon="-1.30747">
        <ele>66</ele>
        <time>2010-08-01T08:05:24Z</time>
      </trkpt>
      <trkpt lat="48.12159" lon="-1.30759">
        <ele>66</ele>
        <time>2010-08-01T08:05:26Z</time>
      </trkpt>
      <trkpt lat="48.12163" lon="-1.30772">
        <ele>67</ele>
        <time>2010-08-01T08:05:28Z</time>
      </trkpt>
      <trkpt lat="48.12165" lon="-1.30778">
        <ele>67</ele>
        <time>2010-08-01T08:05:29Z</time>
      </trkpt>
      <trkpt lat="48.12179" lon="-1.30812">
        <ele>68</ele>
        <time>2010-08-01T08:05:35Z</time>
      </trkpt>
      <trkpt lat="48.12183" lon="-1.30823">
        <ele>68</ele>
        <time>2010-08-01T08:05:37Z</time>
      </trkpt>
      <trkpt lat="48.12194" lon="-1.30856">
        <ele>69</ele>
        <time>2010-08-01T08:05:43Z</time>
      </trkpt>
      <trkpt lat="48.12198" lon="-1.30868">
        <ele>69</ele>
        <time>2010-08-01T08:05:45Z</time>
      </trkpt>
      <trkpt lat="48.12203" lon="-1.3088">
        <ele>69</ele>
        <time>2010-08-01T08:05:47Z</time>
      </trkpt>
      <trkpt lat="48.12207" lon="-1.30893">
        <ele>69</ele>
        <time>2010-08-01T08:05:49Z</time>
      </trkpt>
      <trkpt lat="48.12211" lon="-1.30906">
        <ele>70</ele>
        <time>2010-08-01T08:05:51Z</time>
      </trkpt>
      <trkpt lat="48.12223" lon="-1.30944">
        <ele>70</ele>
        <time>2010-08-01T08:05:57Z</time>
      </trkpt>
      <trkpt lat="48.12227" lon="-1.30957">
        <ele>70</ele>
        <time>2010-08-01T08:05:59Z</time>
      </trkpt>
      <trkpt lat="48.12232" lon="-1.30972">
        <ele>70</ele>
        <time>2010-08-01T08:06:01Z</time>
      </trkpt>
      <trkpt lat="48.12237" lon="-1.30986">
        <ele>71</ele>
        <time>2010-08-01T08:06:03Z</time>
      </trkpt>
      <trkpt lat="48.12241" lon="-1.31">
        <ele>72</ele>
        <time>2010-08-01T08:06:05Z</time>
      </trkpt>
      <trkpt lat="48.1226" lon="-1.31057">
        <ele>74</ele>
        <time>2010-08-01T08:06:13Z</time>
      </trkpt>
      <trkpt lat="48.12267" lon="-1.31078">
        <ele>74</ele>
        <time>2010-08-01T08:06:16Z</time>
      </trkpt>
      <trkpt lat="48.12272" lon="-1.31093">
        <ele>74</ele>
        <time>2010-08-01T08:06:18Z</time>
      </trkpt>
      <trkpt lat="48.12276" lon="-1.31106">
        <ele>75</ele>
        <time>2010-08-01T08:06:20Z</time>
      </trkpt>
      <trkpt lat="48.12281" lon="-1.31121">
        <ele>75</ele>
        <time>2010-08-01T08:06:22Z</time>
      </trkpt>
      <trkpt lat="48.12286" lon="-1.31134">
        <ele>75</ele>
        <time>2010-08-01T08:06:24Z</time>
      </trkpt>
      <trkpt lat="48.12291" lon="-1.31148">
        <ele>75</ele>
        <time>2010-08-01T08:06:26Z</time>
      </trkpt>
      <trkpt lat="48.12296" lon="-1.31161">
        <ele>75</ele>
        <time>2010-08-01T08:06:28Z</time>
      </trkpt>
      <trkpt lat="48.123" lon="-1.31175">
        <ele>75</ele>
        <time>2010-08-01T08:06:30Z</time>
      </trkpt>
      <trkpt lat="48.12305" lon="-1.31189">
        <ele>75</ele>
        <time>2010-08-01T08:06:32Z</time>
      </trkpt>
      <trkpt lat="48.1231" lon="-1.31204">
        <ele>75</ele>
        <time>2010-08-01T08:06:34Z</time>
      </trkpt>
      <trkpt lat="48.12329" lon="-1.31273">
        <ele>75</ele>
        <time>2010-08-01T08:06:43Z</time>
      </trkpt>
      <trkpt lat="48.12331" lon="-1.3128">
        <ele>75</ele>
        <time>2010-08-01T08:06:44Z</time>
      </trkpt>
      <trkpt lat="48.12341" lon="-1.31312">
        <ele>74</ele>
        <time>2010-08-01T08:06:48Z</time>
      </trkpt>
      <trkpt lat="48.12364" lon="-1.31383">
        <ele>70</ele>
        <time>2010-08-01T08:06:56Z</time>
      </trkpt>
      <trkpt lat="48.12366" lon="-1.3139">
        <ele>69</ele>
        <time>2010-08-01T08:06:57Z</time>
      </trkpt>
      <trkpt lat="48.12369" lon="-1.31395">
        <ele>69</ele>
        <time>2010-08-01T08:06:58Z</time>
      </trkpt>
      <trkpt lat="48.12374" lon="-1.31395">
        <ele>68</ele>
        <time>2010-08-01T08:06:59Z</time>
      </trkpt>
      <trkpt lat="48.12378" lon="-1.31391">
        <ele>68</ele>
        <time>2010-08-01T08:07:00Z</time>
      </trkpt>
      <trkpt lat="48.12381" lon="-1.31388">
        <ele>67</ele>
        <time>2010-08-01T08:07:01Z</time>
      </trkpt>
      <trkpt lat="48.12398" lon="-1.31372">
        <ele>67</ele>
        <time>2010-08-01T08:07:04Z</time>
      </trkpt>
      <trkpt lat="48.12405" lon="-1.31368">
        <ele>66</ele>
        <time>2010-08-01T08:07:05Z</time>
      </trkpt>
      <trkpt lat="48.12411" lon="-1.31363">
        <ele>66</ele>
        <time>2010-08-01T08:07:06Z</time>
      </trkpt>
      <trkpt lat="48.12419" lon="-1.3136">
        <ele>65</ele>
        <time>2010-08-01T08:07:07Z</time>
      </trkpt>
      <trkpt lat="48.12426" lon="-1.31356">
        <ele>65</ele>
        <time>2010-08-01T08:07:08Z</time>
      </trkpt>
      <trkpt lat="48.1245" lon="-1.31352">
        <ele>63</ele>
        <time>2010-08-01T08:07:11Z</time>
      </trkpt>
      <trkpt lat="48.12458" lon="-1.31346">
        <ele>63</ele>
        <time>2010-08-01T08:07:12Z</time>
      </trkpt>
      <trkpt lat="48.12466" lon="-1.31342">
        <ele>62</ele>
        <time>2010-08-01T08:07:13Z</time>
      </trkpt>
      <trkpt lat="48.1247" lon="-1.31337">
        <ele>62</ele>
        <time>2010-08-01T08:07:14Z</time>
      </trkpt>
      <trkpt lat="48.12473" lon="-1.31334">
        <ele>62</ele>
        <time>2010-08-01T08:07:15Z</time>
      </trkpt>
      <trkpt lat="48.12481" lon="-1.31338">
        <ele>61</ele>
        <time>2010-08-01T08:07:17Z</time>
      </trkpt>
      <trkpt lat="48.12485" lon="-1.3134">
        <ele>61</ele>
        <time>2010-08-01T08:07:18Z</time>
      </trkpt>
      <trkpt lat="48.12489" lon="-1.31352">
        <ele>62</ele>
        <time>2010-08-01T08:07:20Z</time>
      </trkpt>
      <trkpt lat="48.12491" lon="-1.31357">
        <ele>62</ele>
        <time>2010-08-01T08:07:21Z</time>
      </trkpt>
      <trkpt lat="48.125" lon="-1.31379">
        <ele>63</ele>
        <time>2010-08-01T08:07:24Z</time>
      </trkpt>
      <trkpt lat="48.12507" lon="-1.31392">
        <ele>64</ele>
        <time>2010-08-01T08:07:26Z</time>
      </trkpt>
      <trkpt lat="48.12511" lon="-1.31397">
        <ele>64</ele>
        <time>2010-08-01T08:07:27Z</time>
      </trkpt>
      <trkpt lat="48.12521" lon="-1.31416">
        <ele>65</ele>
        <time>2010-08-01T08:07:30Z</time>
      </trkpt>
      <trkpt lat="48.12529" lon="-1.31429">
        <ele>66</ele>
        <time>2010-08-01T08:07:32Z</time>
      </trkpt>
      <trkpt lat="48.12531" lon="-1.31433">
        <ele>66</ele>
        <time>2010-08-01T08:07:33Z</time>
      </trkpt>
      <trkpt lat="48.12534" lon="-1.31437">
        <ele>67</ele>
        <time>2010-08-01T08:07:34Z</time>
      </trkpt>
      <trkpt lat="48.12537" lon="-1.31446">
        <ele>67</ele>
        <time>2010-08-01T08:07:36Z</time>
      </trkpt>
      <trkpt lat="48.12538" lon="-1.31451">
        <ele>67</ele>
        <time>2010-08-01T08:07:37Z</time>
      </trkpt>
      <trkpt lat="48.1254" lon="-1.31461">
        <ele>68</ele>
        <time>2010-08-01T08:07:39Z</time>
      </trkpt>
      <trkpt lat="48.12543" lon="-1.31472">
        <ele>69</ele>
        <time>2010-08-01T08:07:41Z</time>
      </trkpt>
      <trkpt lat="48.12546" lon="-1.31486">
        <ele>69</ele>
        <time>2010-08-01T08:07:43Z</time>
      </trkpt>
      <trkpt lat="48.12549" lon="-1.31496">
        <ele>70</ele>
        <time>2010-08-01T08:07:45Z</time>
      </trkpt>
      <trkpt lat="48.1255" lon="-1.31502">
        <ele>70</ele>
        <time>2010-08-01T08:07:46Z</time>
      </trkpt>
      <trkpt lat="48.12552" lon="-1.31512">
        <ele>71</ele>
        <time>2010-08-01T08:07:48Z</time>
      </trkpt>
      <trkpt lat="48.12553" lon="-1.31522">
        <ele>71</ele>
        <time>2010-08-01T08:07:50Z</time>
      </trkpt>
      <trkpt lat="48.12555" lon="-1.31531">
        <ele>72</ele>
        <time>2010-08-01T08:07:52Z</time>
      </trkpt>
      <trkpt lat="48.12556" lon="-1.31535">
        <ele>72</ele>
        <time>2010-08-01T08:07:53Z</time>
      </trkpt>
      <trkpt lat="48.12558" lon="-1.31544">
        <ele>72</ele>
        <time>2010-08-01T08:07:55Z</time>
      </trkpt>
      <trkpt lat="48.1256" lon="-1.31553">
        <ele>73</ele>
        <time>2010-08-01T08:07:57Z</time>
      </trkpt>
      <trkpt lat="48.12561" lon="-1.31564">
        <ele>73</ele>
        <time>2010-08-01T08:07:59Z</time>
      </trkpt>
      <trkpt lat="48.12563" lon="-1.31574">
        <ele>73</ele>
        <time>2010-08-01T08:08:01Z</time>
      </trkpt>
      <trkpt lat="48.12568" lon="-1.31592">
        <ele>74</ele>
        <time>2010-08-01T08:08:05Z</time>
      </trkpt>
      <trkpt lat="48.12572" lon="-1.31601">
        <ele>74</ele>
        <time>2010-08-01T08:08:07Z</time>
      </trkpt>
      <trkpt lat="48.12572" lon="-1.31611">
        <ele>74</ele>
        <time>2010-08-01T08:08:09Z</time>
      </trkpt>
      <trkpt lat="48.12574" lon="-1.31619">
        <ele>75</ele>
        <time>2010-08-01T08:08:11Z</time>
      </trkpt>
      <trkpt lat="48.12577" lon="-1.31627">
        <ele>75</ele>
        <time>2010-08-01T08:08:13Z</time>
      </trkpt>
      <trkpt lat="48.12582" lon="-1.31645">
        <ele>75</ele>
        <time>2010-08-01T08:08:17Z</time>
      </trkpt>
      <trkpt lat="48.12584" lon="-1.31655">
        <ele>76</ele>
        <time>2010-08-01T08:08:19Z</time>
      </trkpt>
      <trkpt lat="48.12585" lon="-1.31666">
        <ele>76</ele>
        <time>2010-08-01T08:08:21Z</time>
      </trkpt>
      <trkpt lat="48.12588" lon="-1.31677">
        <ele>76</ele>
        <time>2010-08-01T08:08:23Z</time>
      </trkpt>
      <trkpt lat="48.12589" lon="-1.31688">
        <ele>77</ele>
        <time>2010-08-01T08:08:25Z</time>
      </trkpt>
      <trkpt lat="48.12592" lon="-1.3172">
        <ele>78</ele>
        <time>2010-08-01T08:08:31Z</time>
      </trkpt>
      <trkpt lat="48.12592" lon="-1.31731">
        <ele>78</ele>
        <time>2010-08-01T08:08:33Z</time>
      </trkpt>
      <trkpt lat="48.12592" lon="-1.31743">
        <ele>78</ele>
        <time>2010-08-01T08:08:35Z</time>
      </trkpt>
      <trkpt lat="48.12592" lon="-1.31757">
        <ele>78</ele>
        <time>2010-08-01T08:08:37Z</time>
      </trkpt>
      <trkpt lat="48.12592" lon="-1.31769">
        <ele>79</ele>
        <time>2010-08-01T08:08:39Z</time>
      </trkpt>
      <trkpt lat="48.12592" lon="-1.31805">
        <ele>79</ele>
        <time>2010-08-01T08:08:45Z</time>
      </trkpt>
      <trkpt lat="48.12593" lon="-1.31817">
        <ele>79</ele>
        <time>2010-08-01T08:08:47Z</time>
      </trkpt>
      <trkpt lat="48.12594" lon="-1.31831">
        <ele>80</ele>
        <time>2010-08-01T08:08:49Z</time>
      </trkpt>
      <trkpt lat="48.12595" lon="-1.31842">
        <ele>80</ele>
        <time>2010-08-01T08:08:51Z</time>
      </trkpt>
      <trkpt lat="48.12595" lon="-1.31854">
        <ele>81</ele>
        <time>2010-08-01T08:08:53Z</time>
      </trkpt>
      <trkpt lat="48.12603" lon="-1.31912">
        <ele>82</ele>
        <time>2010-08-01T08:09:02Z</time>
      </trkpt>
      <trkpt lat="48.12604" lon="-1.31917">
        <ele>82</ele>
        <time>2010-08-01T08:09:03Z</time>
      </trkpt>
      <trkpt lat="48.12607" lon="-1.31929">
        <ele>82</ele>
        <time>2010-08-01T08:09:05Z</time>
      </trkpt>
      <trkpt lat="48.12609" lon="-1.31941">
        <ele>83</ele>
        <time>2010-08-01T08:09:07Z</time>
      </trkpt>
      <trkpt lat="48.12611" lon="-1.31955">
        <ele>83</ele>
        <time>2010-08-01T08:09:09Z</time>
      </trkpt>
      <trkpt lat="48.12613" lon="-1.31968">
        <ele>83</ele>
        <time>2010-08-01T08:09:11Z</time>
      </trkpt>
      <trkpt lat="48.12617" lon="-1.31994">
        <ele>83</ele>
        <time>2010-08-01T08:09:15Z</time>
      </trkpt>
      <trkpt lat="48.12617" lon="-1.32008">
        <ele>83</ele>
        <time>2010-08-01T08:09:17Z</time>
      </trkpt>
      <trkpt lat="48.12618" lon="-1.32022">
        <ele>84</ele>
        <time>2010-08-01T08:09:19Z</time>
      </trkpt>
      <trkpt lat="48.12618" lon="-1.32035">
        <ele>84</ele>
        <time>2010-08-01T08:09:21Z</time>
      </trkpt>
      <trkpt lat="48.12618" lon="-1.32049">
        <ele>84</ele>
        <time>2010-08-01T08:09:23Z</time>
      </trkpt>
      <trkpt lat="48.12617" lon="-1.3209">
        <ele>85</ele>
        <time>2010-08-01T08:09:29Z</time>
      </trkpt>
      <trkpt lat="48.12617" lon="-1.32097">
        <ele>85</ele>
        <time>2010-08-01T08:09:30Z</time>
      </trkpt>
      <trkpt lat="48.12617" lon="-1.32108">
        <ele>85</ele>
        <time>2010-08-01T08:09:32Z</time>
      </trkpt>
      <trkpt lat="48.12618" lon="-1.32115">
        <ele>85</ele>
        <time>2010-08-01T08:09:33Z</time>
      </trkpt>
      <trkpt lat="48.12618" lon="-1.3212">
        <ele>85</ele>
        <time>2010-08-01T08:09:34Z</time>
      </trkpt>
      <trkpt lat="48.12619" lon="-1.32127">
        <ele>85</ele>
        <time>2010-08-01T08:09:35Z</time>
      </trkpt>
      <trkpt lat="48.12619" lon="-1.32135">
        <ele>85</ele>
        <time>2010-08-01T08:09:36Z</time>
      </trkpt>
      <trkpt lat="48.12616" lon="-1.32145">
        <ele>85</ele>
        <time>2010-08-01T08:09:38Z</time>
      </trkpt>
      <trkpt lat="48.12613" lon="-1.32149">
        <ele>86</ele>
        <time>2010-08-01T08:09:39Z</time>
      </trkpt>
      <trkpt lat="48.12594" lon="-1.32163">
        <ele>86</ele>
        <time>2010-08-01T08:09:44Z</time>
      </trkpt>
      <trkpt lat="48.12572" lon="-1.32175">
        <ele>87</ele>
        <time>2010-08-01T08:09:49Z</time>
      </trkpt>
      <trkpt lat="48.12566" lon="-1.32177">
        <ele>87</ele>
        <time>2010-08-01T08:09:50Z</time>
      </trkpt>
      <trkpt lat="48.12559" lon="-1.32179">
        <ele>87</ele>
        <time>2010-08-01T08:09:51Z</time>
      </trkpt>
      <trkpt lat="48.12554" lon="-1.32181">
        <ele>87</ele>
        <time>2010-08-01T08:09:52Z</time>
      </trkpt>
      <trkpt lat="48.12538" lon="-1.32185">
        <ele>87</ele>
        <time>2010-08-01T08:09:55Z</time>
      </trkpt>
      <trkpt lat="48.12524" lon="-1.32186">
        <ele>87</ele>
        <time>2010-08-01T08:09:57Z</time>
      </trkpt>
      <trkpt lat="48.12517" lon="-1.32185">
        <ele>86</ele>
        <time>2010-08-01T08:09:58Z</time>
      </trkpt>
      <trkpt lat="48.12471" lon="-1.32189">
        <ele>84</ele>
        <time>2010-08-01T08:10:05Z</time>
      </trkpt>
      <trkpt lat="48.12454" lon="-1.32204">
        <ele>84</ele>
        <time>2010-08-01T08:10:08Z</time>
      </trkpt>
      <trkpt lat="48.12452" lon="-1.32226">
        <ele>84</ele>
        <time>2010-08-01T08:10:10Z</time>
      </trkpt>
      <trkpt lat="48.12452" lon="-1.32235">
        <ele>84</ele>
        <time>2010-08-01T08:10:11Z</time>
      </trkpt>
      <trkpt lat="48.12453" lon="-1.32246">
        <ele>85</ele>
        <time>2010-08-01T08:10:12Z</time>
      </trkpt>
      <trkpt lat="48.12456" lon="-1.32266">
        <ele>85</ele>
        <time>2010-08-01T08:10:14Z</time>
      </trkpt>
      <trkpt lat="48.12457" lon="-1.32284">
        <ele>86</ele>
        <time>2010-08-01T08:10:16Z</time>
      </trkpt>
      <trkpt lat="48.1246" lon="-1.32355">
        <ele>86</ele>
        <time>2010-08-01T08:10:24Z</time>
      </trkpt>
      <trkpt lat="48.12447" lon="-1.32394">
        <ele>85</ele>
        <time>2010-08-01T08:10:29Z</time>
      </trkpt>
      <trkpt lat="48.12425" lon="-1.32418">
        <ele>85</ele>
        <time>2010-08-01T08:10:33Z</time>
      </trkpt>
      <trkpt lat="48.12414" lon="-1.32426">
        <ele>85</ele>
        <time>2010-08-01T08:10:35Z</time>
      </trkpt>
      <trkpt lat="48.12403" lon="-1.32431">
        <ele>86</ele>
        <time>2010-08-01T08:10:37Z</time>
      </trkpt>
      <trkpt lat="48.12387" lon="-1.32431">
        <ele>86</ele>
        <time>2010-08-01T08:10:40Z</time>
      </trkpt>
      <trkpt lat="48.12376" lon="-1.32428">
        <ele>86</ele>
        <time>2010-08-01T08:10:42Z</time>
      </trkpt>
      <trkpt lat="48.12366" lon="-1.32426">
        <ele>86</ele>
        <time>2010-08-01T08:10:44Z</time>
      </trkpt>
      <trkpt lat="48.12359" lon="-1.32452">
        <ele>87</ele>
        <time>2010-08-01T08:11:48Z</time>
      </trkpt>
      <trkpt lat="48.12357" lon="-1.32467">
        <ele>87</ele>
        <time>2010-08-01T08:11:50Z</time>
      </trkpt>
      <trkpt lat="48.12355" lon="-1.32491">
        <ele>88</ele>
        <time>2010-08-01T08:11:53Z</time>
      </trkpt>
      <trkpt lat="48.1236" lon="-1.32564">
        <ele>89</ele>
        <time>2010-08-01T08:12:02Z</time>
      </trkpt>
      <trkpt lat="48.1236" lon="-1.32639">
        <ele>90</ele>
        <time>2010-08-01T08:12:11Z</time>
      </trkpt>
      <trkpt lat="48.1236" lon="-1.32663">
        <ele>90</ele>
        <time>2010-08-01T08:12:14Z</time>
      </trkpt>
      <trkpt lat="48.12362" lon="-1.32679">
        <ele>90</ele>
        <time>2010-08-01T08:12:16Z</time>
      </trkpt>
      <trkpt lat="48.12365" lon="-1.32695">
        <ele>90</ele>
        <time>2010-08-01T08:12:18Z</time>
      </trkpt>
      <trkpt lat="48.12368" lon="-1.32711">
        <ele>91</ele>
        <time>2010-08-01T08:12:20Z</time>
      </trkpt>
      <trkpt lat="48.12369" lon="-1.32718">
        <ele>91</ele>
        <time>2010-08-01T08:12:21Z</time>
      </trkpt>
      <trkpt lat="48.1237" lon="-1.3274">
        <ele>91</ele>
        <time>2010-08-01T08:12:24Z</time>
      </trkpt>
      <trkpt lat="48.12369" lon="-1.32746">
        <ele>90</ele>
        <time>2010-08-01T08:12:25Z</time>
      </trkpt>
      <trkpt lat="48.12347" lon="-1.32747">
        <ele>90</ele>
        <time>2010-08-01T08:12:29Z</time>
      </trkpt>
      <trkpt lat="48.12339" lon="-1.3274">
        <ele>90</ele>
        <time>2010-08-01T08:12:30Z</time>
      </trkpt>
      <trkpt lat="48.12285" lon="-1.32696">
        <ele>89</ele>
        <time>2010-08-01T08:12:39Z</time>
      </trkpt>
      <trkpt lat="48.12237" lon="-1.32658">
        <ele>88</ele>
        <time>2010-08-01T08:12:47Z</time>
      </trkpt>
      <trkpt lat="48.12198" lon="-1.32627">
        <ele>87</ele>
        <time>2010-08-01T08:12:53Z</time>
      </trkpt>
      <trkpt lat="48.12183" lon="-1.32615">
        <ele>87</ele>
        <time>2010-08-01T08:12:55Z</time>
      </trkpt>
      <trkpt lat="48.12167" lon="-1.32603">
        <ele>87</ele>
        <time>2010-08-01T08:12:57Z</time>
      </trkpt>
      <trkpt lat="48.12152" lon="-1.32591">
        <ele>86</ele>
        <time>2010-08-01T08:12:59Z</time>
      </trkpt>
      <trkpt lat="48.12138" lon="-1.3258">
        <ele>86</ele>
        <time>2010-08-01T08:13:01Z</time>
      </trkpt>
      <trkpt lat="48.12088" lon="-1.3254">
        <ele>85</ele>
        <time>2010-08-01T08:13:08Z</time>
      </trkpt>
      <trkpt lat="48.12074" lon="-1.3253">
        <ele>85</ele>
        <time>2010-08-01T08:13:10Z</time>
      </trkpt>
      <trkpt lat="48.1206" lon="-1.32519">
        <ele>84</ele>
        <time>2010-08-01T08:13:12Z</time>
      </trkpt>
      <trkpt lat="48.12046" lon="-1.32508">
        <ele>84</ele>
        <time>2010-08-01T08:13:14Z</time>
      </trkpt>
      <trkpt lat="48.12032" lon="-1.32496">
        <ele>84</ele>
        <time>2010-08-01T08:13:16Z</time>
      </trkpt>
      <trkpt lat="48.12017" lon="-1.32485">
        <ele>83</ele>
        <time>2010-08-01T08:13:18Z</time>
      </trkpt>
      <trkpt lat="48.12004" lon="-1.32474">
        <ele>83</ele>
        <time>2010-08-01T08:13:20Z</time>
      </trkpt>
      <trkpt lat="48.11989" lon="-1.32462">
        <ele>82</ele>
        <time>2010-08-01T08:13:22Z</time>
      </trkpt>
      <trkpt lat="48.11982" lon="-1.32457">
        <ele>82</ele>
        <time>2010-08-01T08:13:23Z</time>
      </trkpt>
      <trkpt lat="48.11967" lon="-1.32445">
        <ele>81</ele>
        <time>2010-08-01T08:13:25Z</time>
      </trkpt>
      <trkpt lat="48.11952" lon="-1.32434">
        <ele>80</ele>
        <time>2010-08-01T08:13:27Z</time>
      </trkpt>
      <trkpt lat="48.11935" lon="-1.32425">
        <ele>79</ele>
        <time>2010-08-01T08:13:29Z</time>
      </trkpt>
      <trkpt lat="48.11925" lon="-1.32421">
        <ele>79</ele>
        <time>2010-08-01T08:13:30Z</time>
      </trkpt>
      <trkpt lat="48.11909" lon="-1.32416">
        <ele>78</ele>
        <time>2010-08-01T08:13:32Z</time>
      </trkpt>
      <trkpt lat="48.11895" lon="-1.32415">
        <ele>78</ele>
        <time>2010-08-01T08:13:34Z</time>
      </trkpt>
      <trkpt lat="48.11886" lon="-1.32414">
        <ele>77</ele>
        <time>2010-08-01T08:13:36Z</time>
      </trkpt>
      <trkpt lat="48.11881" lon="-1.32414">
        <ele>77</ele>
        <time>2010-08-01T08:13:37Z</time>
      </trkpt>
      <trkpt lat="48.11876" lon="-1.32413">
        <ele>77</ele>
        <time>2010-08-01T08:13:38Z</time>
      </trkpt>
      <trkpt lat="48.11871" lon="-1.32411">
        <ele>76</ele>
        <time>2010-08-01T08:13:39Z</time>
      </trkpt>
      <trkpt lat="48.11858" lon="-1.32405">
        <ele>76</ele>
        <time>2010-08-01T08:13:41Z</time>
      </trkpt>
      <trkpt lat="48.11842" lon="-1.32398">
        <ele>75</ele>
        <time>2010-08-01T08:13:43Z</time>
      </trkpt>
      <trkpt lat="48.11834" lon="-1.32394">
        <ele>75</ele>
        <time>2010-08-01T08:13:44Z</time>
      </trkpt>
      <trkpt lat="48.11815" lon="-1.32386">
        <ele>74</ele>
        <time>2010-08-01T08:13:46Z</time>
      </trkpt>
      <trkpt lat="48.11798" lon="-1.32381">
        <ele>72</ele>
        <time>2010-08-01T08:13:48Z</time>
      </trkpt>
      <trkpt lat="48.11776" lon="-1.32375">
        <ele>71</ele>
        <time>2010-08-01T08:13:50Z</time>
      </trkpt>
      <trkpt lat="48.11754" lon="-1.32373">
        <ele>69</ele>
        <time>2010-08-01T08:13:52Z</time>
      </trkpt>
      <trkpt lat="48.1173" lon="-1.32375">
        <ele>67</ele>
        <time>2010-08-01T08:13:54Z</time>
      </trkpt>
      <trkpt lat="48.11717" lon="-1.32379">
        <ele>66</ele>
        <time>2010-08-01T08:13:55Z</time>
      </trkpt>
      <trkpt lat="48.11706" lon="-1.32383">
        <ele>65</ele>
        <time>2010-08-01T08:13:56Z</time>
      </trkpt>
      <trkpt lat="48.11683" lon="-1.32392">
        <ele>63</ele>
        <time>2010-08-01T08:13:58Z</time>
      </trkpt>
      <trkpt lat="48.11672" lon="-1.32397">
        <ele>62</ele>
        <time>2010-08-01T08:13:59Z</time>
      </trkpt>
      <trkpt lat="48.11649" lon="-1.32407">
        <ele>60</ele>
        <time>2010-08-01T08:14:01Z</time>
      </trkpt>
      <trkpt lat="48.11627" lon="-1.32415">
        <ele>58</ele>
        <time>2010-08-01T08:14:03Z</time>
      </trkpt>
      <trkpt lat="48.11603" lon="-1.32425">
        <ele>57</ele>
        <time>2010-08-01T08:14:05Z</time>
      </trkpt>
      <trkpt lat="48.11582" lon="-1.32433">
        <ele>56</ele>
        <time>2010-08-01T08:14:07Z</time>
      </trkpt>
      <trkpt lat="48.11561" lon="-1.3244">
        <ele>57</ele>
        <time>2010-08-01T08:14:09Z</time>
      </trkpt>
      <trkpt lat="48.11539" lon="-1.32449">
        <ele>57</ele>
        <time>2010-08-01T08:14:11Z</time>
      </trkpt>
      <trkpt lat="48.11521" lon="-1.32457">
        <ele>57</ele>
        <time>2010-08-01T08:14:13Z</time>
      </trkpt>
      <trkpt lat="48.11503" lon="-1.32464">
        <ele>57</ele>
        <time>2010-08-01T08:14:15Z</time>
      </trkpt>
      <trkpt lat="48.11486" lon="-1.3247">
        <ele>57</ele>
        <time>2010-08-01T08:14:17Z</time>
      </trkpt>
      <trkpt lat="48.1147" lon="-1.32476">
        <ele>56</ele>
        <time>2010-08-01T08:14:19Z</time>
      </trkpt>
      <trkpt lat="48.11454" lon="-1.32482">
        <ele>56</ele>
        <time>2010-08-01T08:14:21Z</time>
      </trkpt>
      <trkpt lat="48.11438" lon="-1.32488">
        <ele>56</ele>
        <time>2010-08-01T08:14:23Z</time>
      </trkpt>
      <trkpt lat="48.11422" lon="-1.32495">
        <ele>55</ele>
        <time>2010-08-01T08:14:25Z</time>
      </trkpt>
      <trkpt lat="48.11392" lon="-1.32506">
        <ele>55</ele>
        <time>2010-08-01T08:14:29Z</time>
      </trkpt>
      <trkpt lat="48.11376" lon="-1.32513">
        <ele>55</ele>
        <time>2010-08-01T08:14:31Z</time>
      </trkpt>
      <trkpt lat="48.11361" lon="-1.32518">
        <ele>55</ele>
        <time>2010-08-01T08:14:33Z</time>
      </trkpt>
      <trkpt lat="48.11345" lon="-1.32522">
        <ele>55</ele>
        <time>2010-08-01T08:14:35Z</time>
      </trkpt>
      <trkpt lat="48.11329" lon="-1.32525">
        <ele>54</ele>
        <time>2010-08-01T08:14:37Z</time>
      </trkpt>
      <trkpt lat="48.11289" lon="-1.32528">
        <ele>54</ele>
        <time>2010-08-01T08:14:42Z</time>
      </trkpt>
      <trkpt lat="48.11275" lon="-1.32528">
        <ele>53</ele>
        <time>2010-08-01T08:14:44Z</time>
      </trkpt>
      <trkpt lat="48.11259" lon="-1.32527">
        <ele>53</ele>
        <time>2010-08-01T08:14:46Z</time>
      </trkpt>
      <trkpt lat="48.11243" lon="-1.32527">
        <ele>53</ele>
        <time>2010-08-01T08:14:48Z</time>
      </trkpt>
      <trkpt lat="48.11225" lon="-1.32528">
        <ele>52</ele>
        <time>2010-08-01T08:14:50Z</time>
      </trkpt>
      <trkpt lat="48.11167" lon="-1.32529">
        <ele>51</ele>
        <time>2010-08-01T08:14:57Z</time>
      </trkpt>
      <trkpt lat="48.11118" lon="-1.32529">
        <ele>50</ele>
        <time>2010-08-01T08:15:03Z</time>
      </trkpt>
      <trkpt lat="48.11101" lon="-1.3253">
        <ele>49</ele>
        <time>2010-08-01T08:15:05Z</time>
      </trkpt>
      <trkpt lat="48.11085" lon="-1.3253">
        <ele>49</ele>
        <time>2010-08-01T08:15:07Z</time>
      </trkpt>
      <trkpt lat="48.1107" lon="-1.32529">
        <ele>49</ele>
        <time>2010-08-01T08:15:09Z</time>
      </trkpt>
      <trkpt lat="48.11055" lon="-1.32528">
        <ele>48</ele>
        <time>2010-08-01T08:15:11Z</time>
      </trkpt>
      <trkpt lat="48.11002" lon="-1.32529">
        <ele>47</ele>
        <time>2010-08-01T08:15:18Z</time>
      </trkpt>
      <trkpt lat="48.10989" lon="-1.32529">
        <ele>47</ele>
        <time>2010-08-01T08:15:20Z</time>
      </trkpt>
      <trkpt lat="48.10975" lon="-1.3253">
        <ele>47</ele>
        <time>2010-08-01T08:15:22Z</time>
      </trkpt>
      <trkpt lat="48.10964" lon="-1.32531">
        <ele>47</ele>
        <time>2010-08-01T08:15:24Z</time>
      </trkpt>
      <trkpt lat="48.10951" lon="-1.32532">
        <ele>47</ele>
        <time>2010-08-01T08:15:26Z</time>
      </trkpt>
      <trkpt lat="48.10915" lon="-1.3253">
        <ele>49</ele>
        <time>2010-08-01T08:15:32Z</time>
      </trkpt>
      <trkpt lat="48.10899" lon="-1.32525">
        <ele>50</ele>
        <time>2010-08-01T08:15:35Z</time>
      </trkpt>
      <trkpt lat="48.10892" lon="-1.32516">
        <ele>52</ele>
        <time>2010-08-01T08:15:37Z</time>
      </trkpt>
      <trkpt lat="48.10885" lon="-1.32485">
        <ele>53</ele>
        <time>2010-08-01T08:15:42Z</time>
      </trkpt>
      <trkpt lat="48.10885" lon="-1.32479">
        <ele>53</ele>
        <time>2010-08-01T08:15:43Z</time>
      </trkpt>
      <trkpt lat="48.10885" lon="-1.32473">
        <ele>53</ele>
        <time>2010-08-01T08:15:44Z</time>
      </trkpt>
      <trkpt lat="48.10885" lon="-1.32461">
        <ele>53</ele>
        <time>2010-08-01T08:15:46Z</time>
      </trkpt>
      <trkpt lat="48.10884" lon="-1.32451">
        <ele>54</ele>
        <time>2010-08-01T08:15:48Z</time>
      </trkpt>
      <trkpt lat="48.10882" lon="-1.32442">
        <ele>54</ele>
        <time>2010-08-01T08:15:50Z</time>
      </trkpt>
      <trkpt lat="48.10883" lon="-1.32428">
        <ele>54</ele>
        <time>2010-08-01T08:15:52Z</time>
      </trkpt>
      <trkpt lat="48.10884" lon="-1.32418">
        <ele>54</ele>
        <time>2010-08-01T08:15:54Z</time>
      </trkpt>
      <trkpt lat="48.10888" lon="-1.32403">
        <ele>54</ele>
        <time>2010-08-01T08:15:56Z</time>
      </trkpt>
      <trkpt lat="48.10889" lon="-1.32391">
        <ele>54</ele>
        <time>2010-08-01T08:15:58Z</time>
      </trkpt>
      <trkpt lat="48.10892" lon="-1.32348">
        <ele>54</ele>
        <time>2010-08-01T08:16:05Z</time>
      </trkpt>
      <trkpt lat="48.10892" lon="-1.32336">
        <ele>54</ele>
        <time>2010-08-01T08:16:07Z</time>
      </trkpt>
      <trkpt lat="48.10892" lon="-1.32324">
        <ele>55</ele>
        <time>2010-08-01T08:16:09Z</time>
      </trkpt>
      <trkpt lat="48.10892" lon="-1.32312">
        <ele>55</ele>
        <time>2010-08-01T08:16:11Z</time>
      </trkpt>
      <trkpt lat="48.10892" lon="-1.32301">
        <ele>55</ele>
        <time>2010-08-01T08:16:13Z</time>
      </trkpt>
      <trkpt lat="48.10894" lon="-1.32283">
        <ele>55</ele>
        <time>2010-08-01T08:16:17Z</time>
      </trkpt>
      <trkpt lat="48.10897" lon="-1.32275">
        <ele>55</ele>
        <time>2010-08-01T08:16:22Z</time>
      </trkpt>
      <trkpt lat="48.10898" lon="-1.3227">
        <ele>55</ele>
        <time>2010-08-01T08:16:23Z</time>
      </trkpt>
      <trkpt lat="48.10895" lon="-1.32254">
        <ele>56</ele>
        <time>2010-08-01T08:16:26Z</time>
      </trkpt>
      <trkpt lat="48.10888" lon="-1.32244">
        <ele>57</ele>
        <time>2010-08-01T08:16:28Z</time>
      </trkpt>
      <trkpt lat="48.10886" lon="-1.32238">
        <ele>58</ele>
        <time>2010-08-01T08:16:29Z</time>
      </trkpt>
      <trkpt lat="48.10882" lon="-1.32233">
        <ele>58</ele>
        <time>2010-08-01T08:16:30Z</time>
      </trkpt>
      <trkpt lat="48.10874" lon="-1.3222">
        <ele>60</ele>
        <time>2010-08-01T08:16:33Z</time>
      </trkpt>
      <trkpt lat="48.10869" lon="-1.32212">
        <ele>60</ele>
        <time>2010-08-01T08:16:37Z</time>
      </trkpt>
      <trkpt lat="48.10868" lon="-1.32212">
        <ele>60</ele>
        <time>2010-08-01T08:16:38Z</time>
      </trkpt>
      <trkpt lat="48.10868" lon="-1.32212">
        <ele>60</ele>
        <time>2010-08-01T08:16:39Z</time>
      </trkpt>
      <trkpt lat="48.10866" lon="-1.32216">
        <ele>60</ele>
        <time>2010-08-01T08:16:42Z</time>
      </trkpt>
      <trkpt lat="48.10864" lon="-1.3222">
        <ele>60</ele>
        <time>2010-08-01T08:16:43Z</time>
      </trkpt>
      <trkpt lat="48.10854" lon="-1.32237">
        <ele>59</ele>
        <time>2010-08-01T08:16:46Z</time>
      </trkpt>
      <trkpt lat="48.10833" lon="-1.32276">
        <ele>54</ele>
        <time>2010-08-01T08:16:51Z</time>
      </trkpt>
      <trkpt lat="48.10823" lon="-1.32297">
        <ele>52</ele>
        <time>2010-08-01T08:16:53Z</time>
      </trkpt>
      <trkpt lat="48.10816" lon="-1.32315">
        <ele>52</ele>
        <time>2010-08-01T08:16:55Z</time>
      </trkpt>
      <trkpt lat="48.10813" lon="-1.32326">
        <ele>52</ele>
        <time>2010-08-01T08:16:56Z</time>
      </trkpt>
      <trkpt lat="48.10812" lon="-1.32357">
        <ele>52</ele>
        <time>2010-08-01T08:16:59Z</time>
      </trkpt>
      <trkpt lat="48.10816" lon="-1.32379">
        <ele>52</ele>
        <time>2010-08-01T08:17:01Z</time>
      </trkpt>
      <trkpt lat="48.10819" lon="-1.324">
        <ele>51</ele>
        <time>2010-08-01T08:17:03Z</time>
      </trkpt>
      <trkpt lat="48.10821" lon="-1.32421">
        <ele>51</ele>
        <time>2010-08-01T08:17:05Z</time>
      </trkpt>
      <trkpt lat="48.10823" lon="-1.32441">
        <ele>52</ele>
        <time>2010-08-01T08:17:07Z</time>
      </trkpt>
      <trkpt lat="48.10825" lon="-1.32461">
        <ele>53</ele>
        <time>2010-08-01T08:17:09Z</time>
      </trkpt>
      <trkpt lat="48.10831" lon="-1.32536">
        <ele>54</ele>
        <time>2010-08-01T08:17:16Z</time>
      </trkpt>
      <trkpt lat="48.1083" lon="-1.32547">
        <ele>54</ele>
        <time>2010-08-01T08:17:17Z</time>
      </trkpt>
      <trkpt lat="48.10815" lon="-1.32596">
        <ele>54</ele>
        <time>2010-08-01T08:17:22Z</time>
      </trkpt>
      <trkpt lat="48.10788" lon="-1.32673">
        <ele>55</ele>
        <time>2010-08-01T08:17:31Z</time>
      </trkpt>
      <trkpt lat="48.10772" lon="-1.32728">
        <ele>57</ele>
        <time>2010-08-01T08:17:38Z</time>
      </trkpt>
      <trkpt lat="48.1077" lon="-1.32746">
        <ele>58</ele>
        <time>2010-08-01T08:17:40Z</time>
      </trkpt>
      <trkpt lat="48.1077" lon="-1.32754">
        <ele>58</ele>
        <time>2010-08-01T08:17:41Z</time>
      </trkpt>
      <trkpt lat="48.10771" lon="-1.32771">
        <ele>58</ele>
        <time>2010-08-01T08:17:43Z</time>
      </trkpt>
      <trkpt lat="48.10777" lon="-1.32797">
        <ele>57</ele>
        <time>2010-08-01T08:17:46Z</time>
      </trkpt>
      <trkpt lat="48.10781" lon="-1.32813">
        <ele>57</ele>
        <time>2010-08-01T08:17:48Z</time>
      </trkpt>
      <trkpt lat="48.10784" lon="-1.32829">
        <ele>57</ele>
        <time>2010-08-01T08:17:50Z</time>
      </trkpt>
      <trkpt lat="48.10786" lon="-1.32853">
        <ele>57</ele>
        <time>2010-08-01T08:17:53Z</time>
      </trkpt>
      <trkpt lat="48.10785" lon="-1.32862">
        <ele>57</ele>
        <time>2010-08-01T08:17:54Z</time>
      </trkpt>
      <trkpt lat="48.10785" lon="-1.3287">
        <ele>57</ele>
        <time>2010-08-01T08:17:55Z</time>
      </trkpt>
      <trkpt lat="48.10783" lon="-1.32885">
        <ele>58</ele>
        <time>2010-08-01T08:17:57Z</time>
      </trkpt>
      <trkpt lat="48.10779" lon="-1.329">
        <ele>59</ele>
        <time>2010-08-01T08:17:59Z</time>
      </trkpt>
      <trkpt lat="48.10777" lon="-1.32911">
        <ele>60</ele>
        <time>2010-08-01T08:18:01Z</time>
      </trkpt>
      <trkpt lat="48.10775" lon="-1.32924">
        <ele>60</ele>
        <time>2010-08-01T08:18:03Z</time>
      </trkpt>
      <trkpt lat="48.10773" lon="-1.3293">
        <ele>61</ele>
        <time>2010-08-01T08:18:04Z</time>
      </trkpt>
      <trkpt lat="48.10772" lon="-1.32937">
        <ele>61</ele>
        <time>2010-08-01T08:18:05Z</time>
      </trkpt>
      <trkpt lat="48.1077" lon="-1.3295">
        <ele>62</ele>
        <time>2010-08-01T08:18:07Z</time>
      </trkpt>
      <trkpt lat="48.10767" lon="-1.32963">
        <ele>62</ele>
        <time>2010-08-01T08:18:09Z</time>
      </trkpt>
      <trkpt lat="48.10766" lon="-1.32969">
        <ele>63</ele>
        <time>2010-08-01T08:18:10Z</time>
      </trkpt>
      <trkpt lat="48.10759" lon="-1.32988">
        <ele>64</ele>
        <time>2010-08-01T08:18:13Z</time>
      </trkpt>
      <trkpt lat="48.10755" lon="-1.33">
        <ele>64</ele>
        <time>2010-08-01T08:18:15Z</time>
      </trkpt>
      <trkpt lat="48.10752" lon="-1.33012">
        <ele>65</ele>
        <time>2010-08-01T08:18:17Z</time>
      </trkpt>
      <trkpt lat="48.10748" lon="-1.33024">
        <ele>65</ele>
        <time>2010-08-01T08:18:19Z</time>
      </trkpt>
      <trkpt lat="48.10744" lon="-1.33037">
        <ele>65</ele>
        <time>2010-08-01T08:18:21Z</time>
      </trkpt>
      <trkpt lat="48.10738" lon="-1.33055">
        <ele>65</ele>
        <time>2010-08-01T08:18:24Z</time>
      </trkpt>
      <trkpt lat="48.10735" lon="-1.33069">
        <ele>66</ele>
        <time>2010-08-01T08:18:26Z</time>
      </trkpt>
      <trkpt lat="48.10731" lon="-1.33082">
        <ele>66</ele>
        <time>2010-08-01T08:18:28Z</time>
      </trkpt>
      <trkpt lat="48.10727" lon="-1.33096">
        <ele>66</ele>
        <time>2010-08-01T08:18:30Z</time>
      </trkpt>
      <trkpt lat="48.10723" lon="-1.33111">
        <ele>66</ele>
        <time>2010-08-01T08:18:32Z</time>
      </trkpt>
      <trkpt lat="48.10701" lon="-1.33186">
        <ele>66</ele>
        <time>2010-08-01T08:18:42Z</time>
      </trkpt>
      <trkpt lat="48.10674" lon="-1.33262">
        <ele>66</ele>
        <time>2010-08-01T08:18:51Z</time>
      </trkpt>
      <trkpt lat="48.10646" lon="-1.33336">
        <ele>64</ele>
        <time>2010-08-01T08:19:00Z</time>
      </trkpt>
      <trkpt lat="48.10635" lon="-1.33364">
        <ele>64</ele>
        <time>2010-08-01T08:19:04Z</time>
      </trkpt>
      <trkpt lat="48.10638" lon="-1.33383">
        <ele>62</ele>
        <time>2010-08-01T08:19:07Z</time>
      </trkpt>
      <trkpt lat="48.10644" lon="-1.33387">
        <ele>62</ele>
        <time>2010-08-01T08:19:08Z</time>
      </trkpt>
      <trkpt lat="48.1065" lon="-1.33389">
        <ele>61</ele>
        <time>2010-08-01T08:19:09Z</time>
      </trkpt>
      <trkpt lat="48.1066" lon="-1.33396">
        <ele>60</ele>
        <time>2010-08-01T08:19:11Z</time>
      </trkpt>
      <trkpt lat="48.10672" lon="-1.33407">
        <ele>58</ele>
        <time>2010-08-01T08:19:13Z</time>
      </trkpt>
      <trkpt lat="48.10677" lon="-1.33416">
        <ele>58</ele>
        <time>2010-08-01T08:19:14Z</time>
      </trkpt>
      <trkpt lat="48.10681" lon="-1.33427">
        <ele>57</ele>
        <time>2010-08-01T08:19:15Z</time>
      </trkpt>
      <trkpt lat="48.10682" lon="-1.33437">
        <ele>56</ele>
        <time>2010-08-01T08:19:16Z</time>
      </trkpt>
      <trkpt lat="48.10679" lon="-1.33461">
        <ele>54</ele>
        <time>2010-08-01T08:19:18Z</time>
      </trkpt>
      <trkpt lat="48.10668" lon="-1.33485">
        <ele>53</ele>
        <time>2010-08-01T08:19:20Z</time>
      </trkpt>
      <trkpt lat="48.10657" lon="-1.33503">
        <ele>54</ele>
        <time>2010-08-01T08:19:22Z</time>
      </trkpt>
      <trkpt lat="48.10649" lon="-1.33519">
        <ele>54</ele>
        <time>2010-08-01T08:19:24Z</time>
      </trkpt>
      <trkpt lat="48.10645" lon="-1.33527">
        <ele>54</ele>
        <time>2010-08-01T08:19:25Z</time>
      </trkpt>
      <trkpt lat="48.10636" lon="-1.33548">
        <ele>54</ele>
        <time>2010-08-01T08:19:27Z</time>
      </trkpt>
      <trkpt lat="48.10632" lon="-1.33557">
        <ele>54</ele>
        <time>2010-08-01T08:19:28Z</time>
      </trkpt>
      <trkpt lat="48.10631" lon="-1.33591">
        <ele>52</ele>
        <time>2010-08-01T08:19:31Z</time>
      </trkpt>
      <trkpt lat="48.10631" lon="-1.33602">
        <ele>51</ele>
        <time>2010-08-01T08:19:32Z</time>
      </trkpt>
      <trkpt lat="48.10631" lon="-1.33612">
        <ele>51</ele>
        <time>2010-08-01T08:19:33Z</time>
      </trkpt>
      <trkpt lat="48.10628" lon="-1.3362">
        <ele>51</ele>
        <time>2010-08-01T08:19:34Z</time>
      </trkpt>
      <trkpt lat="48.10625" lon="-1.33628">
        <ele>51</ele>
        <time>2010-08-01T08:19:35Z</time>
      </trkpt>
      <trkpt lat="48.10622" lon="-1.33634">
        <ele>51</ele>
        <time>2010-08-01T08:19:36Z</time>
      </trkpt>
      <trkpt lat="48.10615" lon="-1.33648">
        <ele>51</ele>
        <time>2010-08-01T08:19:38Z</time>
      </trkpt>
      <trkpt lat="48.10609" lon="-1.33661">
        <ele>50</ele>
        <time>2010-08-01T08:19:40Z</time>
      </trkpt>
      <trkpt lat="48.10606" lon="-1.33668">
        <ele>50</ele>
        <time>2010-08-01T08:19:41Z</time>
      </trkpt>
      <trkpt lat="48.10584" lon="-1.33717">
        <ele>50</ele>
        <time>2010-08-01T08:19:48Z</time>
      </trkpt>
      <trkpt lat="48.10575" lon="-1.33742">
        <ele>50</ele>
        <time>2010-08-01T08:19:52Z</time>
      </trkpt>
      <trkpt lat="48.10571" lon="-1.33752">
        <ele>50</ele>
        <time>2010-08-01T08:19:54Z</time>
      </trkpt>
      <trkpt lat="48.10568" lon="-1.3376">
        <ele>50</ele>
        <time>2010-08-01T08:19:56Z</time>
      </trkpt>
      <trkpt lat="48.10566" lon="-1.33766">
        <ele>50</ele>
        <time>2010-08-01T08:19:57Z</time>
      </trkpt>
      <trkpt lat="48.10564" lon="-1.33772">
        <ele>50</ele>
        <time>2010-08-01T08:19:58Z</time>
      </trkpt>
      <trkpt lat="48.1056" lon="-1.33786">
        <ele>50</ele>
        <time>2010-08-01T08:20:00Z</time>
      </trkpt>
      <trkpt lat="48.10557" lon="-1.33793">
        <ele>50</ele>
        <time>2010-08-01T08:20:01Z</time>
      </trkpt>
      <trkpt lat="48.10532" lon="-1.33841">
        <ele>50</ele>
        <time>2010-08-01T08:20:09Z</time>
      </trkpt>
      <trkpt lat="48.10531" lon="-1.33846">
        <ele>50</ele>
        <time>2010-08-01T08:20:10Z</time>
      </trkpt>
      <trkpt lat="48.1053" lon="-1.33854">
        <ele>49</ele>
        <time>2010-08-01T08:20:13Z</time>
      </trkpt>
      <trkpt lat="48.10533" lon="-1.33866">
        <ele>48</ele>
        <time>2010-08-01T08:20:17Z</time>
      </trkpt>
      <trkpt lat="48.10533" lon="-1.33887">
        <ele>47</ele>
        <time>2010-08-01T08:20:21Z</time>
      </trkpt>
      <trkpt lat="48.1053" lon="-1.3391">
        <ele>47</ele>
        <time>2010-08-01T08:20:25Z</time>
      </trkpt>
      <trkpt lat="48.10531" lon="-1.33917">
        <ele>47</ele>
        <time>2010-08-01T08:20:26Z</time>
      </trkpt>
      <trkpt lat="48.10531" lon="-1.33921">
        <ele>46</ele>
        <time>2010-08-01T08:20:27Z</time>
      </trkpt>
      <trkpt lat="48.10528" lon="-1.33931">
        <ele>46</ele>
        <time>2010-08-01T08:20:29Z</time>
      </trkpt>
      <trkpt lat="48.10524" lon="-1.33939">
        <ele>46</ele>
        <time>2010-08-01T08:20:31Z</time>
      </trkpt>
      <trkpt lat="48.10523" lon="-1.33943">
        <ele>46</ele>
        <time>2010-08-01T08:20:32Z</time>
      </trkpt>
      <trkpt lat="48.10522" lon="-1.33948">
        <ele>46</ele>
        <time>2010-08-01T08:20:33Z</time>
      </trkpt>
      <trkpt lat="48.10521" lon="-1.33953">
        <ele>46</ele>
        <time>2010-08-01T08:20:34Z</time>
      </trkpt>
      <trkpt lat="48.10519" lon="-1.33962">
        <ele>46</ele>
        <time>2010-08-01T08:20:36Z</time>
      </trkpt>
      <trkpt lat="48.10517" lon="-1.33969">
        <ele>46</ele>
        <time>2010-08-01T08:20:38Z</time>
      </trkpt>
      <trkpt lat="48.10516" lon="-1.33975">
        <ele>46</ele>
        <time>2010-08-01T08:20:40Z</time>
      </trkpt>
      <trkpt lat="48.10515" lon="-1.33982">
        <ele>46</ele>
        <time>2010-08-01T08:20:42Z</time>
      </trkpt>
      <trkpt lat="48.10515" lon="-1.3399">
        <ele>46</ele>
        <time>2010-08-01T08:20:44Z</time>
      </trkpt>
      <trkpt lat="48.10515" lon="-1.34001">
        <ele>45</ele>
        <time>2010-08-01T08:20:46Z</time>
      </trkpt>
      <trkpt lat="48.10515" lon="-1.3401">
        <ele>45</ele>
        <time>2010-08-01T08:20:48Z</time>
      </trkpt>
      <trkpt lat="48.10516" lon="-1.3402">
        <ele>46</ele>
        <time>2010-08-01T08:20:51Z</time>
      </trkpt>
      <trkpt lat="48.10516" lon="-1.34034">
        <ele>46</ele>
        <time>2010-08-01T08:20:55Z</time>
      </trkpt>
      <trkpt lat="48.10515" lon="-1.34055">
        <ele>46</ele>
        <time>2010-08-01T08:20:59Z</time>
      </trkpt>
      <trkpt lat="48.10514" lon="-1.34058">
        <ele>46</ele>
        <time>2010-08-01T08:21:00Z</time>
      </trkpt>
      <trkpt lat="48.10511" lon="-1.34072">
        <ele>46</ele>
        <time>2010-08-01T08:21:04Z</time>
      </trkpt>
      <trkpt lat="48.10513" lon="-1.3408">
        <ele>46</ele>
        <time>2010-08-01T08:21:07Z</time>
      </trkpt>
      <trkpt lat="48.10512" lon="-1.34108">
        <ele>47</ele>
        <time>2010-08-01T08:21:12Z</time>
      </trkpt>
      <trkpt lat="48.10509" lon="-1.3412">
        <ele>47</ele>
        <time>2010-08-01T08:21:15Z</time>
      </trkpt>
      <trkpt lat="48.10508" lon="-1.34129">
        <ele>47</ele>
        <time>2010-08-01T08:21:18Z</time>
      </trkpt>
      <trkpt lat="48.10506" lon="-1.34143">
        <ele>47</ele>
        <time>2010-08-01T08:21:22Z</time>
      </trkpt>
      <trkpt lat="48.10506" lon="-1.34152">
        <ele>47</ele>
        <time>2010-08-01T08:21:24Z</time>
      </trkpt>
      <trkpt lat="48.10506" lon="-1.34182">
        <ele>47</ele>
        <time>2010-08-01T08:21:29Z</time>
      </trkpt>
      <trkpt lat="48.10508" lon="-1.34187">
        <ele>47</ele>
        <time>2010-08-01T08:21:31Z</time>
      </trkpt>
      <trkpt lat="48.1051" lon="-1.34195">
        <ele>48</ele>
        <time>2010-08-01T08:21:33Z</time>
      </trkpt>
      <trkpt lat="48.10511" lon="-1.34204">
        <ele>48</ele>
        <time>2010-08-01T08:21:35Z</time>
      </trkpt>
      <trkpt lat="48.10512" lon="-1.34217">
        <ele>48</ele>
        <time>2010-08-01T08:21:37Z</time>
      </trkpt>
      <trkpt lat="48.10514" lon="-1.34242">
        <ele>48</ele>
        <time>2010-08-01T08:21:41Z</time>
      </trkpt>
      <trkpt lat="48.10513" lon="-1.3426">
        <ele>48</ele>
        <time>2010-08-01T08:21:44Z</time>
      </trkpt>
      <trkpt lat="48.10518" lon="-1.34296">
        <ele>48</ele>
        <time>2010-08-01T08:21:48Z</time>
      </trkpt>
      <trkpt lat="48.10518" lon="-1.34321">
        <ele>48</ele>
        <time>2010-08-01T08:21:51Z</time>
      </trkpt>
      <trkpt lat="48.10526" lon="-1.3435">
        <ele>47</ele>
        <time>2010-08-01T08:21:55Z</time>
      </trkpt>
      <trkpt lat="48.1053" lon="-1.34363">
        <ele>47</ele>
        <time>2010-08-01T08:21:57Z</time>
      </trkpt>
      <trkpt lat="48.10532" lon="-1.34373">
        <ele>46</ele>
        <time>2010-08-01T08:21:58Z</time>
      </trkpt>
      <trkpt lat="48.10535" lon="-1.34383">
        <ele>45</ele>
        <time>2010-08-01T08:21:59Z</time>
      </trkpt>
      <trkpt lat="48.10536" lon="-1.34392">
        <ele>45</ele>
        <time>2010-08-01T08:22:00Z</time>
      </trkpt>
      <trkpt lat="48.10537" lon="-1.34397">
        <ele>44</ele>
        <time>2010-08-01T08:22:01Z</time>
      </trkpt>
      <trkpt lat="48.10536" lon="-1.34401">
        <ele>44</ele>
        <time>2010-08-01T08:22:02Z</time>
      </trkpt>
      <trkpt lat="48.10536" lon="-1.34408">
        <ele>44</ele>
        <time>2010-08-01T08:22:04Z</time>
      </trkpt>
      <trkpt lat="48.10537" lon="-1.34414">
        <ele>43</ele>
        <time>2010-08-01T08:22:05Z</time>
      </trkpt>
      <trkpt lat="48.10539" lon="-1.34422">
        <ele>44</ele>
        <time>2010-08-01T08:22:06Z</time>
      </trkpt>
      <trkpt lat="48.1054" lon="-1.34438">
        <ele>44</ele>
        <time>2010-08-01T08:22:08Z</time>
      </trkpt>
      <trkpt lat="48.10539" lon="-1.34468">
        <ele>44</ele>
        <time>2010-08-01T08:22:13Z</time>
      </trkpt>
      <trkpt lat="48.1054" lon="-1.34479">
        <ele>44</ele>
        <time>2010-08-01T08:22:15Z</time>
      </trkpt>
      <trkpt lat="48.10539" lon="-1.3449">
        <ele>45</ele>
        <time>2010-08-01T08:22:17Z</time>
      </trkpt>
      <trkpt lat="48.10533" lon="-1.34498">
        <ele>46</ele>
        <time>2010-08-01T08:22:19Z</time>
      </trkpt>
      <trkpt lat="48.10525" lon="-1.34501">
        <ele>47</ele>
        <time>2010-08-01T08:22:21Z</time>
      </trkpt>
      <trkpt lat="48.10517" lon="-1.345">
        <ele>49</ele>
        <time>2010-08-01T08:22:23Z</time>
      </trkpt>
      <trkpt lat="48.10514" lon="-1.34502">
        <ele>49</ele>
        <time>2010-08-01T08:22:24Z</time>
      </trkpt>
      <trkpt lat="48.10512" lon="-1.34506">
        <ele>50</ele>
        <time>2010-08-01T08:22:25Z</time>
      </trkpt>
      <trkpt lat="48.10512" lon="-1.34519">
        <ele>52</ele>
        <time>2010-08-01T08:22:27Z</time>
      </trkpt>
      <trkpt lat="48.10515" lon="-1.34541">
        <ele>54</ele>
        <time>2010-08-01T08:22:31Z</time>
      </trkpt>
      <trkpt lat="48.10517" lon="-1.34551">
        <ele>54</ele>
        <time>2010-08-01T08:22:33Z</time>
      </trkpt>
      <trkpt lat="48.10519" lon="-1.34561">
        <ele>55</ele>
        <time>2010-08-01T08:22:35Z</time>
      </trkpt>
      <trkpt lat="48.10522" lon="-1.3457">
        <ele>55</ele>
        <time>2010-08-01T08:22:37Z</time>
      </trkpt>
      <trkpt lat="48.10523" lon="-1.34579">
        <ele>56</ele>
        <time>2010-08-01T08:22:39Z</time>
      </trkpt>
      <trkpt lat="48.10523" lon="-1.34584">
        <ele>56</ele>
        <time>2010-08-01T08:22:40Z</time>
      </trkpt>
      <trkpt lat="48.10525" lon="-1.34593">
        <ele>56</ele>
        <time>2010-08-01T08:22:42Z</time>
      </trkpt>
      <trkpt lat="48.10527" lon="-1.34601">
        <ele>56</ele>
        <time>2010-08-01T08:22:44Z</time>
      </trkpt>
      <trkpt lat="48.1053" lon="-1.34609">
        <ele>56</ele>
        <time>2010-08-01T08:22:46Z</time>
      </trkpt>
      <trkpt lat="48.10533" lon="-1.34617">
        <ele>56</ele>
        <time>2010-08-01T08:22:48Z</time>
      </trkpt>
      <trkpt lat="48.10534" lon="-1.34625">
        <ele>57</ele>
        <time>2010-08-01T08:22:50Z</time>
      </trkpt>
      <trkpt lat="48.10536" lon="-1.34633">
        <ele>57</ele>
        <time>2010-08-01T08:22:52Z</time>
      </trkpt>
      <trkpt lat="48.10538" lon="-1.34641">
        <ele>57</ele>
        <time>2010-08-01T08:22:54Z</time>
      </trkpt>
      <trkpt lat="48.10542" lon="-1.34651">
        <ele>57</ele>
        <time>2010-08-01T08:22:56Z</time>
      </trkpt>
      <trkpt lat="48.10544" lon="-1.3466">
        <ele>57</ele>
        <time>2010-08-01T08:22:58Z</time>
      </trkpt>
      <trkpt lat="48.10547" lon="-1.34673">
        <ele>57</ele>
        <time>2010-08-01T08:23:01Z</time>
      </trkpt>
      <trkpt lat="48.10549" lon="-1.34682">
        <ele>57</ele>
        <time>2010-08-01T08:23:03Z</time>
      </trkpt>
      <trkpt lat="48.10552" lon="-1.34692">
        <ele>57</ele>
        <time>2010-08-01T08:23:05Z</time>
      </trkpt>
      <trkpt lat="48.10555" lon="-1.34702">
        <ele>57</ele>
        <time>2010-08-01T08:23:07Z</time>
      </trkpt>
      <trkpt lat="48.10559" lon="-1.3471">
        <ele>56</ele>
        <time>2010-08-01T08:23:09Z</time>
      </trkpt>
      <trkpt lat="48.10561" lon="-1.34714">
        <ele>56</ele>
        <time>2010-08-01T08:23:10Z</time>
      </trkpt>
      <trkpt lat="48.10558" lon="-1.34721">
        <ele>57</ele>
        <time>2010-08-01T08:23:14Z</time>
      </trkpt>
      <trkpt lat="48.10555" lon="-1.34718">
        <ele>58</ele>
        <time>2010-08-01T08:23:15Z</time>
      </trkpt>
      <trkpt lat="48.10548" lon="-1.34701">
        <ele>58</ele>
        <time>2010-08-01T08:23:21Z</time>
      </trkpt>
      <trkpt lat="48.10545" lon="-1.34695">
        <ele>59</ele>
        <time>2010-08-01T08:23:23Z</time>
      </trkpt>
      <trkpt lat="48.10543" lon="-1.3469">
        <ele>59</ele>
        <time>2010-08-01T08:23:25Z</time>
      </trkpt>
      <trkpt lat="48.10541" lon="-1.34687">
        <ele>59</ele>
        <time>2010-08-01T08:23:26Z</time>
      </trkpt>
      <trkpt lat="48.10538" lon="-1.34681">
        <ele>60</ele>
        <time>2010-08-01T08:23:28Z</time>
      </trkpt>
      <trkpt lat="48.10536" lon="-1.34679">
        <ele>60</ele>
        <time>2010-08-01T08:23:29Z</time>
      </trkpt>
      <trkpt lat="48.10534" lon="-1.34677">
        <ele>60</ele>
        <time>2010-08-01T08:23:30Z</time>
      </trkpt>
      <trkpt lat="48.1053" lon="-1.34679">
        <ele>61</ele>
        <time>2010-08-01T08:23:32Z</time>
      </trkpt>
      <trkpt lat="48.10528" lon="-1.34682">
        <ele>62</ele>
        <time>2010-08-01T08:23:33Z</time>
      </trkpt>
      <trkpt lat="48.10522" lon="-1.34691">
        <ele>63</ele>
        <time>2010-08-01T08:23:38Z</time>
      </trkpt>
      <trkpt lat="48.10519" lon="-1.34693">
        <ele>64</ele>
        <time>2010-08-01T08:23:40Z</time>
      </trkpt>
      <trkpt lat="48.10518" lon="-1.34693">
        <ele>64</ele>
        <time>2010-08-01T08:23:41Z</time>
      </trkpt>
      <trkpt lat="48.10516" lon="-1.34693">
        <ele>64</ele>
        <time>2010-08-01T08:23:42Z</time>
      </trkpt>
      <trkpt lat="48.10513" lon="-1.34693">
        <ele>65</ele>
        <time>2010-08-01T08:23:43Z</time>
      </trkpt>
      <trkpt lat="48.10508" lon="-1.34694">
        <ele>66</ele>
        <time>2010-08-01T08:23:45Z</time>
      </trkpt>
      <trkpt lat="48.10504" lon="-1.34695">
        <ele>66</ele>
        <time>2010-08-01T08:23:47Z</time>
      </trkpt>
      <trkpt lat="48.10499" lon="-1.34696">
        <ele>67</ele>
        <time>2010-08-01T08:23:49Z</time>
      </trkpt>
      <trkpt lat="48.10495" lon="-1.34694">
        <ele>68</ele>
        <time>2010-08-01T08:23:51Z</time>
      </trkpt>
      <trkpt lat="48.10494" lon="-1.34693">
        <ele>68</ele>
        <time>2010-08-01T08:23:52Z</time>
      </trkpt>
      <trkpt lat="48.10492" lon="-1.34693">
        <ele>68</ele>
        <time>2010-08-01T08:23:53Z</time>
      </trkpt>
      <trkpt lat="48.10491" lon="-1.34694">
        <ele>69</ele>
        <time>2010-08-01T08:23:54Z</time>
      </trkpt>
      <trkpt lat="48.1049" lon="-1.34693">
        <ele>69</ele>
        <time>2010-08-01T08:23:55Z</time>
      </trkpt>
      <trkpt lat="48.10486" lon="-1.34694">
        <ele>70</ele>
        <time>2010-08-01T08:23:57Z</time>
      </trkpt>
      <trkpt lat="48.10482" lon="-1.34696">
        <ele>70</ele>
        <time>2010-08-01T08:23:59Z</time>
      </trkpt>
      <trkpt lat="48.1048" lon="-1.34697">
        <ele>71</ele>
        <time>2010-08-01T08:24:00Z</time>
      </trkpt>
      <trkpt lat="48.10478" lon="-1.34697">
        <ele>71</ele>
        <time>2010-08-01T08:24:01Z</time>
      </trkpt>
      <trkpt lat="48.10473" lon="-1.34696">
        <ele>71</ele>
        <time>2010-08-01T08:24:03Z</time>
      </trkpt>
      <trkpt lat="48.10469" lon="-1.34696">
        <ele>72</ele>
        <time>2010-08-01T08:24:05Z</time>
      </trkpt>
      <trkpt lat="48.10464" lon="-1.34698">
        <ele>72</ele>
        <time>2010-08-01T08:24:07Z</time>
      </trkpt>
      <trkpt lat="48.1046" lon="-1.34699">
        <ele>73</ele>
        <time>2010-08-01T08:24:09Z</time>
      </trkpt>
      <trkpt lat="48.10457" lon="-1.34698">
        <ele>73</ele>
        <time>2010-08-01T08:24:11Z</time>
      </trkpt>
      <trkpt lat="48.10453" lon="-1.34698">
        <ele>74</ele>
        <time>2010-08-01T08:24:13Z</time>
      </trkpt>
      <trkpt lat="48.10449" lon="-1.34698">
        <ele>74</ele>
        <time>2010-08-01T08:24:15Z</time>
      </trkpt>
      <trkpt lat="48.10444" lon="-1.34698">
        <ele>75</ele>
        <time>2010-08-01T08:24:17Z</time>
      </trkpt>
      <trkpt lat="48.10442" lon="-1.34698">
        <ele>75</ele>
        <time>2010-08-01T08:24:18Z</time>
      </trkpt>
      <trkpt lat="48.10441" lon="-1.34698">
        <ele>75</ele>
        <time>2010-08-01T08:24:19Z</time>
      </trkpt>
      <trkpt lat="48.10437" lon="-1.34697">
        <ele>75</ele>
        <time>2010-08-01T08:24:21Z</time>
      </trkpt>
      <trkpt lat="48.10433" lon="-1.34697">
        <ele>76</ele>
        <time>2010-08-01T08:24:23Z</time>
      </trkpt>
      <trkpt lat="48.10431" lon="-1.34696">
        <ele>76</ele>
        <time>2010-08-01T08:24:24Z</time>
      </trkpt>
      <trkpt lat="48.10429" lon="-1.34695">
        <ele>76</ele>
        <time>2010-08-01T08:24:25Z</time>
      </trkpt>
      <trkpt lat="48.10426" lon="-1.34695">
        <ele>76</ele>
        <time>2010-08-01T08:24:26Z</time>
      </trkpt>
      <trkpt lat="48.10424" lon="-1.34695">
        <ele>76</ele>
        <time>2010-08-01T08:24:27Z</time>
      </trkpt>
      <trkpt lat="48.10419" lon="-1.34697">
        <ele>77</ele>
        <time>2010-08-01T08:24:29Z</time>
      </trkpt>
      <trkpt lat="48.10414" lon="-1.34698">
        <ele>77</ele>
        <time>2010-08-01T08:24:31Z</time>
      </trkpt>
      <trkpt lat="48.10408" lon="-1.34696">
        <ele>77</ele>
        <time>2010-08-01T08:24:33Z</time>
      </trkpt>
      <trkpt lat="48.10398" lon="-1.34694">
        <ele>78</ele>
        <time>2010-08-01T08:24:37Z</time>
      </trkpt>
      <trkpt lat="48.10392" lon="-1.34693">
        <ele>78</ele>
        <time>2010-08-01T08:24:39Z</time>
      </trkpt>
      <trkpt lat="48.10386" lon="-1.34693">
        <ele>79</ele>
        <time>2010-08-01T08:24:41Z</time>
      </trkpt>
      <trkpt lat="48.10381" lon="-1.34694">
        <ele>79</ele>
        <time>2010-08-01T08:24:43Z</time>
      </trkpt>
      <trkpt lat="48.10374" lon="-1.34694">
        <ele>79</ele>
        <time>2010-08-01T08:24:45Z</time>
      </trkpt>
      <trkpt lat="48.10366" lon="-1.34695">
        <ele>80</ele>
        <time>2010-08-01T08:24:48Z</time>
      </trkpt>
      <trkpt lat="48.10361" lon="-1.34694">
        <ele>80</ele>
        <time>2010-08-01T08:24:50Z</time>
      </trkpt>
      <trkpt lat="48.10353" lon="-1.34693">
        <ele>81</ele>
        <time>2010-08-01T08:24:52Z</time>
      </trkpt>
      <trkpt lat="48.10346" lon="-1.34691">
        <ele>81</ele>
        <time>2010-08-01T08:24:54Z</time>
      </trkpt>
      <trkpt lat="48.1034" lon="-1.34692">
        <ele>81</ele>
        <time>2010-08-01T08:24:56Z</time>
      </trkpt>
      <trkpt lat="48.10333" lon="-1.34709">
        <ele>82</ele>
        <time>2010-08-01T08:25:00Z</time>
      </trkpt>
      <trkpt lat="48.10333" lon="-1.34732">
        <ele>82</ele>
        <time>2010-08-01T08:25:04Z</time>
      </trkpt>
      <trkpt lat="48.10331" lon="-1.34744">
        <ele>82</ele>
        <time>2010-08-01T08:25:06Z</time>
      </trkpt>
      <trkpt lat="48.10329" lon="-1.34756">
        <ele>82</ele>
        <time>2010-08-01T08:25:08Z</time>
      </trkpt>
      <trkpt lat="48.10328" lon="-1.34768">
        <ele>82</ele>
        <time>2010-08-01T08:25:10Z</time>
      </trkpt>
      <trkpt lat="48.10327" lon="-1.3478">
        <ele>82</ele>
        <time>2010-08-01T08:25:12Z</time>
      </trkpt>
      <trkpt lat="48.10323" lon="-1.34822">
        <ele>82</ele>
        <time>2010-08-01T08:25:18Z</time>
      </trkpt>
      <trkpt lat="48.10318" lon="-1.34888">
        <ele>80</ele>
        <time>2010-08-01T08:25:26Z</time>
      </trkpt>
      <trkpt lat="48.10316" lon="-1.34917">
        <ele>80</ele>
        <time>2010-08-01T08:25:29Z</time>
      </trkpt>
      <trkpt lat="48.10314" lon="-1.34935">
        <ele>79</ele>
        <time>2010-08-01T08:25:31Z</time>
      </trkpt>
      <trkpt lat="48.10313" lon="-1.34954">
        <ele>79</ele>
        <time>2010-08-01T08:25:33Z</time>
      </trkpt>
      <trkpt lat="48.10312" lon="-1.34974">
        <ele>78</ele>
        <time>2010-08-01T08:25:35Z</time>
      </trkpt>
      <trkpt lat="48.1031" lon="-1.34993">
        <ele>78</ele>
        <time>2010-08-01T08:25:37Z</time>
      </trkpt>
      <trkpt lat="48.10308" lon="-1.35017">
        <ele>78</ele>
        <time>2010-08-01T08:25:40Z</time>
      </trkpt>
      <trkpt lat="48.10306" lon="-1.35022">
        <ele>78</ele>
        <time>2010-08-01T08:25:41Z</time>
      </trkpt>
      <trkpt lat="48.10296" lon="-1.35031">
        <ele>79</ele>
        <time>2010-08-01T08:25:44Z</time>
      </trkpt>
      <trkpt lat="48.10284" lon="-1.35033">
        <ele>79</ele>
        <time>2010-08-01T08:25:46Z</time>
      </trkpt>
      <trkpt lat="48.10273" lon="-1.35036">
        <ele>80</ele>
        <time>2010-08-01T08:25:48Z</time>
      </trkpt>
      <trkpt lat="48.10267" lon="-1.35037">
        <ele>80</ele>
        <time>2010-08-01T08:25:49Z</time>
      </trkpt>
      <trkpt lat="48.10245" lon="-1.35044">
        <ele>81</ele>
        <time>2010-08-01T08:25:53Z</time>
      </trkpt>
      <trkpt lat="48.10233" lon="-1.35046">
        <ele>82</ele>
        <time>2010-08-01T08:25:55Z</time>
      </trkpt>
      <trkpt lat="48.10223" lon="-1.35049">
        <ele>82</ele>
        <time>2010-08-01T08:25:57Z</time>
      </trkpt>
      <trkpt lat="48.10218" lon="-1.35051">
        <ele>82</ele>
        <time>2010-08-01T08:25:58Z</time>
      </trkpt>
      <trkpt lat="48.10208" lon="-1.35053">
        <ele>83</ele>
        <time>2010-08-01T08:26:00Z</time>
      </trkpt>
      <trkpt lat="48.10198" lon="-1.35056">
        <ele>83</ele>
        <time>2010-08-01T08:26:02Z</time>
      </trkpt>
      <trkpt lat="48.10188" lon="-1.35059">
        <ele>84</ele>
        <time>2010-08-01T08:26:04Z</time>
      </trkpt>
      <trkpt lat="48.10178" lon="-1.35063">
        <ele>84</ele>
        <time>2010-08-01T08:26:06Z</time>
      </trkpt>
      <trkpt lat="48.10149" lon="-1.35072">
        <ele>85</ele>
        <time>2010-08-01T08:26:12Z</time>
      </trkpt>
      <trkpt lat="48.1014" lon="-1.35074">
        <ele>86</ele>
        <time>2010-08-01T08:26:14Z</time>
      </trkpt>
      <trkpt lat="48.10131" lon="-1.35076">
        <ele>86</ele>
        <time>2010-08-01T08:26:16Z</time>
      </trkpt>
      <trkpt lat="48.10122" lon="-1.35079">
        <ele>87</ele>
        <time>2010-08-01T08:26:18Z</time>
      </trkpt>
      <trkpt lat="48.10111" lon="-1.35082">
        <ele>87</ele>
        <time>2010-08-01T08:26:20Z</time>
      </trkpt>
      <trkpt lat="48.10097" lon="-1.35086">
        <ele>87</ele>
        <time>2010-08-01T08:26:23Z</time>
      </trkpt>
      <trkpt lat="48.10087" lon="-1.35089">
        <ele>87</ele>
        <time>2010-08-01T08:26:25Z</time>
      </trkpt>
      <trkpt lat="48.10076" lon="-1.35092">
        <ele>88</ele>
        <time>2010-08-01T08:26:27Z</time>
      </trkpt>
      <trkpt lat="48.10067" lon="-1.35094">
        <ele>88</ele>
        <time>2010-08-01T08:26:29Z</time>
      </trkpt>
      <trkpt lat="48.10057" lon="-1.35097">
        <ele>88</ele>
        <time>2010-08-01T08:26:31Z</time>
      </trkpt>
      <trkpt lat="48.10009" lon="-1.35111">
        <ele>89</ele>
        <time>2010-08-01T08:26:41Z</time>
      </trkpt>
      <trkpt lat="48.09989" lon="-1.35116">
        <ele>89</ele>
        <time>2010-08-01T08:26:45Z</time>
      </trkpt>
      <trkpt lat="48.09979" lon="-1.35119">
        <ele>89</ele>
        <time>2010-08-01T08:26:47Z</time>
      </trkpt>
      <trkpt lat="48.09968" lon="-1.35122">
        <ele>89</ele>
        <time>2010-08-01T08:26:49Z</time>
      </trkpt>
      <trkpt lat="48.09957" lon="-1.35124">
        <ele>89</ele>
        <time>2010-08-01T08:26:51Z</time>
      </trkpt>
      <trkpt lat="48.09945" lon="-1.35126">
        <ele>89</ele>
        <time>2010-08-01T08:26:53Z</time>
      </trkpt>
      <trkpt lat="48.0989" lon="-1.3513">
        <ele>88</ele>
        <time>2010-08-01T08:27:02Z</time>
      </trkpt>
      <trkpt lat="48.0983" lon="-1.35134">
        <ele>88</ele>
        <time>2010-08-01T08:27:11Z</time>
      </trkpt>
      <trkpt lat="48.09784" lon="-1.35138">
        <ele>87</ele>
        <time>2010-08-01T08:27:18Z</time>
      </trkpt>
      <trkpt lat="48.09771" lon="-1.35139">
        <ele>87</ele>
        <time>2010-08-01T08:27:20Z</time>
      </trkpt>
      <trkpt lat="48.09758" lon="-1.35139">
        <ele>86</ele>
        <time>2010-08-01T08:27:22Z</time>
      </trkpt>
      <trkpt lat="48.09745" lon="-1.3514">
        <ele>86</ele>
        <time>2010-08-01T08:27:24Z</time>
      </trkpt>
      <trkpt lat="48.09732" lon="-1.35141">
        <ele>86</ele>
        <time>2010-08-01T08:27:26Z</time>
      </trkpt>
      <trkpt lat="48.09677" lon="-1.35146">
        <ele>87</ele>
        <time>2010-08-01T08:27:35Z</time>
      </trkpt>
      <trkpt lat="48.09628" lon="-1.35164">
        <ele>87</ele>
        <time>2010-08-01T08:27:43Z</time>
      </trkpt>
      <trkpt lat="48.09579" lon="-1.35198">
        <ele>87</ele>
        <time>2010-08-01T08:27:52Z</time>
      </trkpt>
      <trkpt lat="48.09532" lon="-1.35229">
        <ele>88</ele>
        <time>2010-08-01T08:28:01Z</time>
      </trkpt>
      <trkpt lat="48.09493" lon="-1.35268">
        <ele>89</ele>
        <time>2010-08-01T08:28:10Z</time>
      </trkpt>
      <trkpt lat="48.09481" lon="-1.35292">
        <ele>89</ele>
        <time>2010-08-01T08:28:14Z</time>
      </trkpt>
      <trkpt lat="48.09474" lon="-1.35312">
        <ele>89</ele>
        <time>2010-08-01T08:28:17Z</time>
      </trkpt>
      <trkpt lat="48.09469" lon="-1.35325">
        <ele>90</ele>
        <time>2010-08-01T08:28:19Z</time>
      </trkpt>
      <trkpt lat="48.09463" lon="-1.35336">
        <ele>90</ele>
        <time>2010-08-01T08:28:21Z</time>
      </trkpt>
      <trkpt lat="48.09457" lon="-1.35349">
        <ele>90</ele>
        <time>2010-08-01T08:28:23Z</time>
      </trkpt>
      <trkpt lat="48.09428" lon="-1.35386">
        <ele>90</ele>
        <time>2010-08-01T08:28:30Z</time>
      </trkpt>
      <trkpt lat="48.09401" lon="-1.35421">
        <ele>90</ele>
        <time>2010-08-01T08:28:36Z</time>
      </trkpt>
      <trkpt lat="48.09388" lon="-1.35437">
        <ele>90</ele>
        <time>2010-08-01T08:28:39Z</time>
      </trkpt>
      <trkpt lat="48.0939" lon="-1.35452">
        <ele>90</ele>
        <time>2010-08-01T08:28:42Z</time>
      </trkpt>
      <trkpt lat="48.09396" lon="-1.35458">
        <ele>90</ele>
        <time>2010-08-01T08:28:44Z</time>
      </trkpt>
      <trkpt lat="48.09409" lon="-1.35459">
        <ele>90</ele>
        <time>2010-08-01T08:28:46Z</time>
      </trkpt>
      <trkpt lat="48.09414" lon="-1.3546">
        <ele>90</ele>
        <time>2010-08-01T08:28:47Z</time>
      </trkpt>
      <trkpt lat="48.09428" lon="-1.35473">
        <ele>90</ele>
        <time>2010-08-01T08:28:51Z</time>
      </trkpt>
      <trkpt lat="48.09429" lon="-1.3549">
        <ele>90</ele>
        <time>2010-08-01T08:28:53Z</time>
      </trkpt>
      <trkpt lat="48.09426" lon="-1.35528">
        <ele>89</ele>
        <time>2010-08-01T08:28:57Z</time>
      </trkpt>
      <trkpt lat="48.09423" lon="-1.35585">
        <ele>88</ele>
        <time>2010-08-01T08:29:03Z</time>
      </trkpt>
      <trkpt lat="48.09428" lon="-1.35608">
        <ele>88</ele>
        <time>2010-08-01T08:29:06Z</time>
      </trkpt>
      <trkpt lat="48.09439" lon="-1.35615">
        <ele>88</ele>
        <time>2010-08-01T08:29:08Z</time>
      </trkpt>
      <trkpt lat="48.09459" lon="-1.35625">
        <ele>89</ele>
        <time>2010-08-01T08:29:11Z</time>
      </trkpt>
      <trkpt lat="48.0947" lon="-1.35633">
        <ele>89</ele>
        <time>2010-08-01T08:29:13Z</time>
      </trkpt>
      <trkpt lat="48.09481" lon="-1.35641">
        <ele>90</ele>
        <time>2010-08-01T08:29:15Z</time>
      </trkpt>
      <trkpt lat="48.09486" lon="-1.35644">
        <ele>90</ele>
        <time>2010-08-01T08:29:16Z</time>
      </trkpt>
      <trkpt lat="48.09491" lon="-1.35647">
        <ele>90</ele>
        <time>2010-08-01T08:29:17Z</time>
      </trkpt>
      <trkpt lat="48.09503" lon="-1.3565">
        <ele>90</ele>
        <time>2010-08-01T08:29:19Z</time>
      </trkpt>
      <trkpt lat="48.09541" lon="-1.35661">
        <ele>91</ele>
        <time>2010-08-01T08:29:26Z</time>
      </trkpt>
      <trkpt lat="48.09546" lon="-1.35663">
        <ele>91</ele>
        <time>2010-08-01T08:29:27Z</time>
      </trkpt>
      <trkpt lat="48.09551" lon="-1.35665">
        <ele>91</ele>
        <time>2010-08-01T08:29:28Z</time>
      </trkpt>
      <trkpt lat="48.09556" lon="-1.35669">
        <ele>92</ele>
        <time>2010-08-01T08:29:29Z</time>
      </trkpt>
      <trkpt lat="48.09563" lon="-1.35681">
        <ele>92</ele>
        <time>2010-08-01T08:29:31Z</time>
      </trkpt>
      <trkpt lat="48.09565" lon="-1.35696">
        <ele>92</ele>
        <time>2010-08-01T08:29:33Z</time>
      </trkpt>
      <trkpt lat="48.09566" lon="-1.35704">
        <ele>92</ele>
        <time>2010-08-01T08:29:34Z</time>
      </trkpt>
      <trkpt lat="48.09566" lon="-1.35712">
        <ele>92</ele>
        <time>2010-08-01T08:29:35Z</time>
      </trkpt>
      <trkpt lat="48.09575" lon="-1.35742">
        <ele>92</ele>
        <time>2010-08-01T08:29:39Z</time>
      </trkpt>
      <trkpt lat="48.09578" lon="-1.35749">
        <ele>92</ele>
        <time>2010-08-01T08:29:40Z</time>
      </trkpt>
      <trkpt lat="48.09595" lon="-1.3579">
        <ele>93</ele>
        <time>2010-08-01T08:29:46Z</time>
      </trkpt>
      <trkpt lat="48.09603" lon="-1.3581">
        <ele>93</ele>
        <time>2010-08-01T08:29:49Z</time>
      </trkpt>
      <trkpt lat="48.09615" lon="-1.35831">
        <ele>93</ele>
        <time>2010-08-01T08:29:53Z</time>
      </trkpt>
      <trkpt lat="48.09621" lon="-1.35841">
        <ele>93</ele>
        <time>2010-08-01T08:29:55Z</time>
      </trkpt>
      <trkpt lat="48.09623" lon="-1.35847">
        <ele>93</ele>
        <time>2010-08-01T08:29:56Z</time>
      </trkpt>
      <trkpt lat="48.09629" lon="-1.35858">
        <ele>93</ele>
        <time>2010-08-01T08:29:58Z</time>
      </trkpt>
      <trkpt lat="48.09635" lon="-1.35879">
        <ele>93</ele>
        <time>2010-08-01T08:30:01Z</time>
      </trkpt>
      <trkpt lat="48.09636" lon="-1.35886">
        <ele>93</ele>
        <time>2010-08-01T08:30:02Z</time>
      </trkpt>
      <trkpt lat="48.09644" lon="-1.35922">
        <ele>93</ele>
        <time>2010-08-01T08:30:07Z</time>
      </trkpt>
      <trkpt lat="48.09656" lon="-1.35947">
        <ele>93</ele>
        <time>2010-08-01T08:30:12Z</time>
      </trkpt>
      <trkpt lat="48.09661" lon="-1.35968">
        <ele>93</ele>
        <time>2010-08-01T08:30:16Z</time>
      </trkpt>
      <trkpt lat="48.09664" lon="-1.35974">
        <ele>93</ele>
        <time>2010-08-01T08:30:17Z</time>
      </trkpt>
      <trkpt lat="48.09667" lon="-1.35979">
        <ele>93</ele>
        <time>2010-08-01T08:30:18Z</time>
      </trkpt>
      <trkpt lat="48.09687" lon="-1.35997">
        <ele>94</ele>
        <time>2010-08-01T08:30:23Z</time>
      </trkpt>
      <trkpt lat="48.09692" lon="-1.36">
        <ele>94</ele>
        <time>2010-08-01T08:30:24Z</time>
      </trkpt>
      <trkpt lat="48.09715" lon="-1.36017">
        <ele>94</ele>
        <time>2010-08-01T08:30:29Z</time>
      </trkpt>
      <trkpt lat="48.09719" lon="-1.36021">
        <ele>94</ele>
        <time>2010-08-01T08:30:30Z</time>
      </trkpt>
      <trkpt lat="48.09732" lon="-1.36036">
        <ele>94</ele>
        <time>2010-08-01T08:30:33Z</time>
      </trkpt>
      <trkpt lat="48.0974" lon="-1.36047">
        <ele>94</ele>
        <time>2010-08-01T08:30:35Z</time>
      </trkpt>
      <trkpt lat="48.09749" lon="-1.36058">
        <ele>94</ele>
        <time>2010-08-01T08:30:37Z</time>
      </trkpt>
      <trkpt lat="48.09754" lon="-1.36064">
        <ele>94</ele>
        <time>2010-08-01T08:30:38Z</time>
      </trkpt>
      <trkpt lat="48.09759" lon="-1.36069">
        <ele>94</ele>
        <time>2010-08-01T08:30:39Z</time>
      </trkpt>
      <trkpt lat="48.09771" lon="-1.36077">
        <ele>94</ele>
        <time>2010-08-01T08:30:41Z</time>
      </trkpt>
      <trkpt lat="48.09777" lon="-1.36081">
        <ele>94</ele>
        <time>2010-08-01T08:30:42Z</time>
      </trkpt>
      <trkpt lat="48.09787" lon="-1.36097">
        <ele>94</ele>
        <time>2010-08-01T08:30:45Z</time>
      </trkpt>
      <trkpt lat="48.0979" lon="-1.36106">
        <ele>94</ele>
        <time>2010-08-01T08:30:46Z</time>
      </trkpt>
      <trkpt lat="48.09793" lon="-1.36117">
        <ele>93</ele>
        <time>2010-08-01T08:30:47Z</time>
      </trkpt>
      <trkpt lat="48.09811" lon="-1.36159">
        <ele>93</ele>
        <time>2010-08-01T08:30:52Z</time>
      </trkpt>
      <trkpt lat="48.09832" lon="-1.36208">
        <ele>91</ele>
        <time>2010-08-01T08:30:58Z</time>
      </trkpt>
      <trkpt lat="48.09839" lon="-1.3622">
        <ele>91</ele>
        <time>2010-08-01T08:30:59Z</time>
      </trkpt>
      <trkpt lat="48.09848" lon="-1.36236">
        <ele>90</ele>
        <time>2010-08-01T08:31:01Z</time>
      </trkpt>
      <trkpt lat="48.09857" lon="-1.36252">
        <ele>90</ele>
        <time>2010-08-01T08:31:03Z</time>
      </trkpt>
      <trkpt lat="48.09866" lon="-1.36268">
        <ele>90</ele>
        <time>2010-08-01T08:31:05Z</time>
      </trkpt>
      <trkpt lat="48.09876" lon="-1.36285">
        <ele>90</ele>
        <time>2010-08-01T08:31:07Z</time>
      </trkpt>
      <trkpt lat="48.09887" lon="-1.36304">
        <ele>89</ele>
        <time>2010-08-01T08:31:09Z</time>
      </trkpt>
      <trkpt lat="48.099" lon="-1.36321">
        <ele>89</ele>
        <time>2010-08-01T08:31:11Z</time>
      </trkpt>
      <trkpt lat="48.09911" lon="-1.36338">
        <ele>88</ele>
        <time>2010-08-01T08:31:13Z</time>
      </trkpt>
      <trkpt lat="48.09917" lon="-1.36346">
        <ele>88</ele>
        <time>2010-08-01T08:31:14Z</time>
      </trkpt>
      <trkpt lat="48.09929" lon="-1.36362">
        <ele>87</ele>
        <time>2010-08-01T08:31:16Z</time>
      </trkpt>
      <trkpt lat="48.09942" lon="-1.3638">
        <ele>86</ele>
        <time>2010-08-01T08:31:18Z</time>
      </trkpt>
      <trkpt lat="48.09948" lon="-1.3639">
        <ele>86</ele>
        <time>2010-08-01T08:31:19Z</time>
      </trkpt>
      <trkpt lat="48.09954" lon="-1.36401">
        <ele>85</ele>
        <time>2010-08-01T08:31:20Z</time>
      </trkpt>
      <trkpt lat="48.09959" lon="-1.36413">
        <ele>85</ele>
        <time>2010-08-01T08:31:21Z</time>
      </trkpt>
      <trkpt lat="48.09966" lon="-1.36438">
        <ele>83</ele>
        <time>2010-08-01T08:31:23Z</time>
      </trkpt>
      <trkpt lat="48.09968" lon="-1.36452">
        <ele>82</ele>
        <time>2010-08-01T08:31:24Z</time>
      </trkpt>
      <trkpt lat="48.0997" lon="-1.36466">
        <ele>82</ele>
        <time>2010-08-01T08:31:25Z</time>
      </trkpt>
      <trkpt lat="48.09975" lon="-1.36494">
        <ele>80</ele>
        <time>2010-08-01T08:31:27Z</time>
      </trkpt>
      <trkpt lat="48.09981" lon="-1.36521">
        <ele>80</ele>
        <time>2010-08-01T08:31:29Z</time>
      </trkpt>
      <trkpt lat="48.09988" lon="-1.36548">
        <ele>79</ele>
        <time>2010-08-01T08:31:31Z</time>
      </trkpt>
      <trkpt lat="48.09994" lon="-1.36575">
        <ele>78</ele>
        <time>2010-08-01T08:31:33Z</time>
      </trkpt>
      <trkpt lat="48.09998" lon="-1.36598">
        <ele>77</ele>
        <time>2010-08-01T08:31:35Z</time>
      </trkpt>
      <trkpt lat="48.1" lon="-1.36608">
        <ele>77</ele>
        <time>2010-08-01T08:31:36Z</time>
      </trkpt>
      <trkpt lat="48.10003" lon="-1.36622">
        <ele>76</ele>
        <time>2010-08-01T08:31:38Z</time>
      </trkpt>
      <trkpt lat="48.10005" lon="-1.36629">
        <ele>76</ele>
        <time>2010-08-01T08:31:40Z</time>
      </trkpt>
      <trkpt lat="48.10008" lon="-1.36633">
        <ele>75</ele>
        <time>2010-08-01T08:31:42Z</time>
      </trkpt>
      <trkpt lat="48.10009" lon="-1.36635">
        <ele>75</ele>
        <time>2010-08-01T08:31:43Z</time>
      </trkpt>
      <trkpt lat="48.10012" lon="-1.36651">
        <ele>75</ele>
        <time>2010-08-01T08:31:46Z</time>
      </trkpt>
      <trkpt lat="48.10014" lon="-1.36659">
        <ele>74</ele>
        <time>2010-08-01T08:31:47Z</time>
      </trkpt>
      <trkpt lat="48.10017" lon="-1.36668">
        <ele>74</ele>
        <time>2010-08-01T08:31:48Z</time>
      </trkpt>
      <trkpt lat="48.1002" lon="-1.36678">
        <ele>74</ele>
        <time>2010-08-01T08:31:49Z</time>
      </trkpt>
      <trkpt lat="48.10027" lon="-1.36701">
        <ele>73</ele>
        <time>2010-08-01T08:31:51Z</time>
      </trkpt>
      <trkpt lat="48.10038" lon="-1.36734">
        <ele>72</ele>
        <time>2010-08-01T08:31:54Z</time>
      </trkpt>
      <trkpt lat="48.10045" lon="-1.36755">
        <ele>71</ele>
        <time>2010-08-01T08:31:56Z</time>
      </trkpt>
      <trkpt lat="48.10052" lon="-1.36773">
        <ele>71</ele>
        <time>2010-08-01T08:31:58Z</time>
      </trkpt>
      <trkpt lat="48.10055" lon="-1.36779">
        <ele>71</ele>
        <time>2010-08-01T08:31:59Z</time>
      </trkpt>
      <trkpt lat="48.10058" lon="-1.36786">
        <ele>71</ele>
        <time>2010-08-01T08:32:00Z</time>
      </trkpt>
      <trkpt lat="48.10066" lon="-1.36801">
        <ele>70</ele>
        <time>2010-08-01T08:32:02Z</time>
      </trkpt>
      <trkpt lat="48.1007" lon="-1.3681">
        <ele>70</ele>
        <time>2010-08-01T08:32:03Z</time>
      </trkpt>
      <trkpt lat="48.10074" lon="-1.36819">
        <ele>69</ele>
        <time>2010-08-01T08:32:04Z</time>
      </trkpt>
      <trkpt lat="48.1008" lon="-1.36837">
        <ele>68</ele>
        <time>2010-08-01T08:32:06Z</time>
      </trkpt>
      <trkpt lat="48.10082" lon="-1.36844">
        <ele>68</ele>
        <time>2010-08-01T08:32:07Z</time>
      </trkpt>
      <trkpt lat="48.10084" lon="-1.3685">
        <ele>68</ele>
        <time>2010-08-01T08:32:08Z</time>
      </trkpt>
      <trkpt lat="48.10086" lon="-1.36856">
        <ele>68</ele>
        <time>2010-08-01T08:32:09Z</time>
      </trkpt>
      <trkpt lat="48.10092" lon="-1.36867">
        <ele>67</ele>
        <time>2010-08-01T08:32:11Z</time>
      </trkpt>
      <trkpt lat="48.10099" lon="-1.3688">
        <ele>67</ele>
        <time>2010-08-01T08:32:13Z</time>
      </trkpt>
      <trkpt lat="48.10102" lon="-1.36886">
        <ele>66</ele>
        <time>2010-08-01T08:32:14Z</time>
      </trkpt>
      <trkpt lat="48.1011" lon="-1.36908">
        <ele>65</ele>
        <time>2010-08-01T08:32:17Z</time>
      </trkpt>
      <trkpt lat="48.10115" lon="-1.36925">
        <ele>64</ele>
        <time>2010-08-01T08:32:19Z</time>
      </trkpt>
      <trkpt lat="48.10118" lon="-1.36933">
        <ele>64</ele>
        <time>2010-08-01T08:32:20Z</time>
      </trkpt>
      <trkpt lat="48.10124" lon="-1.36947">
        <ele>63</ele>
        <time>2010-08-01T08:32:22Z</time>
      </trkpt>
      <trkpt lat="48.1013" lon="-1.36956">
        <ele>62</ele>
        <time>2010-08-01T08:32:24Z</time>
      </trkpt>
      <trkpt lat="48.10134" lon="-1.36964">
        <ele>62</ele>
        <time>2010-08-01T08:32:26Z</time>
      </trkpt>
      <trkpt lat="48.10137" lon="-1.36967">
        <ele>61</ele>
        <time>2010-08-01T08:32:27Z</time>
      </trkpt>
      <trkpt lat="48.10145" lon="-1.36972">
        <ele>61</ele>
        <time>2010-08-01T08:32:29Z</time>
      </trkpt>
      <trkpt lat="48.10151" lon="-1.36977">
        <ele>60</ele>
        <time>2010-08-01T08:32:31Z</time>
      </trkpt>
      <trkpt lat="48.10154" lon="-1.3698">
        <ele>60</ele>
        <time>2010-08-01T08:32:32Z</time>
      </trkpt>
      <trkpt lat="48.10157" lon="-1.36985">
        <ele>60</ele>
        <time>2010-08-01T08:32:33Z</time>
      </trkpt>
      <trkpt lat="48.10161" lon="-1.36989">
        <ele>59</ele>
        <time>2010-08-01T08:32:34Z</time>
      </trkpt>
      <trkpt lat="48.10164" lon="-1.36995">
        <ele>59</ele>
        <time>2010-08-01T08:32:35Z</time>
      </trkpt>
      <trkpt lat="48.10168" lon="-1.37002">
        <ele>59</ele>
        <time>2010-08-01T08:32:36Z</time>
      </trkpt>
      <trkpt lat="48.10181" lon="-1.37031">
        <ele>57</ele>
        <time>2010-08-01T08:32:39Z</time>
      </trkpt>
      <trkpt lat="48.10185" lon="-1.37043">
        <ele>56</ele>
        <time>2010-08-01T08:32:40Z</time>
      </trkpt>
      <trkpt lat="48.10191" lon="-1.37068">
        <ele>55</ele>
        <time>2010-08-01T08:32:42Z</time>
      </trkpt>
      <trkpt lat="48.10193" lon="-1.37104">
        <ele>52</ele>
        <time>2010-08-01T08:32:45Z</time>
      </trkpt>
      <trkpt lat="48.10195" lon="-1.37118">
        <ele>51</ele>
        <time>2010-08-01T08:32:46Z</time>
      </trkpt>
      <trkpt lat="48.10196" lon="-1.37133">
        <ele>50</ele>
        <time>2010-08-01T08:32:47Z</time>
      </trkpt>
      <trkpt lat="48.10198" lon="-1.37147">
        <ele>49</ele>
        <time>2010-08-01T08:32:48Z</time>
      </trkpt>
      <trkpt lat="48.10202" lon="-1.37168">
        <ele>49</ele>
        <time>2010-08-01T08:32:50Z</time>
      </trkpt>
      <trkpt lat="48.10204" lon="-1.37177">
        <ele>49</ele>
        <time>2010-08-01T08:32:51Z</time>
      </trkpt>
      <trkpt lat="48.10206" lon="-1.37184">
        <ele>49</ele>
        <time>2010-08-01T08:32:52Z</time>
      </trkpt>
      <trkpt lat="48.10212" lon="-1.372">
        <ele>49</ele>
        <time>2010-08-01T08:32:54Z</time>
      </trkpt>
      <trkpt lat="48.10218" lon="-1.37217">
        <ele>49</ele>
        <time>2010-08-01T08:32:56Z</time>
      </trkpt>
      <trkpt lat="48.10221" lon="-1.37237">
        <ele>49</ele>
        <time>2010-08-01T08:32:58Z</time>
      </trkpt>
      <trkpt lat="48.10221" lon="-1.37246">
        <ele>49</ele>
        <time>2010-08-01T08:32:59Z</time>
      </trkpt>
      <trkpt lat="48.1022" lon="-1.37255">
        <ele>50</ele>
        <time>2010-08-01T08:33:00Z</time>
      </trkpt>
      <trkpt lat="48.10216" lon="-1.37272">
        <ele>50</ele>
        <time>2010-08-01T08:33:02Z</time>
      </trkpt>
      <trkpt lat="48.10215" lon="-1.3728">
        <ele>50</ele>
        <time>2010-08-01T08:33:03Z</time>
      </trkpt>
      <trkpt lat="48.10213" lon="-1.37289">
        <ele>50</ele>
        <time>2010-08-01T08:33:04Z</time>
      </trkpt>
      <trkpt lat="48.10211" lon="-1.37297">
        <ele>50</ele>
        <time>2010-08-01T08:33:05Z</time>
      </trkpt>
      <trkpt lat="48.10205" lon="-1.37313">
        <ele>50</ele>
        <time>2010-08-01T08:33:07Z</time>
      </trkpt>
      <trkpt lat="48.102" lon="-1.37328">
        <ele>50</ele>
        <time>2010-08-01T08:33:09Z</time>
      </trkpt>
      <trkpt lat="48.10194" lon="-1.37344">
        <ele>51</ele>
        <time>2010-08-01T08:33:11Z</time>
      </trkpt>
      <trkpt lat="48.10192" lon="-1.3735">
        <ele>51</ele>
        <time>2010-08-01T08:33:12Z</time>
      </trkpt>
      <trkpt lat="48.10184" lon="-1.37372">
        <ele>50</ele>
        <time>2010-08-01T08:33:16Z</time>
      </trkpt>
      <trkpt lat="48.10181" lon="-1.37384">
        <ele>50</ele>
        <time>2010-08-01T08:33:18Z</time>
      </trkpt>
      <trkpt lat="48.10161" lon="-1.37424">
        <ele>49</ele>
        <time>2010-08-01T08:33:25Z</time>
      </trkpt>
      <trkpt lat="48.10158" lon="-1.3743">
        <ele>50</ele>
        <time>2010-08-01T08:33:26Z</time>
      </trkpt>
      <trkpt lat="48.10149" lon="-1.37456">
        <ele>49</ele>
        <time>2010-08-01T08:33:30Z</time>
      </trkpt>
      <trkpt lat="48.10147" lon="-1.37459">
        <ele>50</ele>
        <time>2010-08-01T08:33:31Z</time>
      </trkpt>
      <trkpt lat="48.10135" lon="-1.3746">
        <ele>51</ele>
        <time>2010-08-01T08:33:35Z</time>
      </trkpt>
      <trkpt lat="48.10131" lon="-1.37459">
        <ele>52</ele>
        <time>2010-08-01T08:33:36Z</time>
      </trkpt>
      <trkpt lat="48.10113" lon="-1.37455">
        <ele>54</ele>
        <time>2010-08-01T08:33:41Z</time>
      </trkpt>
      <trkpt lat="48.10106" lon="-1.37453">
        <ele>54</ele>
        <time>2010-08-01T08:33:43Z</time>
      </trkpt>
      <trkpt lat="48.101" lon="-1.37452">
        <ele>55</ele>
        <time>2010-08-01T08:33:45Z</time>
      </trkpt>
      <trkpt lat="48.10093" lon="-1.3745">
        <ele>55</ele>
        <time>2010-08-01T08:33:47Z</time>
      </trkpt>
      <trkpt lat="48.10087" lon="-1.3745">
        <ele>56</ele>
        <time>2010-08-01T08:33:49Z</time>
      </trkpt>
      <trkpt lat="48.10081" lon="-1.37448">
        <ele>56</ele>
        <time>2010-08-01T08:33:51Z</time>
      </trkpt>
      <trkpt lat="48.10075" lon="-1.37447">
        <ele>57</ele>
        <time>2010-08-01T08:33:53Z</time>
      </trkpt>
      <trkpt lat="48.10068" lon="-1.37445">
        <ele>57</ele>
        <time>2010-08-01T08:33:55Z</time>
      </trkpt>
      <trkpt lat="48.10061" lon="-1.37444">
        <ele>58</ele>
        <time>2010-08-01T08:33:57Z</time>
      </trkpt>
      <trkpt lat="48.10055" lon="-1.37443">
        <ele>59</ele>
        <time>2010-08-01T08:33:59Z</time>
      </trkpt>
      <trkpt lat="48.10048" lon="-1.37441">
        <ele>59</ele>
        <time>2010-08-01T08:34:01Z</time>
      </trkpt>
      <trkpt lat="48.10041" lon="-1.3744">
        <ele>60</ele>
        <time>2010-08-01T08:34:03Z</time>
      </trkpt>
      <trkpt lat="48.10034" lon="-1.37438">
        <ele>60</ele>
        <time>2010-08-01T08:34:05Z</time>
      </trkpt>
      <trkpt lat="48.10027" lon="-1.37437">
        <ele>61</ele>
        <time>2010-08-01T08:34:07Z</time>
      </trkpt>
      <trkpt lat="48.10024" lon="-1.37436">
        <ele>61</ele>
        <time>2010-08-01T08:34:08Z</time>
      </trkpt>
      <trkpt lat="48.10018" lon="-1.37434">
        <ele>62</ele>
        <time>2010-08-01T08:34:10Z</time>
      </trkpt>
      <trkpt lat="48.10011" lon="-1.37433">
        <ele>63</ele>
        <time>2010-08-01T08:34:12Z</time>
      </trkpt>
      <trkpt lat="48.10004" lon="-1.37431">
        <ele>63</ele>
        <time>2010-08-01T08:34:14Z</time>
      </trkpt>
      <trkpt lat="48.09998" lon="-1.37429">
        <ele>64</ele>
        <time>2010-08-01T08:34:16Z</time>
      </trkpt>
      <trkpt lat="48.09991" lon="-1.37427">
        <ele>64</ele>
        <time>2010-08-01T08:34:18Z</time>
      </trkpt>
      <trkpt lat="48.09984" lon="-1.37427">
        <ele>65</ele>
        <time>2010-08-01T08:34:20Z</time>
      </trkpt>
      <trkpt lat="48.09978" lon="-1.37425">
        <ele>66</ele>
        <time>2010-08-01T08:34:22Z</time>
      </trkpt>
      <trkpt lat="48.09971" lon="-1.37424">
        <ele>66</ele>
        <time>2010-08-01T08:34:24Z</time>
      </trkpt>
      <trkpt lat="48.09964" lon="-1.37422">
        <ele>67</ele>
        <time>2010-08-01T08:34:26Z</time>
      </trkpt>
      <trkpt lat="48.09957" lon="-1.3742">
        <ele>67</ele>
        <time>2010-08-01T08:34:28Z</time>
      </trkpt>
      <trkpt lat="48.09951" lon="-1.37419">
        <ele>68</ele>
        <time>2010-08-01T08:34:30Z</time>
      </trkpt>
      <trkpt lat="48.09944" lon="-1.37418">
        <ele>68</ele>
        <time>2010-08-01T08:34:32Z</time>
      </trkpt>
      <trkpt lat="48.09937" lon="-1.37416">
        <ele>69</ele>
        <time>2010-08-01T08:34:34Z</time>
      </trkpt>
      <trkpt lat="48.0993" lon="-1.37415">
        <ele>69</ele>
        <time>2010-08-01T08:34:36Z</time>
      </trkpt>
      <trkpt lat="48.09926" lon="-1.37414">
        <ele>69</ele>
        <time>2010-08-01T08:34:37Z</time>
      </trkpt>
      <trkpt lat="48.09919" lon="-1.37412">
        <ele>70</ele>
        <time>2010-08-01T08:34:39Z</time>
      </trkpt>
      <trkpt lat="48.09912" lon="-1.3741">
        <ele>70</ele>
        <time>2010-08-01T08:34:41Z</time>
      </trkpt>
      <trkpt lat="48.09905" lon="-1.37409">
        <ele>71</ele>
        <time>2010-08-01T08:34:43Z</time>
      </trkpt>
      <trkpt lat="48.09898" lon="-1.37407">
        <ele>71</ele>
        <time>2010-08-01T08:34:45Z</time>
      </trkpt>
      <trkpt lat="48.09889" lon="-1.37405">
        <ele>71</ele>
        <time>2010-08-01T08:34:47Z</time>
      </trkpt>
      <trkpt lat="48.09881" lon="-1.37401">
        <ele>71</ele>
        <time>2010-08-01T08:34:49Z</time>
      </trkpt>
      <trkpt lat="48.09873" lon="-1.37399">
        <ele>72</ele>
        <time>2010-08-01T08:34:51Z</time>
      </trkpt>
      <trkpt lat="48.09866" lon="-1.374">
        <ele>72</ele>
        <time>2010-08-01T08:34:53Z</time>
      </trkpt>
      <trkpt lat="48.09863" lon="-1.37401">
        <ele>72</ele>
        <time>2010-08-01T08:34:54Z</time>
      </trkpt>
      <trkpt lat="48.09855" lon="-1.374">
        <ele>72</ele>
        <time>2010-08-01T08:34:56Z</time>
      </trkpt>
      <trkpt lat="48.09846" lon="-1.37397">
        <ele>72</ele>
        <time>2010-08-01T08:34:58Z</time>
      </trkpt>
      <trkpt lat="48.09837" lon="-1.37394">
        <ele>72</ele>
        <time>2010-08-01T08:35:00Z</time>
      </trkpt>
      <trkpt lat="48.09826" lon="-1.37391">
        <ele>73</ele>
        <time>2010-08-01T08:35:02Z</time>
      </trkpt>
      <trkpt lat="48.09794" lon="-1.37382">
        <ele>73</ele>
        <time>2010-08-01T08:35:09Z</time>
      </trkpt>
      <trkpt lat="48.09747" lon="-1.37372">
        <ele>72</ele>
        <time>2010-08-01T08:35:18Z</time>
      </trkpt>
      <trkpt lat="48.09696" lon="-1.3736">
        <ele>70</ele>
        <time>2010-08-01T08:35:27Z</time>
      </trkpt>
      <trkpt lat="48.0967" lon="-1.37354">
        <ele>69</ele>
        <time>2010-08-01T08:35:31Z</time>
      </trkpt>
      <trkpt lat="48.09657" lon="-1.37351">
        <ele>69</ele>
        <time>2010-08-01T08:35:33Z</time>
      </trkpt>
      <trkpt lat="48.09644" lon="-1.37348">
        <ele>69</ele>
        <time>2010-08-01T08:35:35Z</time>
      </trkpt>
      <trkpt lat="48.09631" lon="-1.37344">
        <ele>68</ele>
        <time>2010-08-01T08:35:37Z</time>
      </trkpt>
      <trkpt lat="48.09626" lon="-1.37341">
        <ele>68</ele>
        <time>2010-08-01T08:35:38Z</time>
      </trkpt>
      <trkpt lat="48.09621" lon="-1.37336">
        <ele>68</ele>
        <time>2010-08-01T08:35:39Z</time>
      </trkpt>
      <trkpt lat="48.09615" lon="-1.37313">
        <ele>67</ele>
        <time>2010-08-01T08:35:42Z</time>
      </trkpt>
      <trkpt lat="48.09616" lon="-1.37305">
        <ele>67</ele>
        <time>2010-08-01T08:35:43Z</time>
      </trkpt>
      <trkpt lat="48.09618" lon="-1.37295">
        <ele>66</ele>
        <time>2010-08-01T08:35:44Z</time>
      </trkpt>
      <trkpt lat="48.0962" lon="-1.37286">
        <ele>66</ele>
        <time>2010-08-01T08:35:45Z</time>
      </trkpt>
      <trkpt lat="48.09624" lon="-1.37277">
        <ele>66</ele>
        <time>2010-08-01T08:35:46Z</time>
      </trkpt>
      <trkpt lat="48.09633" lon="-1.37264">
        <ele>66</ele>
        <time>2010-08-01T08:35:48Z</time>
      </trkpt>
      <trkpt lat="48.09643" lon="-1.37254">
        <ele>66</ele>
        <time>2010-08-01T08:35:50Z</time>
      </trkpt>
      <trkpt lat="48.09652" lon="-1.37244">
        <ele>66</ele>
        <time>2010-08-01T08:35:52Z</time>
      </trkpt>
      <trkpt lat="48.09657" lon="-1.3724">
        <ele>66</ele>
        <time>2010-08-01T08:35:53Z</time>
      </trkpt>
      <trkpt lat="48.09661" lon="-1.37237">
        <ele>66</ele>
        <time>2010-08-01T08:35:54Z</time>
      </trkpt>
      <trkpt lat="48.09668" lon="-1.3723">
        <ele>66</ele>
        <time>2010-08-01T08:35:56Z</time>
      </trkpt>
      <trkpt lat="48.0967" lon="-1.37225">
        <ele>66</ele>
        <time>2010-08-01T08:35:57Z</time>
      </trkpt>
      <trkpt lat="48.09672" lon="-1.37207">
        <ele>65</ele>
        <time>2010-08-01T08:36:00Z</time>
      </trkpt>
      <trkpt lat="48.09669" lon="-1.37187">
        <ele>63</ele>
        <time>2010-08-01T08:36:04Z</time>
      </trkpt>
      <trkpt lat="48.09678" lon="-1.37178">
        <ele>63</ele>
        <time>2010-08-01T08:36:07Z</time>
      </trkpt>
      <trkpt lat="48.09687" lon="-1.37176">
        <ele>63</ele>
        <time>2010-08-01T08:36:09Z</time>
      </trkpt>
      <trkpt lat="48.09693" lon="-1.37167">
        <ele>63</ele>
        <time>2010-08-01T08:36:11Z</time>
      </trkpt>
      <trkpt lat="48.09695" lon="-1.3715">
        <ele>63</ele>
        <time>2010-08-01T08:36:13Z</time>
      </trkpt>
      <trkpt lat="48.09696" lon="-1.37142">
        <ele>63</ele>
        <time>2010-08-01T08:36:14Z</time>
      </trkpt>
      <trkpt lat="48.09697" lon="-1.37136">
        <ele>63</ele>
        <time>2010-08-01T08:36:15Z</time>
      </trkpt>
      <trkpt lat="48.09701" lon="-1.37118">
        <ele>63</ele>
        <time>2010-08-01T08:36:19Z</time>
      </trkpt>
      <trkpt lat="48.09706" lon="-1.37107">
        <ele>63</ele>
        <time>2010-08-01T08:36:23Z</time>
      </trkpt>
      <trkpt lat="48.09706" lon="-1.37105">
        <ele>63</ele>
        <time>2010-08-01T08:36:24Z</time>
      </trkpt>
      <trkpt lat="48.09705" lon="-1.37102">
        <ele>64</ele>
        <time>2010-08-01T08:36:27Z</time>
      </trkpt>
      <trkpt lat="48.09703" lon="-1.37102">
        <ele>64</ele>
        <time>2010-08-01T08:36:28Z</time>
      </trkpt>
      <trkpt lat="48.09698" lon="-1.37104">
        <ele>64</ele>
        <time>2010-08-01T08:36:30Z</time>
      </trkpt>
      <trkpt lat="48.09695" lon="-1.37099">
        <ele>65</ele>
        <time>2010-08-01T08:36:33Z</time>
      </trkpt>
      <trkpt lat="48.09697" lon="-1.37091">
        <ele>66</ele>
        <time>2010-08-01T08:36:35Z</time>
      </trkpt>
      <trkpt lat="48.09698" lon="-1.37087">
        <ele>66</ele>
        <time>2010-08-01T08:36:36Z</time>
      </trkpt>
      <trkpt lat="48.09696" lon="-1.37077">
        <ele>68</ele>
        <time>2010-08-01T08:36:39Z</time>
      </trkpt>
      <trkpt lat="48.09695" lon="-1.37071">
        <ele>68</ele>
        <time>2010-08-01T08:36:41Z</time>
      </trkpt>
      <trkpt lat="48.09693" lon="-1.37065">
        <ele>69</ele>
        <time>2010-08-01T08:36:43Z</time>
      </trkpt>
      <trkpt lat="48.09693" lon="-1.37062">
        <ele>70</ele>
        <time>2010-08-01T08:36:44Z</time>
      </trkpt>
      <trkpt lat="48.09691" lon="-1.37056">
        <ele>70</ele>
        <time>2010-08-01T08:36:46Z</time>
      </trkpt>
      <trkpt lat="48.09691" lon="-1.37054">
        <ele>71</ele>
        <time>2010-08-01T08:36:47Z</time>
      </trkpt>
      <trkpt lat="48.09692" lon="-1.37052">
        <ele>71</ele>
        <time>2010-08-01T08:36:48Z</time>
      </trkpt>
      <trkpt lat="48.09693" lon="-1.37044">
        <ele>72</ele>
        <time>2010-08-01T08:36:50Z</time>
      </trkpt>
      <trkpt lat="48.09693" lon="-1.3704">
        <ele>72</ele>
        <time>2010-08-01T08:36:51Z</time>
      </trkpt>
      <trkpt lat="48.09692" lon="-1.37035">
        <ele>72</ele>
        <time>2010-08-01T08:36:52Z</time>
      </trkpt>
      <trkpt lat="48.09692" lon="-1.37022">
        <ele>73</ele>
        <time>2010-08-01T08:36:55Z</time>
      </trkpt>
      <trkpt lat="48.09692" lon="-1.37015">
        <ele>74</ele>
        <time>2010-08-01T08:36:57Z</time>
      </trkpt>
      <trkpt lat="48.09691" lon="-1.37007">
        <ele>74</ele>
        <time>2010-08-01T08:36:59Z</time>
      </trkpt>
      <trkpt lat="48.09689" lon="-1.37">
        <ele>75</ele>
        <time>2010-08-01T08:37:01Z</time>
      </trkpt>
      <trkpt lat="48.09687" lon="-1.36992">
        <ele>75</ele>
        <time>2010-08-01T08:37:03Z</time>
      </trkpt>
      <trkpt lat="48.09686" lon="-1.36988">
        <ele>75</ele>
        <time>2010-08-01T08:37:04Z</time>
      </trkpt>
      <trkpt lat="48.09683" lon="-1.36978">
        <ele>76</ele>
        <time>2010-08-01T08:37:06Z</time>
      </trkpt>
      <trkpt lat="48.09681" lon="-1.36969">
        <ele>76</ele>
        <time>2010-08-01T08:37:08Z</time>
      </trkpt>
      <trkpt lat="48.09679" lon="-1.36959">
        <ele>76</ele>
        <time>2010-08-01T08:37:10Z</time>
      </trkpt>
      <trkpt lat="48.09679" lon="-1.36957">
        <ele>77</ele>
        <time>2010-08-01T08:37:11Z</time>
      </trkpt>
      <trkpt lat="48.09668" lon="-1.36947">
        <ele>77</ele>
        <time>2010-08-01T08:37:15Z</time>
      </trkpt>
      <trkpt lat="48.09664" lon="-1.3695">
        <ele>76</ele>
        <time>2010-08-01T08:37:16Z</time>
      </trkpt>
      <trkpt lat="48.09654" lon="-1.36964">
        <ele>76</ele>
        <time>2010-08-01T08:37:19Z</time>
      </trkpt>
      <trkpt lat="48.09628" lon="-1.36987">
        <ele>74</ele>
        <time>2010-08-01T08:37:25Z</time>
      </trkpt>
      <trkpt lat="48.09588" lon="-1.37028">
        <ele>70</ele>
        <time>2010-08-01T08:37:33Z</time>
      </trkpt>
      <trkpt lat="48.09577" lon="-1.37035">
        <ele>69</ele>
        <time>2010-08-01T08:37:35Z</time>
      </trkpt>
      <trkpt lat="48.09571" lon="-1.37035">
        <ele>69</ele>
        <time>2010-08-01T08:37:36Z</time>
      </trkpt>
      <trkpt lat="48.09564" lon="-1.37041">
        <ele>68</ele>
        <time>2010-08-01T08:37:39Z</time>
      </trkpt>
      <trkpt lat="48.09567" lon="-1.37047">
        <ele>68</ele>
        <time>2010-08-01T08:37:40Z</time>
      </trkpt>
      <trkpt lat="48.09572" lon="-1.37054">
        <ele>68</ele>
        <time>2010-08-01T08:37:41Z</time>
      </trkpt>
      <trkpt lat="48.09587" lon="-1.37072">
        <ele>66</ele>
        <time>2010-08-01T08:37:44Z</time>
      </trkpt>
      <trkpt lat="48.09589" lon="-1.37076">
        <ele>66</ele>
        <time>2010-08-01T08:37:45Z</time>
      </trkpt>
      <trkpt lat="48.09588" lon="-1.3708">
        <ele>65</ele>
        <time>2010-08-01T08:37:46Z</time>
      </trkpt>
      <trkpt lat="48.09583" lon="-1.37086">
        <ele>65</ele>
        <time>2010-08-01T08:37:48Z</time>
      </trkpt>
      <trkpt lat="48.09581" lon="-1.37086">
        <ele>65</ele>
        <time>2010-08-01T08:37:49Z</time>
      </trkpt>
      <trkpt lat="48.09576" lon="-1.37088">
        <ele>65</ele>
        <time>2010-08-01T08:37:51Z</time>
      </trkpt>
      <trkpt lat="48.09571" lon="-1.37097">
        <ele>64</ele>
        <time>2010-08-01T08:37:53Z</time>
      </trkpt>
      <trkpt lat="48.09568" lon="-1.37104">
        <ele>64</ele>
        <time>2010-08-01T08:37:54Z</time>
      </trkpt>
      <trkpt lat="48.09566" lon="-1.37111">
        <ele>65</ele>
        <time>2010-08-01T08:37:55Z</time>
      </trkpt>
      <trkpt lat="48.09561" lon="-1.37121">
        <ele>65</ele>
        <time>2010-08-01T08:37:57Z</time>
      </trkpt>
    </trkseg>
  </trk>
</gpx>